<?xml version="1.0" encoding="UTF-8" standalone="no" ?>
<gpx xmlns="http://www.topografix.com/GPX/1/1" xmlns:xsi="http://www.w3.org/2001/XMLSchema-instance" xsi:schemaLocation="http://www.topografix.com/GPX/1/1 http://www.topografix.com/GPX/1/1/gpx.xsd" version="1.1" creator="VisuGPX - https://www.visugpx.com">
  <metadata>
    <name>Connaux Le pont du Gard Gaujac VTT</name>
  </metadata>
  <trk>
    <name><![CDATA[Connaux Le pont du Gard Gaujac VTT]]></name>
    <trkseg>
      <trkpt lat="44.07363" lon="4.59292">
        <ele>107.56703233928</ele>
        <time>2021-04-05T16:29:04.000Z</time>
      </trkpt>
      <trkpt lat="44.07312" lon="4.59316">
        <ele>107.56541866498</ele>
        <time>2021-04-05T16:29:04.016Z</time>
      </trkpt>
      <trkpt lat="44.07293" lon="4.59321">
        <ele>107.61440480108</ele>
        <time>2021-04-05T16:29:04.038Z</time>
      </trkpt>
      <trkpt lat="44.07238" lon="4.59325">
        <ele>107.90637421342</ele>
        <time>2021-04-05T16:29:04.076Z</time>
      </trkpt>
      <trkpt lat="44.07213" lon="4.59332">
        <ele>108.05793768298</ele>
        <time>2021-04-05T16:29:04.122Z</time>
      </trkpt>
      <trkpt lat="44.07159" lon="4.59343">
        <ele>108.4168293192</ele>
        <time>2021-04-05T16:29:04.184Z</time>
      </trkpt>
      <trkpt lat="44.07105" lon="4.59354">
        <ele>109.38402393777</ele>
        <time>2021-04-05T16:29:04.263Z</time>
      </trkpt>
      <trkpt lat="44.07054" lon="4.59381">
        <ele>110.36239724998</ele>
        <time>2021-04-05T16:29:04.358Z</time>
      </trkpt>
      <trkpt lat="44.07033" lon="4.59405">
        <ele>110.89850396044</ele>
        <time>2021-04-05T16:29:04.461Z</time>
      </trkpt>
      <trkpt lat="44.0703" lon="4.59409">
        <ele>111.38199561249</ele>
        <time>2021-04-05T16:29:04.565Z</time>
      </trkpt>
      <trkpt lat="44.07026" lon="4.59413">
        <ele>111.76498881852</ele>
        <time>2021-04-05T16:29:04.671Z</time>
      </trkpt>
      <trkpt lat="44.0702" lon="4.59421">
        <ele>112.01268106536</ele>
        <time>2021-04-05T16:29:04.779Z</time>
      </trkpt>
      <trkpt lat="44.07009" lon="4.5943">
        <ele>112.17360627532</ele>
        <time>2021-04-05T16:29:04.891Z</time>
      </trkpt>
      <trkpt lat="44.06997" lon="4.59436">
        <ele>112.34202352377</ele>
        <time>2021-04-05T16:29:05.007Z</time>
      </trkpt>
      <trkpt lat="44.06988" lon="4.59439">
        <ele>112.563140991</ele>
        <time>2021-04-05T16:29:05.126Z</time>
      </trkpt>
      <trkpt lat="44.06984" lon="4.5944">
        <ele>112.83594453566</ele>
        <time>2021-04-05T16:29:05.246Z</time>
      </trkpt>
      <trkpt lat="44.0698" lon="4.59441">
        <ele>113.17216809511</ele>
        <time>2021-04-05T16:29:05.367Z</time>
      </trkpt>
      <trkpt lat="44.06976" lon="4.59441">
        <ele>113.58364012297</ele>
        <time>2021-04-05T16:29:05.489Z</time>
      </trkpt>
      <trkpt lat="44.06972" lon="4.5944">
        <ele>114.0781003599</ele>
        <time>2021-04-05T16:29:05.613Z</time>
      </trkpt>
      <trkpt lat="44.06962" lon="4.59439">
        <ele>114.65604923636</ele>
        <time>2021-04-05T16:29:05.739Z</time>
      </trkpt>
      <trkpt lat="44.06953" lon="4.59442">
        <ele>115.3560081687</ele>
        <time>2021-04-05T16:29:05.868Z</time>
      </trkpt>
      <trkpt lat="44.06948" lon="4.59444">
        <ele>116.13975676886</ele>
        <time>2021-04-05T16:29:05.999Z</time>
      </trkpt>
      <trkpt lat="44.06939" lon="4.59447">
        <ele>117.03241757802</ele>
        <time>2021-04-05T16:29:06.133Z</time>
      </trkpt>
      <trkpt lat="44.0693" lon="4.5945">
        <ele>118.01854400351</ele>
        <time>2021-04-05T16:29:06.269Z</time>
      </trkpt>
      <trkpt lat="44.06922" lon="4.59454">
        <ele>119.08441717868</ele>
        <time>2021-04-05T16:29:06.408Z</time>
      </trkpt>
      <trkpt lat="44.06907" lon="4.59462">
        <ele>120.26273218734</ele>
        <time>2021-04-05T16:29:06.552Z</time>
      </trkpt>
      <trkpt lat="44.06866" lon="4.59488">
        <ele>121.71447783883</ele>
        <time>2021-04-05T16:29:06.709Z</time>
      </trkpt>
      <trkpt lat="44.06843" lon="4.595">
        <ele>123.24144428775</ele>
        <time>2021-04-05T16:29:06.873Z</time>
      </trkpt>
      <trkpt lat="44.06808" lon="4.59514">
        <ele>124.8612497202</ele>
        <time>2021-04-05T16:29:07.048Z</time>
      </trkpt>
      <trkpt lat="44.06792" lon="4.59513">
        <ele>126.3986689624</ele>
        <time>2021-04-05T16:29:07.228Z</time>
      </trkpt>
      <trkpt lat="44.06738" lon="4.59499">
        <ele>128.22081262361</ele>
        <time>2021-04-05T16:29:07.425Z</time>
      </trkpt>
      <trkpt lat="44.06706" lon="4.59446">
        <ele>129.81298438433</ele>
        <time>2021-04-05T16:29:07.636Z</time>
      </trkpt>
      <trkpt lat="44.06666" lon="4.59396">
        <ele>131.28582300401</ele>
        <time>2021-04-05T16:29:07.864Z</time>
      </trkpt>
      <trkpt lat="44.06653" lon="4.59325">
        <ele>132.81022202513</ele>
        <time>2021-04-05T16:29:08.107Z</time>
      </trkpt>
      <trkpt lat="44.06651" lon="4.59276">
        <ele>134.1261297148</ele>
        <time>2021-04-05T16:29:08.361Z</time>
      </trkpt>
      <trkpt lat="44.0665" lon="4.59271">
        <ele>135.31005820165</ele>
        <time>2021-04-05T16:29:08.616Z</time>
      </trkpt>
      <trkpt lat="44.06647" lon="4.59263">
        <ele>136.38326065305</ele>
        <time>2021-04-05T16:29:08.873Z</time>
      </trkpt>
      <trkpt lat="44.06646" lon="4.59259">
        <ele>137.33975798006</ele>
        <time>2021-04-05T16:29:09.131Z</time>
      </trkpt>
      <trkpt lat="44.06642" lon="4.59251">
        <ele>138.18783560731</ele>
        <time>2021-04-05T16:29:09.391Z</time>
      </trkpt>
      <trkpt lat="44.0664" lon="4.59246">
        <ele>138.93193073394</ele>
        <time>2021-04-05T16:29:09.652Z</time>
      </trkpt>
      <trkpt lat="44.06612" lon="4.59199">
        <ele>139.57978912206</ele>
        <time>2021-04-05T16:29:09.926Z</time>
      </trkpt>
      <trkpt lat="44.06561" lon="4.59164">
        <ele>140.32799615974</ele>
        <time>2021-04-05T16:29:10.217Z</time>
      </trkpt>
      <trkpt lat="44.0653" lon="4.59179">
        <ele>140.8558252051</ele>
        <time>2021-04-05T16:29:10.518Z</time>
      </trkpt>
      <trkpt lat="44.06524" lon="4.59221">
        <ele>141.37289713594</ele>
        <time>2021-04-05T16:29:10.828Z</time>
      </trkpt>
      <trkpt lat="44.06567" lon="4.59268">
        <ele>141.87662115014</ele>
        <time>2021-04-05T16:29:11.155Z</time>
      </trkpt>
      <trkpt lat="44.06573" lon="4.59281">
        <ele>142.30907794377</ele>
        <time>2021-04-05T16:29:11.485Z</time>
      </trkpt>
      <trkpt lat="44.06574" lon="4.59286">
        <ele>142.68716689944</ele>
        <time>2021-04-05T16:29:11.816Z</time>
      </trkpt>
      <trkpt lat="44.06575" lon="4.59291">
        <ele>143.03212888339</ele>
        <time>2021-04-05T16:29:12.148Z</time>
      </trkpt>
      <trkpt lat="44.0657" lon="4.59312">
        <ele>143.37067877578</ele>
        <time>2021-04-05T16:29:12.485Z</time>
      </trkpt>
      <trkpt lat="44.06546" lon="4.59352">
        <ele>143.93355319556</ele>
        <time>2021-04-05T16:29:12.833Z</time>
      </trkpt>
      <trkpt lat="44.06542" lon="4.5936">
        <ele>144.37910459451</ele>
        <time>2021-04-05T16:29:13.183Z</time>
      </trkpt>
      <trkpt lat="44.0654" lon="4.59365">
        <ele>144.7497204069</ele>
        <time>2021-04-05T16:29:13.535Z</time>
      </trkpt>
      <trkpt lat="44.06538" lon="4.59369">
        <ele>145.11419668911</ele>
        <time>2021-04-05T16:29:13.888Z</time>
      </trkpt>
      <trkpt lat="44.06534" lon="4.59378">
        <ele>145.49676810318</ele>
        <time>2021-04-05T16:29:14.243Z</time>
      </trkpt>
      <trkpt lat="44.065" lon="4.59423">
        <ele>145.67873231286</ele>
        <time>2021-04-05T16:29:14.612Z</time>
      </trkpt>
      <trkpt lat="44.06492" lon="4.59434">
        <ele>145.91495335868</ele>
        <time>2021-04-05T16:29:14.984Z</time>
      </trkpt>
      <trkpt lat="44.06484" lon="4.59445">
        <ele>146.18157271955</ele>
        <time>2021-04-05T16:29:15.360Z</time>
      </trkpt>
      <trkpt lat="44.06478" lon="4.59452">
        <ele>146.44541679667</ele>
        <time>2021-04-05T16:29:15.738Z</time>
      </trkpt>
      <trkpt lat="44.06476" lon="4.59456">
        <ele>146.72266049829</ele>
        <time>2021-04-05T16:29:16.117Z</time>
      </trkpt>
      <trkpt lat="44.06473" lon="4.59459">
        <ele>147.00707659082</ele>
        <time>2021-04-05T16:29:16.497Z</time>
      </trkpt>
      <trkpt lat="44.06471" lon="4.59463">
        <ele>147.27668061355</ele>
        <time>2021-04-05T16:29:16.878Z</time>
      </trkpt>
      <trkpt lat="44.06444" lon="4.59497">
        <ele>147.59829896523</ele>
        <time>2021-04-05T16:29:17.270Z</time>
      </trkpt>
      <trkpt lat="44.06441" lon="4.59499">
        <ele>147.86308388234</ele>
        <time>2021-04-05T16:29:17.663Z</time>
      </trkpt>
      <trkpt lat="44.06434" lon="4.59501">
        <ele>148.10751718775</ele>
        <time>2021-04-05T16:29:18.058Z</time>
      </trkpt>
      <trkpt lat="44.06431" lon="4.59502">
        <ele>148.4009669565</ele>
        <time>2021-04-05T16:29:18.454Z</time>
      </trkpt>
      <trkpt lat="44.06386" lon="4.59507">
        <ele>148.83562219649</ele>
        <time>2021-04-05T16:29:18.864Z</time>
      </trkpt>
      <trkpt lat="44.06372" lon="4.59509">
        <ele>149.21509095836</ele>
        <time>2021-04-05T16:29:19.278Z</time>
      </trkpt>
      <trkpt lat="44.06361" lon="4.59509">
        <ele>149.58775206988</ele>
        <time>2021-04-05T16:29:19.695Z</time>
      </trkpt>
      <trkpt lat="44.0634" lon="4.59505">
        <ele>150.0003223981</ele>
        <time>2021-04-05T16:29:20.118Z</time>
      </trkpt>
      <trkpt lat="44.06334" lon="4.59504">
        <ele>150.42698212158</ele>
        <time>2021-04-05T16:29:20.543Z</time>
      </trkpt>
      <trkpt lat="44.0629" lon="4.59484">
        <ele>150.95646136028</ele>
        <time>2021-04-05T16:29:20.982Z</time>
      </trkpt>
      <trkpt lat="44.06279" lon="4.59476">
        <ele>151.44211677059</ele>
        <time>2021-04-05T16:29:21.425Z</time>
      </trkpt>
      <trkpt lat="44.06263" lon="4.59461">
        <ele>151.95429918388</ele>
        <time>2021-04-05T16:29:21.873Z</time>
      </trkpt>
      <trkpt lat="44.06251" lon="4.59449">
        <ele>152.40135549371</ele>
        <time>2021-04-05T16:29:22.326Z</time>
      </trkpt>
      <trkpt lat="44.06237" lon="4.5943">
        <ele>152.79909491111</ele>
        <time>2021-04-05T16:29:22.785Z</time>
      </trkpt>
      <trkpt lat="44.0623" lon="4.59407">
        <ele>153.18906430848</ele>
        <time>2021-04-05T16:29:23.249Z</time>
      </trkpt>
      <trkpt lat="44.06234" lon="4.59354">
        <ele>153.57954851403</ele>
        <time>2021-04-05T16:29:23.725Z</time>
      </trkpt>
      <trkpt lat="44.06251" lon="4.59292">
        <ele>154.32202597269</ele>
        <time>2021-04-05T16:29:24.215Z</time>
      </trkpt>
      <trkpt lat="44.06266" lon="4.59217">
        <ele>155.00150964612</ele>
        <time>2021-04-05T16:29:24.722Z</time>
      </trkpt>
      <trkpt lat="44.06264" lon="4.59141">
        <ele>155.32554345976</ele>
        <time>2021-04-05T16:29:25.245Z</time>
      </trkpt>
      <trkpt lat="44.06265" lon="4.59111">
        <ele>155.85410954058</ele>
        <time>2021-04-05T16:29:25.775Z</time>
      </trkpt>
      <trkpt lat="44.06273" lon="4.5906">
        <ele>156.47715658787</ele>
        <time>2021-04-05T16:29:26.316Z</time>
      </trkpt>
      <trkpt lat="44.06256" lon="4.58985">
        <ele>156.66858387031</ele>
        <time>2021-04-05T16:29:26.874Z</time>
      </trkpt>
      <trkpt lat="44.06238" lon="4.58935">
        <ele>157.24006511066</ele>
        <time>2021-04-05T16:29:27.444Z</time>
      </trkpt>
      <trkpt lat="44.06211" lon="4.58868">
        <ele>157.88369016599</ele>
        <time>2021-04-05T16:29:28.030Z</time>
      </trkpt>
      <trkpt lat="44.06161" lon="4.58833">
        <ele>158.25223950346</ele>
        <time>2021-04-05T16:29:28.633Z</time>
      </trkpt>
      <trkpt lat="44.06117" lon="4.58812">
        <ele>158.6675092545</ele>
        <time>2021-04-05T16:29:29.250Z</time>
      </trkpt>
      <trkpt lat="44.06112" lon="4.5881">
        <ele>158.99119953288</ele>
        <time>2021-04-05T16:29:29.868Z</time>
      </trkpt>
      <trkpt lat="44.06108" lon="4.58808">
        <ele>159.2766593521</ele>
        <time>2021-04-05T16:29:30.488Z</time>
      </trkpt>
      <trkpt lat="44.061" lon="4.58803">
        <ele>159.54161131098</ele>
        <time>2021-04-05T16:29:31.110Z</time>
      </trkpt>
      <trkpt lat="44.06092" lon="4.58797">
        <ele>159.75487175809</ele>
        <time>2021-04-05T16:29:31.735Z</time>
      </trkpt>
      <trkpt lat="44.06089" lon="4.58794">
        <ele>159.93460016943</ele>
        <time>2021-04-05T16:29:32.361Z</time>
      </trkpt>
      <trkpt lat="44.06081" lon="4.58789">
        <ele>160.07124668762</ele>
        <time>2021-04-05T16:29:32.990Z</time>
      </trkpt>
      <trkpt lat="44.06077" lon="4.58786">
        <ele>160.18264923516</ele>
        <time>2021-04-05T16:29:33.620Z</time>
      </trkpt>
      <trkpt lat="44.06072" lon="4.58783">
        <ele>160.27322703319</ele>
        <time>2021-04-05T16:29:34.252Z</time>
      </trkpt>
      <trkpt lat="44.06068" lon="4.58781">
        <ele>160.3312834054</ele>
        <time>2021-04-05T16:29:34.885Z</time>
      </trkpt>
      <trkpt lat="44.06061" lon="4.58775">
        <ele>160.38391630446</ele>
        <time>2021-04-05T16:29:35.521Z</time>
      </trkpt>
      <trkpt lat="44.06012" lon="4.58737">
        <ele>160.52743363066</ele>
        <time>2021-04-05T16:29:36.173Z</time>
      </trkpt>
      <trkpt lat="44.05997" lon="4.58728">
        <ele>160.53422274579</ele>
        <time>2021-04-05T16:29:36.830Z</time>
      </trkpt>
      <trkpt lat="44.05986" lon="4.58722">
        <ele>160.54331889973</ele>
        <time>2021-04-05T16:29:37.491Z</time>
      </trkpt>
      <trkpt lat="44.05956" lon="4.58716">
        <ele>160.56550120982</ele>
        <time>2021-04-05T16:29:38.161Z</time>
      </trkpt>
      <trkpt lat="44.05927" lon="4.5872">
        <ele>160.55941985791</ele>
        <time>2021-04-05T16:29:38.839Z</time>
      </trkpt>
      <trkpt lat="44.05914" lon="4.58726">
        <ele>160.48739214915</ele>
        <time>2021-04-05T16:29:39.522Z</time>
      </trkpt>
      <trkpt lat="44.05905" lon="4.58732">
        <ele>160.46414959025</ele>
        <time>2021-04-05T16:29:40.207Z</time>
      </trkpt>
      <trkpt lat="44.05879" lon="4.58773">
        <ele>160.32269244617</ele>
        <time>2021-04-05T16:29:40.904Z</time>
      </trkpt>
      <trkpt lat="44.05875" lon="4.58779">
        <ele>160.31886463811</ele>
        <time>2021-04-05T16:29:41.603Z</time>
      </trkpt>
      <trkpt lat="44.05872" lon="4.58784">
        <ele>160.40065711407</ele>
        <time>2021-04-05T16:29:42.303Z</time>
      </trkpt>
      <trkpt lat="44.05864" lon="4.58793">
        <ele>160.57877372491</ele>
        <time>2021-04-05T16:29:43.006Z</time>
      </trkpt>
      <trkpt lat="44.05854" lon="4.58797">
        <ele>160.70024165288</ele>
        <time>2021-04-05T16:29:43.712Z</time>
      </trkpt>
      <trkpt lat="44.05811" lon="4.58795">
        <ele>160.84216763815</ele>
        <time>2021-04-05T16:29:44.431Z</time>
      </trkpt>
      <trkpt lat="44.05777" lon="4.58791">
        <ele>161.17730070553</ele>
        <time>2021-04-05T16:29:45.161Z</time>
      </trkpt>
      <trkpt lat="44.05768" lon="4.5879">
        <ele>161.47713880601</ele>
        <time>2021-04-05T16:29:45.893Z</time>
      </trkpt>
      <trkpt lat="44.05712" lon="4.5878">
        <ele>161.63537288555</ele>
        <time>2021-04-05T16:29:46.642Z</time>
      </trkpt>
      <trkpt lat="44.05661" lon="4.5877">
        <ele>161.95342964406</ele>
        <time>2021-04-05T16:29:47.407Z</time>
      </trkpt>
      <trkpt lat="44.05615" lon="4.58756">
        <ele>162.4605632148</ele>
        <time>2021-04-05T16:29:48.186Z</time>
      </trkpt>
      <trkpt lat="44.05586" lon="4.58748">
        <ele>162.90620840743</ele>
        <time>2021-04-05T16:29:48.973Z</time>
      </trkpt>
      <trkpt lat="44.05536" lon="4.58764">
        <ele>163.49346086866</ele>
        <time>2021-04-05T16:29:49.776Z</time>
      </trkpt>
      <trkpt lat="44.05485" lon="4.58799">
        <ele>164.14073523267</ele>
        <time>2021-04-05T16:29:50.596Z</time>
      </trkpt>
      <trkpt lat="44.05431" lon="4.5882">
        <ele>164.50502495561</ele>
        <time>2021-04-05T16:29:51.432Z</time>
      </trkpt>
      <trkpt lat="44.05376" lon="4.58834">
        <ele>164.88425495824</ele>
        <time>2021-04-05T16:29:52.285Z</time>
      </trkpt>
      <trkpt lat="44.05351" lon="4.58842">
        <ele>165.35686016028</ele>
        <time>2021-04-05T16:29:53.146Z</time>
      </trkpt>
      <trkpt lat="44.05344" lon="4.58849">
        <ele>165.87082441076</ele>
        <time>2021-04-05T16:29:54.009Z</time>
      </trkpt>
      <trkpt lat="44.05339" lon="4.58859">
        <ele>166.39340477208</ele>
        <time>2021-04-05T16:29:54.875Z</time>
      </trkpt>
      <trkpt lat="44.05336" lon="4.58871">
        <ele>166.91418061809</ele>
        <time>2021-04-05T16:29:55.744Z</time>
      </trkpt>
      <trkpt lat="44.05329" lon="4.58948">
        <ele>167.55946036047</ele>
        <time>2021-04-05T16:29:56.629Z</time>
      </trkpt>
      <trkpt lat="44.05326" lon="4.58978">
        <ele>168.04921372192</ele>
        <time>2021-04-05T16:29:57.521Z</time>
      </trkpt>
      <trkpt lat="44.05326" lon="4.59021">
        <ele>168.66077253476</ele>
        <time>2021-04-05T16:29:58.422Z</time>
      </trkpt>
      <trkpt lat="44.05326" lon="4.59027">
        <ele>169.15939773582</ele>
        <time>2021-04-05T16:29:59.325Z</time>
      </trkpt>
      <trkpt lat="44.05324" lon="4.59064">
        <ele>169.74451444633</ele>
        <time>2021-04-05T16:30:00.235Z</time>
      </trkpt>
      <trkpt lat="44.05315" lon="4.59091">
        <ele>170.21890246194</ele>
        <time>2021-04-05T16:30:01.152Z</time>
      </trkpt>
      <trkpt lat="44.05313" lon="4.59096">
        <ele>170.64058261841</ele>
        <time>2021-04-05T16:30:02.070Z</time>
      </trkpt>
      <trkpt lat="44.0531" lon="4.59101">
        <ele>171.03752727419</ele>
        <time>2021-04-05T16:30:02.990Z</time>
      </trkpt>
      <trkpt lat="44.05307" lon="4.59106">
        <ele>171.40969266669</ele>
        <time>2021-04-05T16:30:03.911Z</time>
      </trkpt>
      <trkpt lat="44.05304" lon="4.5911">
        <ele>171.75963207627</ele>
        <time>2021-04-05T16:30:04.833Z</time>
      </trkpt>
      <trkpt lat="44.05301" lon="4.59115">
        <ele>172.08910529774</ele>
        <time>2021-04-05T16:30:05.757Z</time>
      </trkpt>
      <trkpt lat="44.05298" lon="4.59119">
        <ele>172.398589189</ele>
        <time>2021-04-05T16:30:06.682Z</time>
      </trkpt>
      <trkpt lat="44.05291" lon="4.59128">
        <ele>172.67038080003</ele>
        <time>2021-04-05T16:30:07.610Z</time>
      </trkpt>
      <trkpt lat="44.0528" lon="4.59139">
        <ele>172.94134839896</ele>
        <time>2021-04-05T16:30:08.542Z</time>
      </trkpt>
      <trkpt lat="44.05273" lon="4.59147">
        <ele>173.23993363106</ele>
        <time>2021-04-05T16:30:09.476Z</time>
      </trkpt>
      <trkpt lat="44.05261" lon="4.59156">
        <ele>173.48872314648</ele>
        <time>2021-04-05T16:30:10.414Z</time>
      </trkpt>
      <trkpt lat="44.05253" lon="4.59161">
        <ele>173.78784763371</ele>
        <time>2021-04-05T16:30:11.355Z</time>
      </trkpt>
      <trkpt lat="44.05245" lon="4.59166">
        <ele>174.09466006456</ele>
        <time>2021-04-05T16:30:12.299Z</time>
      </trkpt>
      <trkpt lat="44.05233" lon="4.59172">
        <ele>174.41911252022</ele>
        <time>2021-04-05T16:30:13.246Z</time>
      </trkpt>
      <trkpt lat="44.05218" lon="4.59181">
        <ele>174.75859317338</ele>
        <time>2021-04-05T16:30:14.198Z</time>
      </trkpt>
      <trkpt lat="44.05214" lon="4.59183">
        <ele>175.08962063105</ele>
        <time>2021-04-05T16:30:15.152Z</time>
      </trkpt>
      <trkpt lat="44.05198" lon="4.592">
        <ele>175.46398605887</ele>
        <time>2021-04-05T16:30:16.112Z</time>
      </trkpt>
      <trkpt lat="44.05194" lon="4.5921">
        <ele>175.85457788821</ele>
        <time>2021-04-05T16:30:17.074Z</time>
      </trkpt>
      <trkpt lat="44.05193" lon="4.59222">
        <ele>176.23957385666</ele>
        <time>2021-04-05T16:30:18.039Z</time>
      </trkpt>
      <trkpt lat="44.05197" lon="4.59234">
        <ele>176.69356785691</ele>
        <time>2021-04-05T16:30:19.007Z</time>
      </trkpt>
      <trkpt lat="44.05203" lon="4.59245">
        <ele>177.18362043437</ele>
        <time>2021-04-05T16:30:19.978Z</time>
      </trkpt>
      <trkpt lat="44.0522" lon="4.59267">
        <ele>177.75851225596</ele>
        <time>2021-04-05T16:30:20.956Z</time>
      </trkpt>
      <trkpt lat="44.05233" lon="4.59305">
        <ele>178.36161815694</ele>
        <time>2021-04-05T16:30:21.943Z</time>
      </trkpt>
      <trkpt lat="44.05236" lon="4.59316">
        <ele>178.90435645868</ele>
        <time>2021-04-05T16:30:22.932Z</time>
      </trkpt>
      <trkpt lat="44.05238" lon="4.59322">
        <ele>179.47785881612</ele>
        <time>2021-04-05T16:30:23.923Z</time>
      </trkpt>
      <trkpt lat="44.05247" lon="4.59344">
        <ele>180.08286881712</ele>
        <time>2021-04-05T16:30:24.919Z</time>
      </trkpt>
      <trkpt lat="44.05261" lon="4.59361">
        <ele>180.77936072211</ele>
        <time>2021-04-05T16:30:25.920Z</time>
      </trkpt>
      <trkpt lat="44.05264" lon="4.59364">
        <ele>181.47131746646</ele>
        <time>2021-04-05T16:30:26.923Z</time>
      </trkpt>
      <trkpt lat="44.05317" lon="4.59392">
        <ele>182.32050328867</ele>
        <time>2021-04-05T16:30:27.943Z</time>
      </trkpt>
      <trkpt lat="44.05371" lon="4.59406">
        <ele>183.01958326149</ele>
        <time>2021-04-05T16:30:28.979Z</time>
      </trkpt>
      <trkpt lat="44.05414" lon="4.59434">
        <ele>183.93438985892</ele>
        <time>2021-04-05T16:30:30.029Z</time>
      </trkpt>
      <trkpt lat="44.05443" lon="4.59497">
        <ele>184.85219948461</ele>
        <time>2021-04-05T16:30:31.095Z</time>
      </trkpt>
      <trkpt lat="44.05446" lon="4.59573">
        <ele>185.78215251463</ele>
        <time>2021-04-05T16:30:32.177Z</time>
      </trkpt>
      <trkpt lat="44.05442" lon="4.5959">
        <ele>186.56240371107</ele>
        <time>2021-04-05T16:30:33.263Z</time>
      </trkpt>
      <trkpt lat="44.05424" lon="4.59627">
        <ele>187.34550956699</ele>
        <time>2021-04-05T16:30:34.359Z</time>
      </trkpt>
      <trkpt lat="44.05385" lon="4.59655">
        <ele>188.12629785809</ele>
        <time>2021-04-05T16:30:35.468Z</time>
      </trkpt>
      <trkpt lat="44.05368" lon="4.59662">
        <ele>188.96147446778</ele>
        <time>2021-04-05T16:30:36.582Z</time>
      </trkpt>
      <trkpt lat="44.05364" lon="4.59664">
        <ele>189.75666342281</ele>
        <time>2021-04-05T16:30:37.698Z</time>
      </trkpt>
      <trkpt lat="44.0536" lon="4.59667">
        <ele>190.54505332331</ele>
        <time>2021-04-05T16:30:38.815Z</time>
      </trkpt>
      <trkpt lat="44.05347" lon="4.59675">
        <ele>191.36414297412</ele>
        <time>2021-04-05T16:30:39.936Z</time>
      </trkpt>
      <trkpt lat="44.05339" lon="4.59681">
        <ele>192.17840950768</ele>
        <time>2021-04-05T16:30:41.060Z</time>
      </trkpt>
      <trkpt lat="44.05336" lon="4.59685">
        <ele>192.95903408296</ele>
        <time>2021-04-05T16:30:42.185Z</time>
      </trkpt>
      <trkpt lat="44.05328" lon="4.59694">
        <ele>193.69309279675</ele>
        <time>2021-04-05T16:30:43.313Z</time>
      </trkpt>
      <trkpt lat="44.05319" lon="4.5971">
        <ele>194.4418031922</ele>
        <time>2021-04-05T16:30:44.446Z</time>
      </trkpt>
      <trkpt lat="44.05302" lon="4.59749">
        <ele>195.23715637669</ele>
        <time>2021-04-05T16:30:45.588Z</time>
      </trkpt>
      <trkpt lat="44.05276" lon="4.5982">
        <ele>196.09274128364</ele>
        <time>2021-04-05T16:30:46.747Z</time>
      </trkpt>
      <trkpt lat="44.0527" lon="4.59869">
        <ele>196.88559454311</ele>
        <time>2021-04-05T16:30:47.917Z</time>
      </trkpt>
      <trkpt lat="44.05261" lon="4.59914">
        <ele>197.64137480885</ele>
        <time>2021-04-05T16:30:49.097Z</time>
      </trkpt>
      <trkpt lat="44.05255" lon="4.59935">
        <ele>198.37380815843</ele>
        <time>2021-04-05T16:30:50.282Z</time>
      </trkpt>
      <trkpt lat="44.05252" lon="4.59971">
        <ele>199.07178782998</ele>
        <time>2021-04-05T16:30:51.475Z</time>
      </trkpt>
      <trkpt lat="44.05249" lon="4.59982">
        <ele>199.73974225498</ele>
        <time>2021-04-05T16:30:52.671Z</time>
      </trkpt>
      <trkpt lat="44.05224" lon="4.59998">
        <ele>200.41517755651</ele>
        <time>2021-04-05T16:30:53.875Z</time>
      </trkpt>
      <trkpt lat="44.05216" lon="4.60002">
        <ele>201.09895131875</ele>
        <time>2021-04-05T16:30:55.081Z</time>
      </trkpt>
      <trkpt lat="44.05171" lon="4.60046">
        <ele>201.87603864831</ele>
        <time>2021-04-05T16:30:56.304Z</time>
      </trkpt>
      <trkpt lat="44.05163" lon="4.60051">
        <ele>202.51220995353</ele>
        <time>2021-04-05T16:30:57.529Z</time>
      </trkpt>
      <trkpt lat="44.05112" lon="4.60073">
        <ele>203.31608496548</ele>
        <time>2021-04-05T16:30:58.770Z</time>
      </trkpt>
      <trkpt lat="44.05104" lon="4.60079">
        <ele>203.90754974037</ele>
        <time>2021-04-05T16:31:00.014Z</time>
      </trkpt>
      <trkpt lat="44.051" lon="4.60081">
        <ele>204.49539745708</ele>
        <time>2021-04-05T16:31:01.259Z</time>
      </trkpt>
      <trkpt lat="44.05092" lon="4.60086">
        <ele>205.07775124642</ele>
        <time>2021-04-05T16:31:02.507Z</time>
      </trkpt>
      <trkpt lat="44.05089" lon="4.60089">
        <ele>205.66705422458</ele>
        <time>2021-04-05T16:31:03.756Z</time>
      </trkpt>
      <trkpt lat="44.05081" lon="4.60093">
        <ele>206.26553763988</ele>
        <time>2021-04-05T16:31:05.008Z</time>
      </trkpt>
      <trkpt lat="44.0507" lon="4.60101">
        <ele>206.81449621767</ele>
        <time>2021-04-05T16:31:06.263Z</time>
      </trkpt>
      <trkpt lat="44.0506" lon="4.6011">
        <ele>207.34596397374</ele>
        <time>2021-04-05T16:31:07.522Z</time>
      </trkpt>
      <trkpt lat="44.05056" lon="4.60113">
        <ele>207.88384658678</ele>
        <time>2021-04-05T16:31:08.782Z</time>
      </trkpt>
      <trkpt lat="44.05036" lon="4.60121">
        <ele>208.44511332803</ele>
        <time>2021-04-05T16:31:10.048Z</time>
      </trkpt>
      <trkpt lat="44.04999" lon="4.60135">
        <ele>209.01688197928</ele>
        <time>2021-04-05T16:31:11.326Z</time>
      </trkpt>
      <trkpt lat="44.04971" lon="4.60152">
        <ele>209.67368362711</ele>
        <time>2021-04-05T16:31:12.613Z</time>
      </trkpt>
      <trkpt lat="44.04962" lon="4.60156">
        <ele>210.25301944613</ele>
        <time>2021-04-05T16:31:13.903Z</time>
      </trkpt>
      <trkpt lat="44.04947" lon="4.6016">
        <ele>210.82478680049</ele>
        <time>2021-04-05T16:31:15.197Z</time>
      </trkpt>
      <trkpt lat="44.04933" lon="4.60161">
        <ele>211.36407524586</ele>
        <time>2021-04-05T16:31:16.495Z</time>
      </trkpt>
      <trkpt lat="44.04895" lon="4.60171">
        <ele>211.90768644248</ele>
        <time>2021-04-05T16:31:17.805Z</time>
      </trkpt>
      <trkpt lat="44.04869" lon="4.6018">
        <ele>212.46527949943</ele>
        <time>2021-04-05T16:31:19.123Z</time>
      </trkpt>
      <trkpt lat="44.04844" lon="4.60199">
        <ele>212.98729140647</ele>
        <time>2021-04-05T16:31:20.449Z</time>
      </trkpt>
      <trkpt lat="44.0483" lon="4.60236">
        <ele>213.5956958876</ele>
        <time>2021-04-05T16:31:21.784Z</time>
      </trkpt>
      <trkpt lat="44.04821" lon="4.60258">
        <ele>214.21164826222</ele>
        <time>2021-04-05T16:31:23.125Z</time>
      </trkpt>
      <trkpt lat="44.04817" lon="4.60269">
        <ele>214.79669992679</ele>
        <time>2021-04-05T16:31:24.468Z</time>
      </trkpt>
      <trkpt lat="44.04816" lon="4.60272">
        <ele>215.36487042294</ele>
        <time>2021-04-05T16:31:25.812Z</time>
      </trkpt>
      <trkpt lat="44.04814" lon="4.60276">
        <ele>215.93510741727</ele>
        <time>2021-04-05T16:31:27.157Z</time>
      </trkpt>
      <trkpt lat="44.04813" lon="4.60279">
        <ele>216.50681570091</ele>
        <time>2021-04-05T16:31:28.503Z</time>
      </trkpt>
      <trkpt lat="44.04795" lon="4.60331">
        <ele>217.18445975319</ele>
        <time>2021-04-05T16:31:29.861Z</time>
      </trkpt>
      <trkpt lat="44.04794" lon="4.60335">
        <ele>217.74904149277</ele>
        <time>2021-04-05T16:31:31.220Z</time>
      </trkpt>
      <trkpt lat="44.04791" lon="4.60342">
        <ele>218.32873002064</ele>
        <time>2021-04-05T16:31:32.581Z</time>
      </trkpt>
      <trkpt lat="44.04783" lon="4.60369">
        <ele>218.96630246867</ele>
        <time>2021-04-05T16:31:33.948Z</time>
      </trkpt>
      <trkpt lat="44.04781" lon="4.60373">
        <ele>219.53070890727</ele>
        <time>2021-04-05T16:31:35.316Z</time>
      </trkpt>
      <trkpt lat="44.04771" lon="4.60407">
        <ele>220.17744424472</ele>
        <time>2021-04-05T16:31:36.692Z</time>
      </trkpt>
      <trkpt lat="44.04765" lon="4.60423">
        <ele>220.75940570801</ele>
        <time>2021-04-05T16:31:38.072Z</time>
      </trkpt>
      <trkpt lat="44.0476" lon="4.6044">
        <ele>221.30896944572</ele>
        <time>2021-04-05T16:31:39.456Z</time>
      </trkpt>
      <trkpt lat="44.04731" lon="4.60504">
        <ele>222.04248395383</ele>
        <time>2021-04-05T16:31:40.856Z</time>
      </trkpt>
      <trkpt lat="44.04725" lon="4.60511">
        <ele>222.55334095899</ele>
        <time>2021-04-05T16:31:42.259Z</time>
      </trkpt>
      <trkpt lat="44.04725" lon="4.60511">
        <ele>223.05041191383</ele>
        <time>2021-04-05T16:31:43.662Z</time>
      </trkpt>
      <trkpt lat="44.04726" lon="4.60513">
        <ele>223.54206724197</ele>
        <time>2021-04-05T16:31:45.065Z</time>
      </trkpt>
      <trkpt lat="44.04727" lon="4.60513">
        <ele>224.01881028676</ele>
        <time>2021-04-05T16:31:46.468Z</time>
      </trkpt>
      <trkpt lat="44.04727" lon="4.60513">
        <ele>224.48872887832</ele>
        <time>2021-04-05T16:31:47.871Z</time>
      </trkpt>
      <trkpt lat="44.04727" lon="4.60514">
        <ele>224.95556644698</ele>
        <time>2021-04-05T16:31:49.275Z</time>
      </trkpt>
      <trkpt lat="44.04726" lon="4.60515">
        <ele>225.42162595418</ele>
        <time>2021-04-05T16:31:50.679Z</time>
      </trkpt>
      <trkpt lat="44.04726" lon="4.60519">
        <ele>225.8921383232</ele>
        <time>2021-04-05T16:31:52.084Z</time>
      </trkpt>
      <trkpt lat="44.04723" lon="4.60529">
        <ele>226.35411938465</ele>
        <time>2021-04-05T16:31:53.491Z</time>
      </trkpt>
      <trkpt lat="44.04717" lon="4.60549">
        <ele>226.83511472377</ele>
        <time>2021-04-05T16:31:54.903Z</time>
      </trkpt>
      <trkpt lat="44.04713" lon="4.60571">
        <ele>227.36055567741</ele>
        <time>2021-04-05T16:31:56.320Z</time>
      </trkpt>
      <trkpt lat="44.0471" lon="4.60588">
        <ele>227.89279109748</ele>
        <time>2021-04-05T16:31:57.740Z</time>
      </trkpt>
      <trkpt lat="44.04707" lon="4.60598">
        <ele>228.43334480583</ele>
        <time>2021-04-05T16:31:59.163Z</time>
      </trkpt>
      <trkpt lat="44.04705" lon="4.60608">
        <ele>228.99568891948</ele>
        <time>2021-04-05T16:32:00.588Z</time>
      </trkpt>
      <trkpt lat="44.04704" lon="4.60613">
        <ele>229.58685924678</ele>
        <time>2021-04-05T16:32:02.014Z</time>
      </trkpt>
      <trkpt lat="44.04703" lon="4.60618">
        <ele>230.19985309366</ele>
        <time>2021-04-05T16:32:03.441Z</time>
      </trkpt>
      <trkpt lat="44.04688" lon="4.60681">
        <ele>230.94438622419</ele>
        <time>2021-04-05T16:32:04.882Z</time>
      </trkpt>
      <trkpt lat="44.04687" lon="4.60685">
        <ele>231.61241798243</ele>
        <time>2021-04-05T16:32:06.324Z</time>
      </trkpt>
      <trkpt lat="44.04686" lon="4.60689">
        <ele>232.31357842498</ele>
        <time>2021-04-05T16:32:07.767Z</time>
      </trkpt>
      <trkpt lat="44.04684" lon="4.60697">
        <ele>233.04849717781</ele>
        <time>2021-04-05T16:32:09.212Z</time>
      </trkpt>
      <trkpt lat="44.04679" lon="4.60714">
        <ele>233.85855151476</ele>
        <time>2021-04-05T16:32:10.661Z</time>
      </trkpt>
      <trkpt lat="44.0466" lon="4.60786">
        <ele>234.73589336809</ele>
        <time>2021-04-05T16:32:12.126Z</time>
      </trkpt>
      <trkpt lat="44.04652" lon="4.60827">
        <ele>235.62608495793</ele>
        <time>2021-04-05T16:32:13.601Z</time>
      </trkpt>
      <trkpt lat="44.04635" lon="4.60858">
        <ele>236.54334121957</ele>
        <time>2021-04-05T16:32:15.084Z</time>
      </trkpt>
      <trkpt lat="44.04628" lon="4.60856">
        <ele>237.43603612438</ele>
        <time>2021-04-05T16:32:16.569Z</time>
      </trkpt>
      <trkpt lat="44.04609" lon="4.60839">
        <ele>238.35915912449</ele>
        <time>2021-04-05T16:32:18.061Z</time>
      </trkpt>
      <trkpt lat="44.04592" lon="4.60832">
        <ele>239.32381290725</ele>
        <time>2021-04-05T16:32:19.558Z</time>
      </trkpt>
      <trkpt lat="44.04558" lon="4.60834">
        <ele>240.31995095947</ele>
        <time>2021-04-05T16:32:21.066Z</time>
      </trkpt>
      <trkpt lat="44.04545" lon="4.60836">
        <ele>241.33455507167</ele>
        <time>2021-04-05T16:32:22.577Z</time>
      </trkpt>
      <trkpt lat="44.04522" lon="4.6084">
        <ele>242.43482619213</ele>
        <time>2021-04-05T16:32:24.095Z</time>
      </trkpt>
      <trkpt lat="44.04494" lon="4.60845">
        <ele>243.51691710509</ele>
        <time>2021-04-05T16:32:25.622Z</time>
      </trkpt>
      <trkpt lat="44.04486" lon="4.60846">
        <ele>244.55631171639</ele>
        <time>2021-04-05T16:32:27.151Z</time>
      </trkpt>
      <trkpt lat="44.04479" lon="4.60847">
        <ele>245.60445855762</ele>
        <time>2021-04-05T16:32:28.682Z</time>
      </trkpt>
      <trkpt lat="44.04464" lon="4.60847">
        <ele>246.66958239815</ele>
        <time>2021-04-05T16:32:30.218Z</time>
      </trkpt>
      <trkpt lat="44.04409" lon="4.6084">
        <ele>247.89112335876</ele>
        <time>2021-04-05T16:32:31.770Z</time>
      </trkpt>
      <trkpt lat="44.04362" lon="4.60803">
        <ele>248.98909628156</ele>
        <time>2021-04-05T16:32:33.338Z</time>
      </trkpt>
      <trkpt lat="44.04321" lon="4.60778">
        <ele>250.01965286256</ele>
        <time>2021-04-05T16:32:34.920Z</time>
      </trkpt>
      <trkpt lat="44.04305" lon="4.60769">
        <ele>250.94620191806</ele>
        <time>2021-04-05T16:32:36.507Z</time>
      </trkpt>
      <trkpt lat="44.04273" lon="4.60757">
        <ele>251.81481132124</ele>
        <time>2021-04-05T16:32:38.104Z</time>
      </trkpt>
      <trkpt lat="44.04264" lon="4.60755">
        <ele>252.60853762955</ele>
        <time>2021-04-05T16:32:39.703Z</time>
      </trkpt>
      <trkpt lat="44.0425" lon="4.60753">
        <ele>253.36155362387</ele>
        <time>2021-04-05T16:32:41.307Z</time>
      </trkpt>
      <trkpt lat="44.04245" lon="4.60753">
        <ele>254.03878339125</ele>
        <time>2021-04-05T16:32:42.912Z</time>
      </trkpt>
      <trkpt lat="44.04241" lon="4.60753">
        <ele>254.64909131957</ele>
        <time>2021-04-05T16:32:44.519Z</time>
      </trkpt>
      <trkpt lat="44.04236" lon="4.60753">
        <ele>255.18494667883</ele>
        <time>2021-04-05T16:32:46.127Z</time>
      </trkpt>
      <trkpt lat="44.04211" lon="4.60754">
        <ele>255.64523337904</ele>
        <time>2021-04-05T16:32:47.742Z</time>
      </trkpt>
      <trkpt lat="44.04201" lon="4.60755">
        <ele>256.01024133411</ele>
        <time>2021-04-05T16:32:49.360Z</time>
      </trkpt>
      <trkpt lat="44.04191" lon="4.60757">
        <ele>256.29576638599</ele>
        <time>2021-04-05T16:32:50.981Z</time>
      </trkpt>
      <trkpt lat="44.04186" lon="4.60758">
        <ele>256.50812371907</ele>
        <time>2021-04-05T16:32:52.604Z</time>
      </trkpt>
      <trkpt lat="44.04181" lon="4.6076">
        <ele>256.64678521515</ele>
        <time>2021-04-05T16:32:54.228Z</time>
      </trkpt>
      <trkpt lat="44.04176" lon="4.60762">
        <ele>256.70204954439</ele>
        <time>2021-04-05T16:32:55.854Z</time>
      </trkpt>
      <trkpt lat="44.04167" lon="4.60766">
        <ele>256.68588958053</ele>
        <time>2021-04-05T16:32:57.483Z</time>
      </trkpt>
      <trkpt lat="44.04145" lon="4.60778">
        <ele>256.61159762592</ele>
        <time>2021-04-05T16:32:59.119Z</time>
      </trkpt>
      <trkpt lat="44.04114" lon="4.60788">
        <ele>256.38802414083</ele>
        <time>2021-04-05T16:33:00.764Z</time>
      </trkpt>
      <trkpt lat="44.04054" lon="4.60791">
        <ele>256.02958750303</ele>
        <time>2021-04-05T16:33:02.427Z</time>
      </trkpt>
      <trkpt lat="44.04022" lon="4.60805">
        <ele>255.66975782326</ele>
        <time>2021-04-05T16:33:04.100Z</time>
      </trkpt>
      <trkpt lat="44.03966" lon="4.60831">
        <ele>255.11379282432</ele>
        <time>2021-04-05T16:33:05.791Z</time>
      </trkpt>
      <trkpt lat="44.03933" lon="4.60843">
        <ele>254.58024836599</ele>
        <time>2021-04-05T16:33:07.492Z</time>
      </trkpt>
      <trkpt lat="44.03925" lon="4.60851">
        <ele>253.97022785751</ele>
        <time>2021-04-05T16:33:09.196Z</time>
      </trkpt>
      <trkpt lat="44.0392" lon="4.6086">
        <ele>253.29229597299</ele>
        <time>2021-04-05T16:33:10.903Z</time>
      </trkpt>
      <trkpt lat="44.03909" lon="4.60877">
        <ele>252.5257518242</ele>
        <time>2021-04-05T16:33:12.614Z</time>
      </trkpt>
      <trkpt lat="44.03902" lon="4.60874">
        <ele>251.65582229943</ele>
        <time>2021-04-05T16:33:14.327Z</time>
      </trkpt>
      <trkpt lat="44.03855" lon="4.60833">
        <ele>250.58689480913</ele>
        <time>2021-04-05T16:33:16.057Z</time>
      </trkpt>
      <trkpt lat="44.03805" lon="4.60791">
        <ele>249.44185627136</ele>
        <time>2021-04-05T16:33:17.805Z</time>
      </trkpt>
      <trkpt lat="44.038" lon="4.60787">
        <ele>248.39548061743</ele>
        <time>2021-04-05T16:33:19.554Z</time>
      </trkpt>
      <trkpt lat="44.03789" lon="4.6078">
        <ele>247.3022864327</ele>
        <time>2021-04-05T16:33:21.307Z</time>
      </trkpt>
      <trkpt lat="44.03757" lon="4.60753">
        <ele>246.14598035712</ele>
        <time>2021-04-05T16:33:23.071Z</time>
      </trkpt>
      <trkpt lat="44.0371" lon="4.60709">
        <ele>244.96212904255</ele>
        <time>2021-04-05T16:33:24.852Z</time>
      </trkpt>
      <trkpt lat="44.03659" lon="4.60665">
        <ele>243.76519627177</ele>
        <time>2021-04-05T16:33:26.651Z</time>
      </trkpt>
      <trkpt lat="44.03628" lon="4.60638">
        <ele>242.55349402698</ele>
        <time>2021-04-05T16:33:28.461Z</time>
      </trkpt>
      <trkpt lat="44.03579" lon="4.60596">
        <ele>241.23347836475</ele>
        <time>2021-04-05T16:33:30.288Z</time>
      </trkpt>
      <trkpt lat="44.03531" lon="4.60554">
        <ele>239.79103698122</ele>
        <time>2021-04-05T16:33:32.132Z</time>
      </trkpt>
      <trkpt lat="44.03486" lon="4.60496">
        <ele>238.53339006944</ele>
        <time>2021-04-05T16:33:33.994Z</time>
      </trkpt>
      <trkpt lat="44.03448" lon="4.60427">
        <ele>237.18580012318</ele>
        <time>2021-04-05T16:33:35.875Z</time>
      </trkpt>
      <trkpt lat="44.03411" lon="4.60357">
        <ele>236.00990754586</ele>
        <time>2021-04-05T16:33:37.775Z</time>
      </trkpt>
      <trkpt lat="44.03375" lon="4.60293">
        <ele>234.83470779214</ele>
        <time>2021-04-05T16:33:39.692Z</time>
      </trkpt>
      <trkpt lat="44.03343" lon="4.60231">
        <ele>233.77033667247</ele>
        <time>2021-04-05T16:33:41.626Z</time>
      </trkpt>
      <trkpt lat="44.03309" lon="4.60168">
        <ele>232.78853730466</ele>
        <time>2021-04-05T16:33:43.577Z</time>
      </trkpt>
      <trkpt lat="44.03288" lon="4.60131">
        <ele>231.90944256988</ele>
        <time>2021-04-05T16:33:45.538Z</time>
      </trkpt>
      <trkpt lat="44.03238" lon="4.60156">
        <ele>231.16647209635</ele>
        <time>2021-04-05T16:33:47.515Z</time>
      </trkpt>
      <trkpt lat="44.03185" lon="4.60172">
        <ele>230.42653247106</ele>
        <time>2021-04-05T16:33:49.508Z</time>
      </trkpt>
      <trkpt lat="44.03128" lon="4.60162">
        <ele>229.73352838579</ele>
        <time>2021-04-05T16:33:51.518Z</time>
      </trkpt>
      <trkpt lat="44.03081" lon="4.60148">
        <ele>228.97038122512</ele>
        <time>2021-04-05T16:33:53.542Z</time>
      </trkpt>
      <trkpt lat="44.03031" lon="4.60125">
        <ele>228.21193042061</ele>
        <time>2021-04-05T16:33:55.582Z</time>
      </trkpt>
      <trkpt lat="44.02996" lon="4.60108">
        <ele>227.48529519427</ele>
        <time>2021-04-05T16:33:57.633Z</time>
      </trkpt>
      <trkpt lat="44.02982" lon="4.60138">
        <ele>226.83055856226</ele>
        <time>2021-04-05T16:33:59.692Z</time>
      </trkpt>
      <trkpt lat="44.02968" lon="4.60182">
        <ele>226.20112090067</ele>
        <time>2021-04-05T16:34:01.761Z</time>
      </trkpt>
      <trkpt lat="44.02991" lon="4.60113">
        <ele>225.46707270239</ele>
        <time>2021-04-05T16:34:03.846Z</time>
      </trkpt>
      <trkpt lat="44.02994" lon="4.60109">
        <ele>224.78271794933</ele>
        <time>2021-04-05T16:34:05.933Z</time>
      </trkpt>
      <trkpt lat="44.02999" lon="4.60103">
        <ele>224.08438922207</ele>
        <time>2021-04-05T16:34:08.022Z</time>
      </trkpt>
      <trkpt lat="44.03001" lon="4.60098">
        <ele>223.37619038191</ele>
        <time>2021-04-05T16:34:10.112Z</time>
      </trkpt>
      <trkpt lat="44.02997" lon="4.60094">
        <ele>222.64670723182</ele>
        <time>2021-04-05T16:34:12.203Z</time>
      </trkpt>
      <trkpt lat="44.02975" lon="4.6008">
        <ele>221.83555566791</ele>
        <time>2021-04-05T16:34:14.302Z</time>
      </trkpt>
      <trkpt lat="44.02951" lon="4.60076">
        <ele>220.98776020286</ele>
        <time>2021-04-05T16:34:16.408Z</time>
      </trkpt>
      <trkpt lat="44.02932" lon="4.60071">
        <ele>220.09883851</ele>
        <time>2021-04-05T16:34:18.520Z</time>
      </trkpt>
      <trkpt lat="44.02908" lon="4.60068">
        <ele>219.23518099135</ele>
        <time>2021-04-05T16:34:20.639Z</time>
      </trkpt>
      <trkpt lat="44.02885" lon="4.60067">
        <ele>218.35964802996</ele>
        <time>2021-04-05T16:34:22.765Z</time>
      </trkpt>
      <trkpt lat="44.02869" lon="4.60068">
        <ele>217.41624477925</ele>
        <time>2021-04-05T16:34:24.895Z</time>
      </trkpt>
      <trkpt lat="44.02859" lon="4.60068">
        <ele>216.44815297719</ele>
        <time>2021-04-05T16:34:27.028Z</time>
      </trkpt>
      <trkpt lat="44.02845" lon="4.60071">
        <ele>215.44134640252</ele>
        <time>2021-04-05T16:34:29.165Z</time>
      </trkpt>
      <trkpt lat="44.02816" lon="4.60074">
        <ele>214.29570437918</ele>
        <time>2021-04-05T16:34:31.311Z</time>
      </trkpt>
      <trkpt lat="44.02793" lon="4.60078">
        <ele>213.12694465361</ele>
        <time>2021-04-05T16:34:33.464Z</time>
      </trkpt>
      <trkpt lat="44.02761" lon="4.60085">
        <ele>211.87616468181</ele>
        <time>2021-04-05T16:34:35.627Z</time>
      </trkpt>
      <trkpt lat="44.02726" lon="4.60081">
        <ele>210.67862407127</ele>
        <time>2021-04-05T16:34:37.800Z</time>
      </trkpt>
      <trkpt lat="44.027" lon="4.60084">
        <ele>209.45054856626</ele>
        <time>2021-04-05T16:34:39.981Z</time>
      </trkpt>
      <trkpt lat="44.02691" lon="4.60082">
        <ele>208.2966251314</ele>
        <time>2021-04-05T16:34:42.165Z</time>
      </trkpt>
      <trkpt lat="44.02678" lon="4.60083">
        <ele>207.1101051305</ele>
        <time>2021-04-05T16:34:44.353Z</time>
      </trkpt>
      <trkpt lat="44.02668" lon="4.60086">
        <ele>205.93273048693</ele>
        <time>2021-04-05T16:34:46.544Z</time>
      </trkpt>
      <trkpt lat="44.02643" lon="4.60095">
        <ele>204.77984543452</ele>
        <time>2021-04-05T16:34:48.743Z</time>
      </trkpt>
      <trkpt lat="44.02629" lon="4.60095">
        <ele>203.63936499322</ele>
        <time>2021-04-05T16:34:50.946Z</time>
      </trkpt>
      <trkpt lat="44.02624" lon="4.60095">
        <ele>202.4902021213</ele>
        <time>2021-04-05T16:34:53.150Z</time>
      </trkpt>
      <trkpt lat="44.02608" lon="4.60094">
        <ele>201.30383002403</ele>
        <time>2021-04-05T16:34:55.359Z</time>
      </trkpt>
      <trkpt lat="44.02589" lon="4.601">
        <ele>200.08596212435</ele>
        <time>2021-04-05T16:34:57.574Z</time>
      </trkpt>
      <trkpt lat="44.02571" lon="4.60107">
        <ele>198.86291892426</ele>
        <time>2021-04-05T16:34:59.794Z</time>
      </trkpt>
      <trkpt lat="44.0255" lon="4.6011">
        <ele>197.69911470707</ele>
        <time>2021-04-05T16:35:02.021Z</time>
      </trkpt>
      <trkpt lat="44.02496" lon="4.60095">
        <ele>196.55379947555</ele>
        <time>2021-04-05T16:35:04.264Z</time>
      </trkpt>
      <trkpt lat="44.02441" lon="4.60093">
        <ele>195.52683201281</ele>
        <time>2021-04-05T16:35:06.524Z</time>
      </trkpt>
      <trkpt lat="44.02411" lon="4.60092">
        <ele>194.57055731329</ele>
        <time>2021-04-05T16:35:08.792Z</time>
      </trkpt>
      <trkpt lat="44.02386" lon="4.60085">
        <ele>193.58713633071</ele>
        <time>2021-04-05T16:35:11.068Z</time>
      </trkpt>
      <trkpt lat="44.02373" lon="4.60083">
        <ele>192.64474309151</ele>
        <time>2021-04-05T16:35:13.348Z</time>
      </trkpt>
      <trkpt lat="44.02319" lon="4.60093">
        <ele>191.58303068917</ele>
        <time>2021-04-05T16:35:15.644Z</time>
      </trkpt>
      <trkpt lat="44.02312" lon="4.60088">
        <ele>190.7533174583</ele>
        <time>2021-04-05T16:35:17.943Z</time>
      </trkpt>
      <trkpt lat="44.02307" lon="4.60082">
        <ele>189.99495673913</ele>
        <time>2021-04-05T16:35:20.243Z</time>
      </trkpt>
      <trkpt lat="44.02297" lon="4.60056">
        <ele>189.291118635</ele>
        <time>2021-04-05T16:35:22.550Z</time>
      </trkpt>
      <trkpt lat="44.02245" lon="4.60048">
        <ele>188.62089654195</ele>
        <time>2021-04-05T16:35:24.872Z</time>
      </trkpt>
      <trkpt lat="44.02234" lon="4.60052">
        <ele>188.04469056304</ele>
        <time>2021-04-05T16:35:27.198Z</time>
      </trkpt>
      <trkpt lat="44.02227" lon="4.60054">
        <ele>187.49609427692</ele>
        <time>2021-04-05T16:35:29.526Z</time>
      </trkpt>
      <trkpt lat="44.02224" lon="4.60055">
        <ele>187.0035124914</ele>
        <time>2021-04-05T16:35:31.855Z</time>
      </trkpt>
      <trkpt lat="44.0222" lon="4.60056">
        <ele>186.55842730536</ele>
        <time>2021-04-05T16:35:34.185Z</time>
      </trkpt>
      <trkpt lat="44.02214" lon="4.60058">
        <ele>186.15374520742</ele>
        <time>2021-04-05T16:35:36.517Z</time>
      </trkpt>
      <trkpt lat="44.02211" lon="4.6006">
        <ele>185.79906737607</ele>
        <time>2021-04-05T16:35:38.850Z</time>
      </trkpt>
      <trkpt lat="44.02206" lon="4.60064">
        <ele>185.49988375889</ele>
        <time>2021-04-05T16:35:41.185Z</time>
      </trkpt>
      <trkpt lat="44.02204" lon="4.60066">
        <ele>185.23025314744</ele>
        <time>2021-04-05T16:35:43.520Z</time>
      </trkpt>
      <trkpt lat="44.02197" lon="4.60074">
        <ele>185.01486751354</ele>
        <time>2021-04-05T16:35:45.858Z</time>
      </trkpt>
      <trkpt lat="44.02191" lon="4.60071">
        <ele>184.79069216015</ele>
        <time>2021-04-05T16:35:48.198Z</time>
      </trkpt>
      <trkpt lat="44.02184" lon="4.60069">
        <ele>184.60122092353</ele>
        <time>2021-04-05T16:35:50.540Z</time>
      </trkpt>
      <trkpt lat="44.02145" lon="4.60042">
        <ele>184.41175306621</ele>
        <time>2021-04-05T16:35:52.895Z</time>
      </trkpt>
      <trkpt lat="44.02119" lon="4.60034">
        <ele>184.22458767557</ele>
        <time>2021-04-05T16:35:55.258Z</time>
      </trkpt>
      <trkpt lat="44.02105" lon="4.6003">
        <ele>184.09094171892</ele>
        <time>2021-04-05T16:35:57.626Z</time>
      </trkpt>
      <trkpt lat="44.02093" lon="4.60027">
        <ele>183.96362087171</ele>
        <time>2021-04-05T16:35:59.997Z</time>
      </trkpt>
      <trkpt lat="44.02085" lon="4.60026">
        <ele>183.8311407738</ele>
        <time>2021-04-05T16:36:02.370Z</time>
      </trkpt>
      <trkpt lat="44.02056" lon="4.60022">
        <ele>183.64101553223</ele>
        <time>2021-04-05T16:36:04.752Z</time>
      </trkpt>
      <trkpt lat="44.02054" lon="4.60022">
        <ele>183.54499198593</ele>
        <time>2021-04-05T16:36:07.135Z</time>
      </trkpt>
      <trkpt lat="44.02025" lon="4.60014">
        <ele>183.42080429629</ele>
        <time>2021-04-05T16:36:09.527Z</time>
      </trkpt>
      <trkpt lat="44.02023" lon="4.59968">
        <ele>183.42647920783</ele>
        <time>2021-04-05T16:36:11.929Z</time>
      </trkpt>
      <trkpt lat="44.02023" lon="4.59965">
        <ele>183.35507344304</ele>
        <time>2021-04-05T16:36:14.331Z</time>
      </trkpt>
      <trkpt lat="44.02024" lon="4.59962">
        <ele>183.2861162076</ele>
        <time>2021-04-05T16:36:16.734Z</time>
      </trkpt>
      <trkpt lat="44.02029" lon="4.59928">
        <ele>183.20387147435</ele>
        <time>2021-04-05T16:36:19.145Z</time>
      </trkpt>
      <trkpt lat="44.02032" lon="4.5992">
        <ele>183.14409400233</ele>
        <time>2021-04-05T16:36:21.557Z</time>
      </trkpt>
      <trkpt lat="44.02033" lon="4.59915">
        <ele>183.07261340173</ele>
        <time>2021-04-05T16:36:23.970Z</time>
      </trkpt>
      <trkpt lat="44.02018" lon="4.59855">
        <ele>182.83111030863</ele>
        <time>2021-04-05T16:36:26.397Z</time>
      </trkpt>
      <trkpt lat="44.01992" lon="4.59812">
        <ele>182.63323278617</ele>
        <time>2021-04-05T16:36:28.836Z</time>
      </trkpt>
      <trkpt lat="44.0198" lon="4.59798">
        <ele>182.56342571831</ele>
        <time>2021-04-05T16:36:31.280Z</time>
      </trkpt>
      <trkpt lat="44.01978" lon="4.59796">
        <ele>182.5001676637</ele>
        <time>2021-04-05T16:36:33.725Z</time>
      </trkpt>
      <trkpt lat="44.0197" lon="4.59791">
        <ele>182.44941906388</ele>
        <time>2021-04-05T16:36:36.172Z</time>
      </trkpt>
      <trkpt lat="44.01956" lon="4.59784">
        <ele>182.40001595057</ele>
        <time>2021-04-05T16:36:38.624Z</time>
      </trkpt>
      <trkpt lat="44.01954" lon="4.59784">
        <ele>182.3283776797</ele>
        <time>2021-04-05T16:36:41.076Z</time>
      </trkpt>
      <trkpt lat="44.01953" lon="4.59785">
        <ele>182.25387597017</ele>
        <time>2021-04-05T16:36:43.529Z</time>
      </trkpt>
      <trkpt lat="44.01952" lon="4.59785">
        <ele>182.17615530984</ele>
        <time>2021-04-05T16:36:45.982Z</time>
      </trkpt>
      <trkpt lat="44.0195" lon="4.59786">
        <ele>182.09179894746</ele>
        <time>2021-04-05T16:36:48.436Z</time>
      </trkpt>
      <trkpt lat="44.01941" lon="4.59795">
        <ele>181.96379333516</ele>
        <time>2021-04-05T16:36:50.893Z</time>
      </trkpt>
      <trkpt lat="44.01938" lon="4.59798">
        <ele>181.8519476818</ele>
        <time>2021-04-05T16:36:53.351Z</time>
      </trkpt>
      <trkpt lat="44.01932" lon="4.59804">
        <ele>181.70574820519</ele>
        <time>2021-04-05T16:36:55.811Z</time>
      </trkpt>
      <trkpt lat="44.01926" lon="4.59809">
        <ele>181.56143745739</ele>
        <time>2021-04-05T16:36:58.273Z</time>
      </trkpt>
      <trkpt lat="44.01921" lon="4.59814">
        <ele>181.43735614238</ele>
        <time>2021-04-05T16:37:00.737Z</time>
      </trkpt>
      <trkpt lat="44.01918" lon="4.59817">
        <ele>181.30884482896</ele>
        <time>2021-04-05T16:37:03.202Z</time>
      </trkpt>
      <trkpt lat="44.01916" lon="4.59819">
        <ele>181.16945711504</ele>
        <time>2021-04-05T16:37:05.668Z</time>
      </trkpt>
      <trkpt lat="44.01913" lon="4.59822">
        <ele>181.01629709544</ele>
        <time>2021-04-05T16:37:08.135Z</time>
      </trkpt>
      <trkpt lat="44.0191" lon="4.59824">
        <ele>180.84728013825</ele>
        <time>2021-04-05T16:37:10.603Z</time>
      </trkpt>
      <trkpt lat="44.01908" lon="4.59826">
        <ele>180.66019600508</ele>
        <time>2021-04-05T16:37:13.072Z</time>
      </trkpt>
      <trkpt lat="44.01905" lon="4.59827">
        <ele>180.45273640467</ele>
        <time>2021-04-05T16:37:15.542Z</time>
      </trkpt>
      <trkpt lat="44.01855" lon="4.59805">
        <ele>180.16824959211</ele>
        <time>2021-04-05T16:37:18.028Z</time>
      </trkpt>
      <trkpt lat="44.01846" lon="4.59796">
        <ele>179.93808397157</ele>
        <time>2021-04-05T16:37:20.517Z</time>
      </trkpt>
      <trkpt lat="44.01837" lon="4.59788">
        <ele>179.6426883652</ele>
        <time>2021-04-05T16:37:23.009Z</time>
      </trkpt>
      <trkpt lat="44.01834" lon="4.59785">
        <ele>179.32564783284</ele>
        <time>2021-04-05T16:37:25.502Z</time>
      </trkpt>
      <trkpt lat="44.01829" lon="4.5978">
        <ele>178.96687508928</ele>
        <time>2021-04-05T16:37:27.997Z</time>
      </trkpt>
      <trkpt lat="44.01826" lon="4.59777">
        <ele>178.5712284357</ele>
        <time>2021-04-05T16:37:30.493Z</time>
      </trkpt>
      <trkpt lat="44.01822" lon="4.59775">
        <ele>178.13489616219</ele>
        <time>2021-04-05T16:37:32.990Z</time>
      </trkpt>
      <trkpt lat="44.01815" lon="4.59758">
        <ele>177.63308010832</ele>
        <time>2021-04-05T16:37:35.491Z</time>
      </trkpt>
      <trkpt lat="44.01814" lon="4.59749">
        <ele>177.10516214211</ele>
        <time>2021-04-05T16:37:37.994Z</time>
      </trkpt>
      <trkpt lat="44.01822" lon="4.59696">
        <ele>176.61388638425</ele>
        <time>2021-04-05T16:37:40.509Z</time>
      </trkpt>
      <trkpt lat="44.01814" lon="4.59675">
        <ele>175.92114096248</ele>
        <time>2021-04-05T16:37:43.029Z</time>
      </trkpt>
      <trkpt lat="44.01812" lon="4.59673">
        <ele>175.23808215535</ele>
        <time>2021-04-05T16:37:45.550Z</time>
      </trkpt>
      <trkpt lat="44.01807" lon="4.59668">
        <ele>174.49003113023</ele>
        <time>2021-04-05T16:37:48.073Z</time>
      </trkpt>
      <trkpt lat="44.01805" lon="4.59665">
        <ele>173.70809410202</ele>
        <time>2021-04-05T16:37:50.597Z</time>
      </trkpt>
      <trkpt lat="44.01801" lon="4.59659">
        <ele>172.86570093126</ele>
        <time>2021-04-05T16:37:53.122Z</time>
      </trkpt>
      <trkpt lat="44.01791" lon="4.59651">
        <ele>171.94380932972</ele>
        <time>2021-04-05T16:37:55.651Z</time>
      </trkpt>
      <trkpt lat="44.01783" lon="4.59643">
        <ele>171.01755769131</ele>
        <time>2021-04-05T16:37:58.183Z</time>
      </trkpt>
      <trkpt lat="44.01775" lon="4.59628">
        <ele>170.01397767136</ele>
        <time>2021-04-05T16:38:00.719Z</time>
      </trkpt>
      <trkpt lat="44.01765" lon="4.59606">
        <ele>168.97873203092</ele>
        <time>2021-04-05T16:38:03.260Z</time>
      </trkpt>
      <trkpt lat="44.01756" lon="4.59581">
        <ele>167.92601705314</ele>
        <time>2021-04-05T16:38:05.807Z</time>
      </trkpt>
      <trkpt lat="44.01732" lon="4.59511">
        <ele>166.79445959049</ele>
        <time>2021-04-05T16:38:08.371Z</time>
      </trkpt>
      <trkpt lat="44.01704" lon="4.59497">
        <ele>165.37203704472</ele>
        <time>2021-04-05T16:38:10.944Z</time>
      </trkpt>
      <trkpt lat="44.01682" lon="4.59497">
        <ele>164.00687728291</ele>
        <time>2021-04-05T16:38:13.524Z</time>
      </trkpt>
      <trkpt lat="44.01643" lon="4.59445">
        <ele>162.46046385142</ele>
        <time>2021-04-05T16:38:16.120Z</time>
      </trkpt>
      <trkpt lat="44.01612" lon="4.59382">
        <ele>161.12760649988</ele>
        <time>2021-04-05T16:38:18.732Z</time>
      </trkpt>
      <trkpt lat="44.01583" lon="4.59319">
        <ele>159.90202777106</ele>
        <time>2021-04-05T16:38:21.360Z</time>
      </trkpt>
      <trkpt lat="44.0156" lon="4.59296">
        <ele>158.59481998526</ele>
        <time>2021-04-05T16:38:23.997Z</time>
      </trkpt>
      <trkpt lat="44.01524" lon="4.59273">
        <ele>157.26127239465</ele>
        <time>2021-04-05T16:38:26.646Z</time>
      </trkpt>
      <trkpt lat="44.01521" lon="4.59271">
        <ele>156.07194378867</ele>
        <time>2021-04-05T16:38:29.295Z</time>
      </trkpt>
      <trkpt lat="44.01512" lon="4.5926">
        <ele>154.90292332694</ele>
        <time>2021-04-05T16:38:31.948Z</time>
      </trkpt>
      <trkpt lat="44.01497" lon="4.59243">
        <ele>153.76337974023</ele>
        <time>2021-04-05T16:38:34.607Z</time>
      </trkpt>
      <trkpt lat="44.01486" lon="4.59228">
        <ele>152.64884894743</ele>
        <time>2021-04-05T16:38:37.271Z</time>
      </trkpt>
      <trkpt lat="44.01473" lon="4.59212">
        <ele>151.55691499904</ele>
        <time>2021-04-05T16:38:39.940Z</time>
      </trkpt>
      <trkpt lat="44.01464" lon="4.592">
        <ele>150.5366481716</ele>
        <time>2021-04-05T16:38:42.612Z</time>
      </trkpt>
      <trkpt lat="44.01447" lon="4.59177">
        <ele>149.56117794163</ele>
        <time>2021-04-05T16:38:45.291Z</time>
      </trkpt>
      <trkpt lat="44.01428" lon="4.59152">
        <ele>148.61690410139</ele>
        <time>2021-04-05T16:38:47.978Z</time>
      </trkpt>
      <trkpt lat="44.01398" lon="4.59103">
        <ele>147.69217415479</ele>
        <time>2021-04-05T16:38:50.679Z</time>
      </trkpt>
      <trkpt lat="44.01388" lon="4.59069">
        <ele>146.91637489961</ele>
        <time>2021-04-05T16:38:53.388Z</time>
      </trkpt>
      <trkpt lat="44.01382" lon="4.59043">
        <ele>146.20579118597</ele>
        <time>2021-04-05T16:38:56.103Z</time>
      </trkpt>
      <trkpt lat="44.01379" lon="4.59026">
        <ele>145.53799495142</ele>
        <time>2021-04-05T16:38:58.822Z</time>
      </trkpt>
      <trkpt lat="44.01378" lon="4.59017">
        <ele>144.91538145468</ele>
        <time>2021-04-05T16:39:01.543Z</time>
      </trkpt>
      <trkpt lat="44.01376" lon="4.59008">
        <ele>144.35216344272</ele>
        <time>2021-04-05T16:39:04.266Z</time>
      </trkpt>
      <trkpt lat="44.01375" lon="4.58999">
        <ele>143.84782807619</ele>
        <time>2021-04-05T16:39:06.991Z</time>
      </trkpt>
      <trkpt lat="44.01368" lon="4.58947">
        <ele>143.33861630317</ele>
        <time>2021-04-05T16:39:09.727Z</time>
      </trkpt>
      <trkpt lat="44.01364" lon="4.58913">
        <ele>142.96477761173</ele>
        <time>2021-04-05T16:39:12.470Z</time>
      </trkpt>
      <trkpt lat="44.01362" lon="4.58906">
        <ele>142.64295519574</ele>
        <time>2021-04-05T16:39:15.215Z</time>
      </trkpt>
      <trkpt lat="44.01354" lon="4.58899">
        <ele>142.35169444031</ele>
        <time>2021-04-05T16:39:17.963Z</time>
      </trkpt>
      <trkpt lat="44.0134" lon="4.58909">
        <ele>142.08937765574</ele>
        <time>2021-04-05T16:39:20.716Z</time>
      </trkpt>
      <trkpt lat="44.01328" lon="4.58911">
        <ele>141.88428383896</ele>
        <time>2021-04-05T16:39:23.472Z</time>
      </trkpt>
      <trkpt lat="44.01294" lon="4.58895">
        <ele>141.6510798528</ele>
        <time>2021-04-05T16:39:26.239Z</time>
      </trkpt>
      <trkpt lat="44.0128" lon="4.58888">
        <ele>141.60080110891</ele>
        <time>2021-04-05T16:39:29.010Z</time>
      </trkpt>
      <trkpt lat="44.01269" lon="4.58884">
        <ele>141.59518634493</ele>
        <time>2021-04-05T16:39:31.785Z</time>
      </trkpt>
      <trkpt lat="44.01265" lon="4.58882">
        <ele>141.60487593147</ele>
        <time>2021-04-05T16:39:34.561Z</time>
      </trkpt>
      <trkpt lat="44.01259" lon="4.58879">
        <ele>141.63525477561</ele>
        <time>2021-04-05T16:39:37.339Z</time>
      </trkpt>
      <trkpt lat="44.0124" lon="4.58875">
        <ele>141.72288668028</ele>
        <time>2021-04-05T16:39:40.123Z</time>
      </trkpt>
      <trkpt lat="44.01215" lon="4.5887">
        <ele>141.74041800761</ele>
        <time>2021-04-05T16:39:42.914Z</time>
      </trkpt>
      <trkpt lat="44.01158" lon="4.58848">
        <ele>141.63872143844</ele>
        <time>2021-04-05T16:39:45.723Z</time>
      </trkpt>
      <trkpt lat="44.01131" lon="4.58836">
        <ele>141.70499979832</ele>
        <time>2021-04-05T16:39:48.540Z</time>
      </trkpt>
      <trkpt lat="44.01115" lon="4.58828">
        <ele>141.79581722266</ele>
        <time>2021-04-05T16:39:51.362Z</time>
      </trkpt>
      <trkpt lat="44.01094" lon="4.58815">
        <ele>141.90854236698</ele>
        <time>2021-04-05T16:39:54.191Z</time>
      </trkpt>
      <trkpt lat="44.01084" lon="4.58808">
        <ele>142.0041197969</ele>
        <time>2021-04-05T16:39:57.024Z</time>
      </trkpt>
      <trkpt lat="44.01074" lon="4.58801">
        <ele>142.08220741797</ele>
        <time>2021-04-05T16:39:59.860Z</time>
      </trkpt>
      <trkpt lat="44.01064" lon="4.58795">
        <ele>142.11066523889</ele>
        <time>2021-04-05T16:40:02.699Z</time>
      </trkpt>
      <trkpt lat="44.0103" lon="4.58782">
        <ele>142.18813962822</ele>
        <time>2021-04-05T16:40:05.549Z</time>
      </trkpt>
      <trkpt lat="44.00998" lon="4.58765">
        <ele>142.14405370343</ele>
        <time>2021-04-05T16:40:08.409Z</time>
      </trkpt>
      <trkpt lat="44.00986" lon="4.58756">
        <ele>141.96436281344</ele>
        <time>2021-04-05T16:40:11.273Z</time>
      </trkpt>
      <trkpt lat="44.00941" lon="4.58713">
        <ele>141.79714607238</ele>
        <time>2021-04-05T16:40:14.153Z</time>
      </trkpt>
      <trkpt lat="44.00928" lon="4.587">
        <ele>141.45201588814</ele>
        <time>2021-04-05T16:40:17.038Z</time>
      </trkpt>
      <trkpt lat="44.00875" lon="4.58666">
        <ele>140.97902179647</ele>
        <time>2021-04-05T16:40:19.940Z</time>
      </trkpt>
      <trkpt lat="44.00853" lon="4.58649">
        <ele>140.47122904794</ele>
        <time>2021-04-05T16:40:22.850Z</time>
      </trkpt>
      <trkpt lat="44.00844" lon="4.58635">
        <ele>139.90162301372</ele>
        <time>2021-04-05T16:40:25.764Z</time>
      </trkpt>
      <trkpt lat="44.00837" lon="4.58626">
        <ele>139.24705936887</ele>
        <time>2021-04-05T16:40:28.681Z</time>
      </trkpt>
      <trkpt lat="44.00809" lon="4.58562">
        <ele>138.44612789355</ele>
        <time>2021-04-05T16:40:31.614Z</time>
      </trkpt>
      <trkpt lat="44.0078" lon="4.58503">
        <ele>137.55189891797</ele>
        <time>2021-04-05T16:40:34.562Z</time>
      </trkpt>
      <trkpt lat="44.00745" lon="4.58439">
        <ele>136.59378112641</ele>
        <time>2021-04-05T16:40:37.527Z</time>
      </trkpt>
      <trkpt lat="44.00712" lon="4.5838">
        <ele>135.53677760647</ele>
        <time>2021-04-05T16:40:40.509Z</time>
      </trkpt>
      <trkpt lat="44.00683" lon="4.58338">
        <ele>134.41351454825</ele>
        <time>2021-04-05T16:40:43.503Z</time>
      </trkpt>
      <trkpt lat="44.00678" lon="4.58324">
        <ele>133.40290259036</ele>
        <time>2021-04-05T16:40:46.501Z</time>
      </trkpt>
      <trkpt lat="44.00676" lon="4.5831">
        <ele>132.37897096627</ele>
        <time>2021-04-05T16:40:49.502Z</time>
      </trkpt>
      <trkpt lat="44.00671" lon="4.58297">
        <ele>131.3437876705</ele>
        <time>2021-04-05T16:40:52.506Z</time>
      </trkpt>
      <trkpt lat="44.00646" lon="4.58274">
        <ele>130.25573234454</ele>
        <time>2021-04-05T16:40:55.519Z</time>
      </trkpt>
      <trkpt lat="44.00635" lon="4.58238">
        <ele>129.152435838</ele>
        <time>2021-04-05T16:40:58.540Z</time>
      </trkpt>
      <trkpt lat="44.00627" lon="4.58235">
        <ele>128.16042871393</ele>
        <time>2021-04-05T16:41:01.564Z</time>
      </trkpt>
      <trkpt lat="44.00608" lon="4.58237">
        <ele>127.1701925494</ele>
        <time>2021-04-05T16:41:04.593Z</time>
      </trkpt>
      <trkpt lat="44.00554" lon="4.58229">
        <ele>126.2131810376</ele>
        <time>2021-04-05T16:41:07.638Z</time>
      </trkpt>
      <trkpt lat="44.00544" lon="4.58224">
        <ele>125.35616758868</ele>
        <time>2021-04-05T16:41:10.687Z</time>
      </trkpt>
      <trkpt lat="44.00534" lon="4.58217">
        <ele>124.56608923343</ele>
        <time>2021-04-05T16:41:13.739Z</time>
      </trkpt>
      <trkpt lat="44.00504" lon="4.58175">
        <ele>123.85545146686</ele>
        <time>2021-04-05T16:41:16.804Z</time>
      </trkpt>
      <trkpt lat="44.00482" lon="4.58134">
        <ele>123.23124292304</ele>
        <time>2021-04-05T16:41:19.880Z</time>
      </trkpt>
      <trkpt lat="44.0047" lon="4.58105">
        <ele>122.62090899819</ele>
        <time>2021-04-05T16:41:22.963Z</time>
      </trkpt>
      <trkpt lat="44.00465" lon="4.58081">
        <ele>122.07198491062</ele>
        <time>2021-04-05T16:41:26.051Z</time>
      </trkpt>
      <trkpt lat="44.00458" lon="4.58063">
        <ele>121.6766682015</ele>
        <time>2021-04-05T16:41:29.144Z</time>
      </trkpt>
      <trkpt lat="44.00447" lon="4.58059">
        <ele>121.44437164766</ele>
        <time>2021-04-05T16:41:32.240Z</time>
      </trkpt>
      <trkpt lat="44.00442" lon="4.5806">
        <ele>121.30144615658</ele>
        <time>2021-04-05T16:41:35.338Z</time>
      </trkpt>
      <trkpt lat="44.00439" lon="4.58063">
        <ele>121.2595096496</ele>
        <time>2021-04-05T16:41:38.437Z</time>
      </trkpt>
      <trkpt lat="44.00444" lon="4.58061">
        <ele>121.2871093603</ele>
        <time>2021-04-05T16:41:41.537Z</time>
      </trkpt>
      <trkpt lat="44.00449" lon="4.58067">
        <ele>121.43342434523</ele>
        <time>2021-04-05T16:41:44.640Z</time>
      </trkpt>
      <trkpt lat="44.0045" lon="4.58068">
        <ele>121.6948840267</ele>
        <time>2021-04-05T16:41:47.743Z</time>
      </trkpt>
      <trkpt lat="44.00454" lon="4.58079">
        <ele>122.06997508719</ele>
        <time>2021-04-05T16:41:50.849Z</time>
      </trkpt>
      <trkpt lat="44.00449" lon="4.5813">
        <ele>122.74222631557</ele>
        <time>2021-04-05T16:41:53.965Z</time>
      </trkpt>
      <trkpt lat="44.00429" lon="4.58199">
        <ele>123.51036228969</ele>
        <time>2021-04-05T16:41:57.098Z</time>
      </trkpt>
      <trkpt lat="44.00423" lon="4.58208">
        <ele>124.20746312081</ele>
        <time>2021-04-05T16:42:00.233Z</time>
      </trkpt>
      <trkpt lat="44.00429" lon="4.58202">
        <ele>124.92967630336</ele>
        <time>2021-04-05T16:42:03.370Z</time>
      </trkpt>
      <trkpt lat="44.00445" lon="4.58161">
        <ele>125.64827099408</ele>
        <time>2021-04-05T16:42:06.517Z</time>
      </trkpt>
      <trkpt lat="44.00436" lon="4.58188">
        <ele>126.6419036421</ele>
        <time>2021-04-05T16:42:09.670Z</time>
      </trkpt>
      <trkpt lat="44.00422" lon="4.58216">
        <ele>127.72679319396</ele>
        <time>2021-04-05T16:42:12.831Z</time>
      </trkpt>
      <trkpt lat="44.00399" lon="4.58264">
        <ele>128.86886551844</ele>
        <time>2021-04-05T16:42:16.004Z</time>
      </trkpt>
      <trkpt lat="44.00397" lon="4.58268">
        <ele>130.02290827772</ele>
        <time>2021-04-05T16:42:19.178Z</time>
      </trkpt>
      <trkpt lat="44.00394" lon="4.58271">
        <ele>131.23799699498</ele>
        <time>2021-04-05T16:42:22.353Z</time>
      </trkpt>
      <trkpt lat="44.00385" lon="4.58278">
        <ele>132.51712794959</ele>
        <time>2021-04-05T16:42:25.531Z</time>
      </trkpt>
      <trkpt lat="44.00383" lon="4.58281">
        <ele>133.82683477625</ele>
        <time>2021-04-05T16:42:28.710Z</time>
      </trkpt>
      <trkpt lat="44.00377" lon="4.58285">
        <ele>135.19136137247</ele>
        <time>2021-04-05T16:42:31.891Z</time>
      </trkpt>
      <trkpt lat="44.00374" lon="4.58287">
        <ele>136.58621816224</ele>
        <time>2021-04-05T16:42:35.073Z</time>
      </trkpt>
      <trkpt lat="44.00371" lon="4.58288">
        <ele>138.0145200978</ele>
        <time>2021-04-05T16:42:38.256Z</time>
      </trkpt>
      <trkpt lat="44.00334" lon="4.58288">
        <ele>139.64481156586</ele>
        <time>2021-04-05T16:42:41.450Z</time>
      </trkpt>
      <trkpt lat="44.00324" lon="4.58287">
        <ele>141.14687451784</ele>
        <time>2021-04-05T16:42:44.647Z</time>
      </trkpt>
      <trkpt lat="44.00287" lon="4.58295">
        <ele>142.89731836337</ele>
        <time>2021-04-05T16:42:47.855Z</time>
      </trkpt>
      <trkpt lat="44.00281" lon="4.58299">
        <ele>144.39434272748</ele>
        <time>2021-04-05T16:42:51.065Z</time>
      </trkpt>
      <trkpt lat="44.00263" lon="4.58315">
        <ele>145.95693799384</ele>
        <time>2021-04-05T16:42:54.281Z</time>
      </trkpt>
      <trkpt lat="44.00243" lon="4.58332">
        <ele>147.61199782061</ele>
        <time>2021-04-05T16:42:57.505Z</time>
      </trkpt>
      <trkpt lat="44.00238" lon="4.58336">
        <ele>149.06109897097</ele>
        <time>2021-04-05T16:43:00.730Z</time>
      </trkpt>
      <trkpt lat="44.00232" lon="4.5834">
        <ele>150.47720272095</ele>
        <time>2021-04-05T16:43:03.957Z</time>
      </trkpt>
      <trkpt lat="44.0023" lon="4.58342">
        <ele>151.81390258395</ele>
        <time>2021-04-05T16:43:07.185Z</time>
      </trkpt>
      <trkpt lat="44.0023" lon="4.58342">
        <ele>153.09170360641</ele>
        <time>2021-04-05T16:43:10.413Z</time>
      </trkpt>
      <trkpt lat="44.00229" lon="4.58344">
        <ele>154.33873913829</ele>
        <time>2021-04-05T16:43:13.642Z</time>
      </trkpt>
      <trkpt lat="44.0022" lon="4.58348">
        <ele>155.60970571611</ele>
        <time>2021-04-05T16:43:16.873Z</time>
      </trkpt>
      <trkpt lat="44.0021" lon="4.58359">
        <ele>156.83598807294</ele>
        <time>2021-04-05T16:43:20.108Z</time>
      </trkpt>
      <trkpt lat="44.00208" lon="4.58359">
        <ele>157.95534022073</ele>
        <time>2021-04-05T16:43:23.344Z</time>
      </trkpt>
      <trkpt lat="44.00204" lon="4.58361">
        <ele>159.02678727597</ele>
        <time>2021-04-05T16:43:26.581Z</time>
      </trkpt>
      <trkpt lat="44.00202" lon="4.58364">
        <ele>160.0558689418</ele>
        <time>2021-04-05T16:43:29.819Z</time>
      </trkpt>
      <trkpt lat="44.00185" lon="4.58372">
        <ele>161.14065726983</ele>
        <time>2021-04-05T16:43:33.062Z</time>
      </trkpt>
      <trkpt lat="44.00172" lon="4.58368">
        <ele>162.13282115594</ele>
        <time>2021-04-05T16:43:36.309Z</time>
      </trkpt>
      <trkpt lat="44.00172" lon="4.58368">
        <ele>163.04777055025</ele>
        <time>2021-04-05T16:43:39.556Z</time>
      </trkpt>
      <trkpt lat="44.00172" lon="4.58368">
        <ele>163.93509364569</ele>
        <time>2021-04-05T16:43:42.803Z</time>
      </trkpt>
      <trkpt lat="44.00172" lon="4.58368">
        <ele>164.79954543521</ele>
        <time>2021-04-05T16:43:46.050Z</time>
      </trkpt>
      <trkpt lat="44.00172" lon="4.58368">
        <ele>165.64633809612</ele>
        <time>2021-04-05T16:43:49.297Z</time>
      </trkpt>
      <trkpt lat="44.00172" lon="4.58368">
        <ele>166.48038616833</ele>
        <time>2021-04-05T16:43:52.544Z</time>
      </trkpt>
      <trkpt lat="44.00172" lon="4.58368">
        <ele>167.3065834397</ele>
        <time>2021-04-05T16:43:55.791Z</time>
      </trkpt>
      <trkpt lat="44.00172" lon="4.58368">
        <ele>168.13014436082</ele>
        <time>2021-04-05T16:43:59.038Z</time>
      </trkpt>
      <trkpt lat="44.00171" lon="4.58371">
        <ele>168.94997641655</ele>
        <time>2021-04-05T16:44:02.286Z</time>
      </trkpt>
      <trkpt lat="44.00168" lon="4.5839">
        <ele>169.80712389088</ele>
        <time>2021-04-05T16:44:05.538Z</time>
      </trkpt>
      <trkpt lat="44.00164" lon="4.5842">
        <ele>170.80000416253</ele>
        <time>2021-04-05T16:44:08.797Z</time>
      </trkpt>
      <trkpt lat="44.00163" lon="4.5843">
        <ele>171.70928296596</ele>
        <time>2021-04-05T16:44:12.058Z</time>
      </trkpt>
      <trkpt lat="44.00162" lon="4.58433">
        <ele>172.58671487936</ele>
        <time>2021-04-05T16:44:15.320Z</time>
      </trkpt>
      <trkpt lat="44.00161" lon="4.58446">
        <ele>173.53578983613</ele>
        <time>2021-04-05T16:44:18.584Z</time>
      </trkpt>
      <trkpt lat="44.00158" lon="4.58486">
        <ele>174.62265951888</ele>
        <time>2021-04-05T16:44:21.857Z</time>
      </trkpt>
      <trkpt lat="44.00141" lon="4.58549">
        <ele>175.68980459327</ele>
        <time>2021-04-05T16:44:25.145Z</time>
      </trkpt>
      <trkpt lat="44.00116" lon="4.58552">
        <ele>176.55681592131</ele>
        <time>2021-04-05T16:44:28.440Z</time>
      </trkpt>
      <trkpt lat="44.00113" lon="4.58553">
        <ele>177.44867725655</ele>
        <time>2021-04-05T16:44:31.736Z</time>
      </trkpt>
      <trkpt lat="44.00109" lon="4.58554">
        <ele>178.34816682455</ele>
        <time>2021-04-05T16:44:35.033Z</time>
      </trkpt>
      <trkpt lat="44.00098" lon="4.58559">
        <ele>179.23704384812</ele>
        <time>2021-04-05T16:44:38.334Z</time>
      </trkpt>
      <trkpt lat="44.00096" lon="4.58567">
        <ele>180.17673054564</ele>
        <time>2021-04-05T16:44:41.636Z</time>
      </trkpt>
      <trkpt lat="44.00128" lon="4.58604">
        <ele>181.26449432334</ele>
        <time>2021-04-05T16:44:44.951Z</time>
      </trkpt>
      <trkpt lat="44.0014" lon="4.58622">
        <ele>182.25720602975</ele>
        <time>2021-04-05T16:44:48.271Z</time>
      </trkpt>
      <trkpt lat="44.00137" lon="4.58627">
        <ele>183.23974581954</ele>
        <time>2021-04-05T16:44:51.593Z</time>
      </trkpt>
      <trkpt lat="44.00122" lon="4.5863">
        <ele>184.26136050847</ele>
        <time>2021-04-05T16:44:54.919Z</time>
      </trkpt>
      <trkpt lat="44.00119" lon="4.58631">
        <ele>185.23127580238</ele>
        <time>2021-04-05T16:44:58.246Z</time>
      </trkpt>
      <trkpt lat="44.00117" lon="4.58632">
        <ele>186.20580181633</ele>
        <time>2021-04-05T16:45:01.574Z</time>
      </trkpt>
      <trkpt lat="44.00113" lon="4.58636">
        <ele>187.19129907615</ele>
        <time>2021-04-05T16:45:04.903Z</time>
      </trkpt>
      <trkpt lat="44.0011" lon="4.58641">
        <ele>188.18869140961</ele>
        <time>2021-04-05T16:45:08.234Z</time>
      </trkpt>
      <trkpt lat="44.00105" lon="4.5866">
        <ele>189.2403221487</ele>
        <time>2021-04-05T16:45:11.569Z</time>
      </trkpt>
      <trkpt lat="44.00104" lon="4.5867">
        <ele>190.25666764478</ele>
        <time>2021-04-05T16:45:14.906Z</time>
      </trkpt>
      <trkpt lat="44.00104" lon="4.58674">
        <ele>191.21689748381</ele>
        <time>2021-04-05T16:45:18.244Z</time>
      </trkpt>
      <trkpt lat="44.00104" lon="4.58677">
        <ele>192.16519407652</ele>
        <time>2021-04-05T16:45:21.583Z</time>
      </trkpt>
      <trkpt lat="44.00108" lon="4.58721">
        <ele>193.26099214562</ele>
        <time>2021-04-05T16:45:24.931Z</time>
      </trkpt>
      <trkpt lat="44.00108" lon="4.58728">
        <ele>194.17439883635</ele>
        <time>2021-04-05T16:45:28.281Z</time>
      </trkpt>
      <trkpt lat="44.00108" lon="4.58741">
        <ele>195.08147930197</ele>
        <time>2021-04-05T16:45:31.634Z</time>
      </trkpt>
      <trkpt lat="44.00107" lon="4.58752">
        <ele>195.94191070149</ele>
        <time>2021-04-05T16:45:34.989Z</time>
      </trkpt>
      <trkpt lat="44.00105" lon="4.58758">
        <ele>196.76670300179</ele>
        <time>2021-04-05T16:45:38.345Z</time>
      </trkpt>
      <trkpt lat="44.00101" lon="4.5877">
        <ele>197.56804292541</ele>
        <time>2021-04-05T16:45:41.704Z</time>
      </trkpt>
      <trkpt lat="44.00093" lon="4.58782">
        <ele>198.30233035847</ele>
        <time>2021-04-05T16:45:45.067Z</time>
      </trkpt>
      <trkpt lat="44.00084" lon="4.588">
        <ele>198.99055281504</ele>
        <time>2021-04-05T16:45:48.435Z</time>
      </trkpt>
      <trkpt lat="44.00082" lon="4.58803">
        <ele>199.5338829726</ele>
        <time>2021-04-05T16:45:51.803Z</time>
      </trkpt>
      <trkpt lat="44.00081" lon="4.58806">
        <ele>200.00266309875</ele>
        <time>2021-04-05T16:45:55.172Z</time>
      </trkpt>
      <trkpt lat="44.00079" lon="4.58809">
        <ele>200.39339657489</ele>
        <time>2021-04-05T16:45:58.542Z</time>
      </trkpt>
      <trkpt lat="44.00078" lon="4.58812">
        <ele>200.70303127203</ele>
        <time>2021-04-05T16:46:01.913Z</time>
      </trkpt>
      <trkpt lat="44.00076" lon="4.58816">
        <ele>200.92811364745</ele>
        <time>2021-04-05T16:46:05.285Z</time>
      </trkpt>
      <trkpt lat="44.0007" lon="4.58833">
        <ele>201.10782483635</ele>
        <time>2021-04-05T16:46:08.661Z</time>
      </trkpt>
      <trkpt lat="44.00069" lon="4.58837">
        <ele>201.15385162077</ele>
        <time>2021-04-05T16:46:12.038Z</time>
      </trkpt>
      <trkpt lat="44.00063" lon="4.58873">
        <ele>201.07925978015</ele>
        <time>2021-04-05T16:46:15.423Z</time>
      </trkpt>
      <trkpt lat="44.00061" lon="4.58883">
        <ele>200.9309985274</ele>
        <time>2021-04-05T16:46:18.810Z</time>
      </trkpt>
      <trkpt lat="44.00058" lon="4.58895">
        <ele>200.70455876151</ele>
        <time>2021-04-05T16:46:22.200Z</time>
      </trkpt>
      <trkpt lat="44.00051" lon="4.58905">
        <ele>200.36825008494</ele>
        <time>2021-04-05T16:46:25.593Z</time>
      </trkpt>
      <trkpt lat="44.00041" lon="4.5891">
        <ele>199.93911989746</ele>
        <time>2021-04-05T16:46:28.989Z</time>
      </trkpt>
      <trkpt lat="44.00032" lon="4.58911">
        <ele>199.4095025034</ele>
        <time>2021-04-05T16:46:32.387Z</time>
      </trkpt>
      <trkpt lat="44.00023" lon="4.58908">
        <ele>198.80678578918</ele>
        <time>2021-04-05T16:46:35.788Z</time>
      </trkpt>
      <trkpt lat="44.00011" lon="4.589">
        <ele>198.11795772613</ele>
        <time>2021-04-05T16:46:39.193Z</time>
      </trkpt>
      <trkpt lat="44.00006" lon="4.58898">
        <ele>197.38061283732</ele>
        <time>2021-04-05T16:46:42.600Z</time>
      </trkpt>
      <trkpt lat="43.99992" lon="4.58895">
        <ele>196.57104498008</ele>
        <time>2021-04-05T16:46:46.011Z</time>
      </trkpt>
      <trkpt lat="43.99977" lon="4.58897">
        <ele>195.63410309109</ele>
        <time>2021-04-05T16:46:49.426Z</time>
      </trkpt>
      <trkpt lat="43.99954" lon="4.58907">
        <ele>194.63050347637</ele>
        <time>2021-04-05T16:46:52.849Z</time>
      </trkpt>
      <trkpt lat="43.99924" lon="4.58932">
        <ele>193.54380348055</ele>
        <time>2021-04-05T16:46:56.282Z</time>
      </trkpt>
      <trkpt lat="43.99897" lon="4.58958">
        <ele>192.41963779783</ele>
        <time>2021-04-05T16:46:59.725Z</time>
      </trkpt>
      <trkpt lat="43.99847" lon="4.59002">
        <ele>191.19572677261</ele>
        <time>2021-04-05T16:47:03.186Z</time>
      </trkpt>
      <trkpt lat="43.9983" lon="4.59018">
        <ele>190.0676945042</ele>
        <time>2021-04-05T16:47:06.653Z</time>
      </trkpt>
      <trkpt lat="43.99813" lon="4.59041">
        <ele>188.91002657454</ele>
        <time>2021-04-05T16:47:10.127Z</time>
      </trkpt>
      <trkpt lat="43.99804" lon="4.59059">
        <ele>187.76649510859</ele>
        <time>2021-04-05T16:47:13.606Z</time>
      </trkpt>
      <trkpt lat="43.99793" lon="4.59116">
        <ele>186.59109383659</ele>
        <time>2021-04-05T16:47:17.097Z</time>
      </trkpt>
      <trkpt lat="43.99789" lon="4.59118">
        <ele>185.48269538938</ele>
        <time>2021-04-05T16:47:20.590Z</time>
      </trkpt>
      <trkpt lat="43.99781" lon="4.59043">
        <ele>184.47000746813</ele>
        <time>2021-04-05T16:47:24.099Z</time>
      </trkpt>
      <trkpt lat="43.99743" lon="4.58996">
        <ele>183.39745416294</ele>
        <time>2021-04-05T16:47:27.623Z</time>
      </trkpt>
      <trkpt lat="43.9974" lon="4.58997">
        <ele>182.33050201972</ele>
        <time>2021-04-05T16:47:31.148Z</time>
      </trkpt>
      <trkpt lat="43.99698" lon="4.59049">
        <ele>181.2379484298</ele>
        <time>2021-04-05T16:47:34.690Z</time>
      </trkpt>
      <trkpt lat="43.99674" lon="4.59086">
        <ele>180.08327335981</ele>
        <time>2021-04-05T16:47:38.243Z</time>
      </trkpt>
      <trkpt lat="43.99665" lon="4.59095">
        <ele>179.03155280045</ele>
        <time>2021-04-05T16:47:41.799Z</time>
      </trkpt>
      <trkpt lat="43.99656" lon="4.591">
        <ele>178.01628658725</ele>
        <time>2021-04-05T16:47:45.358Z</time>
      </trkpt>
      <trkpt lat="43.99646" lon="4.59101">
        <ele>177.06670844811</ele>
        <time>2021-04-05T16:47:48.920Z</time>
      </trkpt>
      <trkpt lat="43.99601" lon="4.59073">
        <ele>176.36797029005</ele>
        <time>2021-04-05T16:47:52.496Z</time>
      </trkpt>
      <trkpt lat="43.99543" lon="4.5907">
        <ele>175.55598962127</ele>
        <time>2021-04-05T16:47:56.090Z</time>
      </trkpt>
      <trkpt lat="43.99487" lon="4.59059">
        <ele>174.38190054622</ele>
        <time>2021-04-05T16:47:59.701Z</time>
      </trkpt>
      <trkpt lat="43.99434" lon="4.59046">
        <ele>173.42145324</ele>
        <time>2021-04-05T16:48:03.328Z</time>
      </trkpt>
      <trkpt lat="43.99388" lon="4.59034">
        <ele>172.61758780064</ele>
        <time>2021-04-05T16:48:06.969Z</time>
      </trkpt>
      <trkpt lat="43.99336" lon="4.5904">
        <ele>171.74201097763</ele>
        <time>2021-04-05T16:48:10.625Z</time>
      </trkpt>
      <trkpt lat="43.99284" lon="4.59032">
        <ele>170.93669427014</ele>
        <time>2021-04-05T16:48:14.297Z</time>
      </trkpt>
      <trkpt lat="43.9926" lon="4.59036">
        <ele>170.24706652571</ele>
        <time>2021-04-05T16:48:17.976Z</time>
      </trkpt>
      <trkpt lat="43.99249" lon="4.59035">
        <ele>169.65180311458</ele>
        <time>2021-04-05T16:48:21.658Z</time>
      </trkpt>
      <trkpt lat="43.99242" lon="4.59033">
        <ele>169.0971751746</ele>
        <time>2021-04-05T16:48:25.342Z</time>
      </trkpt>
      <trkpt lat="43.99238" lon="4.59031">
        <ele>168.58264864788</ele>
        <time>2021-04-05T16:48:29.028Z</time>
      </trkpt>
      <trkpt lat="43.99235" lon="4.5903">
        <ele>168.1120311727</ele>
        <time>2021-04-05T16:48:32.715Z</time>
      </trkpt>
      <trkpt lat="43.99228" lon="4.59026">
        <ele>167.68253802299</ele>
        <time>2021-04-05T16:48:36.404Z</time>
      </trkpt>
      <trkpt lat="43.99218" lon="4.5902">
        <ele>167.29729125564</ele>
        <time>2021-04-05T16:48:40.096Z</time>
      </trkpt>
      <trkpt lat="43.99211" lon="4.59018">
        <ele>166.95513305955</ele>
        <time>2021-04-05T16:48:43.790Z</time>
      </trkpt>
      <trkpt lat="43.99207" lon="4.59017">
        <ele>166.65286497649</ele>
        <time>2021-04-05T16:48:47.485Z</time>
      </trkpt>
      <trkpt lat="43.99191" lon="4.59015">
        <ele>166.36262809174</ele>
        <time>2021-04-05T16:48:51.185Z</time>
      </trkpt>
      <trkpt lat="43.99134" lon="4.58997">
        <ele>166.02071577441</ele>
        <time>2021-04-05T16:48:54.903Z</time>
      </trkpt>
      <trkpt lat="43.9912" lon="4.58989">
        <ele>165.79650909195</ele>
        <time>2021-04-05T16:48:58.625Z</time>
      </trkpt>
      <trkpt lat="43.99112" lon="4.58981">
        <ele>165.62710742083</ele>
        <time>2021-04-05T16:49:02.350Z</time>
      </trkpt>
      <trkpt lat="43.9908" lon="4.58924">
        <ele>165.60467534481</ele>
        <time>2021-04-05T16:49:06.091Z</time>
      </trkpt>
      <trkpt lat="43.99079" lon="4.58924">
        <ele>165.53428599787</ele>
        <time>2021-04-05T16:49:09.832Z</time>
      </trkpt>
      <trkpt lat="43.99079" lon="4.58924">
        <ele>165.49657687855</ele>
        <time>2021-04-05T16:49:13.573Z</time>
      </trkpt>
      <trkpt lat="43.99079" lon="4.58924">
        <ele>165.48837502938</ele>
        <time>2021-04-05T16:49:17.314Z</time>
      </trkpt>
      <trkpt lat="43.99078" lon="4.58922">
        <ele>165.5107525988</ele>
        <time>2021-04-05T16:49:21.056Z</time>
      </trkpt>
      <trkpt lat="43.99076" lon="4.58912">
        <ele>165.58653840771</ele>
        <time>2021-04-05T16:49:24.800Z</time>
      </trkpt>
      <trkpt lat="43.99068" lon="4.58894">
        <ele>165.69917688375</ele>
        <time>2021-04-05T16:49:28.548Z</time>
      </trkpt>
      <trkpt lat="43.99051" lon="4.58858">
        <ele>165.77885557896</ele>
        <time>2021-04-05T16:49:32.306Z</time>
      </trkpt>
      <trkpt lat="43.99046" lon="4.58848">
        <ele>165.85886992795</ele>
        <time>2021-04-05T16:49:36.066Z</time>
      </trkpt>
      <trkpt lat="43.99046" lon="4.58848">
        <ele>165.9715202547</ele>
        <time>2021-04-05T16:49:39.826Z</time>
      </trkpt>
      <trkpt lat="43.99045" lon="4.58844">
        <ele>166.09382679531</ele>
        <time>2021-04-05T16:49:43.587Z</time>
      </trkpt>
      <trkpt lat="43.99023" lon="4.58795">
        <ele>166.16044105904</ele>
        <time>2021-04-05T16:49:47.361Z</time>
      </trkpt>
      <trkpt lat="43.99022" lon="4.588">
        <ele>166.31140306452</ele>
        <time>2021-04-05T16:49:51.136Z</time>
      </trkpt>
      <trkpt lat="43.99043" lon="4.5884">
        <ele>166.51833864112</ele>
        <time>2021-04-05T16:49:54.921Z</time>
      </trkpt>
      <trkpt lat="43.99047" lon="4.58848">
        <ele>166.68877346537</ele>
        <time>2021-04-05T16:49:58.708Z</time>
      </trkpt>
      <trkpt lat="43.99051" lon="4.58855">
        <ele>166.86282773355</ele>
        <time>2021-04-05T16:50:02.497Z</time>
      </trkpt>
      <trkpt lat="43.99058" lon="4.58871">
        <ele>167.03889578573</ele>
        <time>2021-04-05T16:50:06.290Z</time>
      </trkpt>
      <trkpt lat="43.99066" lon="4.58887">
        <ele>167.20365504332</ele>
        <time>2021-04-05T16:50:10.088Z</time>
      </trkpt>
      <trkpt lat="43.9907" lon="4.58896">
        <ele>167.35845897431</ele>
        <time>2021-04-05T16:50:13.888Z</time>
      </trkpt>
      <trkpt lat="43.99072" lon="4.589">
        <ele>167.51311353967</ele>
        <time>2021-04-05T16:50:17.689Z</time>
      </trkpt>
      <trkpt lat="43.99074" lon="4.58904">
        <ele>167.66719376403</ele>
        <time>2021-04-05T16:50:21.491Z</time>
      </trkpt>
      <trkpt lat="43.9908" lon="4.58923">
        <ele>167.77559634866</ele>
        <time>2021-04-05T16:50:25.297Z</time>
      </trkpt>
      <trkpt lat="43.99075" lon="4.58929">
        <ele>167.89548556862</ele>
        <time>2021-04-05T16:50:29.105Z</time>
      </trkpt>
      <trkpt lat="43.99072" lon="4.58928">
        <ele>168.04513227453</ele>
        <time>2021-04-05T16:50:32.914Z</time>
      </trkpt>
      <trkpt lat="43.99062" lon="4.58925">
        <ele>168.18225819858</ele>
        <time>2021-04-05T16:50:36.726Z</time>
      </trkpt>
      <trkpt lat="43.99059" lon="4.58923">
        <ele>168.34119134107</ele>
        <time>2021-04-05T16:50:40.539Z</time>
      </trkpt>
      <trkpt lat="43.99055" lon="4.58921">
        <ele>168.49944129782</ele>
        <time>2021-04-05T16:50:44.354Z</time>
      </trkpt>
      <trkpt lat="43.99049" lon="4.58916">
        <ele>168.65063309651</ele>
        <time>2021-04-05T16:50:48.171Z</time>
      </trkpt>
      <trkpt lat="43.99046" lon="4.58914">
        <ele>168.79969227065</ele>
        <time>2021-04-05T16:50:51.989Z</time>
      </trkpt>
      <trkpt lat="43.99039" lon="4.58909">
        <ele>168.93854657141</ele>
        <time>2021-04-05T16:50:55.809Z</time>
      </trkpt>
      <trkpt lat="43.98989" lon="4.58876">
        <ele>169.14956638536</ele>
        <time>2021-04-05T16:50:59.645Z</time>
      </trkpt>
      <trkpt lat="43.98974" lon="4.58855">
        <ele>169.32040958576</ele>
        <time>2021-04-05T16:51:03.488Z</time>
      </trkpt>
      <trkpt lat="43.98962" lon="4.58846">
        <ele>169.44657959876</ele>
        <time>2021-04-05T16:51:07.335Z</time>
      </trkpt>
      <trkpt lat="43.98959" lon="4.58845">
        <ele>169.53490452092</ele>
        <time>2021-04-05T16:51:11.183Z</time>
      </trkpt>
      <trkpt lat="43.98956" lon="4.58844">
        <ele>169.60221450522</ele>
        <time>2021-04-05T16:51:15.032Z</time>
      </trkpt>
      <trkpt lat="43.98947" lon="4.58842">
        <ele>169.66701507542</ele>
        <time>2021-04-05T16:51:18.884Z</time>
      </trkpt>
      <trkpt lat="43.98935" lon="4.58846">
        <ele>169.70664909482</ele>
        <time>2021-04-05T16:51:22.739Z</time>
      </trkpt>
      <trkpt lat="43.98932" lon="4.58848">
        <ele>169.68014584394</ele>
        <time>2021-04-05T16:51:26.595Z</time>
      </trkpt>
      <trkpt lat="43.98919" lon="4.58854">
        <ele>169.61640434615</ele>
        <time>2021-04-05T16:51:30.455Z</time>
      </trkpt>
      <trkpt lat="43.98912" lon="4.58854">
        <ele>169.51619043299</ele>
        <time>2021-04-05T16:51:34.317Z</time>
      </trkpt>
      <trkpt lat="43.98898" lon="4.58861">
        <ele>169.38110208364</ele>
        <time>2021-04-05T16:51:38.184Z</time>
      </trkpt>
      <trkpt lat="43.98892" lon="4.58872">
        <ele>169.17251119551</ele>
        <time>2021-04-05T16:51:42.054Z</time>
      </trkpt>
      <trkpt lat="43.98887" lon="4.58882">
        <ele>168.92969015835</ele>
        <time>2021-04-05T16:51:45.926Z</time>
      </trkpt>
      <trkpt lat="43.9888" lon="4.589">
        <ele>168.64936947774</ele>
        <time>2021-04-05T16:51:49.803Z</time>
      </trkpt>
      <trkpt lat="43.98853" lon="4.5894">
        <ele>168.19602155363</ele>
        <time>2021-04-05T16:51:53.692Z</time>
      </trkpt>
      <trkpt lat="43.98842" lon="4.58949">
        <ele>167.78563929204</ele>
        <time>2021-04-05T16:51:57.584Z</time>
      </trkpt>
      <trkpt lat="43.98838" lon="4.58952">
        <ele>167.35971716007</ele>
        <time>2021-04-05T16:52:01.478Z</time>
      </trkpt>
      <trkpt lat="43.98822" lon="4.58959">
        <ele>166.85913266728</ele>
        <time>2021-04-05T16:52:05.377Z</time>
      </trkpt>
      <trkpt lat="43.98818" lon="4.58961">
        <ele>166.3465149267</ele>
        <time>2021-04-05T16:52:09.277Z</time>
      </trkpt>
      <trkpt lat="43.98811" lon="4.58964">
        <ele>165.77637208964</ele>
        <time>2021-04-05T16:52:13.179Z</time>
      </trkpt>
      <trkpt lat="43.98808" lon="4.58966">
        <ele>165.19808715902</ele>
        <time>2021-04-05T16:52:17.082Z</time>
      </trkpt>
      <trkpt lat="43.98793" lon="4.58971">
        <ele>164.49567845354</ele>
        <time>2021-04-05T16:52:20.990Z</time>
      </trkpt>
      <trkpt lat="43.98789" lon="4.58972">
        <ele>163.872308338</ele>
        <time>2021-04-05T16:52:24.899Z</time>
      </trkpt>
      <trkpt lat="43.98788" lon="4.58973">
        <ele>163.24326398346</ele>
        <time>2021-04-05T16:52:28.808Z</time>
      </trkpt>
      <trkpt lat="43.98788" lon="4.58974">
        <ele>162.60666231248</ele>
        <time>2021-04-05T16:52:32.718Z</time>
      </trkpt>
      <trkpt lat="43.98788" lon="4.58974">
        <ele>161.96149664869</ele>
        <time>2021-04-05T16:52:36.628Z</time>
      </trkpt>
      <trkpt lat="43.98781" lon="4.58976">
        <ele>161.27710986899</ele>
        <time>2021-04-05T16:52:40.540Z</time>
      </trkpt>
      <trkpt lat="43.98777" lon="4.58978">
        <ele>160.60195109407</ele>
        <time>2021-04-05T16:52:44.453Z</time>
      </trkpt>
      <trkpt lat="43.98774" lon="4.5898">
        <ele>159.93580761635</ele>
        <time>2021-04-05T16:52:48.367Z</time>
      </trkpt>
      <trkpt lat="43.98765" lon="4.58983">
        <ele>159.23024679738</ele>
        <time>2021-04-05T16:52:52.284Z</time>
      </trkpt>
      <trkpt lat="43.98751" lon="4.5899">
        <ele>158.49012849557</ele>
        <time>2021-04-05T16:52:56.205Z</time>
      </trkpt>
      <trkpt lat="43.98743" lon="4.58991">
        <ele>157.81493915762</ele>
        <time>2021-04-05T16:53:00.129Z</time>
      </trkpt>
      <trkpt lat="43.9874" lon="4.58991">
        <ele>157.18184964587</ele>
        <time>2021-04-05T16:53:04.054Z</time>
      </trkpt>
      <trkpt lat="43.98737" lon="4.58991">
        <ele>156.56719251486</ele>
        <time>2021-04-05T16:53:07.979Z</time>
      </trkpt>
      <trkpt lat="43.98734" lon="4.5899">
        <ele>155.97007336132</ele>
        <time>2021-04-05T16:53:11.905Z</time>
      </trkpt>
      <trkpt lat="43.98732" lon="4.58989">
        <ele>155.39454007916</ele>
        <time>2021-04-05T16:53:15.832Z</time>
      </trkpt>
      <trkpt lat="43.9873" lon="4.58988">
        <ele>154.84655619592</ele>
        <time>2021-04-05T16:53:19.760Z</time>
      </trkpt>
      <trkpt lat="43.98727" lon="4.58988">
        <ele>154.32343880935</ele>
        <time>2021-04-05T16:53:23.688Z</time>
      </trkpt>
      <trkpt lat="43.98715" lon="4.58983">
        <ele>153.74991682556</ele>
        <time>2021-04-05T16:53:27.620Z</time>
      </trkpt>
      <trkpt lat="43.9871" lon="4.58983">
        <ele>153.27296520793</ele>
        <time>2021-04-05T16:53:31.554Z</time>
      </trkpt>
      <trkpt lat="43.98707" lon="4.58983">
        <ele>152.84050031974</ele>
        <time>2021-04-05T16:53:35.488Z</time>
      </trkpt>
      <trkpt lat="43.98705" lon="4.58983">
        <ele>152.43401863273</ele>
        <time>2021-04-05T16:53:39.423Z</time>
      </trkpt>
      <trkpt lat="43.98704" lon="4.58983">
        <ele>152.07251869547</ele>
        <time>2021-04-05T16:53:43.358Z</time>
      </trkpt>
      <trkpt lat="43.98704" lon="4.58983">
        <ele>151.74079563067</ele>
        <time>2021-04-05T16:53:47.293Z</time>
      </trkpt>
      <trkpt lat="43.98704" lon="4.58983">
        <ele>151.43569581749</ele>
        <time>2021-04-05T16:53:51.228Z</time>
      </trkpt>
      <trkpt lat="43.98704" lon="4.58983">
        <ele>151.1571893606</ele>
        <time>2021-04-05T16:53:55.163Z</time>
      </trkpt>
      <trkpt lat="43.98704" lon="4.58983">
        <ele>150.90102865762</ele>
        <time>2021-04-05T16:53:59.099Z</time>
      </trkpt>
      <trkpt lat="43.98704" lon="4.58983">
        <ele>150.66767094285</ele>
        <time>2021-04-05T16:54:03.035Z</time>
      </trkpt>
      <trkpt lat="43.98704" lon="4.58983">
        <ele>150.45383057784</ele>
        <time>2021-04-05T16:54:06.971Z</time>
      </trkpt>
      <trkpt lat="43.98704" lon="4.58983">
        <ele>150.25685404521</ele>
        <time>2021-04-05T16:54:10.907Z</time>
      </trkpt>
      <trkpt lat="43.98704" lon="4.58983">
        <ele>150.0742119613</ele>
        <time>2021-04-05T16:54:14.843Z</time>
      </trkpt>
      <trkpt lat="43.98704" lon="4.58983">
        <ele>149.9035930141</ele>
        <time>2021-04-05T16:54:18.779Z</time>
      </trkpt>
      <trkpt lat="43.98704" lon="4.58983">
        <ele>149.74241252468</ele>
        <time>2021-04-05T16:54:22.715Z</time>
      </trkpt>
      <trkpt lat="43.98704" lon="4.58983">
        <ele>149.9035930141</ele>
        <time>2021-04-05T16:54:26.651Z</time>
      </trkpt>
      <trkpt lat="43.98704" lon="4.58983">
        <ele>149.43884567725</ele>
        <time>2021-04-05T16:54:30.587Z</time>
      </trkpt>
      <trkpt lat="43.98704" lon="4.58983">
        <ele>149.9035930141</ele>
        <time>2021-04-05T16:54:34.523Z</time>
      </trkpt>
      <trkpt lat="43.98703" lon="4.58983">
        <ele>149.14172946736</ele>
        <time>2021-04-05T16:54:38.459Z</time>
      </trkpt>
      <trkpt lat="43.98694" lon="4.58982">
        <ele>148.94478536418</ele>
        <time>2021-04-05T16:54:42.398Z</time>
      </trkpt>
      <trkpt lat="43.98683" lon="4.58982">
        <ele>148.73405056136</ele>
        <time>2021-04-05T16:54:46.340Z</time>
      </trkpt>
      <trkpt lat="43.98681" lon="4.58983">
        <ele>148.57262087777</ele>
        <time>2021-04-05T16:54:50.283Z</time>
      </trkpt>
      <trkpt lat="43.98679" lon="4.58983">
        <ele>148.40323643358</ele>
        <time>2021-04-05T16:54:54.226Z</time>
      </trkpt>
      <trkpt lat="43.98677" lon="4.58983">
        <ele>148.22470512869</ele>
        <time>2021-04-05T16:54:58.170Z</time>
      </trkpt>
      <trkpt lat="43.98675" lon="4.58983">
        <ele>148.03913555597</ele>
        <time>2021-04-05T16:55:02.114Z</time>
      </trkpt>
      <trkpt lat="43.98668" lon="4.58983">
        <ele>147.80458787801</ele>
        <time>2021-04-05T16:55:06.060Z</time>
      </trkpt>
      <trkpt lat="43.98664" lon="4.58981">
        <ele>147.57787241221</ele>
        <time>2021-04-05T16:55:10.008Z</time>
      </trkpt>
      <trkpt lat="43.98657" lon="4.5898">
        <ele>147.3264456248</ele>
        <time>2021-04-05T16:55:13.958Z</time>
      </trkpt>
      <trkpt lat="43.98652" lon="4.58978">
        <ele>147.08707115473</ele>
        <time>2021-04-05T16:55:17.909Z</time>
      </trkpt>
      <trkpt lat="43.98644" lon="4.58975">
        <ele>146.84661227624</ele>
        <time>2021-04-05T16:55:21.863Z</time>
      </trkpt>
      <trkpt lat="43.98642" lon="4.58975">
        <ele>146.617080724</ele>
        <time>2021-04-05T16:55:25.817Z</time>
      </trkpt>
      <trkpt lat="43.9864" lon="4.58974">
        <ele>146.37642531021</ele>
        <time>2021-04-05T16:55:29.772Z</time>
      </trkpt>
      <trkpt lat="43.98625" lon="4.58969">
        <ele>146.08045051248</ele>
        <time>2021-04-05T16:55:33.731Z</time>
      </trkpt>
      <trkpt lat="43.98623" lon="4.58967">
        <ele>145.79948297631</ele>
        <time>2021-04-05T16:55:37.691Z</time>
      </trkpt>
      <trkpt lat="43.9862" lon="4.58963">
        <ele>145.488048599</ele>
        <time>2021-04-05T16:55:41.652Z</time>
      </trkpt>
      <trkpt lat="43.98619" lon="4.5896">
        <ele>145.15274139271</ele>
        <time>2021-04-05T16:55:45.614Z</time>
      </trkpt>
      <trkpt lat="43.98619" lon="4.5896">
        <ele>144.79817950873</ele>
        <time>2021-04-05T16:55:49.576Z</time>
      </trkpt>
      <trkpt lat="43.98617" lon="4.58959">
        <ele>144.40552398587</ele>
        <time>2021-04-05T16:55:53.539Z</time>
      </trkpt>
      <trkpt lat="43.98608" lon="4.58942">
        <ele>143.92372029333</ele>
        <time>2021-04-05T16:55:57.506Z</time>
      </trkpt>
      <trkpt lat="43.98603" lon="4.58935">
        <ele>143.43708490174</ele>
        <time>2021-04-05T16:56:01.476Z</time>
      </trkpt>
      <trkpt lat="43.98594" lon="4.58922">
        <ele>142.87736949312</ele>
        <time>2021-04-05T16:56:05.449Z</time>
      </trkpt>
      <trkpt lat="43.9859" lon="4.58918">
        <ele>142.27777916976</ele>
        <time>2021-04-05T16:56:09.424Z</time>
      </trkpt>
      <trkpt lat="43.98581" lon="4.58912">
        <ele>141.6136649246</ele>
        <time>2021-04-05T16:56:13.402Z</time>
      </trkpt>
      <trkpt lat="43.98573" lon="4.58908">
        <ele>140.88622276653</ele>
        <time>2021-04-05T16:56:17.383Z</time>
      </trkpt>
      <trkpt lat="43.98563" lon="4.58903">
        <ele>140.07752203913</ele>
        <time>2021-04-05T16:56:21.367Z</time>
      </trkpt>
      <trkpt lat="43.98547" lon="4.58896">
        <ele>139.15908966514</ele>
        <time>2021-04-05T16:56:25.356Z</time>
      </trkpt>
      <trkpt lat="43.98529" lon="4.58893">
        <ele>138.20903122572</ele>
        <time>2021-04-05T16:56:29.350Z</time>
      </trkpt>
      <trkpt lat="43.98513" lon="4.58893">
        <ele>137.19133101939</ele>
        <time>2021-04-05T16:56:33.349Z</time>
      </trkpt>
      <trkpt lat="43.98476" lon="4.58897">
        <ele>136.16782777671</ele>
        <time>2021-04-05T16:56:37.359Z</time>
      </trkpt>
      <trkpt lat="43.98468" lon="4.58919">
        <ele>134.86375338517</ele>
        <time>2021-04-05T16:56:41.374Z</time>
      </trkpt>
      <trkpt lat="43.98467" lon="4.58921">
        <ele>133.61716180053</ele>
        <time>2021-04-05T16:56:45.390Z</time>
      </trkpt>
      <trkpt lat="43.98467" lon="4.58924">
        <ele>132.2850647557</ele>
        <time>2021-04-05T16:56:49.406Z</time>
      </trkpt>
      <trkpt lat="43.98466" lon="4.58926">
        <ele>130.86056815847</ele>
        <time>2021-04-05T16:56:53.423Z</time>
      </trkpt>
      <trkpt lat="43.98465" lon="4.58929">
        <ele>129.33222365791</ele>
        <time>2021-04-05T16:56:57.440Z</time>
      </trkpt>
      <trkpt lat="43.98464" lon="4.58932">
        <ele>127.70560343446</ele>
        <time>2021-04-05T16:57:01.458Z</time>
      </trkpt>
      <trkpt lat="43.98457" lon="4.58943">
        <ele>125.93665296069</ele>
        <time>2021-04-05T16:57:05.479Z</time>
      </trkpt>
      <trkpt lat="43.9845" lon="4.58951">
        <ele>124.11061021565</ele>
        <time>2021-04-05T16:57:09.503Z</time>
      </trkpt>
      <trkpt lat="43.98442" lon="4.58957">
        <ele>122.21299334946</ele>
        <time>2021-04-05T16:57:13.530Z</time>
      </trkpt>
      <trkpt lat="43.98423" lon="4.58968">
        <ele>120.15859658441</ele>
        <time>2021-04-05T16:57:17.563Z</time>
      </trkpt>
      <trkpt lat="43.98388" lon="4.59">
        <ele>117.87982419471</ele>
        <time>2021-04-05T16:57:21.608Z</time>
      </trkpt>
      <trkpt lat="43.98352" lon="4.59012">
        <ele>115.63985572819</ele>
        <time>2021-04-05T16:57:25.664Z</time>
      </trkpt>
      <trkpt lat="43.98325" lon="4.59014">
        <ele>113.35194664175</ele>
        <time>2021-04-05T16:57:29.729Z</time>
      </trkpt>
      <trkpt lat="43.9827" lon="4.58994">
        <ele>111.0204459658</ele>
        <time>2021-04-05T16:57:33.811Z</time>
      </trkpt>
      <trkpt lat="43.9822" lon="4.59001">
        <ele>108.63986574223</ele>
        <time>2021-04-05T16:57:37.907Z</time>
      </trkpt>
      <trkpt lat="43.98167" lon="4.59015">
        <ele>106.06106386467</ele>
        <time>2021-04-05T16:57:42.020Z</time>
      </trkpt>
      <trkpt lat="43.98114" lon="4.58994">
        <ele>103.53210651646</ele>
        <time>2021-04-05T16:57:46.149Z</time>
      </trkpt>
      <trkpt lat="43.98103" lon="4.5899">
        <ele>101.14829769772</ele>
        <time>2021-04-05T16:57:50.281Z</time>
      </trkpt>
      <trkpt lat="43.98059" lon="4.58976">
        <ele>98.70063179628</ele>
        <time>2021-04-05T16:57:54.427Z</time>
      </trkpt>
      <trkpt lat="43.98004" lon="4.5898">
        <ele>96.168570662</ele>
        <time>2021-04-05T16:57:58.589Z</time>
      </trkpt>
      <trkpt lat="43.97951" lon="4.58972">
        <ele>93.66123479968</ele>
        <time>2021-04-05T16:58:02.767Z</time>
      </trkpt>
      <trkpt lat="43.97918" lon="4.58967">
        <ele>91.21014152676</ele>
        <time>2021-04-05T16:58:06.955Z</time>
      </trkpt>
      <trkpt lat="43.97901" lon="4.58962">
        <ele>88.9881658081</ele>
        <time>2021-04-05T16:58:11.148Z</time>
      </trkpt>
      <trkpt lat="43.97901" lon="4.58962">
        <ele>86.94779357103</ele>
        <time>2021-04-05T16:58:15.342Z</time>
      </trkpt>
      <trkpt lat="43.97876" lon="4.58956">
        <ele>84.93573599835</ele>
        <time>2021-04-05T16:58:19.543Z</time>
      </trkpt>
      <trkpt lat="43.97822" lon="4.5895">
        <ele>82.94235573676</ele>
        <time>2021-04-05T16:58:23.760Z</time>
      </trkpt>
      <trkpt lat="43.97811" lon="4.58949">
        <ele>81.16818357627</ele>
        <time>2021-04-05T16:58:27.980Z</time>
      </trkpt>
      <trkpt lat="43.97793" lon="4.58947">
        <ele>79.48678229299</ele>
        <time>2021-04-05T16:58:32.206Z</time>
      </trkpt>
      <trkpt lat="43.97763" lon="4.58945">
        <ele>77.84070157625</ele>
        <time>2021-04-05T16:58:36.441Z</time>
      </trkpt>
      <trkpt lat="43.97752" lon="4.58943">
        <ele>76.3942928258</ele>
        <time>2021-04-05T16:58:40.679Z</time>
      </trkpt>
      <trkpt lat="43.97746" lon="4.58943">
        <ele>75.06325190266</ele>
        <time>2021-04-05T16:58:44.919Z</time>
      </trkpt>
      <trkpt lat="43.97741" lon="4.58942">
        <ele>73.83927499089</ele>
        <time>2021-04-05T16:58:49.160Z</time>
      </trkpt>
      <trkpt lat="43.9772" lon="4.58938">
        <ele>72.70340788464</ele>
        <time>2021-04-05T16:58:53.408Z</time>
      </trkpt>
      <trkpt lat="43.9771" lon="4.58935">
        <ele>71.68761032789</ele>
        <time>2021-04-05T16:58:57.659Z</time>
      </trkpt>
      <trkpt lat="43.97706" lon="4.58933">
        <ele>70.76598313237</ele>
        <time>2021-04-05T16:59:01.911Z</time>
      </trkpt>
      <trkpt lat="43.97697" lon="4.58928">
        <ele>69.91693271243</ele>
        <time>2021-04-05T16:59:06.166Z</time>
      </trkpt>
      <trkpt lat="43.97689" lon="4.58923">
        <ele>69.15143027906</ele>
        <time>2021-04-05T16:59:10.424Z</time>
      </trkpt>
      <trkpt lat="43.9768" lon="4.58917">
        <ele>68.46653377533</ele>
        <time>2021-04-05T16:59:14.684Z</time>
      </trkpt>
      <trkpt lat="43.97651" lon="4.58901">
        <ele>67.874220526</ele>
        <time>2021-04-05T16:59:18.954Z</time>
      </trkpt>
      <trkpt lat="43.97642" lon="4.58899">
        <ele>67.3463680294</ele>
        <time>2021-04-05T16:59:23.227Z</time>
      </trkpt>
      <trkpt lat="43.97631" lon="4.58897">
        <ele>66.87562610662</ele>
        <time>2021-04-05T16:59:27.503Z</time>
      </trkpt>
      <trkpt lat="43.97623" lon="4.58895">
        <ele>66.44423043435</ele>
        <time>2021-04-05T16:59:31.781Z</time>
      </trkpt>
      <trkpt lat="43.97609" lon="4.58892">
        <ele>66.02381171815</ele>
        <time>2021-04-05T16:59:36.063Z</time>
      </trkpt>
      <trkpt lat="43.97592" lon="4.58884">
        <ele>65.63149774445</ele>
        <time>2021-04-05T16:59:40.351Z</time>
      </trkpt>
      <trkpt lat="43.97592" lon="4.58883">
        <ele>65.32272408024</ele>
        <time>2021-04-05T16:59:44.639Z</time>
      </trkpt>
      <trkpt lat="43.9759" lon="4.58884">
        <ele>65.03377427875</ele>
        <time>2021-04-05T16:59:48.928Z</time>
      </trkpt>
      <trkpt lat="43.9757" lon="4.5888">
        <ele>64.70730104016</ele>
        <time>2021-04-05T16:59:53.223Z</time>
      </trkpt>
      <trkpt lat="43.97549" lon="4.58868">
        <ele>64.47526531608</ele>
        <time>2021-04-05T16:59:57.524Z</time>
      </trkpt>
      <trkpt lat="43.97529" lon="4.58866">
        <ele>64.23432151517</ele>
        <time>2021-04-05T17:00:01.831Z</time>
      </trkpt>
      <trkpt lat="43.9752" lon="4.58868">
        <ele>63.99246701041</ele>
        <time>2021-04-05T17:00:06.141Z</time>
      </trkpt>
      <trkpt lat="43.97509" lon="4.58868">
        <ele>63.72982706474</ele>
        <time>2021-04-05T17:00:10.454Z</time>
      </trkpt>
      <trkpt lat="43.97499" lon="4.58866">
        <ele>63.4506233592</ele>
        <time>2021-04-05T17:00:14.771Z</time>
      </trkpt>
      <trkpt lat="43.97478" lon="4.58861">
        <ele>63.14077760044</ele>
        <time>2021-04-05T17:00:19.094Z</time>
      </trkpt>
      <trkpt lat="43.97463" lon="4.58868">
        <ele>62.85606613094</ele>
        <time>2021-04-05T17:00:23.422Z</time>
      </trkpt>
      <trkpt lat="43.97452" lon="4.58882">
        <ele>62.54844285161</ele>
        <time>2021-04-05T17:00:27.754Z</time>
      </trkpt>
      <trkpt lat="43.97448" lon="4.58889">
        <ele>62.27015288544</ele>
        <time>2021-04-05T17:00:32.088Z</time>
      </trkpt>
      <trkpt lat="43.97444" lon="4.58895">
        <ele>61.99670728922</ele>
        <time>2021-04-05T17:00:36.424Z</time>
      </trkpt>
      <trkpt lat="43.9744" lon="4.589">
        <ele>61.71457074727</ele>
        <time>2021-04-05T17:00:40.761Z</time>
      </trkpt>
      <trkpt lat="43.97437" lon="4.58902">
        <ele>61.42407895373</ele>
        <time>2021-04-05T17:00:45.099Z</time>
      </trkpt>
      <trkpt lat="43.97428" lon="4.58907">
        <ele>61.13074372042</ele>
        <time>2021-04-05T17:00:49.440Z</time>
      </trkpt>
      <trkpt lat="43.97385" lon="4.58903">
        <ele>60.7947481742</ele>
        <time>2021-04-05T17:00:53.794Z</time>
      </trkpt>
      <trkpt lat="43.97335" lon="4.58871">
        <ele>60.29523038124</ele>
        <time>2021-04-05T17:00:58.165Z</time>
      </trkpt>
      <trkpt lat="43.97299" lon="4.5886">
        <ele>59.91117452019</ele>
        <time>2021-04-05T17:01:02.546Z</time>
      </trkpt>
      <trkpt lat="43.97288" lon="4.58856">
        <ele>59.57028806787</ele>
        <time>2021-04-05T17:01:06.931Z</time>
      </trkpt>
      <trkpt lat="43.97249" lon="4.58849">
        <ele>59.20099188675</ele>
        <time>2021-04-05T17:01:11.327Z</time>
      </trkpt>
      <trkpt lat="43.97238" lon="4.58848">
        <ele>58.83656075215</ele>
        <time>2021-04-05T17:01:15.727Z</time>
      </trkpt>
      <trkpt lat="43.9721" lon="4.58844">
        <ele>58.42008939005</ele>
        <time>2021-04-05T17:01:20.135Z</time>
      </trkpt>
      <trkpt lat="43.97182" lon="4.58845">
        <ele>58.03776922266</ele>
        <time>2021-04-05T17:01:24.552Z</time>
      </trkpt>
      <trkpt lat="43.97134" lon="4.58856">
        <ele>57.6159507805</ele>
        <time>2021-04-05T17:01:28.983Z</time>
      </trkpt>
      <trkpt lat="43.97131" lon="4.58854">
        <ele>57.24939771206</ele>
        <time>2021-04-05T17:01:33.415Z</time>
      </trkpt>
      <trkpt lat="43.97129" lon="4.58852">
        <ele>56.88570346346</ele>
        <time>2021-04-05T17:01:37.848Z</time>
      </trkpt>
      <trkpt lat="43.9712" lon="4.58837">
        <ele>56.51824792987</ele>
        <time>2021-04-05T17:01:42.285Z</time>
      </trkpt>
      <trkpt lat="43.97119" lon="4.58828">
        <ele>56.16962770952</ele>
        <time>2021-04-05T17:01:46.724Z</time>
      </trkpt>
      <trkpt lat="43.97119" lon="4.5882">
        <ele>55.83348586971</ele>
        <time>2021-04-05T17:01:51.165Z</time>
      </trkpt>
      <trkpt lat="43.97118" lon="4.58774">
        <ele>55.4626027807</ele>
        <time>2021-04-05T17:01:55.616Z</time>
      </trkpt>
      <trkpt lat="43.97113" lon="4.58742">
        <ele>55.06648809888</ele>
        <time>2021-04-05T17:02:00.074Z</time>
      </trkpt>
      <trkpt lat="43.97105" lon="4.58727">
        <ele>54.6961934061</ele>
        <time>2021-04-05T17:02:04.536Z</time>
      </trkpt>
      <trkpt lat="43.97111" lon="4.58648">
        <ele>54.29607911838</ele>
        <time>2021-04-05T17:02:09.015Z</time>
      </trkpt>
      <trkpt lat="43.97118" lon="4.58613">
        <ele>54.0339107033</ele>
        <time>2021-04-05T17:02:13.502Z</time>
      </trkpt>
      <trkpt lat="43.97117" lon="4.58579">
        <ele>53.75931039079</ele>
        <time>2021-04-05T17:02:17.996Z</time>
      </trkpt>
      <trkpt lat="43.97114" lon="4.58571">
        <ele>53.50319429198</ele>
        <time>2021-04-05T17:02:22.492Z</time>
      </trkpt>
      <trkpt lat="43.97112" lon="4.58567">
        <ele>53.26329712579</ele>
        <time>2021-04-05T17:02:26.989Z</time>
      </trkpt>
      <trkpt lat="43.97112" lon="4.58565">
        <ele>53.04325974165</ele>
        <time>2021-04-05T17:02:31.487Z</time>
      </trkpt>
      <trkpt lat="43.97112" lon="4.58564">
        <ele>52.83531351686</ele>
        <time>2021-04-05T17:02:35.985Z</time>
      </trkpt>
      <trkpt lat="43.97112" lon="4.58564">
        <ele>52.64408246071</ele>
        <time>2021-04-05T17:02:40.483Z</time>
      </trkpt>
      <trkpt lat="43.97112" lon="4.58564">
        <ele>52.46727064308</ele>
        <time>2021-04-05T17:02:44.981Z</time>
      </trkpt>
      <trkpt lat="43.97108" lon="4.58568">
        <ele>52.28283400194</ele>
        <time>2021-04-05T17:02:49.480Z</time>
      </trkpt>
      <trkpt lat="43.97096" lon="4.58584">
        <ele>52.10739488081</ele>
        <time>2021-04-05T17:02:53.984Z</time>
      </trkpt>
      <trkpt lat="43.97091" lon="4.5859">
        <ele>51.97117909729</ele>
        <time>2021-04-05T17:02:58.490Z</time>
      </trkpt>
      <trkpt lat="43.97085" lon="4.58596">
        <ele>51.84575739019</ele>
        <time>2021-04-05T17:03:02.999Z</time>
      </trkpt>
      <trkpt lat="43.97075" lon="4.5861">
        <ele>51.73091123795</ele>
        <time>2021-04-05T17:03:07.512Z</time>
      </trkpt>
      <trkpt lat="43.97061" lon="4.58627">
        <ele>51.64910468223</ele>
        <time>2021-04-05T17:03:12.030Z</time>
      </trkpt>
      <trkpt lat="43.97042" lon="4.58651">
        <ele>51.57678709751</ele>
        <time>2021-04-05T17:03:16.556Z</time>
      </trkpt>
      <trkpt lat="43.97011" lon="4.5869">
        <ele>51.43221836787</ele>
        <time>2021-04-05T17:03:21.094Z</time>
      </trkpt>
      <trkpt lat="43.97004" lon="4.58697">
        <ele>51.33448183764</ele>
        <time>2021-04-05T17:03:25.635Z</time>
      </trkpt>
      <trkpt lat="43.9697" lon="4.58685">
        <ele>51.18643067144</ele>
        <time>2021-04-05T17:03:30.186Z</time>
      </trkpt>
      <trkpt lat="43.96956" lon="4.58669">
        <ele>51.08856632361</ele>
        <time>2021-04-05T17:03:34.743Z</time>
      </trkpt>
      <trkpt lat="43.96952" lon="4.58661">
        <ele>51.00005790037</ele>
        <time>2021-04-05T17:03:39.302Z</time>
      </trkpt>
      <trkpt lat="43.96952" lon="4.58648">
        <ele>50.92834972377</ele>
        <time>2021-04-05T17:03:43.864Z</time>
      </trkpt>
      <trkpt lat="43.96953" lon="4.58639">
        <ele>50.86044653879</ele>
        <time>2021-04-05T17:03:48.428Z</time>
      </trkpt>
      <trkpt lat="43.96952" lon="4.58647">
        <ele>50.77964237244</ele>
        <time>2021-04-05T17:03:52.993Z</time>
      </trkpt>
      <trkpt lat="43.96953" lon="4.58663">
        <ele>50.70570293786</ele>
        <time>2021-04-05T17:03:57.562Z</time>
      </trkpt>
      <trkpt lat="43.9697" lon="4.58685">
        <ele>50.65164841183</ele>
        <time>2021-04-05T17:04:02.138Z</time>
      </trkpt>
      <trkpt lat="43.96991" lon="4.58715">
        <ele>50.62602748681</ele>
        <time>2021-04-05T17:04:06.722Z</time>
      </trkpt>
      <trkpt lat="43.96967" lon="4.5874">
        <ele>50.47585650126</ele>
        <time>2021-04-05T17:04:11.316Z</time>
      </trkpt>
      <trkpt lat="43.96922" lon="4.58788">
        <ele>50.32653590757</ele>
        <time>2021-04-05T17:04:15.926Z</time>
      </trkpt>
      <trkpt lat="43.9688" lon="4.58822">
        <ele>50.22148232144</ele>
        <time>2021-04-05T17:04:20.551Z</time>
      </trkpt>
      <trkpt lat="43.96842" lon="4.5884">
        <ele>50.05902703492</ele>
        <time>2021-04-05T17:04:25.188Z</time>
      </trkpt>
      <trkpt lat="43.96805" lon="4.58846">
        <ele>49.90730517862</ele>
        <time>2021-04-05T17:04:29.836Z</time>
      </trkpt>
      <trkpt lat="43.96798" lon="4.58824">
        <ele>49.68746051801</ele>
        <time>2021-04-05T17:04:34.489Z</time>
      </trkpt>
      <trkpt lat="43.96791" lon="4.58767">
        <ele>49.45904553041</ele>
        <time>2021-04-05T17:04:39.155Z</time>
      </trkpt>
      <trkpt lat="43.96785" lon="4.58747">
        <ele>49.23936203939</ele>
        <time>2021-04-05T17:04:43.825Z</time>
      </trkpt>
      <trkpt lat="43.96759" lon="4.58698">
        <ele>48.95212125639</ele>
        <time>2021-04-05T17:04:48.508Z</time>
      </trkpt>
      <trkpt lat="43.96753" lon="4.58676">
        <ele>48.68936767182</ele>
        <time>2021-04-05T17:04:53.197Z</time>
      </trkpt>
      <trkpt lat="43.96749" lon="4.58651">
        <ele>48.3764027365</ele>
        <time>2021-04-05T17:04:57.891Z</time>
      </trkpt>
      <trkpt lat="43.96748" lon="4.58643">
        <ele>48.05946224171</ele>
        <time>2021-04-05T17:05:02.587Z</time>
      </trkpt>
      <trkpt lat="43.96745" lon="4.5862">
        <ele>47.73150810629</ele>
        <time>2021-04-05T17:05:07.288Z</time>
      </trkpt>
      <trkpt lat="43.96744" lon="4.58612">
        <ele>47.38586746455</ele>
        <time>2021-04-05T17:05:11.991Z</time>
      </trkpt>
      <trkpt lat="43.96742" lon="4.58596">
        <ele>47.01856794609</ele>
        <time>2021-04-05T17:05:16.697Z</time>
      </trkpt>
      <trkpt lat="43.9674" lon="4.5858">
        <ele>46.61992802997</ele>
        <time>2021-04-05T17:05:21.407Z</time>
      </trkpt>
      <trkpt lat="43.96737" lon="4.58556">
        <ele>46.16614302237</ele>
        <time>2021-04-05T17:05:26.122Z</time>
      </trkpt>
      <trkpt lat="43.96734" lon="4.58539">
        <ele>45.70772227718</ele>
        <time>2021-04-05T17:05:30.841Z</time>
      </trkpt>
      <trkpt lat="43.96732" lon="4.58522">
        <ele>45.24556341305</ele>
        <time>2021-04-05T17:05:35.563Z</time>
      </trkpt>
      <trkpt lat="43.9673" lon="4.58505">
        <ele>44.78106603819</ele>
        <time>2021-04-05T17:05:40.289Z</time>
      </trkpt>
      <trkpt lat="43.96727" lon="4.58478">
        <ele>44.29962689222</ele>
        <time>2021-04-05T17:05:45.021Z</time>
      </trkpt>
      <trkpt lat="43.96724" lon="4.5845">
        <ele>43.80085812863</ele>
        <time>2021-04-05T17:05:49.759Z</time>
      </trkpt>
      <trkpt lat="43.96723" lon="4.58432">
        <ele>43.26198283337</ele>
        <time>2021-04-05T17:05:54.501Z</time>
      </trkpt>
      <trkpt lat="43.96724" lon="4.58379">
        <ele>42.66627882078</ele>
        <time>2021-04-05T17:05:59.254Z</time>
      </trkpt>
      <trkpt lat="43.96719" lon="4.58355">
        <ele>42.04417814055</ele>
        <time>2021-04-05T17:06:04.013Z</time>
      </trkpt>
      <trkpt lat="43.96713" lon="4.58339">
        <ele>41.46091013865</ele>
        <time>2021-04-05T17:06:08.776Z</time>
      </trkpt>
      <trkpt lat="43.9669" lon="4.5827">
        <ele>40.82307815995</ele>
        <time>2021-04-05T17:06:13.555Z</time>
      </trkpt>
      <trkpt lat="43.96683" lon="4.58254">
        <ele>40.23886060268</ele>
        <time>2021-04-05T17:06:18.338Z</time>
      </trkpt>
      <trkpt lat="43.96665" lon="4.58215">
        <ele>39.71482365276</ele>
        <time>2021-04-05T17:06:23.131Z</time>
      </trkpt>
      <trkpt lat="43.96654" lon="4.58192">
        <ele>39.17483366236</ele>
        <time>2021-04-05T17:06:27.930Z</time>
      </trkpt>
      <trkpt lat="43.96646" lon="4.58176">
        <ele>38.61421384009</ele>
        <time>2021-04-05T17:06:32.733Z</time>
      </trkpt>
      <trkpt lat="43.96642" lon="4.58169">
        <ele>38.06816724358</ele>
        <time>2021-04-05T17:06:37.538Z</time>
      </trkpt>
      <trkpt lat="43.96635" lon="4.58153">
        <ele>37.52578408816</ele>
        <time>2021-04-05T17:06:42.347Z</time>
      </trkpt>
      <trkpt lat="43.966" lon="4.58087">
        <ele>36.9431436251</ele>
        <time>2021-04-05T17:06:47.174Z</time>
      </trkpt>
      <trkpt lat="43.96563" lon="4.58022">
        <ele>36.37581489561</ele>
        <time>2021-04-05T17:06:52.019Z</time>
      </trkpt>
      <trkpt lat="43.96526" lon="4.57959">
        <ele>35.419505984</ele>
        <time>2021-04-05T17:06:56.881Z</time>
      </trkpt>
      <trkpt lat="43.9649" lon="4.57892">
        <ele>34.86390505151</ele>
        <time>2021-04-05T17:07:01.761Z</time>
      </trkpt>
      <trkpt lat="43.96463" lon="4.57827">
        <ele>34.48995429254</ele>
        <time>2021-04-05T17:07:06.657Z</time>
      </trkpt>
      <trkpt lat="43.96437" lon="4.57751">
        <ele>34.11952424303</ele>
        <time>2021-04-05T17:07:11.571Z</time>
      </trkpt>
      <trkpt lat="43.96409" lon="4.57692">
        <ele>33.69439742728</ele>
        <time>2021-04-05T17:07:16.501Z</time>
      </trkpt>
      <trkpt lat="43.96362" lon="4.57644">
        <ele>33.28196526625</ele>
        <time>2021-04-05T17:07:21.448Z</time>
      </trkpt>
      <trkpt lat="43.96342" lon="4.57627">
        <ele>32.99359055002</ele>
        <time>2021-04-05T17:07:26.402Z</time>
      </trkpt>
      <trkpt lat="43.9634" lon="4.5762">
        <ele>32.75656386371</ele>
        <time>2021-04-05T17:07:31.358Z</time>
      </trkpt>
      <trkpt lat="43.9634" lon="4.5762">
        <ele>32.5435670955</ele>
        <time>2021-04-05T17:07:36.314Z</time>
      </trkpt>
      <trkpt lat="43.96341" lon="4.57621">
        <ele>32.36248037381</ele>
        <time>2021-04-05T17:07:41.270Z</time>
      </trkpt>
      <trkpt lat="43.96339" lon="4.57627">
        <ele>32.20688231886</ele>
        <time>2021-04-05T17:07:46.228Z</time>
      </trkpt>
      <trkpt lat="43.96341" lon="4.57631">
        <ele>32.08581155168</ele>
        <time>2021-04-05T17:07:51.187Z</time>
      </trkpt>
      <trkpt lat="43.96346" lon="4.57634">
        <ele>31.9994620651</ele>
        <time>2021-04-05T17:07:56.147Z</time>
      </trkpt>
      <trkpt lat="43.96353" lon="4.5764">
        <ele>31.94826294506</ele>
        <time>2021-04-05T17:08:01.110Z</time>
      </trkpt>
      <trkpt lat="43.96358" lon="4.57644">
        <ele>31.92967049333</ele>
        <time>2021-04-05T17:08:06.074Z</time>
      </trkpt>
      <trkpt lat="43.96366" lon="4.57651">
        <ele>31.94210080116</ele>
        <time>2021-04-05T17:08:11.041Z</time>
      </trkpt>
      <trkpt lat="43.96375" lon="4.57658">
        <ele>31.9767124285</ele>
        <time>2021-04-05T17:08:16.011Z</time>
      </trkpt>
      <trkpt lat="43.96386" lon="4.57669">
        <ele>32.03263348636</ele>
        <time>2021-04-05T17:08:20.985Z</time>
      </trkpt>
      <trkpt lat="43.96403" lon="4.57687">
        <ele>32.11487327237</ele>
        <time>2021-04-05T17:08:25.966Z</time>
      </trkpt>
      <trkpt lat="43.96407" lon="4.57692">
        <ele>32.18748210672</ele>
        <time>2021-04-05T17:08:30.948Z</time>
      </trkpt>
      <trkpt lat="43.96438" lon="4.57755">
        <ele>32.33309233003</ele>
        <time>2021-04-05T17:08:35.947Z</time>
      </trkpt>
      <trkpt lat="43.96447" lon="4.57781">
        <ele>32.3828764117</ele>
        <time>2021-04-05T17:08:40.952Z</time>
      </trkpt>
      <trkpt lat="43.96449" lon="4.57785">
        <ele>32.45226502569</ele>
        <time>2021-04-05T17:08:45.958Z</time>
      </trkpt>
      <trkpt lat="43.96453" lon="4.57799">
        <ele>32.52363828055</ele>
        <time>2021-04-05T17:08:50.967Z</time>
      </trkpt>
      <trkpt lat="43.96476" lon="4.57862">
        <ele>32.54034470652</ele>
        <time>2021-04-05T17:08:55.992Z</time>
      </trkpt>
      <trkpt lat="43.96507" lon="4.57926">
        <ele>32.65014032834</ele>
        <time>2021-04-05T17:09:01.033Z</time>
      </trkpt>
      <trkpt lat="43.96509" lon="4.57936">
        <ele>32.70572911194</ele>
        <time>2021-04-05T17:09:06.076Z</time>
      </trkpt>
      <trkpt lat="43.96472" lon="4.57975">
        <ele>32.70633437274</ele>
        <time>2021-04-05T17:09:11.133Z</time>
      </trkpt>
      <trkpt lat="43.96464" lon="4.57982">
        <ele>32.68138517882</ele>
        <time>2021-04-05T17:09:16.193Z</time>
      </trkpt>
      <trkpt lat="43.9644" lon="4.58004">
        <ele>32.62192661004</ele>
        <time>2021-04-05T17:09:21.262Z</time>
      </trkpt>
      <trkpt lat="43.96388" lon="4.58032">
        <ele>32.68944556518</ele>
        <time>2021-04-05T17:09:26.347Z</time>
      </trkpt>
      <trkpt lat="43.96365" lon="4.58036">
        <ele>32.63312968408</ele>
        <time>2021-04-05T17:09:31.439Z</time>
      </trkpt>
      <trkpt lat="43.96353" lon="4.58036">
        <ele>32.57770769017</ele>
        <time>2021-04-05T17:09:36.535Z</time>
      </trkpt>
      <trkpt lat="43.96299" lon="4.58039">
        <ele>32.53899561746</ele>
        <time>2021-04-05T17:09:41.647Z</time>
      </trkpt>
      <trkpt lat="43.9627" lon="4.58051">
        <ele>32.48728162313</ele>
        <time>2021-04-05T17:09:46.768Z</time>
      </trkpt>
      <trkpt lat="43.96221" lon="4.58083">
        <ele>32.43311326912</ele>
        <time>2021-04-05T17:09:51.905Z</time>
      </trkpt>
      <trkpt lat="43.96206" lon="4.58092">
        <ele>32.36739670162</ele>
        <time>2021-04-05T17:09:57.047Z</time>
      </trkpt>
      <trkpt lat="43.96158" lon="4.58051">
        <ele>32.23788734062</ele>
        <time>2021-04-05T17:10:02.206Z</time>
      </trkpt>
      <trkpt lat="43.96106" lon="4.58014">
        <ele>32.06216735232</ele>
        <time>2021-04-05T17:10:07.382Z</time>
      </trkpt>
      <trkpt lat="43.96065" lon="4.5797">
        <ele>31.86077385501</ele>
        <time>2021-04-05T17:10:12.574Z</time>
      </trkpt>
      <trkpt lat="43.96049" lon="4.57959">
        <ele>31.80238695539</ele>
        <time>2021-04-05T17:10:17.771Z</time>
      </trkpt>
      <trkpt lat="43.96033" lon="4.57952">
        <ele>31.73485344849</ele>
        <time>2021-04-05T17:10:22.973Z</time>
      </trkpt>
      <trkpt lat="43.96021" lon="4.57948">
        <ele>31.65572606815</ele>
        <time>2021-04-05T17:10:28.179Z</time>
      </trkpt>
      <trkpt lat="43.96005" lon="4.57941">
        <ele>31.58683436838</ele>
        <time>2021-04-05T17:10:33.390Z</time>
      </trkpt>
      <trkpt lat="43.95994" lon="4.57936">
        <ele>31.52836642634</ele>
        <time>2021-04-05T17:10:38.604Z</time>
      </trkpt>
      <trkpt lat="43.95984" lon="4.57931">
        <ele>31.47445216551</ele>
        <time>2021-04-05T17:10:43.822Z</time>
      </trkpt>
      <trkpt lat="43.95974" lon="4.57927">
        <ele>31.41196271752</ele>
        <time>2021-04-05T17:10:49.043Z</time>
      </trkpt>
      <trkpt lat="43.95969" lon="4.57926">
        <ele>31.36323548454</ele>
        <time>2021-04-05T17:10:54.265Z</time>
      </trkpt>
      <trkpt lat="43.95961" lon="4.57933">
        <ele>31.31674233495</ele>
        <time>2021-04-05T17:10:59.490Z</time>
      </trkpt>
      <trkpt lat="43.95959" lon="4.57939">
        <ele>31.28023264626</ele>
        <time>2021-04-05T17:11:04.717Z</time>
      </trkpt>
      <trkpt lat="43.95955" lon="4.57951">
        <ele>31.25458613582</ele>
        <time>2021-04-05T17:11:09.947Z</time>
      </trkpt>
      <trkpt lat="43.9595" lon="4.57954">
        <ele>31.24076134564</ele>
        <time>2021-04-05T17:11:15.178Z</time>
      </trkpt>
      <trkpt lat="43.95926" lon="4.57948">
        <ele>31.25914011367</ele>
        <time>2021-04-05T17:11:20.416Z</time>
      </trkpt>
      <trkpt lat="43.95921" lon="4.57946">
        <ele>31.2474539889</ele>
        <time>2021-04-05T17:11:25.656Z</time>
      </trkpt>
      <trkpt lat="43.95911" lon="4.57942">
        <ele>31.23614258882</ele>
        <time>2021-04-05T17:11:30.899Z</time>
      </trkpt>
      <trkpt lat="43.95906" lon="4.57941">
        <ele>31.22580085108</ele>
        <time>2021-04-05T17:11:36.144Z</time>
      </trkpt>
      <trkpt lat="43.95896" lon="4.57937">
        <ele>31.22594716149</ele>
        <time>2021-04-05T17:11:41.392Z</time>
      </trkpt>
      <trkpt lat="43.95885" lon="4.57933">
        <ele>31.23166773367</ele>
        <time>2021-04-05T17:11:46.643Z</time>
      </trkpt>
      <trkpt lat="43.9586" lon="4.57921">
        <ele>31.26097390622</ele>
        <time>2021-04-05T17:11:51.902Z</time>
      </trkpt>
      <trkpt lat="43.95827" lon="4.57898">
        <ele>31.23224546103</ele>
        <time>2021-04-05T17:11:57.172Z</time>
      </trkpt>
      <trkpt lat="43.95818" lon="4.57891">
        <ele>31.19105700397</ele>
        <time>2021-04-05T17:12:02.445Z</time>
      </trkpt>
      <trkpt lat="43.95814" lon="4.57887">
        <ele>31.1451644346</ele>
        <time>2021-04-05T17:12:07.720Z</time>
      </trkpt>
      <trkpt lat="43.95789" lon="4.57861">
        <ele>31.02249608069</ele>
        <time>2021-04-05T17:12:13.004Z</time>
      </trkpt>
      <trkpt lat="43.95776" lon="4.57849">
        <ele>30.97973126652</ele>
        <time>2021-04-05T17:12:18.292Z</time>
      </trkpt>
      <trkpt lat="43.95762" lon="4.57838">
        <ele>30.93064898837</ele>
        <time>2021-04-05T17:12:23.585Z</time>
      </trkpt>
      <trkpt lat="43.95748" lon="4.57825">
        <ele>30.89617293626</ele>
        <time>2021-04-05T17:12:28.883Z</time>
      </trkpt>
      <trkpt lat="43.95741" lon="4.57816">
        <ele>30.84271598573</ele>
        <time>2021-04-05T17:12:34.184Z</time>
      </trkpt>
      <trkpt lat="43.95737" lon="4.57812">
        <ele>30.77344543099</ele>
        <time>2021-04-05T17:12:39.486Z</time>
      </trkpt>
      <trkpt lat="43.9573" lon="4.57806">
        <ele>30.70071509912</ele>
        <time>2021-04-05T17:12:44.791Z</time>
      </trkpt>
      <trkpt lat="43.95721" lon="4.57799">
        <ele>30.62270697206</ele>
        <time>2021-04-05T17:12:50.099Z</time>
      </trkpt>
      <trkpt lat="43.9571" lon="4.57793">
        <ele>30.53496065446</ele>
        <time>2021-04-05T17:12:55.411Z</time>
      </trkpt>
      <trkpt lat="43.95697" lon="4.57785">
        <ele>30.440965271</ele>
        <time>2021-04-05T17:13:00.727Z</time>
      </trkpt>
      <trkpt lat="43.95686" lon="4.57766">
        <ele>30.33342444174</ele>
        <time>2021-04-05T17:13:06.048Z</time>
      </trkpt>
      <trkpt lat="43.95688" lon="4.57755">
        <ele>30.19022090445</ele>
        <time>2021-04-05T17:13:11.372Z</time>
      </trkpt>
      <trkpt lat="43.95694" lon="4.57734">
        <ele>29.99875417693</ele>
        <time>2021-04-05T17:13:16.701Z</time>
      </trkpt>
      <trkpt lat="43.95692" lon="4.57718">
        <ele>29.81849389558</ele>
        <time>2021-04-05T17:13:22.033Z</time>
      </trkpt>
      <trkpt lat="43.95685" lon="4.57712">
        <ele>29.65751829398</ele>
        <time>2021-04-05T17:13:27.368Z</time>
      </trkpt>
      <trkpt lat="43.95662" lon="4.57698">
        <ele>29.47847943702</ele>
        <time>2021-04-05T17:13:32.710Z</time>
      </trkpt>
      <trkpt lat="43.95642" lon="4.57685">
        <ele>29.28685888659</ele>
        <time>2021-04-05T17:13:38.059Z</time>
      </trkpt>
      <trkpt lat="43.95608" lon="4.57663">
        <ele>29.0648996504</ele>
        <time>2021-04-05T17:13:43.419Z</time>
      </trkpt>
      <trkpt lat="43.95564" lon="4.57632">
        <ele>28.87214897001</ele>
        <time>2021-04-05T17:13:48.794Z</time>
      </trkpt>
      <trkpt lat="43.9556" lon="4.57621">
        <ele>28.70971407481</ele>
        <time>2021-04-05T17:13:54.171Z</time>
      </trkpt>
      <trkpt lat="43.95568" lon="4.57573">
        <ele>28.52832941755</ele>
        <time>2021-04-05T17:13:59.559Z</time>
      </trkpt>
      <trkpt lat="43.95569" lon="4.57561">
        <ele>28.3962479451</ele>
        <time>2021-04-05T17:14:04.950Z</time>
      </trkpt>
      <trkpt lat="43.95562" lon="4.57544">
        <ele>28.26398559471</ele>
        <time>2021-04-05T17:14:10.345Z</time>
      </trkpt>
      <trkpt lat="43.95511" lon="4.57516">
        <ele>28.09758947074</ele>
        <time>2021-04-05T17:14:15.756Z</time>
      </trkpt>
      <trkpt lat="43.9551" lon="4.57516">
        <ele>28.01308430467</ele>
        <time>2021-04-05T17:14:21.168Z</time>
      </trkpt>
      <trkpt lat="43.9551" lon="4.57518">
        <ele>27.95192716436</ele>
        <time>2021-04-05T17:14:26.580Z</time>
      </trkpt>
      <trkpt lat="43.95513" lon="4.57518">
        <ele>27.91000564728</ele>
        <time>2021-04-05T17:14:31.993Z</time>
      </trkpt>
      <trkpt lat="43.95517" lon="4.5752">
        <ele>27.89191752595</ele>
        <time>2021-04-05T17:14:37.407Z</time>
      </trkpt>
      <trkpt lat="43.95521" lon="4.57522">
        <ele>27.89711553229</ele>
        <time>2021-04-05T17:14:42.823Z</time>
      </trkpt>
      <trkpt lat="43.95529" lon="4.57528">
        <ele>27.93069579149</ele>
        <time>2021-04-05T17:14:48.241Z</time>
      </trkpt>
      <trkpt lat="43.95541" lon="4.57535">
        <ele>27.98010638902</ele>
        <time>2021-04-05T17:14:53.663Z</time>
      </trkpt>
      <trkpt lat="43.95557" lon="4.57542">
        <ele>28.07552368597</ele>
        <time>2021-04-05T17:14:59.090Z</time>
      </trkpt>
      <trkpt lat="43.95563" lon="4.57545">
        <ele>28.170150778</ele>
        <time>2021-04-05T17:15:04.519Z</time>
      </trkpt>
      <trkpt lat="43.95567" lon="4.57549">
        <ele>28.28060516296</ele>
        <time>2021-04-05T17:15:09.950Z</time>
      </trkpt>
      <trkpt lat="43.95571" lon="4.57562">
        <ele>28.40595155989</ele>
        <time>2021-04-05T17:15:15.383Z</time>
      </trkpt>
      <trkpt lat="43.95562" lon="4.57604">
        <ele>28.55649513661</ele>
        <time>2021-04-05T17:15:20.826Z</time>
      </trkpt>
      <trkpt lat="43.95562" lon="4.5761">
        <ele>28.71134886773</ele>
        <time>2021-04-05T17:15:26.270Z</time>
      </trkpt>
      <trkpt lat="43.95562" lon="4.57631">
        <ele>28.87282049108</ele>
        <time>2021-04-05T17:15:31.719Z</time>
      </trkpt>
      <trkpt lat="43.95612" lon="4.57666">
        <ele>29.07528350238</ele>
        <time>2021-04-05T17:15:37.185Z</time>
      </trkpt>
      <trkpt lat="43.95623" lon="4.57672">
        <ele>29.26122602247</ele>
        <time>2021-04-05T17:15:42.654Z</time>
      </trkpt>
      <trkpt lat="43.95626" lon="4.57674">
        <ele>29.43817837366</ele>
        <time>2021-04-05T17:15:48.124Z</time>
      </trkpt>
      <trkpt lat="43.95633" lon="4.57679">
        <ele>29.62126068376</ele>
        <time>2021-04-05T17:15:53.596Z</time>
      </trkpt>
      <trkpt lat="43.95653" lon="4.57693">
        <ele>29.81757862569</ele>
        <time>2021-04-05T17:15:59.075Z</time>
      </trkpt>
      <trkpt lat="43.95671" lon="4.57704">
        <ele>30.00349355183</ele>
        <time>2021-04-05T17:16:04.560Z</time>
      </trkpt>
      <trkpt lat="43.95674" lon="4.57706">
        <ele>30.16691561081</ele>
        <time>2021-04-05T17:16:10.046Z</time>
      </trkpt>
      <trkpt lat="43.95682" lon="4.5771">
        <ele>30.32131393907</ele>
        <time>2021-04-05T17:16:15.534Z</time>
      </trkpt>
      <trkpt lat="43.95695" lon="4.5772">
        <ele>30.45900247426</ele>
        <time>2021-04-05T17:16:21.027Z</time>
      </trkpt>
      <trkpt lat="43.95694" lon="4.57743">
        <ele>30.63457079094</ele>
        <time>2021-04-05T17:16:26.525Z</time>
      </trkpt>
      <trkpt lat="43.95691" lon="4.57754">
        <ele>30.77691919675</ele>
        <time>2021-04-05T17:16:32.025Z</time>
      </trkpt>
      <trkpt lat="43.95689" lon="4.57765">
        <ele>30.89029058211</ele>
        <time>2021-04-05T17:16:37.528Z</time>
      </trkpt>
      <trkpt lat="43.95689" lon="4.57775">
        <ele>30.98525245551</ele>
        <time>2021-04-05T17:16:43.033Z</time>
      </trkpt>
      <trkpt lat="43.95696" lon="4.57784">
        <ele>31.05669188984</ele>
        <time>2021-04-05T17:16:48.541Z</time>
      </trkpt>
      <trkpt lat="43.95706" lon="4.5779">
        <ele>31.11136539789</ele>
        <time>2021-04-05T17:16:54.052Z</time>
      </trkpt>
      <trkpt lat="43.95716" lon="4.57796">
        <ele>31.15376527151</ele>
        <time>2021-04-05T17:16:59.566Z</time>
      </trkpt>
      <trkpt lat="43.95722" lon="4.578">
        <ele>31.1927451158</ele>
        <time>2021-04-05T17:17:05.082Z</time>
      </trkpt>
      <trkpt lat="43.95728" lon="4.57804">
        <ele>31.2219977448</ele>
        <time>2021-04-05T17:17:10.600Z</time>
      </trkpt>
      <trkpt lat="43.95734" lon="4.57808">
        <ele>31.243936398</ele>
        <time>2021-04-05T17:17:16.120Z</time>
      </trkpt>
      <trkpt lat="43.9574" lon="4.57814">
        <ele>31.25864247913</ele>
        <time>2021-04-05T17:17:21.643Z</time>
      </trkpt>
      <trkpt lat="43.95747" lon="4.57821">
        <ele>31.26825828871</ele>
        <time>2021-04-05T17:17:27.168Z</time>
      </trkpt>
      <trkpt lat="43.95753" lon="4.57829">
        <ele>31.27439743756</ele>
        <time>2021-04-05T17:17:32.695Z</time>
      </trkpt>
      <trkpt lat="43.95757" lon="4.57832">
        <ele>31.28298057423</ele>
        <time>2021-04-05T17:17:38.224Z</time>
      </trkpt>
      <trkpt lat="43.95764" lon="4.57839">
        <ele>31.28575009932</ele>
        <time>2021-04-05T17:17:43.755Z</time>
      </trkpt>
      <trkpt lat="43.95776" lon="4.57848">
        <ele>31.29747635728</ele>
        <time>2021-04-05T17:17:49.291Z</time>
      </trkpt>
      <trkpt lat="43.95787" lon="4.57858">
        <ele>31.31007956013</ele>
        <time>2021-04-05T17:17:54.830Z</time>
      </trkpt>
      <trkpt lat="43.95791" lon="4.57862">
        <ele>31.32742956301</ele>
        <time>2021-04-05T17:18:00.371Z</time>
      </trkpt>
      <trkpt lat="43.95798" lon="4.57869">
        <ele>31.37383828023</ele>
        <time>2021-04-05T17:18:05.914Z</time>
      </trkpt>
      <trkpt lat="43.95802" lon="4.57872">
        <ele>31.40586019327</ele>
        <time>2021-04-05T17:18:11.459Z</time>
      </trkpt>
      <trkpt lat="43.95812" lon="4.57883">
        <ele>31.46496377053</ele>
        <time>2021-04-05T17:18:17.008Z</time>
      </trkpt>
      <trkpt lat="43.95823" lon="4.57894">
        <ele>31.51777964048</ele>
        <time>2021-04-05T17:18:22.561Z</time>
      </trkpt>
      <trkpt lat="43.95843" lon="4.57908">
        <ele>31.5768582273</ele>
        <time>2021-04-05T17:18:28.120Z</time>
      </trkpt>
      <trkpt lat="43.95872" lon="4.57927">
        <ele>31.56260445212</ele>
        <time>2021-04-05T17:18:33.689Z</time>
      </trkpt>
      <trkpt lat="43.95897" lon="4.57937">
        <ele>31.54632597131</ele>
        <time>2021-04-05T17:18:39.266Z</time>
      </trkpt>
      <trkpt lat="43.95905" lon="4.5794">
        <ele>31.56734785142</ele>
        <time>2021-04-05T17:18:44.845Z</time>
      </trkpt>
      <trkpt lat="43.9592" lon="4.57946">
        <ele>31.60019043403</ele>
        <time>2021-04-05T17:18:50.429Z</time>
      </trkpt>
      <trkpt lat="43.95951" lon="4.57956">
        <ele>31.59812731322</ele>
        <time>2021-04-05T17:18:56.022Z</time>
      </trkpt>
      <trkpt lat="43.95961" lon="4.57949">
        <ele>31.62936164114</ele>
        <time>2021-04-05T17:19:01.619Z</time>
      </trkpt>
      <trkpt lat="43.9597" lon="4.57927">
        <ele>31.68442673699</ele>
        <time>2021-04-05T17:19:07.221Z</time>
      </trkpt>
      <trkpt lat="43.96" lon="4.57939">
        <ele>31.72434334726</ele>
        <time>2021-04-05T17:19:12.832Z</time>
      </trkpt>
      <trkpt lat="43.96042" lon="4.57956">
        <ele>31.76205165322</ele>
        <time>2021-04-05T17:19:18.456Z</time>
      </trkpt>
      <trkpt lat="43.96062" lon="4.57966">
        <ele>31.77640228374</ele>
        <time>2021-04-05T17:19:24.087Z</time>
      </trkpt>
      <trkpt lat="43.9607" lon="4.57972">
        <ele>31.82165125981</ele>
        <time>2021-04-05T17:19:29.720Z</time>
      </trkpt>
      <trkpt lat="43.9609" lon="4.57996">
        <ele>31.94446958303</ele>
        <time>2021-04-05T17:19:35.361Z</time>
      </trkpt>
      <trkpt lat="43.961" lon="4.58007">
        <ele>32.02389851468</ele>
        <time>2021-04-05T17:19:41.006Z</time>
      </trkpt>
      <trkpt lat="43.96119" lon="4.58022">
        <ele>32.09934763495</ele>
        <time>2021-04-05T17:19:46.658Z</time>
      </trkpt>
      <trkpt lat="43.96127" lon="4.58028">
        <ele>32.14951195869</ele>
        <time>2021-04-05T17:19:52.312Z</time>
      </trkpt>
      <trkpt lat="43.96134" lon="4.58033">
        <ele>32.19030474189</ele>
        <time>2021-04-05T17:19:57.969Z</time>
      </trkpt>
      <trkpt lat="43.96149" lon="4.58043">
        <ele>32.23332088707</ele>
        <time>2021-04-05T17:20:03.631Z</time>
      </trkpt>
      <trkpt lat="43.96196" lon="4.58081">
        <ele>32.27737152459</ele>
        <time>2021-04-05T17:20:09.309Z</time>
      </trkpt>
      <trkpt lat="43.96211" lon="4.58091">
        <ele>32.28783682196</ele>
        <time>2021-04-05T17:20:14.992Z</time>
      </trkpt>
      <trkpt lat="43.96247" lon="4.58064">
        <ele>32.24972074105</ele>
        <time>2021-04-05T17:20:20.687Z</time>
      </trkpt>
      <trkpt lat="43.96253" lon="4.58061">
        <ele>32.20421447139</ele>
        <time>2021-04-05T17:20:26.384Z</time>
      </trkpt>
      <trkpt lat="43.96267" lon="4.58052">
        <ele>32.13015001885</ele>
        <time>2021-04-05T17:20:32.086Z</time>
      </trkpt>
      <trkpt lat="43.96261" lon="4.58035">
        <ele>32.02341993837</ele>
        <time>2021-04-05T17:20:37.792Z</time>
      </trkpt>
      <trkpt lat="43.96244" lon="4.58004">
        <ele>31.93571844167</ele>
        <time>2021-04-05T17:20:43.506Z</time>
      </trkpt>
      <trkpt lat="43.96211" lon="4.5794">
        <ele>31.79552122772</ele>
        <time>2021-04-05T17:20:49.237Z</time>
      </trkpt>
      <trkpt lat="43.96181" lon="4.57885">
        <ele>31.62425988619</ele>
        <time>2021-04-05T17:20:54.983Z</time>
      </trkpt>
      <trkpt lat="43.96166" lon="4.57857">
        <ele>31.47167117528</ele>
        <time>2021-04-05T17:21:00.737Z</time>
      </trkpt>
      <trkpt lat="43.96163" lon="4.57851">
        <ele>31.32472414075</ele>
        <time>2021-04-05T17:21:06.492Z</time>
      </trkpt>
      <trkpt lat="43.96157" lon="4.57838">
        <ele>31.16878917446</ele>
        <time>2021-04-05T17:21:12.250Z</time>
      </trkpt>
      <trkpt lat="43.96139" lon="4.57802">
        <ele>30.94201856267</ele>
        <time>2021-04-05T17:21:18.018Z</time>
      </trkpt>
      <trkpt lat="43.96121" lon="4.57776">
        <ele>30.67259644339</ele>
        <time>2021-04-05T17:21:23.794Z</time>
      </trkpt>
      <trkpt lat="43.96118" lon="4.57771">
        <ele>30.49165943298</ele>
        <time>2021-04-05T17:21:29.571Z</time>
      </trkpt>
      <trkpt lat="43.96101" lon="4.57745">
        <ele>30.30957629813</ele>
        <time>2021-04-05T17:21:35.356Z</time>
      </trkpt>
      <trkpt lat="43.96097" lon="4.5774">
        <ele>30.13822775912</ele>
        <time>2021-04-05T17:21:41.142Z</time>
      </trkpt>
      <trkpt lat="43.96086" lon="4.57725">
        <ele>29.98228208562</ele>
        <time>2021-04-05T17:21:46.933Z</time>
      </trkpt>
      <trkpt lat="43.96075" lon="4.57711">
        <ele>29.85249425997</ele>
        <time>2021-04-05T17:21:52.728Z</time>
      </trkpt>
      <trkpt lat="43.96044" lon="4.57674">
        <ele>29.72260919422</ele>
        <time>2021-04-05T17:21:58.536Z</time>
      </trkpt>
      <trkpt lat="43.9604" lon="4.57669">
        <ele>29.55860251145</ele>
        <time>2021-04-05T17:22:04.345Z</time>
      </trkpt>
      <trkpt lat="43.96032" lon="4.57662">
        <ele>29.37464382655</ele>
        <time>2021-04-05T17:22:10.157Z</time>
      </trkpt>
      <trkpt lat="43.96027" lon="4.57659">
        <ele>29.21268797008</ele>
        <time>2021-04-05T17:22:15.971Z</time>
      </trkpt>
      <trkpt lat="43.96004" lon="4.57652">
        <ele>29.03514912723</ele>
        <time>2021-04-05T17:22:21.792Z</time>
      </trkpt>
      <trkpt lat="43.95962" lon="4.57633">
        <ele>28.87156776245</ele>
        <time>2021-04-05T17:22:27.626Z</time>
      </trkpt>
      <trkpt lat="43.95947" lon="4.57627">
        <ele>28.74618057069</ele>
        <time>2021-04-05T17:22:33.464Z</time>
      </trkpt>
      <trkpt lat="43.95921" lon="4.57613">
        <ele>28.60526100472</ele>
        <time>2021-04-05T17:22:39.311Z</time>
      </trkpt>
      <trkpt lat="43.95911" lon="4.5761">
        <ele>28.50358616181</ele>
        <time>2021-04-05T17:22:45.161Z</time>
      </trkpt>
      <trkpt lat="43.95907" lon="4.57607">
        <ele>28.42863167863</ele>
        <time>2021-04-05T17:22:51.012Z</time>
      </trkpt>
      <trkpt lat="43.95898" lon="4.57588">
        <ele>28.36820193472</ele>
        <time>2021-04-05T17:22:56.868Z</time>
      </trkpt>
      <trkpt lat="43.95898" lon="4.57573">
        <ele>28.33587542653</ele>
        <time>2021-04-05T17:23:02.727Z</time>
      </trkpt>
      <trkpt lat="43.95898" lon="4.57569">
        <ele>28.32139803478</ele>
        <time>2021-04-05T17:23:08.587Z</time>
      </trkpt>
      <trkpt lat="43.95898" lon="4.57564">
        <ele>28.3243064224</ele>
        <time>2021-04-05T17:23:14.448Z</time>
      </trkpt>
      <trkpt lat="43.95899" lon="4.57558">
        <ele>28.34380571585</ele>
        <time>2021-04-05T17:23:20.311Z</time>
      </trkpt>
      <trkpt lat="43.95899" lon="4.57557">
        <ele>28.37877665762</ele>
        <time>2021-04-05T17:23:26.174Z</time>
      </trkpt>
      <trkpt lat="43.959" lon="4.57546">
        <ele>28.4463029206</ele>
        <time>2021-04-05T17:23:32.039Z</time>
      </trkpt>
      <trkpt lat="43.95902" lon="4.57537">
        <ele>28.52674093077</ele>
        <time>2021-04-05T17:23:37.906Z</time>
      </trkpt>
      <trkpt lat="43.95904" lon="4.57526">
        <ele>28.61986763676</ele>
        <time>2021-04-05T17:23:43.776Z</time>
      </trkpt>
      <trkpt lat="43.95908" lon="4.57505">
        <ele>28.74329793934</ele>
        <time>2021-04-05T17:23:49.650Z</time>
      </trkpt>
      <trkpt lat="43.95911" lon="4.57485">
        <ele>28.83655201522</ele>
        <time>2021-04-05T17:23:55.529Z</time>
      </trkpt>
      <trkpt lat="43.95915" lon="4.57459">
        <ele>28.95292397781</ele>
        <time>2021-04-05T17:24:01.413Z</time>
      </trkpt>
      <trkpt lat="43.95921" lon="4.57417">
        <ele>29.07704331546</ele>
        <time>2021-04-05T17:24:07.307Z</time>
      </trkpt>
      <trkpt lat="43.95926" lon="4.57381">
        <ele>29.18848718603</ele>
        <time>2021-04-05T17:24:13.209Z</time>
      </trkpt>
      <trkpt lat="43.95928" lon="4.57372">
        <ele>29.28294323433</ele>
        <time>2021-04-05T17:24:19.113Z</time>
      </trkpt>
      <trkpt lat="43.95928" lon="4.57367">
        <ele>29.36135494382</ele>
        <time>2021-04-05T17:24:25.018Z</time>
      </trkpt>
      <trkpt lat="43.95925" lon="4.5736">
        <ele>29.4310048558</ele>
        <time>2021-04-05T17:24:30.924Z</time>
      </trkpt>
      <trkpt lat="43.95922" lon="4.57358">
        <ele>29.48459898309</ele>
        <time>2021-04-05T17:24:36.831Z</time>
      </trkpt>
      <trkpt lat="43.95878" lon="4.5734">
        <ele>29.48725255073</ele>
        <time>2021-04-05T17:24:42.752Z</time>
      </trkpt>
      <trkpt lat="43.95853" lon="4.57325">
        <ele>29.47753323469</ele>
        <time>2021-04-05T17:24:48.681Z</time>
      </trkpt>
      <trkpt lat="43.95844" lon="4.57321">
        <ele>29.49317325613</ele>
        <time>2021-04-05T17:24:54.613Z</time>
      </trkpt>
      <trkpt lat="43.95839" lon="4.5732">
        <ele>29.51297573494</ele>
        <time>2021-04-05T17:25:00.547Z</time>
      </trkpt>
      <trkpt lat="43.95829" lon="4.57318">
        <ele>29.52529612119</ele>
        <time>2021-04-05T17:25:06.484Z</time>
      </trkpt>
      <trkpt lat="43.95824" lon="4.57317">
        <ele>29.52596929477</ele>
        <time>2021-04-05T17:25:12.422Z</time>
      </trkpt>
      <trkpt lat="43.95801" lon="4.573">
        <ele>29.5471056683</ele>
        <time>2021-04-05T17:25:18.368Z</time>
      </trkpt>
      <trkpt lat="43.95794" lon="4.5729">
        <ele>29.56160615442</ele>
        <time>2021-04-05T17:25:24.317Z</time>
      </trkpt>
      <trkpt lat="43.95789" lon="4.57279">
        <ele>29.5718917208</ele>
        <time>2021-04-05T17:25:30.269Z</time>
      </trkpt>
      <trkpt lat="43.95788" lon="4.57273">
        <ele>29.55989693235</ele>
        <time>2021-04-05T17:25:36.222Z</time>
      </trkpt>
      <trkpt lat="43.95785" lon="4.57261">
        <ele>29.54553236216</ele>
        <time>2021-04-05T17:25:42.178Z</time>
      </trkpt>
      <trkpt lat="43.95784" lon="4.57255">
        <ele>29.53383633263</ele>
        <time>2021-04-05T17:25:48.135Z</time>
      </trkpt>
      <trkpt lat="43.95782" lon="4.57235">
        <ele>29.48008373331</ele>
        <time>2021-04-05T17:25:54.096Z</time>
      </trkpt>
      <trkpt lat="43.95785" lon="4.57224">
        <ele>29.43817761438</ele>
        <time>2021-04-05T17:26:00.060Z</time>
      </trkpt>
      <trkpt lat="43.95788" lon="4.57221">
        <ele>29.43698987436</ele>
        <time>2021-04-05T17:26:06.025Z</time>
      </trkpt>
      <trkpt lat="43.95794" lon="4.57216">
        <ele>29.44283502579</ele>
        <time>2021-04-05T17:26:11.992Z</time>
      </trkpt>
      <trkpt lat="43.9581" lon="4.57204">
        <ele>29.44663873846</ele>
        <time>2021-04-05T17:26:17.965Z</time>
      </trkpt>
      <trkpt lat="43.95817" lon="4.57199">
        <ele>29.47554670125</ele>
        <time>2021-04-05T17:26:23.940Z</time>
      </trkpt>
      <trkpt lat="43.9582" lon="4.57197">
        <ele>29.52199900009</ele>
        <time>2021-04-05T17:26:29.916Z</time>
      </trkpt>
      <trkpt lat="43.95827" lon="4.57193">
        <ele>29.57948761199</ele>
        <time>2021-04-05T17:26:35.894Z</time>
      </trkpt>
      <trkpt lat="43.95831" lon="4.57191">
        <ele>29.65660087718</ele>
        <time>2021-04-05T17:26:41.873Z</time>
      </trkpt>
      <trkpt lat="43.95838" lon="4.57187">
        <ele>29.74862170874</ele>
        <time>2021-04-05T17:26:47.855Z</time>
      </trkpt>
      <trkpt lat="43.95846" lon="4.57184">
        <ele>29.87401450841</ele>
        <time>2021-04-05T17:26:53.839Z</time>
      </trkpt>
      <trkpt lat="43.95871" lon="4.5718">
        <ele>30.06894661265</ele>
        <time>2021-04-05T17:26:59.831Z</time>
      </trkpt>
      <trkpt lat="43.95898" lon="4.57177">
        <ele>30.33398892501</ele>
        <time>2021-04-05T17:27:05.831Z</time>
      </trkpt>
      <trkpt lat="43.95911" lon="4.57171">
        <ele>30.5129216619</ele>
        <time>2021-04-05T17:27:11.835Z</time>
      </trkpt>
      <trkpt lat="43.95921" lon="4.5716">
        <ele>30.67295139835</ele>
        <time>2021-04-05T17:27:17.843Z</time>
      </trkpt>
      <trkpt lat="43.9593" lon="4.57145">
        <ele>30.88590561633</ele>
        <time>2021-04-05T17:27:23.855Z</time>
      </trkpt>
      <trkpt lat="43.95933" lon="4.57141">
        <ele>31.05487823066</ele>
        <time>2021-04-05T17:27:29.868Z</time>
      </trkpt>
      <trkpt lat="43.95941" lon="4.57133">
        <ele>31.19589662486</ele>
        <time>2021-04-05T17:27:35.884Z</time>
      </trkpt>
      <trkpt lat="43.95954" lon="4.57116">
        <ele>31.30691848237</ele>
        <time>2021-04-05T17:27:41.905Z</time>
      </trkpt>
      <trkpt lat="43.95962" lon="4.57109">
        <ele>31.46782597226</ele>
        <time>2021-04-05T17:27:47.929Z</time>
      </trkpt>
      <trkpt lat="43.95985" lon="4.57073">
        <ele>31.7048057681</ele>
        <time>2021-04-05T17:27:53.964Z</time>
      </trkpt>
      <trkpt lat="43.96007" lon="4.57027">
        <ele>31.98795828557</ele>
        <time>2021-04-05T17:28:00.010Z</time>
      </trkpt>
      <trkpt lat="43.9601" lon="4.5701">
        <ele>32.23091178116</ele>
        <time>2021-04-05T17:28:06.060Z</time>
      </trkpt>
      <trkpt lat="43.96018" lon="4.56967">
        <ele>32.53227551317</ele>
        <time>2021-04-05T17:28:12.120Z</time>
      </trkpt>
      <trkpt lat="43.96021" lon="4.56961">
        <ele>32.76370528729</ele>
        <time>2021-04-05T17:28:18.181Z</time>
      </trkpt>
      <trkpt lat="43.96074" lon="4.56984">
        <ele>32.99122289166</ele>
        <time>2021-04-05T17:28:24.259Z</time>
      </trkpt>
      <trkpt lat="43.96095" lon="4.56981">
        <ele>33.1918398442</ele>
        <time>2021-04-05T17:28:30.343Z</time>
      </trkpt>
      <trkpt lat="43.96107" lon="4.56952">
        <ele>33.4330581658</ele>
        <time>2021-04-05T17:28:36.434Z</time>
      </trkpt>
      <trkpt lat="43.96144" lon="4.56907">
        <ele>33.56552710979</ele>
        <time>2021-04-05T17:28:42.540Z</time>
      </trkpt>
      <trkpt lat="43.96156" lon="4.56893">
        <ele>33.82243706039</ele>
        <time>2021-04-05T17:28:48.651Z</time>
      </trkpt>
      <trkpt lat="43.96167" lon="4.56886">
        <ele>34.09961905866</ele>
        <time>2021-04-05T17:28:54.765Z</time>
      </trkpt>
      <trkpt lat="43.96202" lon="4.56877">
        <ele>34.43121090511</ele>
        <time>2021-04-05T17:29:00.890Z</time>
      </trkpt>
      <trkpt lat="43.96206" lon="4.56877">
        <ele>34.71709423341</ele>
        <time>2021-04-05T17:29:07.016Z</time>
      </trkpt>
      <trkpt lat="43.96219" lon="4.56874">
        <ele>35.02711191159</ele>
        <time>2021-04-05T17:29:13.146Z</time>
      </trkpt>
      <trkpt lat="43.96228" lon="4.56866">
        <ele>35.31242617603</ele>
        <time>2021-04-05T17:29:19.279Z</time>
      </trkpt>
      <trkpt lat="43.96237" lon="4.56847">
        <ele>35.62453965498</ele>
        <time>2021-04-05T17:29:25.417Z</time>
      </trkpt>
      <trkpt lat="43.96242" lon="4.56834">
        <ele>35.95366974203</ele>
        <time>2021-04-05T17:29:31.558Z</time>
      </trkpt>
      <trkpt lat="43.96261" lon="4.56812">
        <ele>36.28371357961</ele>
        <time>2021-04-05T17:29:37.707Z</time>
      </trkpt>
      <trkpt lat="43.96265" lon="4.56799">
        <ele>36.64183061817</ele>
        <time>2021-04-05T17:29:43.859Z</time>
      </trkpt>
      <trkpt lat="43.96271" lon="4.56774">
        <ele>37.02892342061</ele>
        <time>2021-04-05T17:29:50.016Z</time>
      </trkpt>
      <trkpt lat="43.96308" lon="4.56731">
        <ele>37.43283932781</ele>
        <time>2021-04-05T17:29:56.188Z</time>
      </trkpt>
      <trkpt lat="43.96359" lon="4.567">
        <ele>37.81640562738</ele>
        <time>2021-04-05T17:30:02.376Z</time>
      </trkpt>
      <trkpt lat="43.96387" lon="4.56679">
        <ele>38.1845369389</ele>
        <time>2021-04-05T17:30:08.574Z</time>
      </trkpt>
      <trkpt lat="43.96422" lon="4.5662">
        <ele>38.60034813235</ele>
        <time>2021-04-05T17:30:14.788Z</time>
      </trkpt>
      <trkpt lat="43.96431" lon="4.56606">
        <ele>38.99804193988</ele>
        <time>2021-04-05T17:30:21.006Z</time>
      </trkpt>
      <trkpt lat="43.96434" lon="4.56602">
        <ele>39.39945140684</ele>
        <time>2021-04-05T17:30:27.226Z</time>
      </trkpt>
      <trkpt lat="43.96446" lon="4.56584">
        <ele>39.83115363619</ele>
        <time>2021-04-05T17:30:33.451Z</time>
      </trkpt>
      <trkpt lat="43.96451" lon="4.56575">
        <ele>40.24217762669</ele>
        <time>2021-04-05T17:30:39.678Z</time>
      </trkpt>
      <trkpt lat="43.96454" lon="4.56558">
        <ele>40.64735681022</ele>
        <time>2021-04-05T17:30:45.909Z</time>
      </trkpt>
      <trkpt lat="43.96454" lon="4.56547">
        <ele>41.03916381397</ele>
        <time>2021-04-05T17:30:52.143Z</time>
      </trkpt>
      <trkpt lat="43.96472" lon="4.56527">
        <ele>41.4577957569</ele>
        <time>2021-04-05T17:30:58.383Z</time>
      </trkpt>
      <trkpt lat="43.96524" lon="4.56527">
        <ele>41.82584733591</ele>
        <time>2021-04-05T17:31:04.639Z</time>
      </trkpt>
      <trkpt lat="43.96534" lon="4.56525">
        <ele>42.15881620382</ele>
        <time>2021-04-05T17:31:10.898Z</time>
      </trkpt>
      <trkpt lat="43.96541" lon="4.565">
        <ele>42.47773055373</ele>
        <time>2021-04-05T17:31:17.163Z</time>
      </trkpt>
      <trkpt lat="43.96547" lon="4.5642">
        <ele>42.87961100642</ele>
        <time>2021-04-05T17:31:23.445Z</time>
      </trkpt>
      <trkpt lat="43.96551" lon="4.56346">
        <ele>43.20643543871</ele>
        <time>2021-04-05T17:31:29.743Z</time>
      </trkpt>
      <trkpt lat="43.96552" lon="4.56329">
        <ele>43.44547984681</ele>
        <time>2021-04-05T17:31:36.045Z</time>
      </trkpt>
      <trkpt lat="43.96552" lon="4.56292">
        <ele>43.69703609152</ele>
        <time>2021-04-05T17:31:42.355Z</time>
      </trkpt>
      <trkpt lat="43.96552" lon="4.56214">
        <ele>44.01943754857</ele>
        <time>2021-04-05T17:31:48.682Z</time>
      </trkpt>
      <trkpt lat="43.96551" lon="4.56186">
        <ele>44.20969088986</ele>
        <time>2021-04-05T17:31:55.015Z</time>
      </trkpt>
      <trkpt lat="43.96541" lon="4.56186">
        <ele>44.27307183815</ele>
        <time>2021-04-05T17:32:01.351Z</time>
      </trkpt>
      <trkpt lat="43.965" lon="4.56204">
        <ele>44.31925503247</ele>
        <time>2021-04-05T17:32:07.700Z</time>
      </trkpt>
      <trkpt lat="43.96468" lon="4.56211">
        <ele>44.26774734821</ele>
        <time>2021-04-05T17:32:14.058Z</time>
      </trkpt>
      <trkpt lat="43.96411" lon="4.56224">
        <ele>44.09349874189</ele>
        <time>2021-04-05T17:32:20.433Z</time>
      </trkpt>
      <trkpt lat="43.96359" lon="4.5625">
        <ele>43.77616634851</ele>
        <time>2021-04-05T17:32:26.825Z</time>
      </trkpt>
      <trkpt lat="43.96309" lon="4.56272">
        <ele>43.36908935941</ele>
        <time>2021-04-05T17:32:33.233Z</time>
      </trkpt>
      <trkpt lat="43.96249" lon="4.56274">
        <ele>42.89782153327</ele>
        <time>2021-04-05T17:32:39.659Z</time>
      </trkpt>
      <trkpt lat="43.96235" lon="4.56271">
        <ele>42.52588137359</ele>
        <time>2021-04-05T17:32:46.089Z</time>
      </trkpt>
      <trkpt lat="43.96221" lon="4.56267">
        <ele>42.11321333331</ele>
        <time>2021-04-05T17:32:52.523Z</time>
      </trkpt>
      <trkpt lat="43.96207" lon="4.56263">
        <ele>41.67354227129</ele>
        <time>2021-04-05T17:32:58.961Z</time>
      </trkpt>
      <trkpt lat="43.96193" lon="4.5626">
        <ele>41.19455971036</ele>
        <time>2021-04-05T17:33:05.403Z</time>
      </trkpt>
      <trkpt lat="43.9618" lon="4.56256">
        <ele>40.68068127261</ele>
        <time>2021-04-05T17:33:11.850Z</time>
      </trkpt>
      <trkpt lat="43.96166" lon="4.56253">
        <ele>40.11069443314</ele>
        <time>2021-04-05T17:33:18.301Z</time>
      </trkpt>
      <trkpt lat="43.96145" lon="4.5625">
        <ele>39.50992258033</ele>
        <time>2021-04-05T17:33:24.758Z</time>
      </trkpt>
      <trkpt lat="43.96089" lon="4.56247">
        <ele>38.87161704633</ele>
        <time>2021-04-05T17:33:31.232Z</time>
      </trkpt>
      <trkpt lat="43.96029" lon="4.56243">
        <ele>38.28753608228</ele>
        <time>2021-04-05T17:33:37.724Z</time>
      </trkpt>
      <trkpt lat="43.95971" lon="4.56233">
        <ele>37.56140851201</ele>
        <time>2021-04-05T17:33:44.233Z</time>
      </trkpt>
      <trkpt lat="43.95916" lon="4.5622">
        <ele>36.88512938398</ele>
        <time>2021-04-05T17:33:50.759Z</time>
      </trkpt>
      <trkpt lat="43.9586" lon="4.56214">
        <ele>36.16211031107</ele>
        <time>2021-04-05T17:33:57.302Z</time>
      </trkpt>
      <trkpt lat="43.95801" lon="4.5621">
        <ele>35.46494452795</ele>
        <time>2021-04-05T17:34:03.862Z</time>
      </trkpt>
      <trkpt lat="43.95747" lon="4.56208">
        <ele>34.77406754912</ele>
        <time>2021-04-05T17:34:10.438Z</time>
      </trkpt>
      <trkpt lat="43.95688" lon="4.56206">
        <ele>34.14195544994</ele>
        <time>2021-04-05T17:34:17.032Z</time>
      </trkpt>
      <trkpt lat="43.95629" lon="4.56203">
        <ele>33.48484500416</ele>
        <time>2021-04-05T17:34:23.644Z</time>
      </trkpt>
      <trkpt lat="43.95569" lon="4.56212">
        <ele>32.77997446283</ele>
        <time>2021-04-05T17:34:30.274Z</time>
      </trkpt>
      <trkpt lat="43.95533" lon="4.56224">
        <ele>32.16508376246</ele>
        <time>2021-04-05T17:34:36.915Z</time>
      </trkpt>
      <trkpt lat="43.95523" lon="4.56225">
        <ele>31.63343993302</ele>
        <time>2021-04-05T17:34:43.559Z</time>
      </trkpt>
      <trkpt lat="43.95519" lon="4.56221">
        <ele>31.11623594466</ele>
        <time>2021-04-05T17:34:50.204Z</time>
      </trkpt>
      <trkpt lat="43.95517" lon="4.56208">
        <ele>30.62532329798</ele>
        <time>2021-04-05T17:34:56.852Z</time>
      </trkpt>
      <trkpt lat="43.95517" lon="4.56202">
        <ele>30.16007101814</ele>
        <time>2021-04-05T17:35:03.501Z</time>
      </trkpt>
      <trkpt lat="43.95516" lon="4.56134">
        <ele>29.7408353624</ele>
        <time>2021-04-05T17:35:10.165Z</time>
      </trkpt>
      <trkpt lat="43.95514" lon="4.56054">
        <ele>29.29054617611</ele>
        <time>2021-04-05T17:35:16.846Z</time>
      </trkpt>
      <trkpt lat="43.95511" lon="4.55999">
        <ele>28.95801316805</ele>
        <time>2021-04-05T17:35:23.539Z</time>
      </trkpt>
      <trkpt lat="43.95511" lon="4.55981">
        <ele>28.6162173682</ele>
        <time>2021-04-05T17:35:30.236Z</time>
      </trkpt>
      <trkpt lat="43.9551" lon="4.55948">
        <ele>28.30412062155</ele>
        <time>2021-04-05T17:35:36.940Z</time>
      </trkpt>
      <trkpt lat="43.95509" lon="4.55931">
        <ele>28.00292558662</ele>
        <time>2021-04-05T17:35:43.648Z</time>
      </trkpt>
      <trkpt lat="43.95508" lon="4.55914">
        <ele>27.73058005527</ele>
        <time>2021-04-05T17:35:50.359Z</time>
      </trkpt>
      <trkpt lat="43.95508" lon="4.55897">
        <ele>27.53966073566</ele>
        <time>2021-04-05T17:35:57.074Z</time>
      </trkpt>
      <trkpt lat="43.95507" lon="4.55862">
        <ele>27.35643306993</ele>
        <time>2021-04-05T17:36:03.797Z</time>
      </trkpt>
      <trkpt lat="43.95507" lon="4.55844">
        <ele>27.16786453567</ele>
        <time>2021-04-05T17:36:10.523Z</time>
      </trkpt>
      <trkpt lat="43.95505" lon="4.55818">
        <ele>27.01302704713</ele>
        <time>2021-04-05T17:36:17.255Z</time>
      </trkpt>
      <trkpt lat="43.95504" lon="4.55791">
        <ele>26.90085267339</ele>
        <time>2021-04-05T17:36:23.993Z</time>
      </trkpt>
      <trkpt lat="43.95503" lon="4.55756">
        <ele>26.79006361391</ele>
        <time>2021-04-05T17:36:30.739Z</time>
      </trkpt>
      <trkpt lat="43.955" lon="4.55682">
        <ele>26.68176033827</ele>
        <time>2021-04-05T17:36:37.500Z</time>
      </trkpt>
      <trkpt lat="43.95498" lon="4.55634">
        <ele>26.6159959657</ele>
        <time>2021-04-05T17:36:44.272Z</time>
      </trkpt>
      <trkpt lat="43.95497" lon="4.55614">
        <ele>26.6205117272</ele>
        <time>2021-04-05T17:36:51.048Z</time>
      </trkpt>
      <trkpt lat="43.95497" lon="4.55604">
        <ele>26.64666807682</ele>
        <time>2021-04-05T17:36:57.826Z</time>
      </trkpt>
      <trkpt lat="43.95496" lon="4.55584">
        <ele>26.6696485848</ele>
        <time>2021-04-05T17:37:04.609Z</time>
      </trkpt>
      <trkpt lat="43.95496" lon="4.55574">
        <ele>26.72291041239</ele>
        <time>2021-04-05T17:37:11.394Z</time>
      </trkpt>
      <trkpt lat="43.95495" lon="4.55554">
        <ele>26.80061066534</ele>
        <time>2021-04-05T17:37:18.183Z</time>
      </trkpt>
      <trkpt lat="43.95494" lon="4.55534">
        <ele>26.91756874889</ele>
        <time>2021-04-05T17:37:24.976Z</time>
      </trkpt>
      <trkpt lat="43.95493" lon="4.55515">
        <ele>27.02487036922</ele>
        <time>2021-04-05T17:37:31.774Z</time>
      </trkpt>
      <trkpt lat="43.95492" lon="4.55496">
        <ele>27.16966681324</ele>
        <time>2021-04-05T17:37:38.576Z</time>
      </trkpt>
      <trkpt lat="43.95491" lon="4.55459">
        <ele>27.33057720303</ele>
        <time>2021-04-05T17:37:45.386Z</time>
      </trkpt>
      <trkpt lat="43.9549" lon="4.55433">
        <ele>27.4761899343</ele>
        <time>2021-04-05T17:37:52.201Z</time>
      </trkpt>
      <trkpt lat="43.95488" lon="4.55399">
        <ele>27.6714057124</ele>
        <time>2021-04-05T17:37:59.024Z</time>
      </trkpt>
      <trkpt lat="43.95486" lon="4.55349">
        <ele>27.79434929309</ele>
        <time>2021-04-05T17:38:05.857Z</time>
      </trkpt>
      <trkpt lat="43.95484" lon="4.55309">
        <ele>27.91738028138</ele>
        <time>2021-04-05T17:38:12.699Z</time>
      </trkpt>
      <trkpt lat="43.95483" lon="4.55237">
        <ele>28.16397977363</ele>
        <time>2021-04-05T17:38:19.557Z</time>
      </trkpt>
      <trkpt lat="43.95484" lon="4.55223">
        <ele>28.37054596904</ele>
        <time>2021-04-05T17:38:26.418Z</time>
      </trkpt>
      <trkpt lat="43.95489" lon="4.55195">
        <ele>28.55575296137</ele>
        <time>2021-04-05T17:38:33.285Z</time>
      </trkpt>
      <trkpt lat="43.95494" lon="4.55176">
        <ele>28.71248474024</ele>
        <time>2021-04-05T17:38:40.156Z</time>
      </trkpt>
      <trkpt lat="43.95494" lon="4.55162">
        <ele>28.89199889325</ele>
        <time>2021-04-05T17:38:47.030Z</time>
      </trkpt>
      <trkpt lat="43.95481" lon="4.55129">
        <ele>29.02242880044</ele>
        <time>2021-04-05T17:38:53.912Z</time>
      </trkpt>
      <trkpt lat="43.95477" lon="4.55106">
        <ele>29.20971249914</ele>
        <time>2021-04-05T17:39:00.799Z</time>
      </trkpt>
      <trkpt lat="43.95473" lon="4.55029">
        <ele>29.39166717015</ele>
        <time>2021-04-05T17:39:07.703Z</time>
      </trkpt>
      <trkpt lat="43.9547" lon="4.54953">
        <ele>29.70147935563</ele>
        <time>2021-04-05T17:39:14.623Z</time>
      </trkpt>
      <trkpt lat="43.95467" lon="4.54874">
        <ele>29.97516508898</ele>
        <time>2021-04-05T17:39:21.561Z</time>
      </trkpt>
      <trkpt lat="43.95463" lon="4.54793">
        <ele>30.13878027118</ele>
        <time>2021-04-05T17:39:28.516Z</time>
      </trkpt>
      <trkpt lat="43.9546" lon="4.54708">
        <ele>30.35797009238</ele>
        <time>2021-04-05T17:39:35.489Z</time>
      </trkpt>
      <trkpt lat="43.95459" lon="4.54633">
        <ele>30.52989413231</ele>
        <time>2021-04-05T17:39:42.479Z</time>
      </trkpt>
      <trkpt lat="43.95468" lon="4.54617">
        <ele>30.7225356069</ele>
        <time>2021-04-05T17:39:49.473Z</time>
      </trkpt>
      <trkpt lat="43.95479" lon="4.54606">
        <ele>30.87027855018</ele>
        <time>2021-04-05T17:39:56.471Z</time>
      </trkpt>
      <trkpt lat="43.95486" lon="4.54588">
        <ele>31.0210238342</ele>
        <time>2021-04-05T17:40:03.473Z</time>
      </trkpt>
      <trkpt lat="43.95487" lon="4.54575">
        <ele>31.19247429149</ele>
        <time>2021-04-05T17:40:10.478Z</time>
      </trkpt>
      <trkpt lat="43.95481" lon="4.54556">
        <ele>31.37099773636</ele>
        <time>2021-04-05T17:40:17.488Z</time>
      </trkpt>
      <trkpt lat="43.95473" lon="4.54547">
        <ele>31.50995607713</ele>
        <time>2021-04-05T17:40:24.501Z</time>
      </trkpt>
      <trkpt lat="43.95461" lon="4.54536">
        <ele>31.64125879196</ele>
        <time>2021-04-05T17:40:31.518Z</time>
      </trkpt>
      <trkpt lat="43.95458" lon="4.54531">
        <ele>31.7651386797</ele>
        <time>2021-04-05T17:40:38.536Z</time>
      </trkpt>
      <trkpt lat="43.95453" lon="4.54518">
        <ele>31.90206721133</ele>
        <time>2021-04-05T17:40:45.558Z</time>
      </trkpt>
      <trkpt lat="43.95453" lon="4.5451">
        <ele>32.02579927685</ele>
        <time>2021-04-05T17:40:52.581Z</time>
      </trkpt>
      <trkpt lat="43.95452" lon="4.54502">
        <ele>32.14348676216</ele>
        <time>2021-04-05T17:40:59.606Z</time>
      </trkpt>
      <trkpt lat="43.95453" lon="4.54486">
        <ele>32.261761122</ele>
        <time>2021-04-05T17:41:06.634Z</time>
      </trkpt>
      <trkpt lat="43.95458" lon="4.54421">
        <ele>32.33814599443</ele>
        <time>2021-04-05T17:41:13.677Z</time>
      </trkpt>
      <trkpt lat="43.95464" lon="4.5434">
        <ele>32.1981503859</ele>
        <time>2021-04-05T17:41:20.737Z</time>
      </trkpt>
      <trkpt lat="43.95473" lon="4.54258">
        <ele>32.32360593879</ele>
        <time>2021-04-05T17:41:27.815Z</time>
      </trkpt>
      <trkpt lat="43.95482" lon="4.54182">
        <ele>32.50156598431</ele>
        <time>2021-04-05T17:41:34.910Z</time>
      </trkpt>
      <trkpt lat="43.95486" lon="4.54153">
        <ele>32.61463104421</ele>
        <time>2021-04-05T17:41:42.011Z</time>
      </trkpt>
      <trkpt lat="43.95486" lon="4.54145">
        <ele>32.71375075518</ele>
        <time>2021-04-05T17:41:49.114Z</time>
      </trkpt>
      <trkpt lat="43.95491" lon="4.54068">
        <ele>32.93889389072</ele>
        <time>2021-04-05T17:41:56.233Z</time>
      </trkpt>
      <trkpt lat="43.95492" lon="4.54046">
        <ele>33.04260791728</ele>
        <time>2021-04-05T17:42:03.357Z</time>
      </trkpt>
      <trkpt lat="43.95491" lon="4.54029">
        <ele>33.12373942735</ele>
        <time>2021-04-05T17:42:10.485Z</time>
      </trkpt>
      <trkpt lat="43.95492" lon="4.53991">
        <ele>33.14809199425</ele>
        <time>2021-04-05T17:42:17.621Z</time>
      </trkpt>
      <trkpt lat="43.95494" lon="4.5398">
        <ele>33.21411555986</ele>
        <time>2021-04-05T17:42:24.760Z</time>
      </trkpt>
      <trkpt lat="43.95495" lon="4.53974">
        <ele>33.2977618766</ele>
        <time>2021-04-05T17:42:31.900Z</time>
      </trkpt>
      <trkpt lat="43.95506" lon="4.53941">
        <ele>33.41132249322</ele>
        <time>2021-04-05T17:42:39.048Z</time>
      </trkpt>
      <trkpt lat="43.95506" lon="4.53913">
        <ele>33.53884978379</ele>
        <time>2021-04-05T17:42:46.202Z</time>
      </trkpt>
      <trkpt lat="43.95495" lon="4.53898">
        <ele>33.58834081176</ele>
        <time>2021-04-05T17:42:53.360Z</time>
      </trkpt>
      <trkpt lat="43.95485" lon="4.53893">
        <ele>33.63412667399</ele>
        <time>2021-04-05T17:43:00.521Z</time>
      </trkpt>
      <trkpt lat="43.95466" lon="4.539">
        <ele>33.70533154598</ele>
        <time>2021-04-05T17:43:07.688Z</time>
      </trkpt>
      <trkpt lat="43.9545" lon="4.53895">
        <ele>33.80512660886</ele>
        <time>2021-04-05T17:43:14.860Z</time>
      </trkpt>
      <trkpt lat="43.95423" lon="4.53867">
        <ele>33.94775866492</ele>
        <time>2021-04-05T17:43:22.042Z</time>
      </trkpt>
      <trkpt lat="43.95403" lon="4.53847">
        <ele>33.99854585137</ele>
        <time>2021-04-05T17:43:29.232Z</time>
      </trkpt>
      <trkpt lat="43.95398" lon="4.53843">
        <ele>34.11027696012</ele>
        <time>2021-04-05T17:43:36.423Z</time>
      </trkpt>
      <trkpt lat="43.95388" lon="4.53832">
        <ele>34.23161908005</ele>
        <time>2021-04-05T17:43:43.618Z</time>
      </trkpt>
      <trkpt lat="43.95356" lon="4.53798">
        <ele>34.41353382134</ele>
        <time>2021-04-05T17:43:50.825Z</time>
      </trkpt>
      <trkpt lat="43.95348" lon="4.53789">
        <ele>34.58858503753</ele>
        <time>2021-04-05T17:43:58.035Z</time>
      </trkpt>
      <trkpt lat="43.95331" lon="4.53772">
        <ele>34.80153059645</ele>
        <time>2021-04-05T17:44:05.252Z</time>
      </trkpt>
      <trkpt lat="43.95284" lon="4.53724">
        <ele>35.04494327246</ele>
        <time>2021-04-05T17:44:12.486Z</time>
      </trkpt>
      <trkpt lat="43.95255" lon="4.53696">
        <ele>35.2502845485</ele>
        <time>2021-04-05T17:44:19.731Z</time>
      </trkpt>
      <trkpt lat="43.95238" lon="4.53682">
        <ele>35.45396296501</ele>
        <time>2021-04-05T17:44:26.981Z</time>
      </trkpt>
      <trkpt lat="43.95219" lon="4.53661">
        <ele>35.66626121155</ele>
        <time>2021-04-05T17:44:34.239Z</time>
      </trkpt>
      <trkpt lat="43.95219" lon="4.53618">
        <ele>35.8877926304</ele>
        <time>2021-04-05T17:44:41.506Z</time>
      </trkpt>
      <trkpt lat="43.95228" lon="4.53599">
        <ele>36.09554494751</ele>
        <time>2021-04-05T17:44:48.778Z</time>
      </trkpt>
      <trkpt lat="43.9524" lon="4.53589">
        <ele>36.32509076605</ele>
        <time>2021-04-05T17:44:56.054Z</time>
      </trkpt>
      <trkpt lat="43.95246" lon="4.53586">
        <ele>36.57816152697</ele>
        <time>2021-04-05T17:45:03.332Z</time>
      </trkpt>
      <trkpt lat="43.9526" lon="4.53576">
        <ele>36.8547876648</ele>
        <time>2021-04-05T17:45:10.615Z</time>
      </trkpt>
      <trkpt lat="43.95275" lon="4.53554">
        <ele>37.1410862848</ele>
        <time>2021-04-05T17:45:17.904Z</time>
      </trkpt>
      <trkpt lat="43.95293" lon="4.53503">
        <ele>37.70052483078</ele>
        <time>2021-04-05T17:45:25.205Z</time>
      </trkpt>
      <trkpt lat="43.95294" lon="4.53456">
        <ele>38.00058652805</ele>
        <time>2021-04-05T17:45:32.516Z</time>
      </trkpt>
      <trkpt lat="43.95277" lon="4.5344">
        <ele>38.33027271794</ele>
        <time>2021-04-05T17:45:39.834Z</time>
      </trkpt>
      <trkpt lat="43.9527" lon="4.5344">
        <ele>38.60926292341</ele>
        <time>2021-04-05T17:45:47.154Z</time>
      </trkpt>
      <trkpt lat="43.95266" lon="4.53442">
        <ele>38.86844970903</ele>
        <time>2021-04-05T17:45:54.475Z</time>
      </trkpt>
      <trkpt lat="43.95254" lon="4.53448">
        <ele>39.14579083131</ele>
        <time>2021-04-05T17:46:01.800Z</time>
      </trkpt>
      <trkpt lat="43.95219" lon="4.53471">
        <ele>39.47921817157</ele>
        <time>2021-04-05T17:46:09.136Z</time>
      </trkpt>
      <trkpt lat="43.95172" lon="4.53509">
        <ele>39.71787405902</ele>
        <time>2021-04-05T17:46:16.489Z</time>
      </trkpt>
      <trkpt lat="43.95138" lon="4.53548">
        <ele>39.96660896189</ele>
        <time>2021-04-05T17:46:23.855Z</time>
      </trkpt>
      <trkpt lat="43.95117" lon="4.53568">
        <ele>40.27364697728</ele>
        <time>2021-04-05T17:46:31.228Z</time>
      </trkpt>
      <trkpt lat="43.9511" lon="4.53575">
        <ele>40.48047442091</ele>
        <time>2021-04-05T17:46:38.604Z</time>
      </trkpt>
      <trkpt lat="43.95107" lon="4.53577">
        <ele>40.67369985757</ele>
        <time>2021-04-05T17:46:45.981Z</time>
      </trkpt>
      <trkpt lat="43.95102" lon="4.5358">
        <ele>40.86527519519</ele>
        <time>2021-04-05T17:46:53.360Z</time>
      </trkpt>
      <trkpt lat="43.95091" lon="4.53581">
        <ele>41.0648491625</ele>
        <time>2021-04-05T17:47:00.742Z</time>
      </trkpt>
      <trkpt lat="43.95037" lon="4.53561">
        <ele>41.25576533222</ele>
        <time>2021-04-05T17:47:08.141Z</time>
      </trkpt>
      <trkpt lat="43.94983" lon="4.53534">
        <ele>41.44223533559</ele>
        <time>2021-04-05T17:47:15.557Z</time>
      </trkpt>
      <trkpt lat="43.94969" lon="4.53526">
        <ele>41.53347550296</ele>
        <time>2021-04-05T17:47:22.977Z</time>
      </trkpt>
      <trkpt lat="43.94944" lon="4.53523">
        <ele>41.5790175073</ele>
        <time>2021-04-05T17:47:30.405Z</time>
      </trkpt>
      <trkpt lat="43.94895" lon="4.53554">
        <ele>41.44144370225</ele>
        <time>2021-04-05T17:47:37.849Z</time>
      </trkpt>
      <trkpt lat="43.94872" lon="4.53545">
        <ele>41.51783117222</ele>
        <time>2021-04-05T17:47:45.300Z</time>
      </trkpt>
      <trkpt lat="43.94866" lon="4.53542">
        <ele>41.66744078916</ele>
        <time>2021-04-05T17:47:52.753Z</time>
      </trkpt>
      <trkpt lat="43.94841" lon="4.53524">
        <ele>41.80220273964</ele>
        <time>2021-04-05T17:48:00.214Z</time>
      </trkpt>
      <trkpt lat="43.94809" lon="4.53489">
        <ele>42.00467380307</ele>
        <time>2021-04-05T17:48:07.688Z</time>
      </trkpt>
      <trkpt lat="43.94773" lon="4.53471">
        <ele>42.01652915672</ele>
        <time>2021-04-05T17:48:15.173Z</time>
      </trkpt>
      <trkpt lat="43.94737" lon="4.53529">
        <ele>42.04347698764</ele>
        <time>2021-04-05T17:48:22.674Z</time>
      </trkpt>
      <trkpt lat="43.94702" lon="4.53587">
        <ele>42.8897656889</ele>
        <time>2021-04-05T17:48:30.192Z</time>
      </trkpt>
      <trkpt lat="43.94681" lon="4.5362">
        <ele>43.84306357667</ele>
        <time>2021-04-05T17:48:37.719Z</time>
      </trkpt>
      <trkpt lat="43.94688" lon="4.53644">
        <ele>44.13005709606</ele>
        <time>2021-04-05T17:48:45.252Z</time>
      </trkpt>
      <trkpt lat="43.9469" lon="4.53643">
        <ele>44.32464017068</ele>
        <time>2021-04-05T17:48:52.786Z</time>
      </trkpt>
      <trkpt lat="43.94691" lon="4.53642">
        <ele>44.54351760875</ele>
        <time>2021-04-05T17:49:00.320Z</time>
      </trkpt>
      <trkpt lat="43.9469" lon="4.5364">
        <ele>44.7543120865</ele>
        <time>2021-04-05T17:49:07.854Z</time>
      </trkpt>
      <trkpt lat="43.94689" lon="4.53638">
        <ele>44.94398609171</ele>
        <time>2021-04-05T17:49:15.389Z</time>
      </trkpt>
      <trkpt lat="43.94688" lon="4.53636">
        <ele>45.10115268355</ele>
        <time>2021-04-05T17:49:22.924Z</time>
      </trkpt>
      <trkpt lat="43.94686" lon="4.53632">
        <ele>45.23186361956</ele>
        <time>2021-04-05T17:49:30.460Z</time>
      </trkpt>
      <trkpt lat="43.94684" lon="4.53628">
        <ele>45.30067234968</ele>
        <time>2021-04-05T17:49:37.997Z</time>
      </trkpt>
      <trkpt lat="43.94692" lon="4.53612">
        <ele>45.07743283241</ele>
        <time>2021-04-05T17:49:45.538Z</time>
      </trkpt>
      <trkpt lat="43.94696" lon="4.53605">
        <ele>44.94305078911</ele>
        <time>2021-04-05T17:49:53.081Z</time>
      </trkpt>
      <trkpt lat="43.94693" lon="4.53603">
        <ele>44.94726702324</ele>
        <time>2021-04-05T17:50:00.625Z</time>
      </trkpt>
      <trkpt lat="43.94694" lon="4.53605">
        <ele>44.89213276061</ele>
        <time>2021-04-05T17:50:08.170Z</time>
      </trkpt>
      <trkpt lat="43.94693" lon="4.53608">
        <ele>44.82883942967</ele>
        <time>2021-04-05T17:50:15.715Z</time>
      </trkpt>
      <trkpt lat="43.94691" lon="4.5361">
        <ele>44.76186616342</ele>
        <time>2021-04-05T17:50:23.261Z</time>
      </trkpt>
      <trkpt lat="43.9469" lon="4.53634">
        <ele>44.76749497368</ele>
        <time>2021-04-05T17:50:30.812Z</time>
      </trkpt>
      <trkpt lat="43.94693" lon="4.53641">
        <ele>44.54553963</ele>
        <time>2021-04-05T17:50:38.365Z</time>
      </trkpt>
      <trkpt lat="43.94699" lon="4.53655">
        <ele>44.27949402573</ele>
        <time>2021-04-05T17:50:45.921Z</time>
      </trkpt>
      <trkpt lat="43.94705" lon="4.53666">
        <ele>43.94495588542</ele>
        <time>2021-04-05T17:50:53.480Z</time>
      </trkpt>
      <trkpt lat="43.94743" lon="4.53718">
        <ele>43.47067940696</ele>
        <time>2021-04-05T17:51:01.055Z</time>
      </trkpt>
      <trkpt lat="43.94747" lon="4.5372">
        <ele>43.08305584412</ele>
        <time>2021-04-05T17:51:08.632Z</time>
      </trkpt>
      <trkpt lat="43.94749" lon="4.53717">
        <ele>42.65458371244</ele>
        <time>2021-04-05T17:51:16.209Z</time>
      </trkpt>
      <trkpt lat="43.94739" lon="4.53697">
        <ele>42.16715344051</ele>
        <time>2021-04-05T17:51:23.792Z</time>
      </trkpt>
      <trkpt lat="43.94724" lon="4.53678">
        <ele>41.87038468934</ele>
        <time>2021-04-05T17:51:31.381Z</time>
      </trkpt>
      <trkpt lat="43.94716" lon="4.53666">
        <ele>41.48320693103</ele>
        <time>2021-04-05T17:51:38.973Z</time>
      </trkpt>
      <trkpt lat="43.94691" lon="4.53594">
        <ele>41.03367092758</ele>
        <time>2021-04-05T17:51:46.582Z</time>
      </trkpt>
      <trkpt lat="43.94659" lon="4.53531">
        <ele>40.55096283554</ele>
        <time>2021-04-05T17:51:54.208Z</time>
      </trkpt>
      <trkpt lat="43.94632" lon="4.53463">
        <ele>39.9377111309</ele>
        <time>2021-04-05T17:52:01.851Z</time>
      </trkpt>
      <trkpt lat="43.94616" lon="4.53424">
        <ele>39.43422870928</ele>
        <time>2021-04-05T17:52:09.504Z</time>
      </trkpt>
      <trkpt lat="43.94595" lon="4.53352">
        <ele>38.90065487632</ele>
        <time>2021-04-05T17:52:17.173Z</time>
      </trkpt>
      <trkpt lat="43.94572" lon="4.53284">
        <ele>38.65098660893</ele>
        <time>2021-04-05T17:52:24.858Z</time>
      </trkpt>
      <trkpt lat="43.94571" lon="4.53281">
        <ele>38.14114226624</ele>
        <time>2021-04-05T17:52:32.544Z</time>
      </trkpt>
      <trkpt lat="43.94567" lon="4.53239">
        <ele>37.50207537868</ele>
        <time>2021-04-05T17:52:40.239Z</time>
      </trkpt>
      <trkpt lat="43.94566" lon="4.53195">
        <ele>36.83162149596</ele>
        <time>2021-04-05T17:52:47.944Z</time>
      </trkpt>
      <trkpt lat="43.9457" lon="4.53167">
        <ele>36.20802299382</ele>
        <time>2021-04-05T17:52:55.655Z</time>
      </trkpt>
      <trkpt lat="43.94569" lon="4.53166">
        <ele>35.72558820483</ele>
        <time>2021-04-05T17:53:03.366Z</time>
      </trkpt>
      <trkpt lat="43.94569" lon="4.53166">
        <ele>35.26004022741</ele>
        <time>2021-04-05T17:53:11.077Z</time>
      </trkpt>
      <trkpt lat="43.94568" lon="4.53166">
        <ele>34.81993853991</ele>
        <time>2021-04-05T17:53:18.789Z</time>
      </trkpt>
      <trkpt lat="43.94568" lon="4.53165">
        <ele>34.38814969015</ele>
        <time>2021-04-05T17:53:26.501Z</time>
      </trkpt>
      <trkpt lat="43.94567" lon="4.53163">
        <ele>33.98326002843</ele>
        <time>2021-04-05T17:53:34.214Z</time>
      </trkpt>
      <trkpt lat="43.94564" lon="4.53163">
        <ele>33.6104237404</ele>
        <time>2021-04-05T17:53:41.927Z</time>
      </trkpt>
      <trkpt lat="43.94563" lon="4.53163">
        <ele>33.25729804556</ele>
        <time>2021-04-05T17:53:49.641Z</time>
      </trkpt>
      <trkpt lat="43.94564" lon="4.53163">
        <ele>32.9231563736</ele>
        <time>2021-04-05T17:53:57.355Z</time>
      </trkpt>
      <trkpt lat="43.94564" lon="4.53163">
        <ele>32.61270983607</ele>
        <time>2021-04-05T17:54:05.069Z</time>
      </trkpt>
      <trkpt lat="43.94565" lon="4.53163">
        <ele>32.33348777761</ele>
        <time>2021-04-05T17:54:12.783Z</time>
      </trkpt>
      <trkpt lat="43.94566" lon="4.53163">
        <ele>32.078145375</ele>
        <time>2021-04-05T17:54:20.497Z</time>
      </trkpt>
      <trkpt lat="43.94569" lon="4.53163">
        <ele>31.84202942855</ele>
        <time>2021-04-05T17:54:28.212Z</time>
      </trkpt>
      <trkpt lat="43.94573" lon="4.53165">
        <ele>31.62650423044</ele>
        <time>2021-04-05T17:54:35.928Z</time>
      </trkpt>
      <trkpt lat="43.94574" lon="4.53164">
        <ele>31.459595892</ele>
        <time>2021-04-05T17:54:43.645Z</time>
      </trkpt>
      <trkpt lat="43.94576" lon="4.53169">
        <ele>31.3358342388</ele>
        <time>2021-04-05T17:54:51.363Z</time>
      </trkpt>
      <trkpt lat="43.9458" lon="4.53168">
        <ele>31.21723030327</ele>
        <time>2021-04-05T17:54:59.082Z</time>
      </trkpt>
      <trkpt lat="43.94579" lon="4.53172">
        <ele>31.17550248672</ele>
        <time>2021-04-05T17:55:06.802Z</time>
      </trkpt>
      <trkpt lat="43.94579" lon="4.53171">
        <ele>31.15129442268</ele>
        <time>2021-04-05T17:55:14.522Z</time>
      </trkpt>
      <trkpt lat="43.94579" lon="4.53171">
        <ele>31.161643373</ele>
        <time>2021-04-05T17:55:22.242Z</time>
      </trkpt>
      <trkpt lat="43.9458" lon="4.53171">
        <ele>31.20591401186</ele>
        <time>2021-04-05T17:55:29.962Z</time>
      </trkpt>
      <trkpt lat="43.94581" lon="4.53171">
        <ele>31.28416394563</ele>
        <time>2021-04-05T17:55:37.683Z</time>
      </trkpt>
      <trkpt lat="43.9458" lon="4.53171">
        <ele>31.40270551781</ele>
        <time>2021-04-05T17:55:45.404Z</time>
      </trkpt>
      <trkpt lat="43.94581" lon="4.53171">
        <ele>31.55307995961</ele>
        <time>2021-04-05T17:55:53.125Z</time>
      </trkpt>
      <trkpt lat="43.94584" lon="4.53171">
        <ele>31.71311284141</ele>
        <time>2021-04-05T17:56:00.847Z</time>
      </trkpt>
      <trkpt lat="43.94585" lon="4.53171">
        <ele>31.92041477671</ele>
        <time>2021-04-05T17:56:08.569Z</time>
      </trkpt>
      <trkpt lat="43.94585" lon="4.53171">
        <ele>32.1714143155</ele>
        <time>2021-04-05T17:56:16.291Z</time>
      </trkpt>
      <trkpt lat="43.94585" lon="4.53171">
        <ele>32.44830641897</ele>
        <time>2021-04-05T17:56:24.013Z</time>
      </trkpt>
      <trkpt lat="43.94585" lon="4.53171">
        <ele>32.75229100432</ele>
        <time>2021-04-05T17:56:31.735Z</time>
      </trkpt>
      <trkpt lat="43.94585" lon="4.53171">
        <ele>33.08165151604</ele>
        <time>2021-04-05T17:56:39.457Z</time>
      </trkpt>
      <trkpt lat="43.94583" lon="4.53171">
        <ele>33.44989209412</ele>
        <time>2021-04-05T17:56:47.180Z</time>
      </trkpt>
      <trkpt lat="43.94583" lon="4.53171">
        <ele>33.81862831163</ele>
        <time>2021-04-05T17:56:54.903Z</time>
      </trkpt>
      <trkpt lat="43.94583" lon="4.53171">
        <ele>34.2072228281</ele>
        <time>2021-04-05T17:57:02.626Z</time>
      </trkpt>
      <trkpt lat="43.94584" lon="4.53171">
        <ele>34.60334353445</ele>
        <time>2021-04-05T17:57:10.349Z</time>
      </trkpt>
      <trkpt lat="43.94584" lon="4.53171">
        <ele>35.00899569733</ele>
        <time>2021-04-05T17:57:18.073Z</time>
      </trkpt>
      <trkpt lat="43.94574" lon="4.53288">
        <ele>35.93319717705</ele>
        <time>2021-04-05T17:57:25.822Z</time>
      </trkpt>
      <trkpt lat="43.9457" lon="4.53293">
        <ele>36.47504628592</ele>
        <time>2021-04-05T17:57:33.573Z</time>
      </trkpt>
      <trkpt lat="43.94583" lon="4.53331">
        <ele>36.77545684473</ele>
        <time>2021-04-05T17:57:41.333Z</time>
      </trkpt>
      <trkpt lat="43.94585" lon="4.53335">
        <ele>37.12035411253</ele>
        <time>2021-04-05T17:57:49.094Z</time>
      </trkpt>
      <trkpt lat="43.94591" lon="4.53347">
        <ele>37.33569481191</ele>
        <time>2021-04-05T17:57:56.858Z</time>
      </trkpt>
      <trkpt lat="43.94593" lon="4.53355">
        <ele>37.62057135461</ele>
        <time>2021-04-05T17:58:04.624Z</time>
      </trkpt>
      <trkpt lat="43.94595" lon="4.53359">
        <ele>37.91787360543</ele>
        <time>2021-04-05T17:58:12.391Z</time>
      </trkpt>
      <trkpt lat="43.94603" lon="4.53375">
        <ele>38.13985876601</ele>
        <time>2021-04-05T17:58:20.162Z</time>
      </trkpt>
      <trkpt lat="43.94612" lon="4.534">
        <ele>38.43277662733</ele>
        <time>2021-04-05T17:58:27.939Z</time>
      </trkpt>
      <trkpt lat="43.94614" lon="4.53408">
        <ele>38.74760282755</ele>
        <time>2021-04-05T17:58:35.718Z</time>
      </trkpt>
      <trkpt lat="43.94615" lon="4.53413">
        <ele>39.02549087258</ele>
        <time>2021-04-05T17:58:43.498Z</time>
      </trkpt>
      <trkpt lat="43.94623" lon="4.53443">
        <ele>39.36950329926</ele>
        <time>2021-04-05T17:58:51.285Z</time>
      </trkpt>
      <trkpt lat="43.9465" lon="4.53512">
        <ele>39.67368669189</ele>
        <time>2021-04-05T17:58:59.089Z</time>
      </trkpt>
      <trkpt lat="43.94679" lon="4.53577">
        <ele>40.03868866898</ele>
        <time>2021-04-05T17:59:06.909Z</time>
      </trkpt>
      <trkpt lat="43.94706" lon="4.53621">
        <ele>39.95869477679</ele>
        <time>2021-04-05T17:59:14.742Z</time>
      </trkpt>
      <trkpt lat="43.94709" lon="4.5363">
        <ele>40.12124075533</ele>
        <time>2021-04-05T17:59:22.577Z</time>
      </trkpt>
      <trkpt lat="43.94711" lon="4.53638">
        <ele>40.27216760439</ele>
        <time>2021-04-05T17:59:30.414Z</time>
      </trkpt>
      <trkpt lat="43.9472" lon="4.53668">
        <ele>40.42153384232</ele>
        <time>2021-04-05T17:59:38.258Z</time>
      </trkpt>
      <trkpt lat="43.94726" lon="4.53677">
        <ele>40.46774142994</ele>
        <time>2021-04-05T17:59:46.105Z</time>
      </trkpt>
      <trkpt lat="43.94728" lon="4.5368">
        <ele>40.51259398842</ele>
        <time>2021-04-05T17:59:53.952Z</time>
      </trkpt>
      <trkpt lat="43.94727" lon="4.53682">
        <ele>40.57009637819</ele>
        <time>2021-04-05T18:00:01.800Z</time>
      </trkpt>
      <trkpt lat="43.94727" lon="4.53682">
        <ele>40.585347546</ele>
        <time>2021-04-05T18:00:09.648Z</time>
      </trkpt>
      <trkpt lat="43.94727" lon="4.53681">
        <ele>40.575004678</ele>
        <time>2021-04-05T18:00:17.496Z</time>
      </trkpt>
      <trkpt lat="43.94728" lon="4.53682">
        <ele>40.53597153665</ele>
        <time>2021-04-05T18:00:25.344Z</time>
      </trkpt>
      <trkpt lat="43.94728" lon="4.53683">
        <ele>40.49869132566</ele>
        <time>2021-04-05T18:00:33.192Z</time>
      </trkpt>
      <trkpt lat="43.94728" lon="4.53685">
        <ele>40.45524808704</ele>
        <time>2021-04-05T18:00:41.041Z</time>
      </trkpt>
      <trkpt lat="43.94729" lon="4.53687">
        <ele>40.37437846308</ele>
        <time>2021-04-05T18:00:48.890Z</time>
      </trkpt>
      <trkpt lat="43.94738" lon="4.53702">
        <ele>40.25398889847</ele>
        <time>2021-04-05T18:00:56.743Z</time>
      </trkpt>
      <trkpt lat="43.94747" lon="4.53718">
        <ele>40.19267497083</ele>
        <time>2021-04-05T18:01:04.601Z</time>
      </trkpt>
      <trkpt lat="43.94748" lon="4.53725">
        <ele>40.10980924845</ele>
        <time>2021-04-05T18:01:12.460Z</time>
      </trkpt>
      <trkpt lat="43.94748" lon="4.53727">
        <ele>39.9872938961</ele>
        <time>2021-04-05T18:01:20.320Z</time>
      </trkpt>
      <trkpt lat="43.94745" lon="4.53727">
        <ele>39.87625681705</ele>
        <time>2021-04-05T18:01:28.181Z</time>
      </trkpt>
      <trkpt lat="43.94734" lon="4.53714">
        <ele>39.75048648665</ele>
        <time>2021-04-05T18:01:36.046Z</time>
      </trkpt>
      <trkpt lat="43.94731" lon="4.53712">
        <ele>39.59942059644</ele>
        <time>2021-04-05T18:01:43.912Z</time>
      </trkpt>
      <trkpt lat="43.94722" lon="4.537">
        <ele>39.45208198251</ele>
        <time>2021-04-05T18:01:51.782Z</time>
      </trkpt>
      <trkpt lat="43.94713" lon="4.53684">
        <ele>39.2752396448</ele>
        <time>2021-04-05T18:01:59.656Z</time>
      </trkpt>
      <trkpt lat="43.94694" lon="4.53648">
        <ele>39.18405807651</ele>
        <time>2021-04-05T18:02:07.540Z</time>
      </trkpt>
      <trkpt lat="43.94691" lon="4.53642">
        <ele>39.01344249507</ele>
        <time>2021-04-05T18:02:15.426Z</time>
      </trkpt>
      <trkpt lat="43.94706" lon="4.53578">
        <ele>38.08741819589</ele>
        <time>2021-04-05T18:02:23.326Z</time>
      </trkpt>
      <trkpt lat="43.94745" lon="4.5352">
        <ele>37.49560624509</ele>
        <time>2021-04-05T18:02:31.243Z</time>
      </trkpt>
      <trkpt lat="43.94779" lon="4.53472">
        <ele>37.66569208295</ele>
        <time>2021-04-05T18:02:39.174Z</time>
      </trkpt>
      <trkpt lat="43.94787" lon="4.53475">
        <ele>37.643758127</ele>
        <time>2021-04-05T18:02:47.108Z</time>
      </trkpt>
      <trkpt lat="43.94834" lon="4.5352">
        <ele>37.7630505041</ele>
        <time>2021-04-05T18:02:55.059Z</time>
      </trkpt>
      <trkpt lat="43.9486" lon="4.53543">
        <ele>37.80532459229</ele>
        <time>2021-04-05T18:03:03.019Z</time>
      </trkpt>
      <trkpt lat="43.94869" lon="4.53548">
        <ele>37.90536059914</ele>
        <time>2021-04-05T18:03:10.982Z</time>
      </trkpt>
      <trkpt lat="43.94873" lon="4.53551">
        <ele>38.03720014162</ele>
        <time>2021-04-05T18:03:18.946Z</time>
      </trkpt>
      <trkpt lat="43.94881" lon="4.53554">
        <ele>38.22372357469</ele>
        <time>2021-04-05T18:03:26.913Z</time>
      </trkpt>
      <trkpt lat="43.94895" lon="4.53557">
        <ele>38.49965424864</ele>
        <time>2021-04-05T18:03:34.884Z</time>
      </trkpt>
      <trkpt lat="43.94904" lon="4.53556">
        <ele>38.79347400522</ele>
        <time>2021-04-05T18:03:42.858Z</time>
      </trkpt>
      <trkpt lat="43.94925" lon="4.53549">
        <ele>39.16450573795</ele>
        <time>2021-04-05T18:03:50.838Z</time>
      </trkpt>
      <trkpt lat="43.94947" lon="4.53542">
        <ele>39.49926250261</ele>
        <time>2021-04-05T18:03:58.825Z</time>
      </trkpt>
      <trkpt lat="43.94956" lon="4.53541">
        <ele>39.83357808861</ele>
        <time>2021-04-05T18:04:06.815Z</time>
      </trkpt>
      <trkpt lat="43.94964" lon="4.53541">
        <ele>40.20271113944</ele>
        <time>2021-04-05T18:04:14.807Z</time>
      </trkpt>
      <trkpt lat="43.94969" lon="4.53542">
        <ele>40.56383994319</ele>
        <time>2021-04-05T18:04:22.801Z</time>
      </trkpt>
      <trkpt lat="43.94993" lon="4.53551">
        <ele>40.99709782325</ele>
        <time>2021-04-05T18:04:30.802Z</time>
      </trkpt>
      <trkpt lat="43.95001" lon="4.53556">
        <ele>41.32990492024</ele>
        <time>2021-04-05T18:04:38.806Z</time>
      </trkpt>
      <trkpt lat="43.95012" lon="4.53563">
        <ele>41.64374996863</ele>
        <time>2021-04-05T18:04:46.813Z</time>
      </trkpt>
      <trkpt lat="43.95016" lon="4.53565">
        <ele>41.97487238997</ele>
        <time>2021-04-05T18:04:54.822Z</time>
      </trkpt>
      <trkpt lat="43.9502" lon="4.53568">
        <ele>42.29712624763</ele>
        <time>2021-04-05T18:05:02.832Z</time>
      </trkpt>
      <trkpt lat="43.95028" lon="4.53574">
        <ele>42.59245762817</ele>
        <time>2021-04-05T18:05:10.845Z</time>
      </trkpt>
      <trkpt lat="43.95028" lon="4.53575">
        <ele>42.88327368324</ele>
        <time>2021-04-05T18:05:18.858Z</time>
      </trkpt>
      <trkpt lat="43.95028" lon="4.53575">
        <ele>43.15916390834</ele>
        <time>2021-04-05T18:05:26.871Z</time>
      </trkpt>
      <trkpt lat="43.95028" lon="4.53575">
        <ele>43.40757675358</ele>
        <time>2021-04-05T18:05:34.884Z</time>
      </trkpt>
      <trkpt lat="43.9503" lon="4.53569">
        <ele>43.70700462406</ele>
        <time>2021-04-05T18:05:42.899Z</time>
      </trkpt>
      <trkpt lat="43.95036" lon="4.53568">
        <ele>43.92994391893</ele>
        <time>2021-04-05T18:05:50.915Z</time>
      </trkpt>
      <trkpt lat="43.95065" lon="4.53578">
        <ele>44.14381656256</ele>
        <time>2021-04-05T18:05:58.940Z</time>
      </trkpt>
      <trkpt lat="43.95113" lon="4.53572">
        <ele>44.21366532515</ele>
        <time>2021-04-05T18:06:06.980Z</time>
      </trkpt>
      <trkpt lat="43.95134" lon="4.53506">
        <ele>44.38982693663</ele>
        <time>2021-04-05T18:06:15.035Z</time>
      </trkpt>
      <trkpt lat="43.95151" lon="4.53484">
        <ele>44.45773173621</ele>
        <time>2021-04-05T18:06:23.097Z</time>
      </trkpt>
      <trkpt lat="43.95171" lon="4.53466">
        <ele>44.44859192077</ele>
        <time>2021-04-05T18:06:31.166Z</time>
      </trkpt>
      <trkpt lat="43.95185" lon="4.53451">
        <ele>44.41783267262</ele>
        <time>2021-04-05T18:06:39.241Z</time>
      </trkpt>
      <trkpt lat="43.95195" lon="4.53442">
        <ele>44.31556648388</ele>
        <time>2021-04-05T18:06:47.319Z</time>
      </trkpt>
      <trkpt lat="43.9521" lon="4.53425">
        <ele>44.18899275439</ele>
        <time>2021-04-05T18:06:55.403Z</time>
      </trkpt>
      <trkpt lat="43.95219" lon="4.53418">
        <ele>43.97797409627</ele>
        <time>2021-04-05T18:07:03.490Z</time>
      </trkpt>
      <trkpt lat="43.95223" lon="4.53417">
        <ele>43.73782272812</ele>
        <time>2021-04-05T18:07:11.578Z</time>
      </trkpt>
      <trkpt lat="43.95227" lon="4.53416">
        <ele>43.45232655419</ele>
        <time>2021-04-05T18:07:19.667Z</time>
      </trkpt>
      <trkpt lat="43.95234" lon="4.5342">
        <ele>43.08616200487</ele>
        <time>2021-04-05T18:07:27.759Z</time>
      </trkpt>
      <trkpt lat="43.95241" lon="4.5343">
        <ele>42.69674626333</ele>
        <time>2021-04-05T18:07:35.853Z</time>
      </trkpt>
      <trkpt lat="43.95248" lon="4.53446">
        <ele>42.25331510153</ele>
        <time>2021-04-05T18:07:43.952Z</time>
      </trkpt>
      <trkpt lat="43.9526" lon="4.53454">
        <ele>41.80974844861</ele>
        <time>2021-04-05T18:07:52.055Z</time>
      </trkpt>
      <trkpt lat="43.95263" lon="4.53452">
        <ele>41.39559888102</ele>
        <time>2021-04-05T18:08:00.159Z</time>
      </trkpt>
      <trkpt lat="43.95266" lon="4.53451">
        <ele>40.96838426982</ele>
        <time>2021-04-05T18:08:08.264Z</time>
      </trkpt>
      <trkpt lat="43.95275" lon="4.53447">
        <ele>40.51787758572</ele>
        <time>2021-04-05T18:08:16.371Z</time>
      </trkpt>
      <trkpt lat="43.95279" lon="4.53454">
        <ele>40.04814027618</ele>
        <time>2021-04-05T18:08:24.480Z</time>
      </trkpt>
      <trkpt lat="43.9528" lon="4.53458">
        <ele>39.58019919486</ele>
        <time>2021-04-05T18:08:32.590Z</time>
      </trkpt>
      <trkpt lat="43.95279" lon="4.53461">
        <ele>39.1078608699</ele>
        <time>2021-04-05T18:08:40.701Z</time>
      </trkpt>
      <trkpt lat="43.95279" lon="4.53465">
        <ele>38.63213901676</ele>
        <time>2021-04-05T18:08:48.813Z</time>
      </trkpt>
      <trkpt lat="43.95278" lon="4.53469">
        <ele>38.15491269998</ele>
        <time>2021-04-05T18:08:56.926Z</time>
      </trkpt>
      <trkpt lat="43.95281" lon="4.53485">
        <ele>37.67269830101</ele>
        <time>2021-04-05T18:09:05.042Z</time>
      </trkpt>
      <trkpt lat="43.95277" lon="4.53542">
        <ele>37.16665242926</ele>
        <time>2021-04-05T18:09:13.171Z</time>
      </trkpt>
      <trkpt lat="43.95267" lon="4.53564">
        <ele>36.68788498307</ele>
        <time>2021-04-05T18:09:21.305Z</time>
      </trkpt>
      <trkpt lat="43.95253" lon="4.53582">
        <ele>36.21062273555</ele>
        <time>2021-04-05T18:09:29.445Z</time>
      </trkpt>
      <trkpt lat="43.95222" lon="4.53634">
        <ele>35.78518762851</ele>
        <time>2021-04-05T18:09:37.599Z</time>
      </trkpt>
      <trkpt lat="43.95238" lon="4.53693">
        <ele>35.35440756641</ele>
        <time>2021-04-05T18:09:45.767Z</time>
      </trkpt>
      <trkpt lat="43.95262" lon="4.53722">
        <ele>34.89026773128</ele>
        <time>2021-04-05T18:09:53.945Z</time>
      </trkpt>
      <trkpt lat="43.95309" lon="4.53768">
        <ele>34.45864262436</ele>
        <time>2021-04-05T18:10:02.140Z</time>
      </trkpt>
      <trkpt lat="43.95333" lon="4.53793">
        <ele>34.0242997122</ele>
        <time>2021-04-05T18:10:10.344Z</time>
      </trkpt>
      <trkpt lat="43.95348" lon="4.53808">
        <ele>33.63093045803</ele>
        <time>2021-04-05T18:10:18.553Z</time>
      </trkpt>
      <trkpt lat="43.95366" lon="4.53827">
        <ele>33.24790290765</ele>
        <time>2021-04-05T18:10:26.769Z</time>
      </trkpt>
      <trkpt lat="43.95412" lon="4.53872">
        <ele>32.97923694268</ele>
        <time>2021-04-05T18:10:35.002Z</time>
      </trkpt>
      <trkpt lat="43.95425" lon="4.53885">
        <ele>32.69574660288</ele>
        <time>2021-04-05T18:10:43.239Z</time>
      </trkpt>
      <trkpt lat="43.9543" lon="4.53891">
        <ele>32.41330550993</ele>
        <time>2021-04-05T18:10:51.479Z</time>
      </trkpt>
      <trkpt lat="43.95439" lon="4.53901">
        <ele>32.11595966579</ele>
        <time>2021-04-05T18:10:59.722Z</time>
      </trkpt>
      <trkpt lat="43.95441" lon="4.53905">
        <ele>31.86234746082</ele>
        <time>2021-04-05T18:11:07.966Z</time>
      </trkpt>
      <trkpt lat="43.95444" lon="4.53908">
        <ele>31.63029294776</ele>
        <time>2021-04-05T18:11:16.211Z</time>
      </trkpt>
      <trkpt lat="43.95453" lon="4.53918">
        <ele>31.39773516149</ele>
        <time>2021-04-05T18:11:24.459Z</time>
      </trkpt>
      <trkpt lat="43.95461" lon="4.53929">
        <ele>31.21207620363</ele>
        <time>2021-04-05T18:11:32.711Z</time>
      </trkpt>
      <trkpt lat="43.95478" lon="4.53962">
        <ele>31.08578516207</ele>
        <time>2021-04-05T18:11:40.972Z</time>
      </trkpt>
      <trkpt lat="43.95481" lon="4.54001">
        <ele>31.02071812228</ele>
        <time>2021-04-05T18:11:49.241Z</time>
      </trkpt>
      <trkpt lat="43.95473" lon="4.5408">
        <ele>30.92203768062</ele>
        <time>2021-04-05T18:11:57.527Z</time>
      </trkpt>
      <trkpt lat="43.95468" lon="4.5416">
        <ele>30.66571039096</ele>
        <time>2021-04-05T18:12:05.831Z</time>
      </trkpt>
      <trkpt lat="43.95459" lon="4.54237">
        <ele>30.56728221953</ele>
        <time>2021-04-05T18:12:14.151Z</time>
      </trkpt>
      <trkpt lat="43.95452" lon="4.54314">
        <ele>30.33486972612</ele>
        <time>2021-04-05T18:12:22.488Z</time>
      </trkpt>
      <trkpt lat="43.95452" lon="4.54335">
        <ele>30.37474227999</ele>
        <time>2021-04-05T18:12:30.830Z</time>
      </trkpt>
      <trkpt lat="43.95449" lon="4.54387">
        <ele>30.55052499773</ele>
        <time>2021-04-05T18:12:39.183Z</time>
      </trkpt>
      <trkpt lat="43.95449" lon="4.54413">
        <ele>30.62027526785</ele>
        <time>2021-04-05T18:12:47.541Z</time>
      </trkpt>
      <trkpt lat="43.95448" lon="4.54426">
        <ele>30.68674311211</ele>
        <time>2021-04-05T18:12:55.902Z</time>
      </trkpt>
      <trkpt lat="43.95446" lon="4.54504">
        <ele>30.72003763521</ele>
        <time>2021-04-05T18:13:04.280Z</time>
      </trkpt>
      <trkpt lat="43.95446" lon="4.54533">
        <ele>30.74137342861</ele>
        <time>2021-04-05T18:13:12.664Z</time>
      </trkpt>
      <trkpt lat="43.95443" lon="4.54549">
        <ele>30.82181412993</ele>
        <time>2021-04-05T18:13:21.052Z</time>
      </trkpt>
      <trkpt lat="43.95437" lon="4.5458">
        <ele>30.91544458087</ele>
        <time>2021-04-05T18:13:29.447Z</time>
      </trkpt>
      <trkpt lat="43.95439" lon="4.54593">
        <ele>31.02126168416</ele>
        <time>2021-04-05T18:13:37.845Z</time>
      </trkpt>
      <trkpt lat="43.95443" lon="4.54604">
        <ele>31.1382841573</ele>
        <time>2021-04-05T18:13:46.245Z</time>
      </trkpt>
      <trkpt lat="43.9545" lon="4.54612">
        <ele>31.26554843879</ele>
        <time>2021-04-05T18:13:54.648Z</time>
      </trkpt>
      <trkpt lat="43.95458" lon="4.54616">
        <ele>31.39643484091</ele>
        <time>2021-04-05T18:14:03.054Z</time>
      </trkpt>
      <trkpt lat="43.95466" lon="4.54616">
        <ele>31.53108645351</ele>
        <time>2021-04-05T18:14:11.462Z</time>
      </trkpt>
      <trkpt lat="43.95474" lon="4.54614">
        <ele>31.66923072021</ele>
        <time>2021-04-05T18:14:19.872Z</time>
      </trkpt>
      <trkpt lat="43.95504" lon="4.54602">
        <ele>31.8095732354</ele>
        <time>2021-04-05T18:14:28.292Z</time>
      </trkpt>
      <trkpt lat="43.95553" lon="4.54566">
        <ele>32.02371944341</ele>
        <time>2021-04-05T18:14:36.728Z</time>
      </trkpt>
      <trkpt lat="43.95583" lon="4.54505">
        <ele>32.26246325828</ele>
        <time>2021-04-05T18:14:45.180Z</time>
      </trkpt>
      <trkpt lat="43.95585" lon="4.545">
        <ele>32.44516419234</ele>
        <time>2021-04-05T18:14:53.633Z</time>
      </trkpt>
      <trkpt lat="43.95587" lon="4.54495">
        <ele>32.62823069583</ele>
        <time>2021-04-05T18:15:02.088Z</time>
      </trkpt>
      <trkpt lat="43.9559" lon="4.54485">
        <ele>32.80420738767</ele>
        <time>2021-04-05T18:15:10.545Z</time>
      </trkpt>
      <trkpt lat="43.95597" lon="4.54472">
        <ele>32.97689555043</ele>
        <time>2021-04-05T18:15:19.006Z</time>
      </trkpt>
      <trkpt lat="43.956" lon="4.54468">
        <ele>33.15125372858</ele>
        <time>2021-04-05T18:15:27.468Z</time>
      </trkpt>
      <trkpt lat="43.95603" lon="4.54464">
        <ele>33.3226110495</ele>
        <time>2021-04-05T18:15:35.931Z</time>
      </trkpt>
      <trkpt lat="43.95606" lon="4.5446">
        <ele>33.48997098761</ele>
        <time>2021-04-05T18:15:44.395Z</time>
      </trkpt>
      <trkpt lat="43.95609" lon="4.54457">
        <ele>33.65281808716</ele>
        <time>2021-04-05T18:15:52.860Z</time>
      </trkpt>
      <trkpt lat="43.95612" lon="4.54454">
        <ele>33.81141491223</ele>
        <time>2021-04-05T18:16:01.326Z</time>
      </trkpt>
      <trkpt lat="43.95615" lon="4.54452">
        <ele>33.96560479518</ele>
        <time>2021-04-05T18:16:09.793Z</time>
      </trkpt>
      <trkpt lat="43.95621" lon="4.54448">
        <ele>34.11807175256</ele>
        <time>2021-04-05T18:16:18.262Z</time>
      </trkpt>
      <trkpt lat="43.95631" lon="4.54445">
        <ele>34.25419170554</ele>
        <time>2021-04-05T18:16:26.734Z</time>
      </trkpt>
      <trkpt lat="43.95634" lon="4.54444">
        <ele>34.3890196321</ele>
        <time>2021-04-05T18:16:35.207Z</time>
      </trkpt>
      <trkpt lat="43.95654" lon="4.54436">
        <ele>34.49118142399</ele>
        <time>2021-04-05T18:16:43.687Z</time>
      </trkpt>
      <trkpt lat="43.95661" lon="4.54433">
        <ele>34.61648738842</ele>
        <time>2021-04-05T18:16:52.169Z</time>
      </trkpt>
      <trkpt lat="43.95683" lon="4.5442">
        <ele>34.67317516382</ele>
        <time>2021-04-05T18:17:00.658Z</time>
      </trkpt>
      <trkpt lat="43.95696" lon="4.54402">
        <ele>34.81177769575</ele>
        <time>2021-04-05T18:17:09.152Z</time>
      </trkpt>
      <trkpt lat="43.95715" lon="4.54353">
        <ele>34.93510077856</ele>
        <time>2021-04-05T18:17:17.658Z</time>
      </trkpt>
      <trkpt lat="43.95733" lon="4.54318">
        <ele>35.13434233877</ele>
        <time>2021-04-05T18:17:26.174Z</time>
      </trkpt>
      <trkpt lat="43.95742" lon="4.54313">
        <ele>35.3079883618</ele>
        <time>2021-04-05T18:17:34.693Z</time>
      </trkpt>
      <trkpt lat="43.95759" lon="4.54309">
        <ele>35.50630804024</ele>
        <time>2021-04-05T18:17:43.217Z</time>
      </trkpt>
      <trkpt lat="43.95781" lon="4.54304">
        <ele>35.72769210124</ele>
        <time>2021-04-05T18:17:51.747Z</time>
      </trkpt>
      <trkpt lat="43.95797" lon="4.54302">
        <ele>35.8843099574</ele>
        <time>2021-04-05T18:18:00.282Z</time>
      </trkpt>
      <trkpt lat="43.95822" lon="4.54303">
        <ele>36.02091653615</ele>
        <time>2021-04-05T18:18:08.825Z</time>
      </trkpt>
      <trkpt lat="43.9586" lon="4.54332">
        <ele>36.19629599308</ele>
        <time>2021-04-05T18:18:17.380Z</time>
      </trkpt>
      <trkpt lat="43.95871" lon="4.54346">
        <ele>36.30246070215</ele>
        <time>2021-04-05T18:18:25.940Z</time>
      </trkpt>
      <trkpt lat="43.95858" lon="4.54331">
        <ele>36.39576606241</ele>
        <time>2021-04-05T18:18:34.505Z</time>
      </trkpt>
      <trkpt lat="43.95851" lon="4.54322">
        <ele>36.47130707488</ele>
        <time>2021-04-05T18:18:43.073Z</time>
      </trkpt>
      <trkpt lat="43.95844" lon="4.54312">
        <ele>36.53763256744</ele>
        <time>2021-04-05T18:18:51.644Z</time>
      </trkpt>
      <trkpt lat="43.95836" lon="4.54306">
        <ele>36.59382015922</ele>
        <time>2021-04-05T18:19:00.217Z</time>
      </trkpt>
      <trkpt lat="43.95822" lon="4.54301">
        <ele>36.64187766982</ele>
        <time>2021-04-05T18:19:08.795Z</time>
      </trkpt>
      <trkpt lat="43.95796" lon="4.54301">
        <ele>36.684095749</ele>
        <time>2021-04-05T18:19:17.381Z</time>
      </trkpt>
      <trkpt lat="43.95771" lon="4.54299">
        <ele>36.68319996485</ele>
        <time>2021-04-05T18:19:25.974Z</time>
      </trkpt>
      <trkpt lat="43.95774" lon="4.54297">
        <ele>36.74922500204</ele>
        <time>2021-04-05T18:19:34.568Z</time>
      </trkpt>
      <trkpt lat="43.95775" lon="4.5429">
        <ele>36.81327872635</ele>
        <time>2021-04-05T18:19:43.163Z</time>
      </trkpt>
      <trkpt lat="43.95775" lon="4.54243">
        <ele>36.8515374025</ele>
        <time>2021-04-05T18:19:51.768Z</time>
      </trkpt>
      <trkpt lat="43.95796" lon="4.54231">
        <ele>36.90773855334</ele>
        <time>2021-04-05T18:20:00.380Z</time>
      </trkpt>
      <trkpt lat="43.95828" lon="4.54233">
        <ele>36.99917952347</ele>
        <time>2021-04-05T18:20:09.002Z</time>
      </trkpt>
      <trkpt lat="43.95836" lon="4.54232">
        <ele>37.05728671406</ele>
        <time>2021-04-05T18:20:17.626Z</time>
      </trkpt>
      <trkpt lat="43.95894" lon="4.54233">
        <ele>37.13330744082</ele>
        <time>2021-04-05T18:20:26.267Z</time>
      </trkpt>
      <trkpt lat="43.95905" lon="4.54233">
        <ele>37.19298111567</ele>
        <time>2021-04-05T18:20:34.912Z</time>
      </trkpt>
      <trkpt lat="43.95924" lon="4.54233">
        <ele>37.27557541634</ele>
        <time>2021-04-05T18:20:43.562Z</time>
      </trkpt>
      <trkpt lat="43.95929" lon="4.54232">
        <ele>37.35448022001</ele>
        <time>2021-04-05T18:20:52.214Z</time>
      </trkpt>
      <trkpt lat="43.95933" lon="4.54232">
        <ele>37.45276771858</ele>
        <time>2021-04-05T18:21:00.867Z</time>
      </trkpt>
      <trkpt lat="43.95937" lon="4.54232">
        <ele>37.56129494037</ele>
        <time>2021-04-05T18:21:09.521Z</time>
      </trkpt>
      <trkpt lat="43.95945" lon="4.54232">
        <ele>37.69325296729</ele>
        <time>2021-04-05T18:21:18.178Z</time>
      </trkpt>
      <trkpt lat="43.95953" lon="4.54232">
        <ele>37.83457408327</ele>
        <time>2021-04-05T18:21:26.837Z</time>
      </trkpt>
      <trkpt lat="43.95962" lon="4.54232">
        <ele>37.97723831781</ele>
        <time>2021-04-05T18:21:35.499Z</time>
      </trkpt>
      <trkpt lat="43.95966" lon="4.54233">
        <ele>38.1154088367</ele>
        <time>2021-04-05T18:21:44.162Z</time>
      </trkpt>
      <trkpt lat="43.9597" lon="4.54234">
        <ele>38.25863716536</ele>
        <time>2021-04-05T18:21:52.826Z</time>
      </trkpt>
      <trkpt lat="43.95978" lon="4.54236">
        <ele>38.41834149896</ele>
        <time>2021-04-05T18:22:01.492Z</time>
      </trkpt>
      <trkpt lat="43.9599" lon="4.54241">
        <ele>38.59891916017</ele>
        <time>2021-04-05T18:22:10.162Z</time>
      </trkpt>
      <trkpt lat="43.96023" lon="4.54246">
        <ele>38.76588637921</ele>
        <time>2021-04-05T18:22:18.842Z</time>
      </trkpt>
      <trkpt lat="43.96029" lon="4.5425">
        <ele>38.96414280656</ele>
        <time>2021-04-05T18:22:27.524Z</time>
      </trkpt>
      <trkpt lat="43.96039" lon="4.54254">
        <ele>39.16926831843</ele>
        <time>2021-04-05T18:22:36.209Z</time>
      </trkpt>
      <trkpt lat="43.96043" lon="4.54255">
        <ele>39.39225023668</ele>
        <time>2021-04-05T18:22:44.895Z</time>
      </trkpt>
      <trkpt lat="43.96047" lon="4.54255">
        <ele>39.62837314839</ele>
        <time>2021-04-05T18:22:53.583Z</time>
      </trkpt>
      <trkpt lat="43.9605" lon="4.54255">
        <ele>39.88294156737</ele>
        <time>2021-04-05T18:23:02.271Z</time>
      </trkpt>
      <trkpt lat="43.96051" lon="4.54255">
        <ele>40.15851204031</ele>
        <time>2021-04-05T18:23:10.960Z</time>
      </trkpt>
      <trkpt lat="43.96054" lon="4.54248">
        <ele>40.42375820345</ele>
        <time>2021-04-05T18:23:19.650Z</time>
      </trkpt>
      <trkpt lat="43.96062" lon="4.54237">
        <ele>40.69902955452</ele>
        <time>2021-04-05T18:23:28.344Z</time>
      </trkpt>
      <trkpt lat="43.96083" lon="4.54237">
        <ele>41.06578458573</ele>
        <time>2021-04-05T18:23:37.044Z</time>
      </trkpt>
      <trkpt lat="43.96097" lon="4.54184">
        <ele>41.49679625343</ele>
        <time>2021-04-05T18:23:45.756Z</time>
      </trkpt>
      <trkpt lat="43.96136" lon="4.54155">
        <ele>42.04651794932</ele>
        <time>2021-04-05T18:23:54.482Z</time>
      </trkpt>
      <trkpt lat="43.96147" lon="4.54156">
        <ele>42.45181485582</ele>
        <time>2021-04-05T18:24:03.211Z</time>
      </trkpt>
      <trkpt lat="43.96156" lon="4.54161">
        <ele>42.85555146909</ele>
        <time>2021-04-05T18:24:11.943Z</time>
      </trkpt>
      <trkpt lat="43.96198" lon="4.54209">
        <ele>43.22290357035</ele>
        <time>2021-04-05T18:24:20.691Z</time>
      </trkpt>
      <trkpt lat="43.96214" lon="4.5421">
        <ele>43.69523153135</ele>
        <time>2021-04-05T18:24:29.444Z</time>
      </trkpt>
      <trkpt lat="43.96269" lon="4.5422">
        <ele>44.19171388581</ele>
        <time>2021-04-05T18:24:38.213Z</time>
      </trkpt>
      <trkpt lat="43.96279" lon="4.54226">
        <ele>44.68304029822</ele>
        <time>2021-04-05T18:24:46.986Z</time>
      </trkpt>
      <trkpt lat="43.9633" lon="4.54249">
        <ele>45.26030228679</ele>
        <time>2021-04-05T18:24:55.775Z</time>
      </trkpt>
      <trkpt lat="43.96322" lon="4.54312">
        <ele>45.73877564222</ele>
        <time>2021-04-05T18:25:04.577Z</time>
      </trkpt>
      <trkpt lat="43.96318" lon="4.54323">
        <ele>46.28962145789</ele>
        <time>2021-04-05T18:25:13.382Z</time>
      </trkpt>
      <trkpt lat="43.96314" lon="4.54343">
        <ele>46.88571186085</ele>
        <time>2021-04-05T18:25:22.192Z</time>
      </trkpt>
      <trkpt lat="43.96368" lon="4.54345">
        <ele>47.42913020192</ele>
        <time>2021-04-05T18:25:31.018Z</time>
      </trkpt>
      <trkpt lat="43.96419" lon="4.54363">
        <ele>47.99400009046</ele>
        <time>2021-04-05T18:25:39.860Z</time>
      </trkpt>
      <trkpt lat="43.96449" lon="4.54429">
        <ele>48.72513459687</ele>
        <time>2021-04-05T18:25:48.718Z</time>
      </trkpt>
      <trkpt lat="43.96485" lon="4.54484">
        <ele>49.35648388348</ele>
        <time>2021-04-05T18:25:57.592Z</time>
      </trkpt>
      <trkpt lat="43.96509" lon="4.54521">
        <ele>49.92710895566</ele>
        <time>2021-04-05T18:26:06.477Z</time>
      </trkpt>
      <trkpt lat="43.96524" lon="4.54522">
        <ele>50.4580040649</ele>
        <time>2021-04-05T18:26:15.367Z</time>
      </trkpt>
      <trkpt lat="43.9654" lon="4.54536">
        <ele>50.98995240713</ele>
        <time>2021-04-05T18:26:24.262Z</time>
      </trkpt>
      <trkpt lat="43.96566" lon="4.54571">
        <ele>51.51811829332</ele>
        <time>2021-04-05T18:26:33.168Z</time>
      </trkpt>
      <trkpt lat="43.9662" lon="4.54578">
        <ele>52.07063411045</ele>
        <time>2021-04-05T18:26:42.090Z</time>
      </trkpt>
      <trkpt lat="43.96677" lon="4.54593">
        <ele>52.63997118596</ele>
        <time>2021-04-05T18:26:51.029Z</time>
      </trkpt>
      <trkpt lat="43.96681" lon="4.54595">
        <ele>53.08932833462</ele>
        <time>2021-04-05T18:26:59.970Z</time>
      </trkpt>
      <trkpt lat="43.96688" lon="4.54601">
        <ele>53.5138559893</ele>
        <time>2021-04-05T18:27:08.913Z</time>
      </trkpt>
      <trkpt lat="43.96709" lon="4.54615">
        <ele>53.88832803602</ele>
        <time>2021-04-05T18:27:17.863Z</time>
      </trkpt>
      <trkpt lat="43.96712" lon="4.54616">
        <ele>54.26985147488</ele>
        <time>2021-04-05T18:27:26.814Z</time>
      </trkpt>
      <trkpt lat="43.96719" lon="4.54619">
        <ele>54.62701376965</ele>
        <time>2021-04-05T18:27:35.767Z</time>
      </trkpt>
      <trkpt lat="43.96735" lon="4.54642">
        <ele>54.98522765736</ele>
        <time>2021-04-05T18:27:44.727Z</time>
      </trkpt>
      <trkpt lat="43.96741" lon="4.5465">
        <ele>55.33253685714</ele>
        <time>2021-04-05T18:27:53.690Z</time>
      </trkpt>
      <trkpt lat="43.96749" lon="4.54661">
        <ele>55.6697788465</ele>
        <time>2021-04-05T18:28:02.656Z</time>
      </trkpt>
      <trkpt lat="43.96752" lon="4.54666">
        <ele>55.99703035146</ele>
        <time>2021-04-05T18:28:11.623Z</time>
      </trkpt>
      <trkpt lat="43.96755" lon="4.54671">
        <ele>56.31729028231</ele>
        <time>2021-04-05T18:28:20.592Z</time>
      </trkpt>
      <trkpt lat="43.96765" lon="4.54684">
        <ele>56.62458833083</ele>
        <time>2021-04-05T18:28:29.565Z</time>
      </trkpt>
      <trkpt lat="43.96767" lon="4.54687">
        <ele>56.92373295805</ele>
        <time>2021-04-05T18:28:38.539Z</time>
      </trkpt>
      <trkpt lat="43.96789" lon="4.54737">
        <ele>57.32814407372</ele>
        <time>2021-04-05T18:28:47.525Z</time>
      </trkpt>
      <trkpt lat="43.96808" lon="4.54807">
        <ele>57.60409271551</ele>
        <time>2021-04-05T18:28:56.528Z</time>
      </trkpt>
      <trkpt lat="43.96813" lon="4.54833">
        <ele>57.84625424964</ele>
        <time>2021-04-05T18:29:05.536Z</time>
      </trkpt>
      <trkpt lat="43.96827" lon="4.54894">
        <ele>58.0450931928</ele>
        <time>2021-04-05T18:29:14.558Z</time>
      </trkpt>
      <trkpt lat="43.96834" lon="4.5492">
        <ele>58.34986157042</ele>
        <time>2021-04-05T18:29:23.586Z</time>
      </trkpt>
      <trkpt lat="43.96848" lon="4.54961">
        <ele>58.7064686347</ele>
        <time>2021-04-05T18:29:32.624Z</time>
      </trkpt>
      <trkpt lat="43.96858" lon="4.54991">
        <ele>59.01480604593</ele>
        <time>2021-04-05T18:29:41.669Z</time>
      </trkpt>
      <trkpt lat="43.9689" lon="4.55054">
        <ele>59.26340364207</ele>
        <time>2021-04-05T18:29:50.731Z</time>
      </trkpt>
      <trkpt lat="43.96898" lon="4.55064">
        <ele>59.50308812515</ele>
        <time>2021-04-05T18:29:59.796Z</time>
      </trkpt>
      <trkpt lat="43.96902" lon="4.55071">
        <ele>59.73449349088</ele>
        <time>2021-04-05T18:30:08.863Z</time>
      </trkpt>
      <trkpt lat="43.9691" lon="4.55082">
        <ele>59.98268341559</ele>
        <time>2021-04-05T18:30:17.933Z</time>
      </trkpt>
      <trkpt lat="43.96915" lon="4.5509">
        <ele>60.20459455668</ele>
        <time>2021-04-05T18:30:27.006Z</time>
      </trkpt>
      <trkpt lat="43.96918" lon="4.55094">
        <ele>60.38563142893</ele>
        <time>2021-04-05T18:30:36.080Z</time>
      </trkpt>
      <trkpt lat="43.96924" lon="4.55101">
        <ele>60.56493801576</ele>
        <time>2021-04-05T18:30:45.156Z</time>
      </trkpt>
      <trkpt lat="43.96967" lon="4.55143">
        <ele>60.80842882521</ele>
        <time>2021-04-05T18:30:54.248Z</time>
      </trkpt>
      <trkpt lat="43.96981" lon="4.55154">
        <ele>60.85178797898</ele>
        <time>2021-04-05T18:31:03.345Z</time>
      </trkpt>
      <trkpt lat="43.96996" lon="4.55163">
        <ele>60.85265470487</ele>
        <time>2021-04-05T18:31:12.446Z</time>
      </trkpt>
      <trkpt lat="43.97013" lon="4.5517">
        <ele>60.81741725429</ele>
        <time>2021-04-05T18:31:21.553Z</time>
      </trkpt>
      <trkpt lat="43.9704" lon="4.55184">
        <ele>60.78533107535</ele>
        <time>2021-04-05T18:31:30.668Z</time>
      </trkpt>
      <trkpt lat="43.9709" lon="4.55213">
        <ele>60.89279908596</ele>
        <time>2021-04-05T18:31:39.800Z</time>
      </trkpt>
      <trkpt lat="43.97104" lon="4.55221">
        <ele>60.83955497864</ele>
        <time>2021-04-05T18:31:48.936Z</time>
      </trkpt>
      <trkpt lat="43.97115" lon="4.55227">
        <ele>60.75392362225</ele>
        <time>2021-04-05T18:31:58.076Z</time>
      </trkpt>
      <trkpt lat="43.97123" lon="4.5523">
        <ele>60.63099926028</ele>
        <time>2021-04-05T18:32:07.218Z</time>
      </trkpt>
      <trkpt lat="43.9713" lon="4.55233">
        <ele>60.45930539166</ele>
        <time>2021-04-05T18:32:16.362Z</time>
      </trkpt>
      <trkpt lat="43.97183" lon="4.55265">
        <ele>60.23950600347</ele>
        <time>2021-04-05T18:32:25.523Z</time>
      </trkpt>
      <trkpt lat="43.97187" lon="4.55266">
        <ele>60.03442547269</ele>
        <time>2021-04-05T18:32:34.686Z</time>
      </trkpt>
      <trkpt lat="43.97202" lon="4.55275">
        <ele>59.81708267601</ele>
        <time>2021-04-05T18:32:43.854Z</time>
      </trkpt>
      <trkpt lat="43.97239" lon="4.55315">
        <ele>59.76788021244</ele>
        <time>2021-04-05T18:32:53.036Z</time>
      </trkpt>
      <trkpt lat="43.9725" lon="4.5535">
        <ele>59.62811005086</ele>
        <time>2021-04-05T18:33:02.226Z</time>
      </trkpt>
      <trkpt lat="43.97273" lon="4.5542">
        <ele>59.46668215175</ele>
        <time>2021-04-05T18:33:11.432Z</time>
      </trkpt>
      <trkpt lat="43.97307" lon="4.55462">
        <ele>58.94601645898</ele>
        <time>2021-04-05T18:33:20.652Z</time>
      </trkpt>
      <trkpt lat="43.97339" lon="4.55454">
        <ele>58.63203509814</ele>
        <time>2021-04-05T18:33:29.882Z</time>
      </trkpt>
      <trkpt lat="43.97393" lon="4.5544">
        <ele>58.3932824043</ele>
        <time>2021-04-05T18:33:39.128Z</time>
      </trkpt>
      <trkpt lat="43.97447" lon="4.55427">
        <ele>58.24188220785</ele>
        <time>2021-04-05T18:33:48.390Z</time>
      </trkpt>
      <trkpt lat="43.97484" lon="4.55423">
        <ele>58.12145812775</ele>
        <time>2021-04-05T18:33:57.664Z</time>
      </trkpt>
      <trkpt lat="43.97517" lon="4.55412">
        <ele>57.98929212813</ele>
        <time>2021-04-05T18:34:06.948Z</time>
      </trkpt>
      <trkpt lat="43.97526" lon="4.55414">
        <ele>57.89616756464</ele>
        <time>2021-04-05T18:34:16.234Z</time>
      </trkpt>
      <trkpt lat="43.97539" lon="4.55416">
        <ele>57.85491398774</ele>
        <time>2021-04-05T18:34:25.524Z</time>
      </trkpt>
      <trkpt lat="43.97543" lon="4.55417">
        <ele>57.89785643709</ele>
        <time>2021-04-05T18:34:34.816Z</time>
      </trkpt>
      <trkpt lat="43.97548" lon="4.55419">
        <ele>58.02014170873</ele>
        <time>2021-04-05T18:34:44.109Z</time>
      </trkpt>
      <trkpt lat="43.97552" lon="4.5542">
        <ele>58.23157182976</ele>
        <time>2021-04-05T18:34:53.403Z</time>
      </trkpt>
      <trkpt lat="43.97566" lon="4.55423">
        <ele>58.5286523395</ele>
        <time>2021-04-05T18:35:02.701Z</time>
      </trkpt>
      <trkpt lat="43.97574" lon="4.55426">
        <ele>58.94828331117</ele>
        <time>2021-04-05T18:35:12.002Z</time>
      </trkpt>
      <trkpt lat="43.97579" lon="4.55427">
        <ele>59.48562242306</ele>
        <time>2021-04-05T18:35:21.304Z</time>
      </trkpt>
      <trkpt lat="43.97588" lon="4.5543">
        <ele>60.14704408683</ele>
        <time>2021-04-05T18:35:30.609Z</time>
      </trkpt>
      <trkpt lat="43.97621" lon="4.55441">
        <ele>60.95142622276</ele>
        <time>2021-04-05T18:35:39.924Z</time>
      </trkpt>
      <trkpt lat="43.9763" lon="4.55445">
        <ele>61.88633309446</ele>
        <time>2021-04-05T18:35:49.242Z</time>
      </trkpt>
      <trkpt lat="43.97646" lon="4.55451">
        <ele>62.98348456775</ele>
        <time>2021-04-05T18:35:58.565Z</time>
      </trkpt>
      <trkpt lat="43.97654" lon="4.55454">
        <ele>64.19940685072</ele>
        <time>2021-04-05T18:36:07.891Z</time>
      </trkpt>
      <trkpt lat="43.97711" lon="4.55471">
        <ele>65.58334211302</ele>
        <time>2021-04-05T18:36:17.234Z</time>
      </trkpt>
      <trkpt lat="43.97719" lon="4.55472">
        <ele>67.06996705006</ele>
        <time>2021-04-05T18:36:26.579Z</time>
      </trkpt>
      <trkpt lat="43.97752" lon="4.55426">
        <ele>68.79882096209</ele>
        <time>2021-04-05T18:36:35.938Z</time>
      </trkpt>
      <trkpt lat="43.97761" lon="4.55402">
        <ele>70.64383572954</ele>
        <time>2021-04-05T18:36:45.303Z</time>
      </trkpt>
      <trkpt lat="43.97777" lon="4.55368">
        <ele>72.71287328497</ele>
        <time>2021-04-05T18:36:54.677Z</time>
      </trkpt>
      <trkpt lat="43.9779" lon="4.55334">
        <ele>74.86589456887</ele>
        <time>2021-04-05T18:37:04.059Z</time>
      </trkpt>
      <trkpt lat="43.97797" lon="4.55316">
        <ele>77.08235805741</ele>
        <time>2021-04-05T18:37:13.446Z</time>
      </trkpt>
      <trkpt lat="43.97813" lon="4.55279">
        <ele>79.42378795818</ele>
        <time>2021-04-05T18:37:22.842Z</time>
      </trkpt>
      <trkpt lat="43.9783" lon="4.55228">
        <ele>81.93038808546</ele>
        <time>2021-04-05T18:37:32.250Z</time>
      </trkpt>
      <trkpt lat="43.97866" lon="4.55171">
        <ele>84.67184135316</ele>
        <time>2021-04-05T18:37:41.674Z</time>
      </trkpt>
      <trkpt lat="43.97886" lon="4.55102">
        <ele>87.40187895269</ele>
        <time>2021-04-05T18:37:51.114Z</time>
      </trkpt>
      <trkpt lat="43.97903" lon="4.5503">
        <ele>90.19657739063</ele>
        <time>2021-04-05T18:38:00.571Z</time>
      </trkpt>
      <trkpt lat="43.97904" lon="4.55023">
        <ele>92.862988266</ele>
        <time>2021-04-05T18:38:10.029Z</time>
      </trkpt>
      <trkpt lat="43.97936" lon="4.54978">
        <ele>95.74192935755</ele>
        <time>2021-04-05T18:38:19.501Z</time>
      </trkpt>
      <trkpt lat="43.97986" lon="4.55006">
        <ele>98.70772444293</ele>
        <time>2021-04-05T18:38:28.989Z</time>
      </trkpt>
      <trkpt lat="43.98035" lon="4.55037">
        <ele>101.73748634967</ele>
        <time>2021-04-05T18:38:38.493Z</time>
      </trkpt>
      <trkpt lat="43.98083" lon="4.55074">
        <ele>104.72390417626</ele>
        <time>2021-04-05T18:38:48.014Z</time>
      </trkpt>
      <trkpt lat="43.98139" lon="4.55087">
        <ele>107.4459464908</ele>
        <time>2021-04-05T18:38:57.551Z</time>
      </trkpt>
      <trkpt lat="43.98188" lon="4.55054">
        <ele>110.3094626012</ele>
        <time>2021-04-05T18:39:07.105Z</time>
      </trkpt>
      <trkpt lat="43.98211" lon="4.55054">
        <ele>113.02746165508</ele>
        <time>2021-04-05T18:39:16.666Z</time>
      </trkpt>
      <trkpt lat="43.98258" lon="4.55043">
        <ele>115.66759128884</ele>
        <time>2021-04-05T18:39:26.241Z</time>
      </trkpt>
      <trkpt lat="43.98265" lon="4.55039">
        <ele>118.12068008315</ele>
        <time>2021-04-05T18:39:35.818Z</time>
      </trkpt>
      <trkpt lat="43.9827" lon="4.55037">
        <ele>120.48161456033</ele>
        <time>2021-04-05T18:39:45.396Z</time>
      </trkpt>
      <trkpt lat="43.98272" lon="4.55036">
        <ele>122.72893463585</ele>
        <time>2021-04-05T18:39:54.975Z</time>
      </trkpt>
      <trkpt lat="43.98275" lon="4.55035">
        <ele>124.87544576702</ele>
        <time>2021-04-05T18:40:04.555Z</time>
      </trkpt>
      <trkpt lat="43.98277" lon="4.55033">
        <ele>126.92063078887</ele>
        <time>2021-04-05T18:40:14.136Z</time>
      </trkpt>
      <trkpt lat="43.98282" lon="4.55031">
        <ele>128.86925680271</ele>
        <time>2021-04-05T18:40:23.718Z</time>
      </trkpt>
      <trkpt lat="43.98298" lon="4.55019">
        <ele>130.75636168123</ele>
        <time>2021-04-05T18:40:33.306Z</time>
      </trkpt>
      <trkpt lat="43.98339" lon="4.54995">
        <ele>132.61555845294</ele>
        <time>2021-04-05T18:40:42.907Z</time>
      </trkpt>
      <trkpt lat="43.98387" lon="4.54964">
        <ele>134.38819397708</ele>
        <time>2021-04-05T18:40:52.524Z</time>
      </trkpt>
      <trkpt lat="43.98396" lon="4.5495">
        <ele>135.90679344841</ele>
        <time>2021-04-05T18:41:02.145Z</time>
      </trkpt>
      <trkpt lat="43.98402" lon="4.54944">
        <ele>137.31204699035</ele>
        <time>2021-04-05T18:41:11.768Z</time>
      </trkpt>
      <trkpt lat="43.98428" lon="4.54946">
        <ele>138.68797035883</ele>
        <time>2021-04-05T18:41:21.399Z</time>
      </trkpt>
      <trkpt lat="43.98449" lon="4.54959">
        <ele>139.9676498562</ele>
        <time>2021-04-05T18:41:31.037Z</time>
      </trkpt>
      <trkpt lat="43.98464" lon="4.54964">
        <ele>141.1084055431</ele>
        <time>2021-04-05T18:41:40.679Z</time>
      </trkpt>
      <trkpt lat="43.98467" lon="4.54965">
        <ele>142.09329662795</ele>
        <time>2021-04-05T18:41:50.322Z</time>
      </trkpt>
      <trkpt lat="43.98474" lon="4.54966">
        <ele>143.00087312629</ele>
        <time>2021-04-05T18:41:59.968Z</time>
      </trkpt>
      <trkpt lat="43.98477" lon="4.54967">
        <ele>143.79454906586</ele>
        <time>2021-04-05T18:42:09.614Z</time>
      </trkpt>
      <trkpt lat="43.98485" lon="4.54967">
        <ele>144.52844295322</ele>
        <time>2021-04-05T18:42:19.263Z</time>
      </trkpt>
      <trkpt lat="43.98487" lon="4.54967">
        <ele>145.14886248828</ele>
        <time>2021-04-05T18:42:28.912Z</time>
      </trkpt>
      <trkpt lat="43.98493" lon="4.54968">
        <ele>145.69775950699</ele>
        <time>2021-04-05T18:42:38.563Z</time>
      </trkpt>
      <trkpt lat="43.98495" lon="4.54968">
        <ele>146.16218071676</ele>
        <time>2021-04-05T18:42:48.215Z</time>
      </trkpt>
      <trkpt lat="43.98497" lon="4.54968">
        <ele>146.55737674495</ele>
        <time>2021-04-05T18:42:57.867Z</time>
      </trkpt>
      <trkpt lat="43.985" lon="4.54968">
        <ele>146.88876512312</ele>
        <time>2021-04-05T18:43:07.520Z</time>
      </trkpt>
      <trkpt lat="43.98502" lon="4.54969">
        <ele>147.16164232534</ele>
        <time>2021-04-05T18:43:17.174Z</time>
      </trkpt>
      <trkpt lat="43.98553" lon="4.54987">
        <ele>147.5540600381</ele>
        <time>2021-04-05T18:43:26.843Z</time>
      </trkpt>
      <trkpt lat="43.98553" lon="4.54988">
        <ele>147.71381982037</ele>
        <time>2021-04-05T18:43:36.513Z</time>
      </trkpt>
      <trkpt lat="43.98553" lon="4.54988">
        <ele>147.82636418233</ele>
        <time>2021-04-05T18:43:46.183Z</time>
      </trkpt>
      <trkpt lat="43.98553" lon="4.54988">
        <ele>147.89766881214</ele>
        <time>2021-04-05T18:43:55.853Z</time>
      </trkpt>
      <trkpt lat="43.98553" lon="4.54988">
        <ele>147.93300538221</ele>
        <time>2021-04-05T18:44:05.523Z</time>
      </trkpt>
      <trkpt lat="43.98553" lon="4.54988">
        <ele>147.93658371034</ele>
        <time>2021-04-05T18:44:15.193Z</time>
      </trkpt>
      <trkpt lat="43.98553" lon="4.54988">
        <ele>147.91385322896</ele>
        <time>2021-04-05T18:44:24.863Z</time>
      </trkpt>
      <trkpt lat="43.98553" lon="4.54988">
        <ele>147.86904998471</ele>
        <time>2021-04-05T18:44:34.533Z</time>
      </trkpt>
      <trkpt lat="43.98553" lon="4.54988">
        <ele>147.80727607306</ele>
        <time>2021-04-05T18:44:44.203Z</time>
      </trkpt>
      <trkpt lat="43.98553" lon="4.54988">
        <ele>147.73427111557</ele>
        <time>2021-04-05T18:44:53.873Z</time>
      </trkpt>
      <trkpt lat="43.98554" lon="4.54985">
        <ele>147.64828356683</ele>
        <time>2021-04-05T18:45:03.543Z</time>
      </trkpt>
      <trkpt lat="43.98554" lon="4.54984">
        <ele>147.5585258871</ele>
        <time>2021-04-05T18:45:13.214Z</time>
      </trkpt>
      <trkpt lat="43.98554" lon="4.54984">
        <ele>147.4683917425</ele>
        <time>2021-04-05T18:45:22.885Z</time>
      </trkpt>
      <trkpt lat="43.98552" lon="4.54987">
        <ele>147.38458320825</ele>
        <time>2021-04-05T18:45:32.557Z</time>
      </trkpt>
      <trkpt lat="43.98556" lon="4.54989">
        <ele>147.31245316385</ele>
        <time>2021-04-05T18:45:42.230Z</time>
      </trkpt>
      <trkpt lat="43.98568" lon="4.54992">
        <ele>147.26417444223</ele>
        <time>2021-04-05T18:45:51.907Z</time>
      </trkpt>
      <trkpt lat="43.98572" lon="4.54993">
        <ele>147.20824615373</ele>
        <time>2021-04-05T18:46:01.585Z</time>
      </trkpt>
      <trkpt lat="43.98577" lon="4.54994">
        <ele>147.16229819585</ele>
        <time>2021-04-05T18:46:11.264Z</time>
      </trkpt>
      <trkpt lat="43.98584" lon="4.54994">
        <ele>147.13428257523</ele>
        <time>2021-04-05T18:46:20.946Z</time>
      </trkpt>
      <trkpt lat="43.98604" lon="4.54991">
        <ele>147.10485861563</ele>
        <time>2021-04-05T18:46:30.633Z</time>
      </trkpt>
      <trkpt lat="43.98616" lon="4.54987">
        <ele>147.0858698639</ele>
        <time>2021-04-05T18:46:40.324Z</time>
      </trkpt>
      <trkpt lat="43.98631" lon="4.54979">
        <ele>147.09983246603</ele>
        <time>2021-04-05T18:46:50.020Z</time>
      </trkpt>
      <trkpt lat="43.98634" lon="4.54977">
        <ele>147.1191207427</ele>
        <time>2021-04-05T18:46:59.717Z</time>
      </trkpt>
      <trkpt lat="43.98637" lon="4.54976">
        <ele>147.15430371294</ele>
        <time>2021-04-05T18:47:09.415Z</time>
      </trkpt>
      <trkpt lat="43.98642" lon="4.54972">
        <ele>147.20871451773</ele>
        <time>2021-04-05T18:47:19.115Z</time>
      </trkpt>
      <trkpt lat="43.98661" lon="4.54964">
        <ele>147.29225774407</ele>
        <time>2021-04-05T18:47:28.821Z</time>
      </trkpt>
      <trkpt lat="43.98665" lon="4.54962">
        <ele>147.37814813662</ele>
        <time>2021-04-05T18:47:38.528Z</time>
      </trkpt>
      <trkpt lat="43.98681" lon="4.54955">
        <ele>147.48804792621</ele>
        <time>2021-04-05T18:47:48.240Z</time>
      </trkpt>
      <trkpt lat="43.98704" lon="4.54941">
        <ele>147.58458687225</ele>
        <time>2021-04-05T18:47:57.959Z</time>
      </trkpt>
      <trkpt lat="43.98749" lon="4.54905">
        <ele>147.93966020211</ele>
        <time>2021-04-05T18:48:07.694Z</time>
      </trkpt>
      <trkpt lat="43.98752" lon="4.54902">
        <ele>148.08955392493</ele>
        <time>2021-04-05T18:48:17.430Z</time>
      </trkpt>
      <trkpt lat="43.98755" lon="4.54899">
        <ele>148.24468675662</ele>
        <time>2021-04-05T18:48:27.167Z</time>
      </trkpt>
      <trkpt lat="43.98758" lon="4.54896">
        <ele>148.40724296833</ele>
        <time>2021-04-05T18:48:36.905Z</time>
      </trkpt>
      <trkpt lat="43.98773" lon="4.54878">
        <ele>148.62962217417</ele>
        <time>2021-04-05T18:48:46.649Z</time>
      </trkpt>
      <trkpt lat="43.98776" lon="4.54875">
        <ele>148.81891274602</ele>
        <time>2021-04-05T18:48:56.394Z</time>
      </trkpt>
      <trkpt lat="43.98779" lon="4.54872">
        <ele>149.00156063992</ele>
        <time>2021-04-05T18:49:06.140Z</time>
      </trkpt>
      <trkpt lat="43.98782" lon="4.54869">
        <ele>149.18582633527</ele>
        <time>2021-04-05T18:49:15.887Z</time>
      </trkpt>
      <trkpt lat="43.98792" lon="4.5486">
        <ele>149.38009665989</ele>
        <time>2021-04-05T18:49:25.638Z</time>
      </trkpt>
      <trkpt lat="43.98824" lon="4.54824">
        <ele>149.55357693815</ele>
        <time>2021-04-05T18:49:35.401Z</time>
      </trkpt>
      <trkpt lat="43.98827" lon="4.54819">
        <ele>149.7324465137</ele>
        <time>2021-04-05T18:49:45.166Z</time>
      </trkpt>
      <trkpt lat="43.9883" lon="4.54815">
        <ele>149.91140257683</ele>
        <time>2021-04-05T18:49:54.932Z</time>
      </trkpt>
      <trkpt lat="43.98835" lon="4.54806">
        <ele>150.09117704818</ele>
        <time>2021-04-05T18:50:04.701Z</time>
      </trkpt>
      <trkpt lat="43.98841" lon="4.54796">
        <ele>150.29209910952</ele>
        <time>2021-04-05T18:50:14.472Z</time>
      </trkpt>
      <trkpt lat="43.98847" lon="4.54786">
        <ele>150.47632186318</ele>
        <time>2021-04-05T18:50:24.246Z</time>
      </trkpt>
      <trkpt lat="43.98854" lon="4.54777">
        <ele>150.66639277889</ele>
        <time>2021-04-05T18:50:34.023Z</time>
      </trkpt>
      <trkpt lat="43.98857" lon="4.54772">
        <ele>150.84882276185</ele>
        <time>2021-04-05T18:50:43.801Z</time>
      </trkpt>
      <trkpt lat="43.98869" lon="4.54762">
        <ele>151.05533460763</ele>
        <time>2021-04-05T18:50:53.583Z</time>
      </trkpt>
      <trkpt lat="43.98877" lon="4.54757">
        <ele>151.26566438022</ele>
        <time>2021-04-05T18:51:03.368Z</time>
      </trkpt>
      <trkpt lat="43.98885" lon="4.54754">
        <ele>151.46749846342</ele>
        <time>2021-04-05T18:51:13.156Z</time>
      </trkpt>
      <trkpt lat="43.98894" lon="4.54753">
        <ele>151.67104470252</ele>
        <time>2021-04-05T18:51:22.946Z</time>
      </trkpt>
      <trkpt lat="43.9891" lon="4.54757">
        <ele>151.889713081</ele>
        <time>2021-04-05T18:51:32.741Z</time>
      </trkpt>
      <trkpt lat="43.98914" lon="4.54758">
        <ele>152.08886812248</ele>
        <time>2021-04-05T18:51:42.537Z</time>
      </trkpt>
      <trkpt lat="43.98953" lon="4.54754">
        <ele>152.35235768083</ele>
        <time>2021-04-05T18:51:52.345Z</time>
      </trkpt>
      <trkpt lat="43.99001" lon="4.54721">
        <ele>152.57389538131</ele>
        <time>2021-04-05T18:52:02.169Z</time>
      </trkpt>
      <trkpt lat="43.99045" lon="4.54668">
        <ele>152.67142488863</ele>
        <time>2021-04-05T18:52:12.010Z</time>
      </trkpt>
      <trkpt lat="43.99053" lon="4.5465">
        <ele>152.86378846389</ele>
        <time>2021-04-05T18:52:21.856Z</time>
      </trkpt>
      <trkpt lat="43.99058" lon="4.54636">
        <ele>153.06564936525</ele>
        <time>2021-04-05T18:52:31.705Z</time>
      </trkpt>
      <trkpt lat="43.99064" lon="4.546">
        <ele>153.30475393975</ele>
        <time>2021-04-05T18:52:41.562Z</time>
      </trkpt>
      <trkpt lat="43.99066" lon="4.54593">
        <ele>153.54963134808</ele>
        <time>2021-04-05T18:52:51.421Z</time>
      </trkpt>
      <trkpt lat="43.99074" lon="4.5456">
        <ele>153.86539630764</ele>
        <time>2021-04-05T18:53:01.287Z</time>
      </trkpt>
      <trkpt lat="43.9908" lon="4.54542">
        <ele>154.17428289416</ele>
        <time>2021-04-05T18:53:11.158Z</time>
      </trkpt>
      <trkpt lat="43.99082" lon="4.54536">
        <ele>154.45652616633</ele>
        <time>2021-04-05T18:53:21.030Z</time>
      </trkpt>
      <trkpt lat="43.99085" lon="4.54531">
        <ele>154.74870654674</ele>
        <time>2021-04-05T18:53:30.903Z</time>
      </trkpt>
      <trkpt lat="43.99087" lon="4.54525">
        <ele>155.05532802417</ele>
        <time>2021-04-05T18:53:40.778Z</time>
      </trkpt>
      <trkpt lat="43.99094" lon="4.5451">
        <ele>155.37697323719</ele>
        <time>2021-04-05T18:53:50.657Z</time>
      </trkpt>
      <trkpt lat="43.99098" lon="4.54499">
        <ele>155.71950509645</ele>
        <time>2021-04-05T18:54:00.538Z</time>
      </trkpt>
      <trkpt lat="43.99109" lon="4.5448">
        <ele>156.11600470996</ele>
        <time>2021-04-05T18:54:10.424Z</time>
      </trkpt>
      <trkpt lat="43.99114" lon="4.54471">
        <ele>156.48796140781</ele>
        <time>2021-04-05T18:54:20.313Z</time>
      </trkpt>
      <trkpt lat="43.99117" lon="4.54466">
        <ele>156.87957488004</ele>
        <time>2021-04-05T18:54:30.203Z</time>
      </trkpt>
      <trkpt lat="43.99119" lon="4.54462">
        <ele>157.27458856811</ele>
        <time>2021-04-05T18:54:40.095Z</time>
      </trkpt>
      <trkpt lat="43.99147" lon="4.54396">
        <ele>157.72511688048</ele>
        <time>2021-04-05T18:54:50.003Z</time>
      </trkpt>
      <trkpt lat="43.99159" lon="4.54345">
        <ele>158.17973013513</ele>
        <time>2021-04-05T18:54:59.922Z</time>
      </trkpt>
      <trkpt lat="43.99161" lon="4.54319">
        <ele>158.66243977492</ele>
        <time>2021-04-05T18:55:09.847Z</time>
      </trkpt>
      <trkpt lat="43.99162" lon="4.54281">
        <ele>159.17245792262</ele>
        <time>2021-04-05T18:55:19.780Z</time>
      </trkpt>
      <trkpt lat="43.99168" lon="4.54257">
        <ele>159.67501060026</ele>
        <time>2021-04-05T18:55:29.719Z</time>
      </trkpt>
      <trkpt lat="43.99183" lon="4.54225">
        <ele>160.12715384681</ele>
        <time>2021-04-05T18:55:39.666Z</time>
      </trkpt>
      <trkpt lat="43.99198" lon="4.54203">
        <ele>160.55991487241</ele>
        <time>2021-04-05T18:55:49.620Z</time>
      </trkpt>
      <trkpt lat="43.99209" lon="4.54186">
        <ele>161.02095745933</ele>
        <time>2021-04-05T18:55:59.579Z</time>
      </trkpt>
      <trkpt lat="43.9923" lon="4.54122">
        <ele>161.51146787264</ele>
        <time>2021-04-05T18:56:09.553Z</time>
      </trkpt>
      <trkpt lat="43.99237" lon="4.54112">
        <ele>161.96452583839</ele>
        <time>2021-04-05T18:56:19.530Z</time>
      </trkpt>
      <trkpt lat="43.99245" lon="4.54105">
        <ele>162.42441412412</ele>
        <time>2021-04-05T18:56:29.510Z</time>
      </trkpt>
      <trkpt lat="43.99299" lon="4.54083">
        <ele>162.92236876515</ele>
        <time>2021-04-05T18:56:39.506Z</time>
      </trkpt>
      <trkpt lat="43.99352" lon="4.54058">
        <ele>163.53381600336</ele>
        <time>2021-04-05T18:56:49.519Z</time>
      </trkpt>
      <trkpt lat="43.99381" lon="4.5405">
        <ele>164.07424716035</ele>
        <time>2021-04-05T18:56:59.541Z</time>
      </trkpt>
      <trkpt lat="43.99438" lon="4.5406">
        <ele>164.56838970188</ele>
        <time>2021-04-05T18:57:09.580Z</time>
      </trkpt>
      <trkpt lat="43.99465" lon="4.54067">
        <ele>164.97415114312</ele>
        <time>2021-04-05T18:57:19.627Z</time>
      </trkpt>
      <trkpt lat="43.99474" lon="4.54065">
        <ele>165.35640623243</ele>
        <time>2021-04-05T18:57:29.677Z</time>
      </trkpt>
      <trkpt lat="43.99483" lon="4.5406">
        <ele>165.72326400952</ele>
        <time>2021-04-05T18:57:39.730Z</time>
      </trkpt>
      <trkpt lat="43.99491" lon="4.54052">
        <ele>166.10826632681</ele>
        <time>2021-04-05T18:57:49.786Z</time>
      </trkpt>
      <trkpt lat="43.9952" lon="4.5401">
        <ele>166.58829984196</ele>
        <time>2021-04-05T18:57:59.854Z</time>
      </trkpt>
      <trkpt lat="43.99539" lon="4.53981">
        <ele>166.968232701</ele>
        <time>2021-04-05T18:58:09.930Z</time>
      </trkpt>
      <trkpt lat="43.99554" lon="4.53957">
        <ele>167.29362019771</ele>
        <time>2021-04-05T18:58:20.014Z</time>
      </trkpt>
      <trkpt lat="43.99579" lon="4.53916">
        <ele>167.5990884429</ele>
        <time>2021-04-05T18:58:30.109Z</time>
      </trkpt>
      <trkpt lat="43.99584" lon="4.53905">
        <ele>167.88647158657</ele>
        <time>2021-04-05T18:58:40.207Z</time>
      </trkpt>
      <trkpt lat="43.99587" lon="4.53899">
        <ele>168.14620884401</ele>
        <time>2021-04-05T18:58:50.306Z</time>
      </trkpt>
      <trkpt lat="43.99589" lon="4.53893">
        <ele>168.3783974077</ele>
        <time>2021-04-05T18:59:00.407Z</time>
      </trkpt>
      <trkpt lat="43.99595" lon="4.53875">
        <ele>168.59177712651</ele>
        <time>2021-04-05T18:59:10.512Z</time>
      </trkpt>
      <trkpt lat="43.99609" lon="4.53845">
        <ele>168.74029756437</ele>
        <time>2021-04-05T18:59:20.625Z</time>
      </trkpt>
      <trkpt lat="43.99613" lon="4.53839">
        <ele>168.84791626576</ele>
        <time>2021-04-05T18:59:30.740Z</time>
      </trkpt>
      <trkpt lat="43.99616" lon="4.53833">
        <ele>168.92985703985</ele>
        <time>2021-04-05T18:59:40.856Z</time>
      </trkpt>
      <trkpt lat="43.99623" lon="4.53822">
        <ele>168.97802424528</ele>
        <time>2021-04-05T18:59:50.975Z</time>
      </trkpt>
      <trkpt lat="43.99627" lon="4.53816">
        <ele>169.03168416892</ele>
        <time>2021-04-05T19:00:01.096Z</time>
      </trkpt>
      <trkpt lat="43.99635" lon="4.53805">
        <ele>169.07838708814</ele>
        <time>2021-04-05T19:00:11.220Z</time>
      </trkpt>
      <trkpt lat="43.99642" lon="4.53794">
        <ele>169.11196971644</ele>
        <time>2021-04-05T19:00:21.348Z</time>
      </trkpt>
      <trkpt lat="43.99646" lon="4.53788">
        <ele>169.1415487887</ele>
        <time>2021-04-05T19:00:31.477Z</time>
      </trkpt>
      <trkpt lat="43.9965" lon="4.53783">
        <ele>169.16696947325</ele>
        <time>2021-04-05T19:00:41.608Z</time>
      </trkpt>
      <trkpt lat="43.99653" lon="4.53777">
        <ele>169.1948011547</ele>
        <time>2021-04-05T19:00:51.741Z</time>
      </trkpt>
      <trkpt lat="43.99663" lon="4.53759">
        <ele>169.24401437119</ele>
        <time>2021-04-05T19:01:01.878Z</time>
      </trkpt>
      <trkpt lat="43.99671" lon="4.5374">
        <ele>169.29795531781</ele>
        <time>2021-04-05T19:01:12.020Z</time>
      </trkpt>
      <trkpt lat="43.99684" lon="4.53707">
        <ele>169.33901121739</ele>
        <time>2021-04-05T19:01:22.170Z</time>
      </trkpt>
      <trkpt lat="43.99686" lon="4.537">
        <ele>169.39344975583</ele>
        <time>2021-04-05T19:01:32.322Z</time>
      </trkpt>
      <trkpt lat="43.99688" lon="4.53693">
        <ele>169.46898849534</ele>
        <time>2021-04-05T19:01:42.475Z</time>
      </trkpt>
      <trkpt lat="43.99694" lon="4.53673">
        <ele>169.57995962488</ele>
        <time>2021-04-05T19:01:52.633Z</time>
      </trkpt>
      <trkpt lat="43.99703" lon="4.53653">
        <ele>169.71666631854</ele>
        <time>2021-04-05T19:02:02.796Z</time>
      </trkpt>
      <trkpt lat="43.9971" lon="4.53641">
        <ele>169.87547624345</ele>
        <time>2021-04-05T19:02:12.962Z</time>
      </trkpt>
      <trkpt lat="43.99733" lon="4.5361">
        <ele>170.09078246899</ele>
        <time>2021-04-05T19:02:23.138Z</time>
      </trkpt>
      <trkpt lat="43.99758" lon="4.53582">
        <ele>170.33905713517</ele>
        <time>2021-04-05T19:02:33.324Z</time>
      </trkpt>
      <trkpt lat="43.99773" lon="4.53573">
        <ele>170.54742889155</ele>
        <time>2021-04-05T19:02:43.515Z</time>
      </trkpt>
      <trkpt lat="43.99789" lon="4.53568">
        <ele>170.80162572624</ele>
        <time>2021-04-05T19:02:53.711Z</time>
      </trkpt>
      <trkpt lat="43.99794" lon="4.53566">
        <ele>171.09844154968</ele>
        <time>2021-04-05T19:03:03.908Z</time>
      </trkpt>
      <trkpt lat="43.99799" lon="4.53563">
        <ele>171.42743796413</ele>
        <time>2021-04-05T19:03:14.107Z</time>
      </trkpt>
      <trkpt lat="43.99804" lon="4.53559">
        <ele>171.79396501326</ele>
        <time>2021-04-05T19:03:24.307Z</time>
      </trkpt>
      <trkpt lat="43.99844" lon="4.53508">
        <ele>172.2595354811</ele>
        <time>2021-04-05T19:03:34.524Z</time>
      </trkpt>
      <trkpt lat="43.99863" lon="4.5348">
        <ele>172.73723930399</ele>
        <time>2021-04-05T19:03:44.749Z</time>
      </trkpt>
      <trkpt lat="43.99871" lon="4.53469">
        <ele>173.21513696912</ele>
        <time>2021-04-05T19:03:54.977Z</time>
      </trkpt>
      <trkpt lat="43.99882" lon="4.53456">
        <ele>173.73662351745</ele>
        <time>2021-04-05T19:04:05.210Z</time>
      </trkpt>
      <trkpt lat="43.99905" lon="4.53428">
        <ele>174.29812610346</ele>
        <time>2021-04-05T19:04:15.452Z</time>
      </trkpt>
      <trkpt lat="43.99931" lon="4.53393">
        <ele>174.93271676583</ele>
        <time>2021-04-05T19:04:25.705Z</time>
      </trkpt>
      <trkpt lat="43.99957" lon="4.53362">
        <ele>175.55285251656</ele>
        <time>2021-04-05T19:04:35.968Z</time>
      </trkpt>
      <trkpt lat="43.99998" lon="4.53312">
        <ele>176.39533566521</ele>
        <time>2021-04-05T19:04:46.247Z</time>
      </trkpt>
      <trkpt lat="44.00036" lon="4.53257">
        <ele>177.18972363381</ele>
        <time>2021-04-05T19:04:56.543Z</time>
      </trkpt>
      <trkpt lat="44.00052" lon="4.53231">
        <ele>177.89884622178</ele>
        <time>2021-04-05T19:05:06.846Z</time>
      </trkpt>
      <trkpt lat="44.00096" lon="4.53181">
        <ele>178.66248382547</ele>
        <time>2021-04-05T19:05:17.166Z</time>
      </trkpt>
      <trkpt lat="44.00138" lon="4.53139">
        <ele>179.4193447938</ele>
        <time>2021-04-05T19:05:27.501Z</time>
      </trkpt>
      <trkpt lat="44.00188" lon="4.53108">
        <ele>180.251278372</ele>
        <time>2021-04-05T19:05:37.853Z</time>
      </trkpt>
      <trkpt lat="44.00192" lon="4.53104">
        <ele>180.96166055695</ele>
        <time>2021-04-05T19:05:48.206Z</time>
      </trkpt>
      <trkpt lat="44.00223" lon="4.53083">
        <ele>181.64424659035</ele>
        <time>2021-04-05T19:05:58.570Z</time>
      </trkpt>
      <trkpt lat="44.00228" lon="4.53081">
        <ele>182.34230094859</ele>
        <time>2021-04-05T19:06:08.935Z</time>
      </trkpt>
      <trkpt lat="44.00233" lon="4.53078">
        <ele>183.03668126362</ele>
        <time>2021-04-05T19:06:19.302Z</time>
      </trkpt>
      <trkpt lat="44.00242" lon="4.53072">
        <ele>183.73784413787</ele>
        <time>2021-04-05T19:06:29.672Z</time>
      </trkpt>
      <trkpt lat="44.00265" lon="4.53058">
        <ele>184.4227360249</ele>
        <time>2021-04-05T19:06:40.049Z</time>
      </trkpt>
      <trkpt lat="44.00317" lon="4.53021">
        <ele>185.15099209341</ele>
        <time>2021-04-05T19:06:50.444Z</time>
      </trkpt>
      <trkpt lat="44.00357" lon="4.52999">
        <ele>185.88403110965</ele>
        <time>2021-04-05T19:07:00.852Z</time>
      </trkpt>
      <trkpt lat="44.00409" lon="4.52961">
        <ele>186.6039473008</ele>
        <time>2021-04-05T19:07:11.277Z</time>
      </trkpt>
      <trkpt lat="44.0046" lon="4.52926">
        <ele>187.34830303428</ele>
        <time>2021-04-05T19:07:21.719Z</time>
      </trkpt>
      <trkpt lat="44.00505" lon="4.52879">
        <ele>188.080277272</ele>
        <time>2021-04-05T19:07:32.178Z</time>
      </trkpt>
      <trkpt lat="44.0052" lon="4.52863">
        <ele>188.70273436988</ele>
        <time>2021-04-05T19:07:42.642Z</time>
      </trkpt>
      <trkpt lat="44.00556" lon="4.52832">
        <ele>189.30544795819</ele>
        <time>2021-04-05T19:07:53.119Z</time>
      </trkpt>
      <trkpt lat="44.0057" lon="4.52813">
        <ele>189.90138269375</ele>
        <time>2021-04-05T19:08:03.602Z</time>
      </trkpt>
      <trkpt lat="44.00584" lon="4.52787">
        <ele>190.54836702128</ele>
        <time>2021-04-05T19:08:14.092Z</time>
      </trkpt>
      <trkpt lat="44.00591" lon="4.52773">
        <ele>191.14504411313</ele>
        <time>2021-04-05T19:08:24.586Z</time>
      </trkpt>
      <trkpt lat="44.00601" lon="4.52756">
        <ele>191.75959466792</ele>
        <time>2021-04-05T19:08:35.084Z</time>
      </trkpt>
      <trkpt lat="44.00604" lon="4.52751">
        <ele>192.35131385054</ele>
        <time>2021-04-05T19:08:45.584Z</time>
      </trkpt>
      <trkpt lat="44.00606" lon="4.52747">
        <ele>192.94155678394</ele>
        <time>2021-04-05T19:08:56.085Z</time>
      </trkpt>
      <trkpt lat="44.00609" lon="4.52742">
        <ele>193.52576397038</ele>
        <time>2021-04-05T19:09:06.587Z</time>
      </trkpt>
      <trkpt lat="44.00614" lon="4.52734">
        <ele>194.10904294006</ele>
        <time>2021-04-05T19:09:17.091Z</time>
      </trkpt>
      <trkpt lat="44.00628" lon="4.52699">
        <ele>194.67585587088</ele>
        <time>2021-04-05T19:09:27.604Z</time>
      </trkpt>
      <trkpt lat="44.00629" lon="4.52675">
        <ele>195.2154544584</ele>
        <time>2021-04-05T19:09:38.122Z</time>
      </trkpt>
      <trkpt lat="44.00629" lon="4.52652">
        <ele>195.75595076275</ele>
        <time>2021-04-05T19:09:48.645Z</time>
      </trkpt>
      <trkpt lat="44.00632" lon="4.52641">
        <ele>196.28751707909</ele>
        <time>2021-04-05T19:09:59.171Z</time>
      </trkpt>
      <trkpt lat="44.00639" lon="4.52635">
        <ele>196.81340280065</ele>
        <time>2021-04-05T19:10:09.699Z</time>
      </trkpt>
      <trkpt lat="44.00647" lon="4.52635">
        <ele>197.32502369031</ele>
        <time>2021-04-05T19:10:20.230Z</time>
      </trkpt>
      <trkpt lat="44.00678" lon="4.52651">
        <ele>197.82130970211</ele>
        <time>2021-04-05T19:10:30.771Z</time>
      </trkpt>
      <trkpt lat="44.00733" lon="4.52663">
        <ele>198.3879068281</ele>
        <time>2021-04-05T19:10:41.328Z</time>
      </trkpt>
      <trkpt lat="44.0077" lon="4.52666">
        <ele>198.87812824896</ele>
        <time>2021-04-05T19:10:51.896Z</time>
      </trkpt>
      <trkpt lat="44.00827" lon="4.52669">
        <ele>199.33605876525</ele>
        <time>2021-04-05T19:11:02.481Z</time>
      </trkpt>
      <trkpt lat="44.00857" lon="4.5266">
        <ele>199.78439998107</ele>
        <time>2021-04-05T19:11:13.075Z</time>
      </trkpt>
      <trkpt lat="44.00906" lon="4.5265">
        <ele>200.23146218918</ele>
        <time>2021-04-05T19:11:23.684Z</time>
      </trkpt>
      <trkpt lat="44.00941" lon="4.52638">
        <ele>200.56105336702</ele>
        <time>2021-04-05T19:11:34.304Z</time>
      </trkpt>
      <trkpt lat="44.00948" lon="4.52635">
        <ele>200.83081021399</ele>
        <time>2021-04-05T19:11:44.926Z</time>
      </trkpt>
      <trkpt lat="44.00952" lon="4.52635">
        <ele>201.0544293519</ele>
        <time>2021-04-05T19:11:55.549Z</time>
      </trkpt>
      <trkpt lat="44.00956" lon="4.52634">
        <ele>201.23225944015</ele>
        <time>2021-04-05T19:12:06.173Z</time>
      </trkpt>
      <trkpt lat="44.00964" lon="4.52632">
        <ele>201.36393804965</ele>
        <time>2021-04-05T19:12:16.800Z</time>
      </trkpt>
      <trkpt lat="44.00976" lon="4.52631">
        <ele>201.44821777229</ele>
        <time>2021-04-05T19:12:27.430Z</time>
      </trkpt>
      <trkpt lat="44.00983" lon="4.5263">
        <ele>201.48314212788</ele>
        <time>2021-04-05T19:12:38.063Z</time>
      </trkpt>
      <trkpt lat="44.00996" lon="4.52628">
        <ele>201.4697141592</ele>
        <time>2021-04-05T19:12:48.699Z</time>
      </trkpt>
      <trkpt lat="44.0105" lon="4.52621">
        <ele>201.30958649058</ele>
        <time>2021-04-05T19:12:59.352Z</time>
      </trkpt>
      <trkpt lat="44.01057" lon="4.52619">
        <ele>201.17267011324</ele>
        <time>2021-04-05T19:13:10.007Z</time>
      </trkpt>
      <trkpt lat="44.01076" lon="4.5261">
        <ele>200.97786209904</ele>
        <time>2021-04-05T19:13:20.668Z</time>
      </trkpt>
      <trkpt lat="44.0109" lon="4.526">
        <ele>200.79886543978</ele>
        <time>2021-04-05T19:13:31.334Z</time>
      </trkpt>
      <trkpt lat="44.01103" lon="4.52587">
        <ele>200.58804850236</ele>
        <time>2021-04-05T19:13:42.004Z</time>
      </trkpt>
      <trkpt lat="44.01109" lon="4.52581">
        <ele>200.32030698257</ele>
        <time>2021-04-05T19:13:52.677Z</time>
      </trkpt>
      <trkpt lat="44.01119" lon="4.52571">
        <ele>200.02383233715</ele>
        <time>2021-04-05T19:14:03.353Z</time>
      </trkpt>
      <trkpt lat="44.01122" lon="4.52568">
        <ele>199.66566874999</ele>
        <time>2021-04-05T19:14:14.030Z</time>
      </trkpt>
      <trkpt lat="44.01125" lon="4.52565">
        <ele>199.2727059943</ele>
        <time>2021-04-05T19:14:24.708Z</time>
      </trkpt>
      <trkpt lat="44.01143" lon="4.52547">
        <ele>198.89457999626</ele>
        <time>2021-04-05T19:14:35.393Z</time>
      </trkpt>
      <trkpt lat="44.0116" lon="4.52532">
        <ele>198.42831180154</ele>
        <time>2021-04-05T19:14:46.084Z</time>
      </trkpt>
      <trkpt lat="44.01176" lon="4.52517">
        <ele>197.94913113805</ele>
        <time>2021-04-05T19:14:56.781Z</time>
      </trkpt>
      <trkpt lat="44.0122" lon="4.52501">
        <ele>197.39210728669</ele>
        <time>2021-04-05T19:15:07.491Z</time>
      </trkpt>
      <trkpt lat="44.01275" lon="4.52486">
        <ele>196.71835097698</ele>
        <time>2021-04-05T19:15:18.218Z</time>
      </trkpt>
      <trkpt lat="44.01294" lon="4.52485">
        <ele>196.14532289229</ele>
        <time>2021-04-05T19:15:28.951Z</time>
      </trkpt>
      <trkpt lat="44.01323" lon="4.52482">
        <ele>195.5145382158</ele>
        <time>2021-04-05T19:15:39.692Z</time>
      </trkpt>
      <trkpt lat="44.01327" lon="4.52482">
        <ele>194.95823341958</ele>
        <time>2021-04-05T19:15:50.435Z</time>
      </trkpt>
      <trkpt lat="44.01345" lon="4.52479">
        <ele>194.37843922771</ele>
        <time>2021-04-05T19:16:01.183Z</time>
      </trkpt>
      <trkpt lat="44.01359" lon="4.5248">
        <ele>193.80739011024</ele>
        <time>2021-04-05T19:16:11.935Z</time>
      </trkpt>
      <trkpt lat="44.01372" lon="4.52486">
        <ele>193.26186449957</ele>
        <time>2021-04-05T19:16:22.691Z</time>
      </trkpt>
      <trkpt lat="44.01394" lon="4.52498">
        <ele>192.75378087108</ele>
        <time>2021-04-05T19:16:33.454Z</time>
      </trkpt>
      <trkpt lat="44.01403" lon="4.525">
        <ele>192.27146493703</ele>
        <time>2021-04-05T19:16:44.220Z</time>
      </trkpt>
      <trkpt lat="44.01417" lon="4.525">
        <ele>191.81707544927</ele>
        <time>2021-04-05T19:16:54.990Z</time>
      </trkpt>
      <trkpt lat="44.01471" lon="4.52495">
        <ele>191.28165108631</ele>
        <time>2021-04-05T19:17:05.777Z</time>
      </trkpt>
      <trkpt lat="44.0152" lon="4.52508">
        <ele>190.79148668338</ele>
        <time>2021-04-05T19:17:16.578Z</time>
      </trkpt>
      <trkpt lat="44.01531" lon="4.52507">
        <ele>190.43716640914</ele>
        <time>2021-04-05T19:17:27.383Z</time>
      </trkpt>
      <trkpt lat="44.01541" lon="4.525">
        <ele>190.13173445444</ele>
        <time>2021-04-05T19:17:38.191Z</time>
      </trkpt>
      <trkpt lat="44.01545" lon="4.52489">
        <ele>189.87524551396</ele>
        <time>2021-04-05T19:17:49.002Z</time>
      </trkpt>
      <trkpt lat="44.01554" lon="4.52443">
        <ele>189.68927510469</ele>
        <time>2021-04-05T19:17:59.823Z</time>
      </trkpt>
      <trkpt lat="44.01566" lon="4.52434">
        <ele>189.51214860944</ele>
        <time>2021-04-05T19:18:10.648Z</time>
      </trkpt>
      <trkpt lat="44.01575" lon="4.52442">
        <ele>189.36027210444</ele>
        <time>2021-04-05T19:18:21.476Z</time>
      </trkpt>
      <trkpt lat="44.01579" lon="4.52453">
        <ele>189.23920698704</ele>
        <time>2021-04-05T19:18:32.307Z</time>
      </trkpt>
      <trkpt lat="44.01579" lon="4.52454">
        <ele>189.15477663361</ele>
        <time>2021-04-05T19:18:43.138Z</time>
      </trkpt>
      <trkpt lat="44.0159" lon="4.52477">
        <ele>189.08581902824</ele>
        <time>2021-04-05T19:18:53.975Z</time>
      </trkpt>
      <trkpt lat="44.01604" lon="4.52495">
        <ele>189.06360930495</ele>
        <time>2021-04-05T19:19:04.818Z</time>
      </trkpt>
      <trkpt lat="44.01617" lon="4.52508">
        <ele>189.09204218233</ele>
        <time>2021-04-05T19:19:15.665Z</time>
      </trkpt>
      <trkpt lat="44.01629" lon="4.52517">
        <ele>189.16033338946</ele>
        <time>2021-04-05T19:19:26.516Z</time>
      </trkpt>
      <trkpt lat="44.01637" lon="4.5252">
        <ele>189.24806767863</ele>
        <time>2021-04-05T19:19:37.370Z</time>
      </trkpt>
      <trkpt lat="44.01639" lon="4.52521">
        <ele>189.35082591845</ele>
        <time>2021-04-05T19:19:48.224Z</time>
      </trkpt>
      <trkpt lat="44.01639" lon="4.52521">
        <ele>189.47202439378</ele>
        <time>2021-04-05T19:19:59.078Z</time>
      </trkpt>
      <trkpt lat="44.01638" lon="4.52521">
        <ele>189.61227510867</ele>
        <time>2021-04-05T19:20:09.933Z</time>
      </trkpt>
      <trkpt lat="44.01642" lon="4.5252">
        <ele>189.77716840878</ele>
        <time>2021-04-05T19:20:20.789Z</time>
      </trkpt>
      <trkpt lat="44.01647" lon="4.5252">
        <ele>189.96261831498</ele>
        <time>2021-04-05T19:20:31.646Z</time>
      </trkpt>
      <trkpt lat="44.01663" lon="4.52519">
        <ele>190.20604492065</ele>
        <time>2021-04-05T19:20:42.508Z</time>
      </trkpt>
      <trkpt lat="44.01695" lon="4.52516">
        <ele>190.49077723861</ele>
        <time>2021-04-05T19:20:53.380Z</time>
      </trkpt>
      <trkpt lat="44.0175" lon="4.52511">
        <ele>190.73774045766</ele>
        <time>2021-04-05T19:21:04.268Z</time>
      </trkpt>
      <trkpt lat="44.01807" lon="4.52508">
        <ele>190.96271582583</ele>
        <time>2021-04-05T19:21:15.173Z</time>
      </trkpt>
      <trkpt lat="44.01862" lon="4.52506">
        <ele>191.02427932781</ele>
        <time>2021-04-05T19:21:26.095Z</time>
      </trkpt>
      <trkpt lat="44.01872" lon="4.52507">
        <ele>191.18572111836</ele>
        <time>2021-04-05T19:21:37.020Z</time>
      </trkpt>
      <trkpt lat="44.01877" lon="4.52507">
        <ele>191.37003087848</ele>
        <time>2021-04-05T19:21:47.946Z</time>
      </trkpt>
      <trkpt lat="44.01882" lon="4.52507">
        <ele>191.56590723067</ele>
        <time>2021-04-05T19:21:58.874Z</time>
      </trkpt>
      <trkpt lat="44.01892" lon="4.52508">
        <ele>191.7429885832</ele>
        <time>2021-04-05T19:22:09.805Z</time>
      </trkpt>
      <trkpt lat="44.01924" lon="4.52509">
        <ele>192.01277871525</ele>
        <time>2021-04-05T19:22:20.745Z</time>
      </trkpt>
      <trkpt lat="44.01935" lon="4.52509">
        <ele>192.24596853852</ele>
        <time>2021-04-05T19:22:31.688Z</time>
      </trkpt>
      <trkpt lat="44.01964" lon="4.52509">
        <ele>192.45445196445</ele>
        <time>2021-04-05T19:22:42.640Z</time>
      </trkpt>
      <trkpt lat="44.01976" lon="4.52509">
        <ele>192.6067677771</ele>
        <time>2021-04-05T19:22:53.596Z</time>
      </trkpt>
      <trkpt lat="44.01982" lon="4.52509">
        <ele>192.77164989098</ele>
        <time>2021-04-05T19:23:04.554Z</time>
      </trkpt>
      <trkpt lat="44.01988" lon="4.52509">
        <ele>192.93463923361</ele>
        <time>2021-04-05T19:23:15.513Z</time>
      </trkpt>
      <trkpt lat="44.01994" lon="4.52509">
        <ele>193.10227790476</ele>
        <time>2021-04-05T19:23:26.474Z</time>
      </trkpt>
      <trkpt lat="44.02" lon="4.52509">
        <ele>193.25813977984</ele>
        <time>2021-04-05T19:23:37.437Z</time>
      </trkpt>
      <trkpt lat="44.02005" lon="4.52509">
        <ele>193.40960933632</ele>
        <time>2021-04-05T19:23:48.401Z</time>
      </trkpt>
      <trkpt lat="44.0201" lon="4.52508">
        <ele>193.55879808151</ele>
        <time>2021-04-05T19:23:59.367Z</time>
      </trkpt>
      <trkpt lat="44.02021" lon="4.52508">
        <ele>193.70908407819</ele>
        <time>2021-04-05T19:24:10.336Z</time>
      </trkpt>
      <trkpt lat="44.02026" lon="4.52508">
        <ele>193.86513026923</ele>
        <time>2021-04-05T19:24:21.306Z</time>
      </trkpt>
      <trkpt lat="44.02041" lon="4.52508">
        <ele>194.02023657535</ele>
        <time>2021-04-05T19:24:32.281Z</time>
      </trkpt>
      <trkpt lat="44.02067" lon="4.52508">
        <ele>194.17442066973</ele>
        <time>2021-04-05T19:24:43.264Z</time>
      </trkpt>
      <trkpt lat="44.02082" lon="4.52507">
        <ele>194.29822600399</ele>
        <time>2021-04-05T19:24:54.251Z</time>
      </trkpt>
      <trkpt lat="44.02087" lon="4.52507">
        <ele>194.43357529984</ele>
        <time>2021-04-05T19:25:05.240Z</time>
      </trkpt>
      <trkpt lat="44.02097" lon="4.52507">
        <ele>194.54968695534</ele>
        <time>2021-04-05T19:25:16.232Z</time>
      </trkpt>
      <trkpt lat="44.02108" lon="4.52506">
        <ele>194.7091033213</ele>
        <time>2021-04-05T19:25:27.227Z</time>
      </trkpt>
      <trkpt lat="44.02137" lon="4.52506">
        <ele>194.93088698402</ele>
        <time>2021-04-05T19:25:38.231Z</time>
      </trkpt>
      <trkpt lat="44.02141" lon="4.52506">
        <ele>195.08941828973</ele>
        <time>2021-04-05T19:25:49.236Z</time>
      </trkpt>
      <trkpt lat="44.02148" lon="4.52507">
        <ele>195.25023893975</ele>
        <time>2021-04-05T19:26:00.243Z</time>
      </trkpt>
      <trkpt lat="44.02166" lon="4.52509">
        <ele>195.41918419789</ele>
        <time>2021-04-05T19:26:11.255Z</time>
      </trkpt>
      <trkpt lat="44.02222" lon="4.52529">
        <ele>195.62896638222</ele>
        <time>2021-04-05T19:26:22.285Z</time>
      </trkpt>
      <trkpt lat="44.02278" lon="4.52551">
        <ele>195.78127272477</ele>
        <time>2021-04-05T19:26:33.332Z</time>
      </trkpt>
      <trkpt lat="44.02312" lon="4.52557">
        <ele>195.90189521</ele>
        <time>2021-04-05T19:26:44.389Z</time>
      </trkpt>
      <trkpt lat="44.02365" lon="4.52566">
        <ele>196.03036741429</ele>
        <time>2021-04-05T19:26:55.462Z</time>
      </trkpt>
      <trkpt lat="44.024" lon="4.52564">
        <ele>196.12271726376</ele>
        <time>2021-04-05T19:27:06.546Z</time>
      </trkpt>
      <trkpt lat="44.02457" lon="4.52555">
        <ele>196.2015343955</ele>
        <time>2021-04-05T19:27:17.647Z</time>
      </trkpt>
      <trkpt lat="44.02515" lon="4.52553">
        <ele>196.05943593503</ele>
        <time>2021-04-05T19:27:28.765Z</time>
      </trkpt>
      <trkpt lat="44.02572" lon="4.52546">
        <ele>196.03331208635</ele>
        <time>2021-04-05T19:27:39.900Z</time>
      </trkpt>
      <trkpt lat="44.0263" lon="4.52529">
        <ele>195.95002513168</ele>
        <time>2021-04-05T19:27:51.053Z</time>
      </trkpt>
      <trkpt lat="44.02663" lon="4.52533">
        <ele>195.91827776416</ele>
        <time>2021-04-05T19:28:02.216Z</time>
      </trkpt>
      <trkpt lat="44.02718" lon="4.52542">
        <ele>195.8193819049</ele>
        <time>2021-04-05T19:28:13.395Z</time>
      </trkpt>
      <trkpt lat="44.02774" lon="4.52536">
        <ele>195.75856399631</ele>
        <time>2021-04-05T19:28:24.591Z</time>
      </trkpt>
      <trkpt lat="44.02801" lon="4.52533">
        <ele>195.64258072487</ele>
        <time>2021-04-05T19:28:35.795Z</time>
      </trkpt>
      <trkpt lat="44.02832" lon="4.52532">
        <ele>195.4328639134</ele>
        <time>2021-04-05T19:28:47.009Z</time>
      </trkpt>
      <trkpt lat="44.02845" lon="4.52533">
        <ele>195.27709024291</ele>
        <time>2021-04-05T19:28:58.226Z</time>
      </trkpt>
      <trkpt lat="44.02864" lon="4.52536">
        <ele>195.1496587776</ele>
        <time>2021-04-05T19:29:09.449Z</time>
      </trkpt>
      <trkpt lat="44.02896" lon="4.52554">
        <ele>195.00654391645</ele>
        <time>2021-04-05T19:29:20.682Z</time>
      </trkpt>
      <trkpt lat="44.02927" lon="4.52565">
        <ele>194.87811568956</ele>
        <time>2021-04-05T19:29:31.925Z</time>
      </trkpt>
      <trkpt lat="44.02933" lon="4.52567">
        <ele>194.78814329167</ele>
        <time>2021-04-05T19:29:43.170Z</time>
      </trkpt>
      <trkpt lat="44.02988" lon="4.5258">
        <ele>194.78233707436</ele>
        <time>2021-04-05T19:29:54.431Z</time>
      </trkpt>
      <trkpt lat="44.03015" lon="4.52587">
        <ele>194.70511955516</ele>
        <time>2021-04-05T19:30:05.701Z</time>
      </trkpt>
      <trkpt lat="44.03025" lon="4.52589">
        <ele>194.63597010155</ele>
        <time>2021-04-05T19:30:16.974Z</time>
      </trkpt>
      <trkpt lat="44.0303" lon="4.5259">
        <ele>194.59365669201</ele>
        <time>2021-04-05T19:30:28.248Z</time>
      </trkpt>
      <trkpt lat="44.03035" lon="4.52591">
        <ele>194.57005268124</ele>
        <time>2021-04-05T19:30:39.524Z</time>
      </trkpt>
      <trkpt lat="44.03079" lon="4.52596">
        <ele>194.63200804553</ele>
        <time>2021-04-05T19:30:50.813Z</time>
      </trkpt>
      <trkpt lat="44.03108" lon="4.526">
        <ele>194.75460822969</ele>
        <time>2021-04-05T19:31:02.110Z</time>
      </trkpt>
      <trkpt lat="44.03131" lon="4.52604">
        <ele>194.80554157698</ele>
        <time>2021-04-05T19:31:13.415Z</time>
      </trkpt>
      <trkpt lat="44.03129" lon="4.52602">
        <ele>194.87872807015</ele>
        <time>2021-04-05T19:31:24.720Z</time>
      </trkpt>
      <trkpt lat="44.03119" lon="4.52599">
        <ele>194.9623563591</ele>
        <time>2021-04-05T19:31:36.029Z</time>
      </trkpt>
      <trkpt lat="44.03119" lon="4.52602">
        <ele>195.05160268966</ele>
        <time>2021-04-05T19:31:47.338Z</time>
      </trkpt>
      <trkpt lat="44.03124" lon="4.52603">
        <ele>195.17327750663</ele>
        <time>2021-04-05T19:31:58.648Z</time>
      </trkpt>
      <trkpt lat="44.03128" lon="4.52606">
        <ele>195.29998870977</ele>
        <time>2021-04-05T19:32:09.960Z</time>
      </trkpt>
      <trkpt lat="44.03131" lon="4.52634">
        <ele>195.34899590698</ele>
        <time>2021-04-05T19:32:21.278Z</time>
      </trkpt>
      <trkpt lat="44.03131" lon="4.52664">
        <ele>195.46548563739</ele>
        <time>2021-04-05T19:32:32.602Z</time>
      </trkpt>
      <trkpt lat="44.0313" lon="4.52723">
        <ele>195.66029638294</ele>
        <time>2021-04-05T19:32:43.939Z</time>
      </trkpt>
      <trkpt lat="44.03129" lon="4.5278">
        <ele>195.9384418051</ele>
        <time>2021-04-05T19:32:55.288Z</time>
      </trkpt>
      <trkpt lat="44.03128" lon="4.52806">
        <ele>196.17904424278</ele>
        <time>2021-04-05T19:33:06.643Z</time>
      </trkpt>
      <trkpt lat="44.03126" lon="4.52883">
        <ele>196.48890104667</ele>
        <time>2021-04-05T19:33:18.015Z</time>
      </trkpt>
      <trkpt lat="44.03125" lon="4.52929">
        <ele>196.80988091025</ele>
        <time>2021-04-05T19:33:29.397Z</time>
      </trkpt>
      <trkpt lat="44.03123" lon="4.53007">
        <ele>197.20503847259</ele>
        <time>2021-04-05T19:33:40.795Z</time>
      </trkpt>
      <trkpt lat="44.03122" lon="4.53073">
        <ele>197.46014824539</ele>
        <time>2021-04-05T19:33:52.208Z</time>
      </trkpt>
      <trkpt lat="44.03121" lon="4.53111">
        <ele>197.73331290754</ele>
        <time>2021-04-05T19:34:03.629Z</time>
      </trkpt>
      <trkpt lat="44.0312" lon="4.53118">
        <ele>198.05011097162</ele>
        <time>2021-04-05T19:34:15.051Z</time>
      </trkpt>
      <trkpt lat="44.0312" lon="4.53133">
        <ele>198.38248147969</ele>
        <time>2021-04-05T19:34:26.476Z</time>
      </trkpt>
      <trkpt lat="44.0312" lon="4.53147">
        <ele>198.70055690235</ele>
        <time>2021-04-05T19:34:37.905Z</time>
      </trkpt>
      <trkpt lat="44.0312" lon="4.53154">
        <ele>199.001393306</ele>
        <time>2021-04-05T19:34:49.335Z</time>
      </trkpt>
      <trkpt lat="44.03119" lon="4.53167">
        <ele>199.31694676731</ele>
        <time>2021-04-05T19:35:00.768Z</time>
      </trkpt>
      <trkpt lat="44.03118" lon="4.53217">
        <ele>199.6507519976</ele>
        <time>2021-04-05T19:35:12.212Z</time>
      </trkpt>
      <trkpt lat="44.03117" lon="4.53293">
        <ele>199.92030806483</ele>
        <time>2021-04-05T19:35:23.672Z</time>
      </trkpt>
      <trkpt lat="44.03115" lon="4.53339">
        <ele>200.16193780293</ele>
        <time>2021-04-05T19:35:35.142Z</time>
      </trkpt>
      <trkpt lat="44.03107" lon="4.53377">
        <ele>200.45575648127</ele>
        <time>2021-04-05T19:35:46.620Z</time>
      </trkpt>
      <trkpt lat="44.03102" lon="4.53406">
        <ele>200.73414268578</ele>
        <time>2021-04-05T19:35:58.105Z</time>
      </trkpt>
      <trkpt lat="44.03097" lon="4.5343">
        <ele>200.93602154307</ele>
        <time>2021-04-05T19:36:09.595Z</time>
      </trkpt>
      <trkpt lat="44.03087" lon="4.53472">
        <ele>201.07191020405</ele>
        <time>2021-04-05T19:36:21.095Z</time>
      </trkpt>
      <trkpt lat="44.03082" lon="4.53505">
        <ele>201.14167316288</ele>
        <time>2021-04-05T19:36:32.602Z</time>
      </trkpt>
      <trkpt lat="44.03069" lon="4.53569">
        <ele>201.29325094286</ele>
        <time>2021-04-05T19:36:44.123Z</time>
      </trkpt>
      <trkpt lat="44.03057" lon="4.53608">
        <ele>201.33937142632</ele>
        <time>2021-04-05T19:36:55.653Z</time>
      </trkpt>
      <trkpt lat="44.03051" lon="4.53647">
        <ele>201.23586390845</ele>
        <time>2021-04-05T19:37:07.192Z</time>
      </trkpt>
      <trkpt lat="44.0305" lon="4.53654">
        <ele>201.1934182915</ele>
        <time>2021-04-05T19:37:18.733Z</time>
      </trkpt>
      <trkpt lat="44.03049" lon="4.5366">
        <ele>201.11678481964</ele>
        <time>2021-04-05T19:37:30.275Z</time>
      </trkpt>
      <trkpt lat="44.03049" lon="4.53666">
        <ele>201.00473686188</ele>
        <time>2021-04-05T19:37:41.818Z</time>
      </trkpt>
      <trkpt lat="44.0305" lon="4.53679">
        <ele>200.86837252859</ele>
        <time>2021-04-05T19:37:53.364Z</time>
      </trkpt>
      <trkpt lat="44.03051" lon="4.53699">
        <ele>200.67865380408</ele>
        <time>2021-04-05T19:38:04.914Z</time>
      </trkpt>
      <trkpt lat="44.03046" lon="4.53725">
        <ele>200.50549127847</ele>
        <time>2021-04-05T19:38:16.470Z</time>
      </trkpt>
      <trkpt lat="44.03043" lon="4.53738">
        <ele>200.2865455039</ele>
        <time>2021-04-05T19:38:28.029Z</time>
      </trkpt>
      <trkpt lat="44.0304" lon="4.53758">
        <ele>200.03559426224</ele>
        <time>2021-04-05T19:38:39.593Z</time>
      </trkpt>
      <trkpt lat="44.03029" lon="4.53816">
        <ele>199.77528594297</ele>
        <time>2021-04-05T19:38:51.170Z</time>
      </trkpt>
      <trkpt lat="44.0302" lon="4.5385">
        <ele>199.46587467967</ele>
        <time>2021-04-05T19:39:02.754Z</time>
      </trkpt>
      <trkpt lat="44.03014" lon="4.53866">
        <ele>199.14432083499</ele>
        <time>2021-04-05T19:39:14.342Z</time>
      </trkpt>
      <trkpt lat="44.03011" lon="4.53877">
        <ele>198.83123279944</ele>
        <time>2021-04-05T19:39:25.933Z</time>
      </trkpt>
      <trkpt lat="44.03008" lon="4.53887">
        <ele>198.49022146568</ele>
        <time>2021-04-05T19:39:37.526Z</time>
      </trkpt>
      <trkpt lat="44.03004" lon="4.53902">
        <ele>198.10735562689</ele>
        <time>2021-04-05T19:39:49.123Z</time>
      </trkpt>
      <trkpt lat="44.03003" lon="4.53913">
        <ele>197.72202906215</ele>
        <time>2021-04-05T19:40:00.722Z</time>
      </trkpt>
      <trkpt lat="44.03003" lon="4.5392">
        <ele>197.32174387324</ele>
        <time>2021-04-05T19:40:12.322Z</time>
      </trkpt>
      <trkpt lat="44.03002" lon="4.53933">
        <ele>196.88528601839</ele>
        <time>2021-04-05T19:40:23.925Z</time>
      </trkpt>
      <trkpt lat="44.03001" lon="4.5394">
        <ele>196.43555458102</ele>
        <time>2021-04-05T19:40:35.530Z</time>
      </trkpt>
      <trkpt lat="44.02995" lon="4.53971">
        <ele>195.9305763331</ele>
        <time>2021-04-05T19:40:47.142Z</time>
      </trkpt>
      <trkpt lat="44.02997" lon="4.53974">
        <ele>195.4666302054</ele>
        <time>2021-04-05T19:40:58.755Z</time>
      </trkpt>
      <trkpt lat="44.02994" lon="4.54007">
        <ele>194.96717828623</ele>
        <time>2021-04-05T19:41:10.375Z</time>
      </trkpt>
      <trkpt lat="44.02989" lon="4.54036">
        <ele>194.50748658356</ele>
        <time>2021-04-05T19:41:22.001Z</time>
      </trkpt>
      <trkpt lat="44.02985" lon="4.54058">
        <ele>194.00275649475</ele>
        <time>2021-04-05T19:41:33.632Z</time>
      </trkpt>
      <trkpt lat="44.02983" lon="4.54072">
        <ele>193.48052543662</ele>
        <time>2021-04-05T19:41:45.266Z</time>
      </trkpt>
      <trkpt lat="44.02982" lon="4.54084">
        <ele>192.96412523363</ele>
        <time>2021-04-05T19:41:56.903Z</time>
      </trkpt>
      <trkpt lat="44.02981" lon="4.54102">
        <ele>192.45524517085</ele>
        <time>2021-04-05T19:42:08.544Z</time>
      </trkpt>
      <trkpt lat="44.02981" lon="4.54103">
        <ele>191.96099599843</ele>
        <time>2021-04-05T19:42:20.185Z</time>
      </trkpt>
      <trkpt lat="44.02992" lon="4.54111">
        <ele>191.41955648671</ele>
        <time>2021-04-05T19:42:31.829Z</time>
      </trkpt>
      <trkpt lat="44.0299" lon="4.54126">
        <ele>190.95043172484</ele>
        <time>2021-04-05T19:42:43.477Z</time>
      </trkpt>
      <trkpt lat="44.02986" lon="4.54141">
        <ele>190.49961502854</ele>
        <time>2021-04-05T19:42:55.128Z</time>
      </trkpt>
      <trkpt lat="44.02971" lon="4.54215">
        <ele>189.96560485423</ele>
        <time>2021-04-05T19:43:06.796Z</time>
      </trkpt>
      <trkpt lat="44.02963" lon="4.54268">
        <ele>189.45776501109</ele>
        <time>2021-04-05T19:43:18.476Z</time>
      </trkpt>
      <trkpt lat="44.02959" lon="4.54296">
        <ele>188.96754635234</ele>
        <time>2021-04-05T19:43:30.162Z</time>
      </trkpt>
      <trkpt lat="44.02948" lon="4.54373">
        <ele>188.41856082568</ele>
        <time>2021-04-05T19:43:41.864Z</time>
      </trkpt>
      <trkpt lat="44.02936" lon="4.54426">
        <ele>187.86623009749</ele>
        <time>2021-04-05T19:43:53.578Z</time>
      </trkpt>
      <trkpt lat="44.02919" lon="4.545">
        <ele>187.30843819478</ele>
        <time>2021-04-05T19:44:05.309Z</time>
      </trkpt>
      <trkpt lat="44.02916" lon="4.5451">
        <ele>186.84582206954</ele>
        <time>2021-04-05T19:44:17.042Z</time>
      </trkpt>
      <trkpt lat="44.02915" lon="4.54515">
        <ele>186.37671952508</ele>
        <time>2021-04-05T19:44:28.777Z</time>
      </trkpt>
      <trkpt lat="44.02913" lon="4.54525">
        <ele>185.91939354459</ele>
        <time>2021-04-05T19:44:40.514Z</time>
      </trkpt>
      <trkpt lat="44.0291" lon="4.54536">
        <ele>185.46951658537</ele>
        <time>2021-04-05T19:44:52.253Z</time>
      </trkpt>
      <trkpt lat="44.02906" lon="4.54547">
        <ele>184.97973268737</ele>
        <time>2021-04-05T19:45:03.995Z</time>
      </trkpt>
      <trkpt lat="44.02904" lon="4.54553">
        <ele>184.50443861614</ele>
        <time>2021-04-05T19:45:15.738Z</time>
      </trkpt>
      <trkpt lat="44.02898" lon="4.5457">
        <ele>184.00278745798</ele>
        <time>2021-04-05T19:45:27.485Z</time>
      </trkpt>
      <trkpt lat="44.02896" lon="4.54576">
        <ele>183.53945807117</ele>
        <time>2021-04-05T19:45:39.234Z</time>
      </trkpt>
      <trkpt lat="44.02881" lon="4.54613">
        <ele>183.06296689512</ele>
        <time>2021-04-05T19:45:50.992Z</time>
      </trkpt>
      <trkpt lat="44.02877" lon="4.54634">
        <ele>182.57973231153</ele>
        <time>2021-04-05T19:46:02.755Z</time>
      </trkpt>
      <trkpt lat="44.0289" lon="4.54647">
        <ele>182.09424309633</ele>
        <time>2021-04-05T19:46:14.523Z</time>
      </trkpt>
      <trkpt lat="44.02923" lon="4.54668">
        <ele>181.53856229294</ele>
        <time>2021-04-05T19:46:26.302Z</time>
      </trkpt>
      <trkpt lat="44.02938" lon="4.54676">
        <ele>181.11760432776</ele>
        <time>2021-04-05T19:46:38.085Z</time>
      </trkpt>
      <trkpt lat="44.02938" lon="4.54686">
        <ele>180.77546695434</ele>
        <time>2021-04-05T19:46:49.870Z</time>
      </trkpt>
      <trkpt lat="44.02929" lon="4.54728">
        <ele>180.48720422365</ele>
        <time>2021-04-05T19:47:01.665Z</time>
      </trkpt>
      <trkpt lat="44.02927" lon="4.54745">
        <ele>180.21516147002</ele>
        <time>2021-04-05T19:47:13.464Z</time>
      </trkpt>
      <trkpt lat="44.0293" lon="4.54782">
        <ele>179.91638828939</ele>
        <time>2021-04-05T19:47:25.271Z</time>
      </trkpt>
      <trkpt lat="44.02936" lon="4.54816">
        <ele>179.63639410154</ele>
        <time>2021-04-05T19:47:37.085Z</time>
      </trkpt>
      <trkpt lat="44.02944" lon="4.54863">
        <ele>179.37953554015</ele>
        <time>2021-04-05T19:47:48.909Z</time>
      </trkpt>
      <trkpt lat="44.02957" lon="4.54936">
        <ele>179.06739711443</ele>
        <time>2021-04-05T19:48:00.750Z</time>
      </trkpt>
      <trkpt lat="44.02961" lon="4.54956">
        <ele>178.85243955544</ele>
        <time>2021-04-05T19:48:12.595Z</time>
      </trkpt>
      <trkpt lat="44.02964" lon="4.54977">
        <ele>178.70208999682</ele>
        <time>2021-04-05T19:48:24.445Z</time>
      </trkpt>
      <trkpt lat="44.02966" lon="4.54991">
        <ele>178.57097545927</ele>
        <time>2021-04-05T19:48:36.298Z</time>
      </trkpt>
      <trkpt lat="44.02967" lon="4.54997">
        <ele>178.45794830649</ele>
        <time>2021-04-05T19:48:48.152Z</time>
      </trkpt>
      <trkpt lat="44.02972" lon="4.55024">
        <ele>178.39116330954</ele>
        <time>2021-04-05T19:49:00.012Z</time>
      </trkpt>
      <trkpt lat="44.02976" lon="4.55052">
        <ele>178.31932149338</ele>
        <time>2021-04-05T19:49:11.878Z</time>
      </trkpt>
      <trkpt lat="44.02979" lon="4.55072">
        <ele>178.29171954314</ele>
        <time>2021-04-05T19:49:23.749Z</time>
      </trkpt>
      <trkpt lat="44.02981" lon="4.55086">
        <ele>178.27212521173</ele>
        <time>2021-04-05T19:49:35.623Z</time>
      </trkpt>
      <trkpt lat="44.02983" lon="4.55099">
        <ele>178.24684602827</ele>
        <time>2021-04-05T19:49:47.500Z</time>
      </trkpt>
      <trkpt lat="44.02987" lon="4.5512">
        <ele>178.23541684282</ele>
        <time>2021-04-05T19:49:59.381Z</time>
      </trkpt>
      <trkpt lat="44.02988" lon="4.55127">
        <ele>178.24923012774</ele>
        <time>2021-04-05T19:50:11.264Z</time>
      </trkpt>
      <trkpt lat="44.02989" lon="4.55134">
        <ele>178.2789244136</ele>
        <time>2021-04-05T19:50:23.148Z</time>
      </trkpt>
      <trkpt lat="44.0299" lon="4.55141">
        <ele>178.32219815265</ele>
        <time>2021-04-05T19:50:35.034Z</time>
      </trkpt>
      <trkpt lat="44.02992" lon="4.55155">
        <ele>178.35369269889</ele>
        <time>2021-04-05T19:50:46.923Z</time>
      </trkpt>
      <trkpt lat="44.02994" lon="4.55162">
        <ele>178.41320869703</ele>
        <time>2021-04-05T19:50:58.814Z</time>
      </trkpt>
      <trkpt lat="44.02995" lon="4.55169">
        <ele>178.48816595931</ele>
        <time>2021-04-05T19:51:10.706Z</time>
      </trkpt>
      <trkpt lat="44.02996" lon="4.55176">
        <ele>178.58600564748</ele>
        <time>2021-04-05T19:51:22.600Z</time>
      </trkpt>
      <trkpt lat="44.02998" lon="4.5519">
        <ele>178.71125985124</ele>
        <time>2021-04-05T19:51:34.497Z</time>
      </trkpt>
      <trkpt lat="44.03" lon="4.55196">
        <ele>178.84211225069</ele>
        <time>2021-04-05T19:51:46.395Z</time>
      </trkpt>
      <trkpt lat="44.03001" lon="4.55203">
        <ele>178.98251185419</ele>
        <time>2021-04-05T19:51:58.295Z</time>
      </trkpt>
      <trkpt lat="44.03002" lon="4.5521">
        <ele>179.13144340678</ele>
        <time>2021-04-05T19:52:10.196Z</time>
      </trkpt>
      <trkpt lat="44.03004" lon="4.55223">
        <ele>179.29596469722</ele>
        <time>2021-04-05T19:52:22.100Z</time>
      </trkpt>
      <trkpt lat="44.03005" lon="4.5523">
        <ele>179.45881317141</ele>
        <time>2021-04-05T19:52:34.006Z</time>
      </trkpt>
      <trkpt lat="44.03006" lon="4.55237">
        <ele>179.62690967241</ele>
        <time>2021-04-05T19:52:45.913Z</time>
      </trkpt>
      <trkpt lat="44.03011" lon="4.55265">
        <ele>179.81671487102</ele>
        <time>2021-04-05T19:52:57.826Z</time>
      </trkpt>
      <trkpt lat="44.03013" lon="4.55272">
        <ele>179.99225612673</ele>
        <time>2021-04-05T19:53:09.741Z</time>
      </trkpt>
      <trkpt lat="44.03014" lon="4.55278">
        <ele>180.16886804249</ele>
        <time>2021-04-05T19:53:21.657Z</time>
      </trkpt>
      <trkpt lat="44.03015" lon="4.55285">
        <ele>180.34664138806</ele>
        <time>2021-04-05T19:53:33.575Z</time>
      </trkpt>
      <trkpt lat="44.03016" lon="4.55292">
        <ele>180.52526964816</ele>
        <time>2021-04-05T19:53:45.494Z</time>
      </trkpt>
      <trkpt lat="44.03018" lon="4.55299">
        <ele>180.70338512572</ele>
        <time>2021-04-05T19:53:57.415Z</time>
      </trkpt>
      <trkpt lat="44.03019" lon="4.55314">
        <ele>180.89071232888</ele>
        <time>2021-04-05T19:54:09.339Z</time>
      </trkpt>
      <trkpt lat="44.03021" lon="4.55326">
        <ele>181.0719317537</ele>
        <time>2021-04-05T19:54:21.266Z</time>
      </trkpt>
      <trkpt lat="44.03029" lon="4.55341">
        <ele>181.24318594307</ele>
        <time>2021-04-05T19:54:33.197Z</time>
      </trkpt>
      <trkpt lat="44.03086" lon="4.55337">
        <ele>181.3278134946</ele>
        <time>2021-04-05T19:54:45.145Z</time>
      </trkpt>
      <trkpt lat="44.03128" lon="4.55342">
        <ele>181.53815729777</ele>
        <time>2021-04-05T19:54:57.106Z</time>
      </trkpt>
      <trkpt lat="44.03133" lon="4.55342">
        <ele>181.68150847754</ele>
        <time>2021-04-05T19:55:09.068Z</time>
      </trkpt>
      <trkpt lat="44.03143" lon="4.55343">
        <ele>181.83036271413</ele>
        <time>2021-04-05T19:55:21.033Z</time>
      </trkpt>
      <trkpt lat="44.03148" lon="4.55343">
        <ele>181.97757733589</ele>
        <time>2021-04-05T19:55:32.999Z</time>
      </trkpt>
      <trkpt lat="44.03157" lon="4.55344">
        <ele>182.11890897719</ele>
        <time>2021-04-05T19:55:44.968Z</time>
      </trkpt>
      <trkpt lat="44.03171" lon="4.55347">
        <ele>182.2424287571</ele>
        <time>2021-04-05T19:55:56.942Z</time>
      </trkpt>
      <trkpt lat="44.03186" lon="4.55348">
        <ele>182.36134588078</ele>
        <time>2021-04-05T19:56:08.920Z</time>
      </trkpt>
      <trkpt lat="44.03221" lon="4.55352">
        <ele>182.47116449429</ele>
        <time>2021-04-05T19:56:20.908Z</time>
      </trkpt>
      <trkpt lat="44.03257" lon="4.55356">
        <ele>182.56558621568</ele>
        <time>2021-04-05T19:56:32.907Z</time>
      </trkpt>
      <trkpt lat="44.03278" lon="4.55358">
        <ele>182.66624770292</ele>
        <time>2021-04-05T19:56:44.912Z</time>
      </trkpt>
      <trkpt lat="44.03333" lon="4.55365">
        <ele>182.92502078364</ele>
        <time>2021-04-05T19:56:56.934Z</time>
      </trkpt>
      <trkpt lat="44.03338" lon="4.55366">
        <ele>183.10727081807</ele>
        <time>2021-04-05T19:57:08.957Z</time>
      </trkpt>
      <trkpt lat="44.03346" lon="4.55372">
        <ele>183.30841225005</ele>
        <time>2021-04-05T19:57:20.983Z</time>
      </trkpt>
      <trkpt lat="44.03353" lon="4.5538">
        <ele>183.49844253881</ele>
        <time>2021-04-05T19:57:33.012Z</time>
      </trkpt>
      <trkpt lat="44.03357" lon="4.55391">
        <ele>183.65706916828</ele>
        <time>2021-04-05T19:57:45.043Z</time>
      </trkpt>
      <trkpt lat="44.0336" lon="4.55439">
        <ele>183.78569466141</ele>
        <time>2021-04-05T19:57:57.085Z</time>
      </trkpt>
      <trkpt lat="44.03363" lon="4.55482">
        <ele>183.94434114005</ele>
        <time>2021-04-05T19:58:09.136Z</time>
      </trkpt>
      <trkpt lat="44.03365" lon="4.55494">
        <ele>184.09317508287</ele>
        <time>2021-04-05T19:58:21.190Z</time>
      </trkpt>
      <trkpt lat="44.03383" lon="4.55531">
        <ele>184.2766663952</ele>
        <time>2021-04-05T19:58:33.254Z</time>
      </trkpt>
      <trkpt lat="44.03425" lon="4.55581">
        <ele>184.35702998863</ele>
        <time>2021-04-05T19:58:45.334Z</time>
      </trkpt>
      <trkpt lat="44.0346" lon="4.55622">
        <ele>184.42804007965</ele>
        <time>2021-04-05T19:58:57.428Z</time>
      </trkpt>
      <trkpt lat="44.03509" lon="4.55658">
        <ele>184.52016797292</ele>
        <time>2021-04-05T19:59:09.538Z</time>
      </trkpt>
      <trkpt lat="44.03556" lon="4.55686">
        <ele>184.53572700806</ele>
        <time>2021-04-05T19:59:21.663Z</time>
      </trkpt>
      <trkpt lat="44.0357" lon="4.55688">
        <ele>184.57463680177</ele>
        <time>2021-04-05T19:59:33.793Z</time>
      </trkpt>
      <trkpt lat="44.03603" lon="4.55679">
        <ele>184.62041583044</ele>
        <time>2021-04-05T19:59:45.933Z</time>
      </trkpt>
      <trkpt lat="44.03653" lon="4.55653">
        <ele>184.60870600252</ele>
        <time>2021-04-05T19:59:58.089Z</time>
      </trkpt>
      <trkpt lat="44.03658" lon="4.55651">
        <ele>184.60789368904</ele>
        <time>2021-04-05T20:00:10.246Z</time>
      </trkpt>
      <trkpt lat="44.03662" lon="4.55649">
        <ele>184.59756305694</ele>
        <time>2021-04-05T20:00:22.405Z</time>
      </trkpt>
      <trkpt lat="44.03671" lon="4.55649">
        <ele>184.57136155892</ele>
        <time>2021-04-05T20:00:34.566Z</time>
      </trkpt>
      <trkpt lat="44.03679" lon="4.55653">
        <ele>184.51604802126</ele>
        <time>2021-04-05T20:00:46.730Z</time>
      </trkpt>
      <trkpt lat="44.03685" lon="4.55662">
        <ele>184.46505438167</ele>
        <time>2021-04-05T20:00:58.896Z</time>
      </trkpt>
      <trkpt lat="44.03688" lon="4.55674">
        <ele>184.40996545452</ele>
        <time>2021-04-05T20:01:11.065Z</time>
      </trkpt>
      <trkpt lat="44.03688" lon="4.55681">
        <ele>184.36684578375</ele>
        <time>2021-04-05T20:01:23.236Z</time>
      </trkpt>
      <trkpt lat="44.03689" lon="4.55695">
        <ele>184.30992615194</ele>
        <time>2021-04-05T20:01:35.410Z</time>
      </trkpt>
      <trkpt lat="44.03689" lon="4.55709">
        <ele>184.25863411199</ele>
        <time>2021-04-05T20:01:47.587Z</time>
      </trkpt>
      <trkpt lat="44.03688" lon="4.5573">
        <ele>184.21365418566</ele>
        <time>2021-04-05T20:01:59.768Z</time>
      </trkpt>
      <trkpt lat="44.03685" lon="4.5579">
        <ele>184.2685023333</ele>
        <time>2021-04-05T20:02:11.962Z</time>
      </trkpt>
      <trkpt lat="44.03685" lon="4.55798">
        <ele>184.26580060678</ele>
        <time>2021-04-05T20:02:24.158Z</time>
      </trkpt>
      <trkpt lat="44.03684" lon="4.55813">
        <ele>184.2721398373</ele>
        <time>2021-04-05T20:02:36.357Z</time>
      </trkpt>
      <trkpt lat="44.03685" lon="4.55828">
        <ele>184.22935981203</ele>
        <time>2021-04-05T20:02:48.559Z</time>
      </trkpt>
      <trkpt lat="44.03685" lon="4.55835">
        <ele>184.20007864448</ele>
        <time>2021-04-05T20:03:00.763Z</time>
      </trkpt>
      <trkpt lat="44.03686" lon="4.55842">
        <ele>184.19541011476</ele>
        <time>2021-04-05T20:03:12.968Z</time>
      </trkpt>
      <trkpt lat="44.03695" lon="4.55875">
        <ele>184.22354056754</ele>
        <time>2021-04-05T20:03:25.181Z</time>
      </trkpt>
      <trkpt lat="44.037" lon="4.55888">
        <ele>184.21909245828</ele>
        <time>2021-04-05T20:03:37.397Z</time>
      </trkpt>
      <trkpt lat="44.03719" lon="4.55928">
        <ele>184.23287283062</ele>
        <time>2021-04-05T20:03:49.624Z</time>
      </trkpt>
      <trkpt lat="44.03726" lon="4.55938">
        <ele>184.20397873545</ele>
        <time>2021-04-05T20:04:01.854Z</time>
      </trkpt>
      <trkpt lat="44.03736" lon="4.55944">
        <ele>184.17675523222</ele>
        <time>2021-04-05T20:04:14.087Z</time>
      </trkpt>
      <trkpt lat="44.03791" lon="4.55958">
        <ele>184.09629624192</ele>
        <time>2021-04-05T20:04:26.337Z</time>
      </trkpt>
      <trkpt lat="44.03801" lon="4.55961">
        <ele>184.01778604844</ele>
        <time>2021-04-05T20:04:38.590Z</time>
      </trkpt>
      <trkpt lat="44.03811" lon="4.55963">
        <ele>183.93418860307</ele>
        <time>2021-04-05T20:04:50.846Z</time>
      </trkpt>
      <trkpt lat="44.0382" lon="4.55965">
        <ele>183.85691999243</ele>
        <time>2021-04-05T20:05:03.104Z</time>
      </trkpt>
      <trkpt lat="44.03837" lon="4.55969">
        <ele>183.7565692986</ele>
        <time>2021-04-05T20:05:15.368Z</time>
      </trkpt>
      <trkpt lat="44.0388" lon="4.55979">
        <ele>183.71467607061</ele>
        <time>2021-04-05T20:05:27.645Z</time>
      </trkpt>
      <trkpt lat="44.03884" lon="4.5598">
        <ele>183.63967041432</ele>
        <time>2021-04-05T20:05:39.923Z</time>
      </trkpt>
      <trkpt lat="44.03887" lon="4.55981">
        <ele>183.55297449295</ele>
        <time>2021-04-05T20:05:52.202Z</time>
      </trkpt>
      <trkpt lat="44.03902" lon="4.55985">
        <ele>183.46101032787</ele>
        <time>2021-04-05T20:06:04.485Z</time>
      </trkpt>
      <trkpt lat="44.03921" lon="4.5599">
        <ele>183.41710905216</ele>
        <time>2021-04-05T20:06:16.774Z</time>
      </trkpt>
      <trkpt lat="44.03932" lon="4.55993">
        <ele>183.32410176895</ele>
        <time>2021-04-05T20:06:29.066Z</time>
      </trkpt>
      <trkpt lat="44.03942" lon="4.55994">
        <ele>183.20628098278</ele>
        <time>2021-04-05T20:06:41.361Z</time>
      </trkpt>
      <trkpt lat="44.03952" lon="4.55991">
        <ele>183.0567353009</ele>
        <time>2021-04-05T20:06:53.659Z</time>
      </trkpt>
      <trkpt lat="44.03955" lon="4.55989">
        <ele>182.88364691256</ele>
        <time>2021-04-05T20:07:05.958Z</time>
      </trkpt>
      <trkpt lat="44.03958" lon="4.55986">
        <ele>182.69260714596</ele>
        <time>2021-04-05T20:07:18.258Z</time>
      </trkpt>
      <trkpt lat="44.03963" lon="4.5598">
        <ele>182.45756081412</ele>
        <time>2021-04-05T20:07:30.560Z</time>
      </trkpt>
      <trkpt lat="44.03968" lon="4.55966">
        <ele>182.20027139732</ele>
        <time>2021-04-05T20:07:42.866Z</time>
      </trkpt>
      <trkpt lat="44.03977" lon="4.55934">
        <ele>181.95157450098</ele>
        <time>2021-04-05T20:07:55.179Z</time>
      </trkpt>
      <trkpt lat="44.03979" lon="4.55922">
        <ele>181.73413644164</ele>
        <time>2021-04-05T20:08:07.495Z</time>
      </trkpt>
      <trkpt lat="44.03982" lon="4.55909">
        <ele>181.49174256075</ele>
        <time>2021-04-05T20:08:19.814Z</time>
      </trkpt>
      <trkpt lat="44.03984" lon="4.55903">
        <ele>181.23307530904</ele>
        <time>2021-04-05T20:08:32.134Z</time>
      </trkpt>
      <trkpt lat="44.04008" lon="4.55854">
        <ele>180.99090358574</ele>
        <time>2021-04-05T20:08:44.467Z</time>
      </trkpt>
      <trkpt lat="44.04033" lon="4.55808">
        <ele>180.61948501779</ele>
        <time>2021-04-05T20:08:56.812Z</time>
      </trkpt>
      <trkpt lat="44.04061" lon="4.55756">
        <ele>180.16762284458</ele>
        <time>2021-04-05T20:09:09.171Z</time>
      </trkpt>
      <trkpt lat="44.04094" lon="4.55694">
        <ele>179.91689713928</ele>
        <time>2021-04-05T20:09:21.547Z</time>
      </trkpt>
      <trkpt lat="44.04097" lon="4.55689">
        <ele>179.65395953763</ele>
        <time>2021-04-05T20:09:33.924Z</time>
      </trkpt>
      <trkpt lat="44.04106" lon="4.55682">
        <ele>179.41279384417</ele>
        <time>2021-04-05T20:09:46.304Z</time>
      </trkpt>
      <trkpt lat="44.04116" lon="4.55679">
        <ele>179.20014048076</ele>
        <time>2021-04-05T20:09:58.687Z</time>
      </trkpt>
      <trkpt lat="44.04151" lon="4.55691">
        <ele>179.073805167</ele>
        <time>2021-04-05T20:10:11.081Z</time>
      </trkpt>
      <trkpt lat="44.0416" lon="4.55689">
        <ele>178.91201766202</ele>
        <time>2021-04-05T20:10:23.478Z</time>
      </trkpt>
      <trkpt lat="44.04169" lon="4.55683">
        <ele>178.76439271147</ele>
        <time>2021-04-05T20:10:35.878Z</time>
      </trkpt>
      <trkpt lat="44.04172" lon="4.55679">
        <ele>178.62560947091</ele>
        <time>2021-04-05T20:10:48.279Z</time>
      </trkpt>
      <trkpt lat="44.04176" lon="4.55674">
        <ele>178.51110583122</ele>
        <time>2021-04-05T20:11:00.682Z</time>
      </trkpt>
      <trkpt lat="44.04178" lon="4.55669">
        <ele>178.42447679797</ele>
        <time>2021-04-05T20:11:13.086Z</time>
      </trkpt>
      <trkpt lat="44.04181" lon="4.55664">
        <ele>178.367851001</ele>
        <time>2021-04-05T20:11:25.491Z</time>
      </trkpt>
      <trkpt lat="44.04183" lon="4.55659">
        <ele>178.34450912924</ele>
        <time>2021-04-05T20:11:37.898Z</time>
      </trkpt>
      <trkpt lat="44.04186" lon="4.55654">
        <ele>178.35650179749</ele>
        <time>2021-04-05T20:11:50.306Z</time>
      </trkpt>
      <trkpt lat="44.04191" lon="4.55643">
        <ele>178.40495199262</ele>
        <time>2021-04-05T20:12:02.717Z</time>
      </trkpt>
      <trkpt lat="44.04199" lon="4.55626">
        <ele>178.47405553778</ele>
        <time>2021-04-05T20:12:15.132Z</time>
      </trkpt>
      <trkpt lat="44.04218" lon="4.55597">
        <ele>178.60070696439</ele>
        <time>2021-04-05T20:12:27.555Z</time>
      </trkpt>
      <trkpt lat="44.04265" lon="4.55569">
        <ele>178.9405288212</ele>
        <time>2021-04-05T20:12:39.994Z</time>
      </trkpt>
      <trkpt lat="44.04276" lon="4.55564">
        <ele>179.17653242689</ele>
        <time>2021-04-05T20:12:52.436Z</time>
      </trkpt>
      <trkpt lat="44.04286" lon="4.55562">
        <ele>179.4709447722</ele>
        <time>2021-04-05T20:13:04.881Z</time>
      </trkpt>
      <trkpt lat="44.04304" lon="4.5562">
        <ele>179.84105091811</ele>
        <time>2021-04-05T20:13:17.340Z</time>
      </trkpt>
      <trkpt lat="44.04307" lon="4.55632">
        <ele>180.29448775547</ele>
        <time>2021-04-05T20:13:29.802Z</time>
      </trkpt>
      <trkpt lat="44.04309" lon="4.55639">
        <ele>180.79980771667</ele>
        <time>2021-04-05T20:13:42.265Z</time>
      </trkpt>
      <trkpt lat="44.04312" lon="4.55652">
        <ele>181.36092471944</ele>
        <time>2021-04-05T20:13:54.731Z</time>
      </trkpt>
      <trkpt lat="44.04314" lon="4.55659">
        <ele>181.98545299271</ele>
        <time>2021-04-05T20:14:07.199Z</time>
      </trkpt>
      <trkpt lat="44.04317" lon="4.55673">
        <ele>182.6772185502</ele>
        <time>2021-04-05T20:14:19.670Z</time>
      </trkpt>
      <trkpt lat="44.04319" lon="4.5568">
        <ele>183.43682767483</ele>
        <time>2021-04-05T20:14:32.142Z</time>
      </trkpt>
      <trkpt lat="44.04331" lon="4.55727">
        <ele>184.32330930298</ele>
        <time>2021-04-05T20:14:44.625Z</time>
      </trkpt>
      <trkpt lat="44.04334" lon="4.5574">
        <ele>185.26555953477</ele>
        <time>2021-04-05T20:14:57.111Z</time>
      </trkpt>
      <trkpt lat="44.04341" lon="4.55767">
        <ele>186.3184106316</ele>
        <time>2021-04-05T20:15:09.603Z</time>
      </trkpt>
      <trkpt lat="44.04352" lon="4.55811">
        <ele>187.49421925284</ele>
        <time>2021-04-05T20:15:22.105Z</time>
      </trkpt>
      <trkpt lat="44.04354" lon="4.55817">
        <ele>188.57758677942</ele>
        <time>2021-04-05T20:15:34.609Z</time>
      </trkpt>
      <trkpt lat="44.04355" lon="4.55823">
        <ele>189.71581133762</ele>
        <time>2021-04-05T20:15:47.114Z</time>
      </trkpt>
      <trkpt lat="44.04357" lon="4.55829">
        <ele>190.90548789308</ele>
        <time>2021-04-05T20:15:59.620Z</time>
      </trkpt>
      <trkpt lat="44.0436" lon="4.55845">
        <ele>192.15184222655</ele>
        <time>2021-04-05T20:16:12.130Z</time>
      </trkpt>
      <trkpt lat="44.04373" lon="4.5589">
        <ele>193.48106047779</ele>
        <time>2021-04-05T20:16:24.650Z</time>
      </trkpt>
      <trkpt lat="44.04376" lon="4.55894">
        <ele>194.80275669894</ele>
        <time>2021-04-05T20:16:37.172Z</time>
      </trkpt>
      <trkpt lat="44.0439" lon="4.55927">
        <ele>196.21995997571</ele>
        <time>2021-04-05T20:16:49.702Z</time>
      </trkpt>
      <trkpt lat="44.04421" lon="4.55987">
        <ele>197.71884595695</ele>
        <time>2021-04-05T20:17:02.248Z</time>
      </trkpt>
      <trkpt lat="44.04435" lon="4.56015">
        <ele>199.14398880451</ele>
        <time>2021-04-05T20:17:14.801Z</time>
      </trkpt>
      <trkpt lat="44.04459" lon="4.56062">
        <ele>200.66262467457</ele>
        <time>2021-04-05T20:17:27.367Z</time>
      </trkpt>
      <trkpt lat="44.04476" lon="4.56097">
        <ele>202.21416565208</ele>
        <time>2021-04-05T20:17:39.942Z</time>
      </trkpt>
      <trkpt lat="44.04486" lon="4.5612">
        <ele>203.67662535893</ele>
        <time>2021-04-05T20:17:52.522Z</time>
      </trkpt>
      <trkpt lat="44.0451" lon="4.56164">
        <ele>205.12309296975</ele>
        <time>2021-04-05T20:18:05.114Z</time>
      </trkpt>
      <trkpt lat="44.04543" lon="4.56229">
        <ele>206.73471024508</ele>
        <time>2021-04-05T20:18:17.723Z</time>
      </trkpt>
      <trkpt lat="44.04551" lon="4.56246">
        <ele>208.17928882389</ele>
        <time>2021-04-05T20:18:30.337Z</time>
      </trkpt>
      <trkpt lat="44.04553" lon="4.5625">
        <ele>209.51456008683</ele>
        <time>2021-04-05T20:18:42.952Z</time>
      </trkpt>
      <trkpt lat="44.04578" lon="4.56296">
        <ele>211.02199930497</ele>
        <time>2021-04-05T20:18:55.579Z</time>
      </trkpt>
      <trkpt lat="44.04584" lon="4.56308">
        <ele>212.30177767087</ele>
        <time>2021-04-05T20:19:08.209Z</time>
      </trkpt>
      <trkpt lat="44.04586" lon="4.56313">
        <ele>213.47324911573</ele>
        <time>2021-04-05T20:19:20.840Z</time>
      </trkpt>
      <trkpt lat="44.04588" lon="4.56317">
        <ele>214.57787942439</ele>
        <time>2021-04-05T20:19:33.473Z</time>
      </trkpt>
      <trkpt lat="44.04597" lon="4.56333">
        <ele>215.67839445582</ele>
        <time>2021-04-05T20:19:46.110Z</time>
      </trkpt>
      <trkpt lat="44.04626" lon="4.56391">
        <ele>216.82819263678</ele>
        <time>2021-04-05T20:19:58.762Z</time>
      </trkpt>
      <trkpt lat="44.04651" lon="4.56417">
        <ele>217.77536142394</ele>
        <time>2021-04-05T20:20:11.423Z</time>
      </trkpt>
      <trkpt lat="44.04701" lon="4.56452">
        <ele>218.57087511826</ele>
        <time>2021-04-05T20:20:24.101Z</time>
      </trkpt>
      <trkpt lat="44.04737" lon="4.56476">
        <ele>219.27070651811</ele>
        <time>2021-04-05T20:20:36.791Z</time>
      </trkpt>
      <trkpt lat="44.04749" lon="4.56485">
        <ele>219.87218309465</ele>
        <time>2021-04-05T20:20:49.485Z</time>
      </trkpt>
      <trkpt lat="44.048" lon="4.56518">
        <ele>220.31604578959</ele>
        <time>2021-04-05T20:21:02.196Z</time>
      </trkpt>
      <trkpt lat="44.04832" lon="4.56537">
        <ele>220.77078603788</ele>
        <time>2021-04-05T20:21:14.917Z</time>
      </trkpt>
      <trkpt lat="44.04876" lon="4.56569">
        <ele>221.06349180481</ele>
        <time>2021-04-05T20:21:27.653Z</time>
      </trkpt>
      <trkpt lat="44.04893" lon="4.56582">
        <ele>221.41675429632</ele>
        <time>2021-04-05T20:21:40.395Z</time>
      </trkpt>
      <trkpt lat="44.04897" lon="4.56585">
        <ele>221.77037744925</ele>
        <time>2021-04-05T20:21:53.138Z</time>
      </trkpt>
      <trkpt lat="44.04902" lon="4.56588">
        <ele>222.0974418229</ele>
        <time>2021-04-05T20:22:05.883Z</time>
      </trkpt>
      <trkpt lat="44.04906" lon="4.56591">
        <ele>222.404935983</ele>
        <time>2021-04-05T20:22:18.629Z</time>
      </trkpt>
      <trkpt lat="44.04924" lon="4.56603">
        <ele>222.69830551572</ele>
        <time>2021-04-05T20:22:31.381Z</time>
      </trkpt>
      <trkpt lat="44.04928" lon="4.56606">
        <ele>222.97862705477</ele>
        <time>2021-04-05T20:22:44.135Z</time>
      </trkpt>
      <trkpt lat="44.04976" lon="4.56639">
        <ele>223.32871171133</ele>
        <time>2021-04-05T20:22:56.905Z</time>
      </trkpt>
      <trkpt lat="44.04985" lon="4.56644">
        <ele>223.61001461527</ele>
        <time>2021-04-05T20:23:09.677Z</time>
      </trkpt>
      <trkpt lat="44.04993" lon="4.5665">
        <ele>223.90888407427</ele>
        <time>2021-04-05T20:23:22.452Z</time>
      </trkpt>
      <trkpt lat="44.05039" lon="4.56682">
        <ele>224.3692534364</ele>
        <time>2021-04-05T20:23:35.243Z</time>
      </trkpt>
      <trkpt lat="44.05089" lon="4.56716">
        <ele>224.57807210309</ele>
        <time>2021-04-05T20:23:48.050Z</time>
      </trkpt>
      <trkpt lat="44.05138" lon="4.56751">
        <ele>224.97124845093</ele>
        <time>2021-04-05T20:24:00.874Z</time>
      </trkpt>
      <trkpt lat="44.05188" lon="4.56785">
        <ele>225.27308349311</ele>
        <time>2021-04-05T20:24:13.714Z</time>
      </trkpt>
      <trkpt lat="44.05201" lon="4.56793">
        <ele>225.54455215645</ele>
        <time>2021-04-05T20:24:26.558Z</time>
      </trkpt>
      <trkpt lat="44.05209" lon="4.56799">
        <ele>225.81526557861</ele>
        <time>2021-04-05T20:24:39.405Z</time>
      </trkpt>
      <trkpt lat="44.05236" lon="4.56815">
        <ele>226.03835997212</ele>
        <time>2021-04-05T20:24:52.261Z</time>
      </trkpt>
      <trkpt lat="44.05244" lon="4.5682">
        <ele>226.30541589001</ele>
        <time>2021-04-05T20:25:05.120Z</time>
      </trkpt>
      <trkpt lat="44.05257" lon="4.56826">
        <ele>226.57109430647</ele>
        <time>2021-04-05T20:25:17.983Z</time>
      </trkpt>
      <trkpt lat="44.05279" lon="4.56835">
        <ele>226.83157297498</ele>
        <time>2021-04-05T20:25:30.853Z</time>
      </trkpt>
      <trkpt lat="44.05318" lon="4.56861">
        <ele>227.23142945673</ele>
        <time>2021-04-05T20:25:43.735Z</time>
      </trkpt>
      <trkpt lat="44.05355" lon="4.56883">
        <ele>227.57277841162</ele>
        <time>2021-04-05T20:25:56.630Z</time>
      </trkpt>
      <trkpt lat="44.05401" lon="4.56861">
        <ele>227.78550377882</ele>
        <time>2021-04-05T20:26:09.539Z</time>
      </trkpt>
      <trkpt lat="44.05443" lon="4.56864">
        <ele>228.16479969091</ele>
        <time>2021-04-05T20:26:22.461Z</time>
      </trkpt>
      <trkpt lat="44.05499" lon="4.56864">
        <ele>228.53814265907</ele>
        <time>2021-04-05T20:26:35.399Z</time>
      </trkpt>
      <trkpt lat="44.05541" lon="4.56875">
        <ele>228.88660014583</ele>
        <time>2021-04-05T20:26:48.350Z</time>
      </trkpt>
      <trkpt lat="44.05596" lon="4.56877">
        <ele>229.29424889934</ele>
        <time>2021-04-05T20:27:01.317Z</time>
      </trkpt>
      <trkpt lat="44.05651" lon="4.56877">
        <ele>229.4691391141</ele>
        <time>2021-04-05T20:27:14.301Z</time>
      </trkpt>
      <trkpt lat="44.05708" lon="4.56878">
        <ele>229.75518116939</ele>
        <time>2021-04-05T20:27:27.302Z</time>
      </trkpt>
      <trkpt lat="44.05734" lon="4.56881">
        <ele>230.08170746272</ele>
        <time>2021-04-05T20:27:40.311Z</time>
      </trkpt>
      <trkpt lat="44.05742" lon="4.56881">
        <ele>230.36575911762</ele>
        <time>2021-04-05T20:27:53.322Z</time>
      </trkpt>
      <trkpt lat="44.05746" lon="4.56882">
        <ele>230.6268133905</ele>
        <time>2021-04-05T20:28:06.334Z</time>
      </trkpt>
      <trkpt lat="44.0575" lon="4.56882">
        <ele>230.87737292579</ele>
        <time>2021-04-05T20:28:19.347Z</time>
      </trkpt>
      <trkpt lat="44.05754" lon="4.56882">
        <ele>231.11745453431</ele>
        <time>2021-04-05T20:28:32.362Z</time>
      </trkpt>
      <trkpt lat="44.05758" lon="4.56883">
        <ele>231.34685165389</ele>
        <time>2021-04-05T20:28:45.378Z</time>
      </trkpt>
      <trkpt lat="44.05761" lon="4.56883">
        <ele>231.56610077875</ele>
        <time>2021-04-05T20:28:58.395Z</time>
      </trkpt>
      <trkpt lat="44.05765" lon="4.56884">
        <ele>231.77587819157</ele>
        <time>2021-04-05T20:29:11.413Z</time>
      </trkpt>
      <trkpt lat="44.05773" lon="4.56884">
        <ele>231.94989160689</ele>
        <time>2021-04-05T20:29:24.433Z</time>
      </trkpt>
      <trkpt lat="44.0578" lon="4.56886">
        <ele>232.11440131658</ele>
        <time>2021-04-05T20:29:37.456Z</time>
      </trkpt>
      <trkpt lat="44.05783" lon="4.56889">
        <ele>232.28002995289</ele>
        <time>2021-04-05T20:29:50.480Z</time>
      </trkpt>
      <trkpt lat="44.05788" lon="4.56899">
        <ele>232.40976774922</ele>
        <time>2021-04-05T20:30:03.506Z</time>
      </trkpt>
      <trkpt lat="44.05798" lon="4.569">
        <ele>232.56712023138</ele>
        <time>2021-04-05T20:30:16.535Z</time>
      </trkpt>
      <trkpt lat="44.05821" lon="4.56902">
        <ele>232.7315198511</ele>
        <time>2021-04-05T20:30:29.571Z</time>
      </trkpt>
      <trkpt lat="44.05842" lon="4.56907">
        <ele>232.92543814197</ele>
        <time>2021-04-05T20:30:42.614Z</time>
      </trkpt>
      <trkpt lat="44.0585" lon="4.56908">
        <ele>233.10966142409</ele>
        <time>2021-04-05T20:30:55.659Z</time>
      </trkpt>
      <trkpt lat="44.05857" lon="4.56908">
        <ele>233.31508449991</ele>
        <time>2021-04-05T20:31:08.706Z</time>
      </trkpt>
      <trkpt lat="44.05872" lon="4.56908">
        <ele>233.53998188193</ele>
        <time>2021-04-05T20:31:21.757Z</time>
      </trkpt>
      <trkpt lat="44.05883" lon="4.5691">
        <ele>233.73109423266</ele>
        <time>2021-04-05T20:31:34.812Z</time>
      </trkpt>
      <trkpt lat="44.05893" lon="4.56911">
        <ele>233.92137513642</ele>
        <time>2021-04-05T20:31:47.870Z</time>
      </trkpt>
      <trkpt lat="44.05896" lon="4.56912">
        <ele>234.11713284401</ele>
        <time>2021-04-05T20:32:00.929Z</time>
      </trkpt>
      <trkpt lat="44.05907" lon="4.56914">
        <ele>234.30802850864</ele>
        <time>2021-04-05T20:32:13.991Z</time>
      </trkpt>
      <trkpt lat="44.05953" lon="4.56905">
        <ele>234.46787291743</ele>
        <time>2021-04-05T20:32:27.067Z</time>
      </trkpt>
      <trkpt lat="44.0599" lon="4.56896">
        <ele>234.65337354159</ele>
        <time>2021-04-05T20:32:40.154Z</time>
      </trkpt>
      <trkpt lat="44.06006" lon="4.56897">
        <ele>234.87818111987</ele>
        <time>2021-04-05T20:32:53.246Z</time>
      </trkpt>
      <trkpt lat="44.06018" lon="4.56901">
        <ele>235.11757498012</ele>
        <time>2021-04-05T20:33:06.342Z</time>
      </trkpt>
      <trkpt lat="44.06034" lon="4.5691">
        <ele>235.35093693965</ele>
        <time>2021-04-05T20:33:19.443Z</time>
      </trkpt>
      <trkpt lat="44.06054" lon="4.56921">
        <ele>235.61907436641</ele>
        <time>2021-04-05T20:33:32.550Z</time>
      </trkpt>
      <trkpt lat="44.06062" lon="4.56924">
        <ele>235.86725902624</ele>
        <time>2021-04-05T20:33:45.660Z</time>
      </trkpt>
      <trkpt lat="44.06091" lon="4.56928">
        <ele>236.14828238796</ele>
        <time>2021-04-05T20:33:58.778Z</time>
      </trkpt>
      <trkpt lat="44.06127" lon="4.56939">
        <ele>236.38584682505</ele>
        <time>2021-04-05T20:34:11.907Z</time>
      </trkpt>
      <trkpt lat="44.06132" lon="4.56938">
        <ele>236.59832591938</ele>
        <time>2021-04-05T20:34:25.038Z</time>
      </trkpt>
      <trkpt lat="44.06136" lon="4.56935">
        <ele>236.79664287305</ele>
        <time>2021-04-05T20:34:38.170Z</time>
      </trkpt>
      <trkpt lat="44.06141" lon="4.56931">
        <ele>236.97915184907</ele>
        <time>2021-04-05T20:34:51.304Z</time>
      </trkpt>
      <trkpt lat="44.06145" lon="4.56927">
        <ele>237.15180255713</ele>
        <time>2021-04-05T20:35:04.439Z</time>
      </trkpt>
      <trkpt lat="44.06148" lon="4.56923">
        <ele>237.29825745644</ele>
        <time>2021-04-05T20:35:17.576Z</time>
      </trkpt>
      <trkpt lat="44.06151" lon="4.56918">
        <ele>237.41323670867</ele>
        <time>2021-04-05T20:35:30.714Z</time>
      </trkpt>
      <trkpt lat="44.06159" lon="4.56911">
        <ele>237.49243996842</ele>
        <time>2021-04-05T20:35:43.855Z</time>
      </trkpt>
      <trkpt lat="44.0621" lon="4.56878">
        <ele>237.58454616494</ele>
        <time>2021-04-05T20:35:57.013Z</time>
      </trkpt>
      <trkpt lat="44.0624" lon="4.56862">
        <ele>237.59147793818</ele>
        <time>2021-04-05T20:36:10.180Z</time>
      </trkpt>
      <trkpt lat="44.06273" lon="4.56844">
        <ele>237.49934981267</ele>
        <time>2021-04-05T20:36:23.358Z</time>
      </trkpt>
      <trkpt lat="44.06277" lon="4.56841">
        <ele>237.37915162481</ele>
        <time>2021-04-05T20:36:36.537Z</time>
      </trkpt>
      <trkpt lat="44.06281" lon="4.56838">
        <ele>237.20432726871</ele>
        <time>2021-04-05T20:36:49.718Z</time>
      </trkpt>
      <trkpt lat="44.0629" lon="4.56831">
        <ele>236.97793251137</ele>
        <time>2021-04-05T20:37:02.901Z</time>
      </trkpt>
      <trkpt lat="44.06293" lon="4.56828">
        <ele>236.69294880016</ele>
        <time>2021-04-05T20:37:16.086Z</time>
      </trkpt>
      <trkpt lat="44.06305" lon="4.56817">
        <ele>236.37594931038</ele>
        <time>2021-04-05T20:37:29.275Z</time>
      </trkpt>
      <trkpt lat="44.06312" lon="4.56811">
        <ele>235.95753127885</ele>
        <time>2021-04-05T20:37:42.466Z</time>
      </trkpt>
      <trkpt lat="44.0632" lon="4.56809">
        <ele>235.46614319168</ele>
        <time>2021-04-05T20:37:55.660Z</time>
      </trkpt>
      <trkpt lat="44.06327" lon="4.5681">
        <ele>234.90704317767</ele>
        <time>2021-04-05T20:38:08.856Z</time>
      </trkpt>
      <trkpt lat="44.0634" lon="4.5681">
        <ele>234.27505438353</ele>
        <time>2021-04-05T20:38:22.056Z</time>
      </trkpt>
      <trkpt lat="44.06355" lon="4.56811">
        <ele>233.56388133792</ele>
        <time>2021-04-05T20:38:35.260Z</time>
      </trkpt>
      <trkpt lat="44.06364" lon="4.5681">
        <ele>232.80948678273</ele>
        <time>2021-04-05T20:38:48.467Z</time>
      </trkpt>
      <trkpt lat="44.06389" lon="4.56802">
        <ele>231.93981168371</ele>
        <time>2021-04-05T20:39:01.682Z</time>
      </trkpt>
      <trkpt lat="44.06406" lon="4.56797">
        <ele>231.03323077276</ele>
        <time>2021-04-05T20:39:14.902Z</time>
      </trkpt>
      <trkpt lat="44.06421" lon="4.56795">
        <ele>230.13689766712</ele>
        <time>2021-04-05T20:39:28.126Z</time>
      </trkpt>
      <trkpt lat="44.06437" lon="4.56798">
        <ele>229.18947971886</ele>
        <time>2021-04-05T20:39:41.355Z</time>
      </trkpt>
      <trkpt lat="44.06475" lon="4.56815">
        <ele>228.16914134132</ele>
        <time>2021-04-05T20:39:54.596Z</time>
      </trkpt>
      <trkpt lat="44.06529" lon="4.56842">
        <ele>226.98011956057</ele>
        <time>2021-04-05T20:40:07.854Z</time>
      </trkpt>
      <trkpt lat="44.0657" lon="4.56861">
        <ele>225.86778578463</ele>
        <time>2021-04-05T20:40:21.125Z</time>
      </trkpt>
      <trkpt lat="44.06577" lon="4.56864">
        <ele>224.85255187459</ele>
        <time>2021-04-05T20:40:34.398Z</time>
      </trkpt>
      <trkpt lat="44.06584" lon="4.56868">
        <ele>223.8298865842</ele>
        <time>2021-04-05T20:40:47.674Z</time>
      </trkpt>
      <trkpt lat="44.06599" lon="4.56876">
        <ele>222.7760064258</ele>
        <time>2021-04-05T20:41:00.954Z</time>
      </trkpt>
      <trkpt lat="44.06606" lon="4.56879">
        <ele>221.78897154796</ele>
        <time>2021-04-05T20:41:14.237Z</time>
      </trkpt>
      <trkpt lat="44.06613" lon="4.56883">
        <ele>220.8142002934</ele>
        <time>2021-04-05T20:41:27.522Z</time>
      </trkpt>
      <trkpt lat="44.06621" lon="4.56887">
        <ele>219.85425758678</ele>
        <time>2021-04-05T20:41:40.809Z</time>
      </trkpt>
      <trkpt lat="44.06655" lon="4.56905">
        <ele>218.91240329644</ele>
        <time>2021-04-05T20:41:54.107Z</time>
      </trkpt>
      <trkpt lat="44.06678" lon="4.56917">
        <ele>217.99785760109</ele>
        <time>2021-04-05T20:42:07.412Z</time>
      </trkpt>
      <trkpt lat="44.06701" lon="4.56928">
        <ele>217.08844821299</ele>
        <time>2021-04-05T20:42:20.725Z</time>
      </trkpt>
      <trkpt lat="44.06716" lon="4.56935">
        <ele>216.20006714292</ele>
        <time>2021-04-05T20:42:34.042Z</time>
      </trkpt>
      <trkpt lat="44.0672" lon="4.56938">
        <ele>215.34746594779</ele>
        <time>2021-04-05T20:42:47.361Z</time>
      </trkpt>
      <trkpt lat="44.0676" lon="4.56953">
        <ele>214.48936570301</ele>
        <time>2021-04-05T20:43:00.692Z</time>
      </trkpt>
      <trkpt lat="44.06791" lon="4.5696">
        <ele>213.66527264347</ele>
        <time>2021-04-05T20:43:14.033Z</time>
      </trkpt>
      <trkpt lat="44.06848" lon="4.5698">
        <ele>212.74687930582</ele>
        <time>2021-04-05T20:43:27.391Z</time>
      </trkpt>
      <trkpt lat="44.06867" lon="4.56987">
        <ele>211.97109027597</ele>
        <time>2021-04-05T20:43:40.755Z</time>
      </trkpt>
      <trkpt lat="44.06876" lon="4.56985">
        <ele>211.26968771253</ele>
        <time>2021-04-05T20:43:54.122Z</time>
      </trkpt>
      <trkpt lat="44.0688" lon="4.56978">
        <ele>210.63115529365</ele>
        <time>2021-04-05T20:44:07.491Z</time>
      </trkpt>
      <trkpt lat="44.06875" lon="4.56958">
        <ele>209.92451701932</ele>
        <time>2021-04-05T20:44:20.864Z</time>
      </trkpt>
      <trkpt lat="44.06868" lon="4.5695">
        <ele>209.34381204493</ele>
        <time>2021-04-05T20:44:34.240Z</time>
      </trkpt>
      <trkpt lat="44.0684" lon="4.5692">
        <ele>208.80091978564</ele>
        <time>2021-04-05T20:44:47.627Z</time>
      </trkpt>
      <trkpt lat="44.06798" lon="4.56869">
        <ele>208.26252942037</ele>
        <time>2021-04-05T20:45:01.030Z</time>
      </trkpt>
      <trkpt lat="44.06787" lon="4.56849">
        <ele>207.76891062834</ele>
        <time>2021-04-05T20:45:14.439Z</time>
      </trkpt>
      <trkpt lat="44.06783" lon="4.56826">
        <ele>207.23730213765</ele>
        <time>2021-04-05T20:45:27.853Z</time>
      </trkpt>
      <trkpt lat="44.06789" lon="4.56806">
        <ele>206.80019029099</ele>
        <time>2021-04-05T20:45:41.271Z</time>
      </trkpt>
      <trkpt lat="44.06801" lon="4.56793">
        <ele>206.3778725898</ele>
        <time>2021-04-05T20:45:54.694Z</time>
      </trkpt>
      <trkpt lat="44.06827" lon="4.56781">
        <ele>206.03901062526</ele>
        <time>2021-04-05T20:46:08.125Z</time>
      </trkpt>
      <trkpt lat="44.06833" lon="4.56779">
        <ele>205.71556901414</ele>
        <time>2021-04-05T20:46:21.558Z</time>
      </trkpt>
      <trkpt lat="44.06844" lon="4.56776">
        <ele>205.37880570735</ele>
        <time>2021-04-05T20:46:34.994Z</time>
      </trkpt>
      <trkpt lat="44.06898" lon="4.56766">
        <ele>205.21175695257</ele>
        <time>2021-04-05T20:46:48.447Z</time>
      </trkpt>
      <trkpt lat="44.06916" lon="4.56768">
        <ele>204.86788978841</ele>
        <time>2021-04-05T20:47:01.905Z</time>
      </trkpt>
      <trkpt lat="44.06936" lon="4.56772">
        <ele>204.46695634048</ele>
        <time>2021-04-05T20:47:15.369Z</time>
      </trkpt>
      <trkpt lat="44.06944" lon="4.56774">
        <ele>203.99338187463</ele>
        <time>2021-04-05T20:47:28.836Z</time>
      </trkpt>
      <trkpt lat="44.06957" lon="4.56776">
        <ele>203.45041534337</ele>
        <time>2021-04-05T20:47:42.306Z</time>
      </trkpt>
      <trkpt lat="44.06961" lon="4.56777">
        <ele>202.90650805743</ele>
        <time>2021-04-05T20:47:55.778Z</time>
      </trkpt>
      <trkpt lat="44.06971" lon="4.56777">
        <ele>202.25732443065</ele>
        <time>2021-04-05T20:48:09.253Z</time>
      </trkpt>
      <trkpt lat="44.06981" lon="4.56774">
        <ele>201.56040675453</ele>
        <time>2021-04-05T20:48:22.731Z</time>
      </trkpt>
      <trkpt lat="44.06988" lon="4.56765">
        <ele>200.84981805993</ele>
        <time>2021-04-05T20:48:36.211Z</time>
      </trkpt>
      <trkpt lat="44.06992" lon="4.56752">
        <ele>200.09681475355</ele>
        <time>2021-04-05T20:48:49.694Z</time>
      </trkpt>
      <trkpt lat="44.06995" lon="4.56739">
        <ele>199.25181099858</ele>
        <time>2021-04-05T20:49:03.180Z</time>
      </trkpt>
      <trkpt lat="44.06998" lon="4.56733">
        <ele>198.29394220183</ele>
        <time>2021-04-05T20:49:16.668Z</time>
      </trkpt>
      <trkpt lat="44.07001" lon="4.56729">
        <ele>197.24565401882</ele>
        <time>2021-04-05T20:49:30.157Z</time>
      </trkpt>
      <trkpt lat="44.07006" lon="4.56726">
        <ele>196.0899429457</ele>
        <time>2021-04-05T20:49:43.648Z</time>
      </trkpt>
      <trkpt lat="44.0701" lon="4.56724">
        <ele>194.82872040737</ele>
        <time>2021-04-05T20:49:57.140Z</time>
      </trkpt>
      <trkpt lat="44.07028" lon="4.56721">
        <ele>193.39398057841</ele>
        <time>2021-04-05T20:50:10.637Z</time>
      </trkpt>
      <trkpt lat="44.07088" lon="4.56718">
        <ele>191.50379641363</ele>
        <time>2021-04-05T20:50:24.152Z</time>
      </trkpt>
      <trkpt lat="44.07115" lon="4.56714">
        <ele>189.82956778262</ele>
        <time>2021-04-05T20:50:37.676Z</time>
      </trkpt>
      <trkpt lat="44.07145" lon="4.56703">
        <ele>188.15931731819</ele>
        <time>2021-04-05T20:50:51.209Z</time>
      </trkpt>
      <trkpt lat="44.07153" lon="4.56693">
        <ele>186.47330326541</ele>
        <time>2021-04-05T20:51:04.745Z</time>
      </trkpt>
      <trkpt lat="44.07155" lon="4.5668">
        <ele>184.65537924127</ele>
        <time>2021-04-05T20:51:18.284Z</time>
      </trkpt>
      <trkpt lat="44.07151" lon="4.56666">
        <ele>182.82385710823</ele>
        <time>2021-04-05T20:51:31.826Z</time>
      </trkpt>
      <trkpt lat="44.07118" lon="4.56618">
        <ele>180.74347827382</ele>
        <time>2021-04-05T20:51:45.382Z</time>
      </trkpt>
      <trkpt lat="44.07095" lon="4.56576">
        <ele>178.61416700698</ele>
        <time>2021-04-05T20:51:58.950Z</time>
      </trkpt>
      <trkpt lat="44.07084" lon="4.56559">
        <ele>176.64473769335</ele>
        <time>2021-04-05T20:52:12.523Z</time>
      </trkpt>
      <trkpt lat="44.07069" lon="4.56548">
        <ele>174.71364382008</ele>
        <time>2021-04-05T20:52:26.101Z</time>
      </trkpt>
      <trkpt lat="44.07054" lon="4.56541">
        <ele>172.71654252368</ele>
        <time>2021-04-05T20:52:39.684Z</time>
      </trkpt>
      <trkpt lat="44.07007" lon="4.56531">
        <ele>170.6472975084</ele>
        <time>2021-04-05T20:52:53.281Z</time>
      </trkpt>
      <trkpt lat="44.07001" lon="4.56522">
        <ele>168.47418971523</ele>
        <time>2021-04-05T20:53:06.880Z</time>
      </trkpt>
      <trkpt lat="44.0705" lon="4.56519">
        <ele>166.29939025984</ele>
        <time>2021-04-05T20:53:20.494Z</time>
      </trkpt>
      <trkpt lat="44.07104" lon="4.56527">
        <ele>163.7715666644</ele>
        <time>2021-04-05T20:53:34.124Z</time>
      </trkpt>
      <trkpt lat="44.07115" lon="4.56538">
        <ele>161.65364449125</ele>
        <time>2021-04-05T20:53:47.758Z</time>
      </trkpt>
      <trkpt lat="44.07118" lon="4.56552">
        <ele>159.68950886579</ele>
        <time>2021-04-05T20:54:01.395Z</time>
      </trkpt>
      <trkpt lat="44.07122" lon="4.56566">
        <ele>157.7526841956</ele>
        <time>2021-04-05T20:54:15.036Z</time>
      </trkpt>
      <trkpt lat="44.07131" lon="4.56577">
        <ele>155.72688871015</ele>
        <time>2021-04-05T20:54:28.680Z</time>
      </trkpt>
      <trkpt lat="44.07143" lon="4.56583">
        <ele>153.63806624514</ele>
        <time>2021-04-05T20:54:42.328Z</time>
      </trkpt>
      <trkpt lat="44.07198" lon="4.5661">
        <ele>151.05329633922</ele>
        <time>2021-04-05T20:54:55.993Z</time>
      </trkpt>
      <trkpt lat="44.07249" lon="4.56644">
        <ele>148.72210624366</ele>
        <time>2021-04-05T20:55:09.675Z</time>
      </trkpt>
      <trkpt lat="44.07278" lon="4.56684">
        <ele>146.7783189749</ele>
        <time>2021-04-05T20:55:23.370Z</time>
      </trkpt>
      <trkpt lat="44.07324" lon="4.56731">
        <ele>144.47868506801</ele>
        <time>2021-04-05T20:55:37.082Z</time>
      </trkpt>
      <trkpt lat="44.07328" lon="4.56736">
        <ele>142.62889232396</ele>
        <time>2021-04-05T20:55:50.795Z</time>
      </trkpt>
      <trkpt lat="44.0733" lon="4.56747">
        <ele>140.87508085096</ele>
        <time>2021-04-05T20:56:04.511Z</time>
      </trkpt>
      <trkpt lat="44.07327" lon="4.56757">
        <ele>139.24367011581</ele>
        <time>2021-04-05T20:56:18.229Z</time>
      </trkpt>
      <trkpt lat="44.07293" lon="4.56799">
        <ele>137.79871406101</ele>
        <time>2021-04-05T20:56:31.961Z</time>
      </trkpt>
      <trkpt lat="44.07277" lon="4.56806">
        <ele>136.3582870059</ele>
        <time>2021-04-05T20:56:45.698Z</time>
      </trkpt>
      <trkpt lat="44.07247" lon="4.56811">
        <ele>135.05356787802</ele>
        <time>2021-04-05T20:56:59.444Z</time>
      </trkpt>
      <trkpt lat="44.0724" lon="4.56818">
        <ele>133.62332467719</ele>
        <time>2021-04-05T20:57:13.192Z</time>
      </trkpt>
      <trkpt lat="44.0724" lon="4.56825">
        <ele>132.21145950752</ele>
        <time>2021-04-05T20:57:26.942Z</time>
      </trkpt>
      <trkpt lat="44.07252" lon="4.56829">
        <ele>130.82534539601</ele>
        <time>2021-04-05T20:57:40.696Z</time>
      </trkpt>
      <trkpt lat="44.07305" lon="4.56809">
        <ele>129.17582247924</ele>
        <time>2021-04-05T20:57:54.466Z</time>
      </trkpt>
      <trkpt lat="44.07341" lon="4.56751">
        <ele>127.80595075176</ele>
        <time>2021-04-05T20:58:08.252Z</time>
      </trkpt>
      <trkpt lat="44.07362" lon="4.56733">
        <ele>126.44817590267</ele>
        <time>2021-04-05T20:58:22.046Z</time>
      </trkpt>
      <trkpt lat="44.07374" lon="4.56729">
        <ele>125.29203219056</ele>
        <time>2021-04-05T20:58:35.843Z</time>
      </trkpt>
      <trkpt lat="44.07378" lon="4.5673">
        <ele>124.30461292234</ele>
        <time>2021-04-05T20:58:49.642Z</time>
      </trkpt>
      <trkpt lat="44.07423" lon="4.56773">
        <ele>123.34605057745</ele>
        <time>2021-04-05T20:59:03.457Z</time>
      </trkpt>
      <trkpt lat="44.07432" lon="4.5678">
        <ele>122.53152859393</ele>
        <time>2021-04-05T20:59:17.275Z</time>
      </trkpt>
      <trkpt lat="44.07413" lon="4.56758">
        <ele>121.84642659422</ele>
        <time>2021-04-05T20:59:31.100Z</time>
      </trkpt>
      <trkpt lat="44.07413" lon="4.56757">
        <ele>121.21363045248</ele>
        <time>2021-04-05T20:59:44.925Z</time>
      </trkpt>
      <trkpt lat="44.07413" lon="4.56757">
        <ele>120.6605229221</ele>
        <time>2021-04-05T20:59:58.751Z</time>
      </trkpt>
      <trkpt lat="44.07413" lon="4.56757">
        <ele>120.18177437983</ele>
        <time>2021-04-05T21:00:12.577Z</time>
      </trkpt>
      <trkpt lat="44.07413" lon="4.56757">
        <ele>119.77458756836</ele>
        <time>2021-04-05T21:00:26.403Z</time>
      </trkpt>
      <trkpt lat="44.07413" lon="4.56757">
        <ele>119.4350600729</ele>
        <time>2021-04-05T21:00:40.229Z</time>
      </trkpt>
      <trkpt lat="44.07413" lon="4.56757">
        <ele>119.15980639595</ele>
        <time>2021-04-05T21:00:54.055Z</time>
      </trkpt>
      <trkpt lat="44.07413" lon="4.56757">
        <ele>118.94461467972</ele>
        <time>2021-04-05T21:01:07.881Z</time>
      </trkpt>
      <trkpt lat="44.07413" lon="4.56757">
        <ele>118.78538704448</ele>
        <time>2021-04-05T21:01:21.707Z</time>
      </trkpt>
      <trkpt lat="44.07413" lon="4.56757">
        <ele>118.67801809954</ele>
        <time>2021-04-05T21:01:35.533Z</time>
      </trkpt>
      <trkpt lat="44.07413" lon="4.56757">
        <ele>118.61768403242</ele>
        <time>2021-04-05T21:01:49.359Z</time>
      </trkpt>
      <trkpt lat="44.07413" lon="4.56757">
        <ele>118.60104457526</ele>
        <time>2021-04-05T21:02:03.185Z</time>
      </trkpt>
      <trkpt lat="44.07413" lon="4.56757">
        <ele>118.62364164728</ele>
        <time>2021-04-05T21:02:17.011Z</time>
      </trkpt>
      <trkpt lat="44.07413" lon="4.56757">
        <ele>118.68158400038</ele>
        <time>2021-04-05T21:02:30.837Z</time>
      </trkpt>
      <trkpt lat="44.07413" lon="4.56757">
        <ele>118.77057413191</ele>
        <time>2021-04-05T21:02:44.663Z</time>
      </trkpt>
      <trkpt lat="44.07413" lon="4.56757">
        <ele>118.88816016047</ele>
        <time>2021-04-05T21:02:58.489Z</time>
      </trkpt>
      <trkpt lat="44.07413" lon="4.56757">
        <ele>119.03012675735</ele>
        <time>2021-04-05T21:03:12.315Z</time>
      </trkpt>
      <trkpt lat="44.07413" lon="4.56757">
        <ele>119.19302423549</ele>
        <time>2021-04-05T21:03:26.141Z</time>
      </trkpt>
      <trkpt lat="44.07413" lon="4.56757">
        <ele>119.37605366579</ele>
        <time>2021-04-05T21:03:39.967Z</time>
      </trkpt>
      <trkpt lat="44.07413" lon="4.56757">
        <ele>119.5747983452</ele>
        <time>2021-04-05T21:03:53.793Z</time>
      </trkpt>
      <trkpt lat="44.07413" lon="4.56757">
        <ele>119.78692608262</ele>
        <time>2021-04-05T21:04:07.619Z</time>
      </trkpt>
      <trkpt lat="44.07413" lon="4.56757">
        <ele>120.01080048117</ele>
        <time>2021-04-05T21:04:21.445Z</time>
      </trkpt>
      <trkpt lat="44.07413" lon="4.56757">
        <ele>120.24450160458</ele>
        <time>2021-04-05T21:04:35.271Z</time>
      </trkpt>
      <trkpt lat="44.07413" lon="4.56757">
        <ele>120.48814947004</ele>
        <time>2021-04-05T21:04:49.097Z</time>
      </trkpt>
      <trkpt lat="44.07413" lon="4.56757">
        <ele>120.73803378919</ele>
        <time>2021-04-05T21:05:02.923Z</time>
      </trkpt>
      <trkpt lat="44.07413" lon="4.56757">
        <ele>120.99350000054</ele>
        <time>2021-04-05T21:05:16.749Z</time>
      </trkpt>
      <trkpt lat="44.07414" lon="4.56757">
        <ele>121.25110961792</ele>
        <time>2021-04-05T21:05:30.575Z</time>
      </trkpt>
      <trkpt lat="44.07446" lon="4.56789">
        <ele>121.47664029599</ele>
        <time>2021-04-05T21:05:44.413Z</time>
      </trkpt>
      <trkpt lat="44.07457" lon="4.568">
        <ele>121.74487078912</ele>
        <time>2021-04-05T21:05:58.255Z</time>
      </trkpt>
      <trkpt lat="44.07477" lon="4.56817">
        <ele>122.03986199613</ele>
        <time>2021-04-05T21:06:12.104Z</time>
      </trkpt>
      <trkpt lat="44.07493" lon="4.56833">
        <ele>122.33986722786</ele>
        <time>2021-04-05T21:06:25.959Z</time>
      </trkpt>
      <trkpt lat="44.075" lon="4.56839">
        <ele>122.6234305196</ele>
        <time>2021-04-05T21:06:39.817Z</time>
      </trkpt>
      <trkpt lat="44.07518" lon="4.56857">
        <ele>122.93105967799</ele>
        <time>2021-04-05T21:06:53.681Z</time>
      </trkpt>
      <trkpt lat="44.07525" lon="4.56865">
        <ele>123.2148718167</ele>
        <time>2021-04-05T21:07:07.548Z</time>
      </trkpt>
      <trkpt lat="44.07535" lon="4.56877">
        <ele>123.48885462471</ele>
        <time>2021-04-05T21:07:21.419Z</time>
      </trkpt>
      <trkpt lat="44.07546" lon="4.5689">
        <ele>123.7634864116</ele>
        <time>2021-04-05T21:07:35.294Z</time>
      </trkpt>
      <trkpt lat="44.07553" lon="4.56898">
        <ele>124.05543520503</ele>
        <time>2021-04-05T21:07:49.172Z</time>
      </trkpt>
      <trkpt lat="44.0756" lon="4.56907">
        <ele>124.34472487785</ele>
        <time>2021-04-05T21:08:03.053Z</time>
      </trkpt>
      <trkpt lat="44.07564" lon="4.56911">
        <ele>124.61224741213</ele>
        <time>2021-04-05T21:08:16.935Z</time>
      </trkpt>
      <trkpt lat="44.07576" lon="4.56928">
        <ele>124.89450299685</ele>
        <time>2021-04-05T21:08:30.823Z</time>
      </trkpt>
      <trkpt lat="44.07584" lon="4.56934">
        <ele>125.13204882051</ele>
        <time>2021-04-05T21:08:44.713Z</time>
      </trkpt>
      <trkpt lat="44.07598" lon="4.56942">
        <ele>125.35202760117</ele>
        <time>2021-04-05T21:08:58.608Z</time>
      </trkpt>
      <trkpt lat="44.07645" lon="4.56965">
        <ele>125.49643126331</ele>
        <time>2021-04-05T21:09:12.517Z</time>
      </trkpt>
      <trkpt lat="44.07659" lon="4.5697">
        <ele>125.74541556891</ele>
        <time>2021-04-05T21:09:26.431Z</time>
      </trkpt>
      <trkpt lat="44.07663" lon="4.56973">
        <ele>125.99324098384</ele>
        <time>2021-04-05T21:09:40.346Z</time>
      </trkpt>
      <trkpt lat="44.07671" lon="4.5698">
        <ele>126.24981051999</ele>
        <time>2021-04-05T21:09:54.264Z</time>
      </trkpt>
      <trkpt lat="44.07676" lon="4.56991">
        <ele>126.49151844298</ele>
        <time>2021-04-05T21:10:08.185Z</time>
      </trkpt>
      <trkpt lat="44.0768" lon="4.57002">
        <ele>126.73020647092</ele>
        <time>2021-04-05T21:10:22.109Z</time>
      </trkpt>
      <trkpt lat="44.07687" lon="4.5702">
        <ele>126.98748907634</ele>
        <time>2021-04-05T21:10:36.037Z</time>
      </trkpt>
      <trkpt lat="44.07715" lon="4.57061">
        <ele>127.20078924563</ele>
        <time>2021-04-05T21:10:49.977Z</time>
      </trkpt>
      <trkpt lat="44.07726" lon="4.57085">
        <ele>127.37664620398</ele>
        <time>2021-04-05T21:11:03.923Z</time>
      </trkpt>
      <trkpt lat="44.07748" lon="4.57155">
        <ele>127.39167769396</ele>
        <time>2021-04-05T21:11:17.886Z</time>
      </trkpt>
      <trkpt lat="44.07761" lon="4.57228">
        <ele>127.66064724539</ele>
        <time>2021-04-05T21:11:31.865Z</time>
      </trkpt>
      <trkpt lat="44.07782" lon="4.57304">
        <ele>127.82058229153</ele>
        <time>2021-04-05T21:11:45.861Z</time>
      </trkpt>
      <trkpt lat="44.07799" lon="4.57364">
        <ele>128.08898829314</ele>
        <time>2021-04-05T21:11:59.871Z</time>
      </trkpt>
      <trkpt lat="44.07807" lon="4.57378">
        <ele>128.27360746169</ele>
        <time>2021-04-05T21:12:13.885Z</time>
      </trkpt>
      <trkpt lat="44.0781" lon="4.5739">
        <ele>128.45123080636</ele>
        <time>2021-04-05T21:12:27.902Z</time>
      </trkpt>
      <trkpt lat="44.07807" lon="4.57425">
        <ele>128.61172872495</ele>
        <time>2021-04-05T21:12:41.926Z</time>
      </trkpt>
      <trkpt lat="44.07803" lon="4.57436">
        <ele>128.72668972425</ele>
        <time>2021-04-05T21:12:55.953Z</time>
      </trkpt>
      <trkpt lat="44.07771" lon="4.57504">
        <ele>128.84852257698</ele>
        <time>2021-04-05T21:13:09.997Z</time>
      </trkpt>
      <trkpt lat="44.07746" lon="4.57571">
        <ele>129.09618369464</ele>
        <time>2021-04-05T21:13:24.058Z</time>
      </trkpt>
      <trkpt lat="44.07734" lon="4.57646">
        <ele>129.15210792405</ele>
        <time>2021-04-05T21:13:38.135Z</time>
      </trkpt>
      <trkpt lat="44.07736" lon="4.57727">
        <ele>129.06855535366</ele>
        <time>2021-04-05T21:13:52.230Z</time>
      </trkpt>
      <trkpt lat="44.07728" lon="4.57803">
        <ele>129.02457533941</ele>
        <time>2021-04-05T21:14:06.341Z</time>
      </trkpt>
      <trkpt lat="44.07726" lon="4.57824">
        <ele>128.87202399845</ele>
        <time>2021-04-05T21:14:20.457Z</time>
      </trkpt>
      <trkpt lat="44.07725" lon="4.5783">
        <ele>128.70673259608</ele>
        <time>2021-04-05T21:14:34.574Z</time>
      </trkpt>
      <trkpt lat="44.07724" lon="4.57834">
        <ele>128.49452415411</ele>
        <time>2021-04-05T21:14:48.692Z</time>
      </trkpt>
      <trkpt lat="44.07723" lon="4.57838">
        <ele>128.23152055151</ele>
        <time>2021-04-05T21:15:02.811Z</time>
      </trkpt>
      <trkpt lat="44.07723" lon="4.5784">
        <ele>127.92192068519</ele>
        <time>2021-04-05T21:15:16.930Z</time>
      </trkpt>
      <trkpt lat="44.07725" lon="4.57889">
        <ele>127.4356417742</ele>
        <time>2021-04-05T21:15:31.060Z</time>
      </trkpt>
      <trkpt lat="44.07725" lon="4.57896">
        <ele>127.03795155536</ele>
        <time>2021-04-05T21:15:45.191Z</time>
      </trkpt>
      <trkpt lat="44.07726" lon="4.57911">
        <ele>126.57509486503</ele>
        <time>2021-04-05T21:15:59.326Z</time>
      </trkpt>
      <trkpt lat="44.07727" lon="4.57919">
        <ele>126.10937120274</ele>
        <time>2021-04-05T21:16:13.462Z</time>
      </trkpt>
      <trkpt lat="44.07727" lon="4.57926">
        <ele>125.62749899069</ele>
        <time>2021-04-05T21:16:27.600Z</time>
      </trkpt>
      <trkpt lat="44.07728" lon="4.57933">
        <ele>125.11978041485</ele>
        <time>2021-04-05T21:16:41.739Z</time>
      </trkpt>
      <trkpt lat="44.07729" lon="4.58016">
        <ele>124.45482101864</ele>
        <time>2021-04-05T21:16:55.896Z</time>
      </trkpt>
      <trkpt lat="44.0773" lon="4.58096">
        <ele>123.95461891534</ele>
        <time>2021-04-05T21:17:10.070Z</time>
      </trkpt>
      <trkpt lat="44.07731" lon="4.58176">
        <ele>123.42872447621</ele>
        <time>2021-04-05T21:17:24.262Z</time>
      </trkpt>
      <trkpt lat="44.07735" lon="4.58254">
        <ele>122.87106331882</ele>
        <time>2021-04-05T21:17:38.470Z</time>
      </trkpt>
      <trkpt lat="44.0774" lon="4.58328">
        <ele>122.19752210472</ele>
        <time>2021-04-05T21:17:52.695Z</time>
      </trkpt>
      <trkpt lat="44.07743" lon="4.58363">
        <ele>121.60945103009</ele>
        <time>2021-04-05T21:18:06.927Z</time>
      </trkpt>
      <trkpt lat="44.07746" lon="4.5838">
        <ele>121.03742253257</ele>
        <time>2021-04-05T21:18:21.163Z</time>
      </trkpt>
      <trkpt lat="44.07751" lon="4.58403">
        <ele>120.45430658154</ele>
        <time>2021-04-05T21:18:35.404Z</time>
      </trkpt>
      <trkpt lat="44.07753" lon="4.58411">
        <ele>119.88511182936</ele>
        <time>2021-04-05T21:18:49.647Z</time>
      </trkpt>
      <trkpt lat="44.07757" lon="4.58434">
        <ele>119.31148101303</ele>
        <time>2021-04-05T21:19:03.895Z</time>
      </trkpt>
      <trkpt lat="44.0776" lon="4.58467">
        <ele>118.74961711464</ele>
        <time>2021-04-05T21:19:18.150Z</time>
      </trkpt>
      <trkpt lat="44.0776" lon="4.58483">
        <ele>118.22152227221</ele>
        <time>2021-04-05T21:19:32.409Z</time>
      </trkpt>
      <trkpt lat="44.07766" lon="4.58494">
        <ele>117.67812795668</ele>
        <time>2021-04-05T21:19:46.671Z</time>
      </trkpt>
      <trkpt lat="44.0778" lon="4.58502">
        <ele>117.13893892032</ele>
        <time>2021-04-05T21:20:00.937Z</time>
      </trkpt>
      <trkpt lat="44.07835" lon="4.58512">
        <ele>116.54590750728</ele>
        <time>2021-04-05T21:20:15.220Z</time>
      </trkpt>
      <trkpt lat="44.07869" lon="4.58511">
        <ele>116.01842937905</ele>
        <time>2021-04-05T21:20:29.513Z</time>
      </trkpt>
      <trkpt lat="44.07883" lon="4.58503">
        <ele>115.55945095985</ele>
        <time>2021-04-05T21:20:43.810Z</time>
      </trkpt>
      <trkpt lat="44.07896" lon="4.58493">
        <ele>115.1255403653</ele>
        <time>2021-04-05T21:20:58.112Z</time>
      </trkpt>
      <trkpt lat="44.079" lon="4.5849">
        <ele>114.71223166731</ele>
        <time>2021-04-05T21:21:12.415Z</time>
      </trkpt>
      <trkpt lat="44.07905" lon="4.58488">
        <ele>114.3236348349</ele>
        <time>2021-04-05T21:21:26.720Z</time>
      </trkpt>
      <trkpt lat="44.07914" lon="4.58493">
        <ele>113.94628427383</ele>
        <time>2021-04-05T21:21:41.027Z</time>
      </trkpt>
      <trkpt lat="44.07918" lon="4.58505">
        <ele>113.609127924</ele>
        <time>2021-04-05T21:21:55.337Z</time>
      </trkpt>
      <trkpt lat="44.07927" lon="4.58585">
        <ele>113.27869138484</ele>
        <time>2021-04-05T21:22:09.665Z</time>
      </trkpt>
      <trkpt lat="44.07929" lon="4.58617">
        <ele>113.02739340553</ele>
        <time>2021-04-05T21:22:24.000Z</time>
      </trkpt>
      <trkpt lat="44.07929" lon="4.58632">
        <ele>112.81096625717</ele>
        <time>2021-04-05T21:22:38.338Z</time>
      </trkpt>
      <trkpt lat="44.07929" lon="4.5864">
        <ele>112.63355026691</ele>
        <time>2021-04-05T21:22:52.678Z</time>
      </trkpt>
      <trkpt lat="44.07929" lon="4.58656">
        <ele>112.49821768769</ele>
        <time>2021-04-05T21:23:07.021Z</time>
      </trkpt>
      <trkpt lat="44.07929" lon="4.58664">
        <ele>112.40873590946</ele>
        <time>2021-04-05T21:23:21.366Z</time>
      </trkpt>
      <trkpt lat="44.07931" lon="4.58677">
        <ele>112.37421116618</ele>
        <time>2021-04-05T21:23:35.714Z</time>
      </trkpt>
      <trkpt lat="44.07934" lon="4.5869">
        <ele>112.38412494883</ele>
        <time>2021-04-05T21:23:50.065Z</time>
      </trkpt>
      <trkpt lat="44.07953" lon="4.5876">
        <ele>112.36485093922</ele>
        <time>2021-04-05T21:24:04.432Z</time>
      </trkpt>
      <trkpt lat="44.07957" lon="4.58766">
        <ele>112.50093071956</ele>
        <time>2021-04-05T21:24:18.801Z</time>
      </trkpt>
      <trkpt lat="44.07962" lon="4.58771">
        <ele>112.69827609283</ele>
        <time>2021-04-05T21:24:33.171Z</time>
      </trkpt>
      <trkpt lat="44.07966" lon="4.58775">
        <ele>112.95605684817</ele>
        <time>2021-04-05T21:24:47.543Z</time>
      </trkpt>
      <trkpt lat="44.07979" lon="4.58775">
        <ele>113.28573147023</ele>
        <time>2021-04-05T21:25:01.919Z</time>
      </trkpt>
      <trkpt lat="44.08021" lon="4.58775">
        <ele>113.73775856166</ele>
        <time>2021-04-05T21:25:16.307Z</time>
      </trkpt>
      <trkpt lat="44.08038" lon="4.58776">
        <ele>114.20610969609</ele>
        <time>2021-04-05T21:25:30.700Z</time>
      </trkpt>
      <trkpt lat="44.08072" lon="4.5878">
        <ele>114.7013960787</ele>
        <time>2021-04-05T21:25:45.104Z</time>
      </trkpt>
      <trkpt lat="44.08077" lon="4.58782">
        <ele>115.266424362</ele>
        <time>2021-04-05T21:25:59.509Z</time>
      </trkpt>
      <trkpt lat="44.08082" lon="4.58785">
        <ele>115.88092156333</ele>
        <time>2021-04-05T21:26:13.916Z</time>
      </trkpt>
      <trkpt lat="44.08087" lon="4.58789">
        <ele>116.54047244187</ele>
        <time>2021-04-05T21:26:28.324Z</time>
      </trkpt>
      <trkpt lat="44.08091" lon="4.58794">
        <ele>117.24142243146</ele>
        <time>2021-04-05T21:26:42.734Z</time>
      </trkpt>
      <trkpt lat="44.08096" lon="4.58798">
        <ele>117.97847107335</ele>
        <time>2021-04-05T21:26:57.146Z</time>
      </trkpt>
      <trkpt lat="44.08101" lon="4.58801">
        <ele>118.7479654451</ele>
        <time>2021-04-05T21:27:11.559Z</time>
      </trkpt>
      <trkpt lat="44.08107" lon="4.58803">
        <ele>119.54480896011</ele>
        <time>2021-04-05T21:27:25.974Z</time>
      </trkpt>
      <trkpt lat="44.08117" lon="4.58804">
        <ele>120.36824288006</ele>
        <time>2021-04-05T21:27:40.392Z</time>
      </trkpt>
      <trkpt lat="44.08135" lon="4.58799">
        <ele>121.20097960228</ele>
        <time>2021-04-05T21:27:54.816Z</time>
      </trkpt>
      <trkpt lat="44.08148" lon="4.58796">
        <ele>121.99020785796</ele>
        <time>2021-04-05T21:28:09.244Z</time>
      </trkpt>
      <trkpt lat="44.08151" lon="4.58795">
        <ele>122.67454748407</ele>
        <time>2021-04-05T21:28:23.673Z</time>
      </trkpt>
      <trkpt lat="44.08158" lon="4.58795">
        <ele>123.32859041808</ele>
        <time>2021-04-05T21:28:38.104Z</time>
      </trkpt>
      <trkpt lat="44.08161" lon="4.58796">
        <ele>123.86863002805</ele>
        <time>2021-04-05T21:28:52.536Z</time>
      </trkpt>
      <trkpt lat="44.08167" lon="4.58814">
        <ele>124.34324928142</ele>
        <time>2021-04-05T21:29:06.972Z</time>
      </trkpt>
      <trkpt lat="44.08164" lon="4.58854">
        <ele>124.74274838766</ele>
        <time>2021-04-05T21:29:21.417Z</time>
      </trkpt>
      <trkpt lat="44.08162" lon="4.5889">
        <ele>125.04070606349</ele>
        <time>2021-04-05T21:29:35.869Z</time>
      </trkpt>
      <trkpt lat="44.08162" lon="4.58913">
        <ele>125.19512315754</ele>
        <time>2021-04-05T21:29:50.326Z</time>
      </trkpt>
      <trkpt lat="44.08157" lon="4.58941">
        <ele>125.16579537361</ele>
        <time>2021-04-05T21:30:04.789Z</time>
      </trkpt>
      <trkpt lat="44.08151" lon="4.5895">
        <ele>124.96460748371</ele>
        <time>2021-04-05T21:30:19.255Z</time>
      </trkpt>
      <trkpt lat="44.08137" lon="4.58965">
        <ele>124.58561503925</ele>
        <time>2021-04-05T21:30:33.727Z</time>
      </trkpt>
      <trkpt lat="44.08131" lon="4.58974">
        <ele>124.28295549183</ele>
        <time>2021-04-05T21:30:48.201Z</time>
      </trkpt>
      <trkpt lat="44.08131" lon="4.58975">
        <ele>123.91868682826</ele>
        <time>2021-04-05T21:31:02.675Z</time>
      </trkpt>
      <trkpt lat="44.08124" lon="4.58991">
        <ele>123.33288266902</ele>
        <time>2021-04-05T21:31:17.153Z</time>
      </trkpt>
      <trkpt lat="44.08122" lon="4.58998">
        <ele>122.76349751923</ele>
        <time>2021-04-05T21:31:31.633Z</time>
      </trkpt>
      <trkpt lat="44.0812" lon="4.59002">
        <ele>122.14701041659</ele>
        <time>2021-04-05T21:31:46.114Z</time>
      </trkpt>
      <trkpt lat="44.0812" lon="4.59006">
        <ele>121.41563263095</ele>
        <time>2021-04-05T21:32:00.596Z</time>
      </trkpt>
      <trkpt lat="44.08119" lon="4.59008">
        <ele>120.60058868448</ele>
        <time>2021-04-05T21:32:15.078Z</time>
      </trkpt>
      <trkpt lat="44.08118" lon="4.59011">
        <ele>119.6997682817</ele>
        <time>2021-04-05T21:32:29.561Z</time>
      </trkpt>
      <trkpt lat="44.08114" lon="4.59022">
        <ele>118.67194818874</ele>
        <time>2021-04-05T21:32:44.047Z</time>
      </trkpt>
      <trkpt lat="44.08114" lon="4.59024">
        <ele>117.67772024653</ele>
        <time>2021-04-05T21:32:58.533Z</time>
      </trkpt>
      <trkpt lat="44.08112" lon="4.59034">
        <ele>116.58055638746</ele>
        <time>2021-04-05T21:33:13.021Z</time>
      </trkpt>
      <trkpt lat="44.08112" lon="4.59051">
        <ele>115.44772462151</ele>
        <time>2021-04-05T21:33:27.513Z</time>
      </trkpt>
      <trkpt lat="44.0811" lon="4.59071">
        <ele>114.3800629979</ele>
        <time>2021-04-05T21:33:42.009Z</time>
      </trkpt>
      <trkpt lat="44.08124" lon="4.59098">
        <ele>113.42419521636</ele>
        <time>2021-04-05T21:33:56.512Z</time>
      </trkpt>
      <trkpt lat="44.0814" lon="4.59106">
        <ele>112.63842295177</ele>
        <time>2021-04-05T21:34:11.021Z</time>
      </trkpt>
      <trkpt lat="44.08196" lon="4.59137">
        <ele>111.86954803383</ele>
        <time>2021-04-05T21:34:25.548Z</time>
      </trkpt>
      <trkpt lat="44.08248" lon="4.59161">
        <ele>111.26314452826</ele>
        <time>2021-04-05T21:34:40.091Z</time>
      </trkpt>
      <trkpt lat="44.08255" lon="4.59152">
        <ele>110.88475947172</ele>
        <time>2021-04-05T21:34:54.637Z</time>
      </trkpt>
      <trkpt lat="44.08258" lon="4.59146">
        <ele>110.5486557382</ele>
        <time>2021-04-05T21:35:09.184Z</time>
      </trkpt>
      <trkpt lat="44.08266" lon="4.59102">
        <ele>110.40667007769</ele>
        <time>2021-04-05T21:35:23.741Z</time>
      </trkpt>
      <trkpt lat="44.08264" lon="4.591">
        <ele>110.0875662303</ele>
        <time>2021-04-05T21:35:38.299Z</time>
      </trkpt>
      <trkpt lat="44.08264" lon="4.59097">
        <ele>109.7865840501</ele>
        <time>2021-04-05T21:35:52.857Z</time>
      </trkpt>
      <trkpt lat="44.08262" lon="4.59096">
        <ele>109.50940058068</ele>
        <time>2021-04-05T21:36:07.416Z</time>
      </trkpt>
      <trkpt lat="44.0826" lon="4.59095">
        <ele>109.25308441741</ele>
        <time>2021-04-05T21:36:21.975Z</time>
      </trkpt>
      <trkpt lat="44.0826" lon="4.59096">
        <ele>108.99340423362</ele>
        <time>2021-04-05T21:36:36.535Z</time>
      </trkpt>
      <trkpt lat="44.0826" lon="4.59099">
        <ele>108.76671652929</ele>
        <time>2021-04-05T21:36:51.095Z</time>
      </trkpt>
      <trkpt lat="44.08261" lon="4.59098">
        <ele>108.61533544908</ele>
        <time>2021-04-05T21:37:05.655Z</time>
      </trkpt>
      <trkpt lat="44.08259" lon="4.59098">
        <ele>108.51068247225</ele>
        <time>2021-04-05T21:37:20.216Z</time>
      </trkpt>
      <trkpt lat="44.08258" lon="4.59096">
        <ele>108.40287434062</ele>
        <time>2021-04-05T21:37:34.777Z</time>
      </trkpt>
      <trkpt lat="44.08258" lon="4.59097">
        <ele>108.26579974247</ele>
        <time>2021-04-05T21:37:49.338Z</time>
      </trkpt>
      <trkpt lat="44.0826" lon="4.59097">
        <ele>108.14771181221</ele>
        <time>2021-04-05T21:38:03.900Z</time>
      </trkpt>
      <trkpt lat="44.08262" lon="4.59096">
        <ele>108.07621027459</ele>
        <time>2021-04-05T21:38:18.463Z</time>
      </trkpt>
      <trkpt lat="44.08263" lon="4.59097">
        <ele>108.02528187012</ele>
        <time>2021-04-05T21:38:33.026Z</time>
      </trkpt>
    </trkseg>
  </trk>
</gpx>